<?xml version="1.0" encoding="UTF-8" standalone="no" ?>
<gpx xmlns="http://www.topografix.com/GPX/1/1" xmlns:xsi="http://www.w3.org/2001/XMLSchema-instance" xsi:schemaLocation="http://www.topografix.com/GPX/1/1 http://www.topografix.com/GPX/1/1/gpx.xsd" version="1.1" creator="VisuGPX - https://www.visugpx.com">
  <metadata>
    <name>Vosges du Nord 2025-05-10 J4</name>
  </metadata>
  <trk>
    <name><![CDATA[10 mai 2025 à 06:46:06]]></name>
    <extensions>
      <line xmlns="http://www.topografix.com/GPX/gpx_style/0/2">
        <color>0000FF</color>
        <width>4</width>
      </line>
    </extensions>
    <trkseg>
      <trkpt lat="49.04595" lon="7.77325">
        <ele>332</ele>
        <time>2025-05-10T04:46:07.000Z</time>
      </trkpt>
      <trkpt lat="49.04595" lon="7.77323">
        <ele>332</ele>
        <time>2025-05-10T04:46:08.000Z</time>
      </trkpt>
      <trkpt lat="49.04584" lon="7.77338">
        <ele>332</ele>
        <time>2025-05-10T04:46:20.000Z</time>
      </trkpt>
      <trkpt lat="49.0458" lon="7.77338">
        <ele>333</ele>
        <time>2025-05-10T04:46:24.000Z</time>
      </trkpt>
      <trkpt lat="49.04575" lon="7.77348">
        <ele>333</ele>
        <time>2025-05-10T04:46:28.000Z</time>
      </trkpt>
      <trkpt lat="49.0457" lon="7.77347">
        <ele>333</ele>
        <time>2025-05-10T04:46:32.000Z</time>
      </trkpt>
      <trkpt lat="49.04565" lon="7.77344">
        <ele>333</ele>
        <time>2025-05-10T04:46:37.000Z</time>
      </trkpt>
      <trkpt lat="49.04557" lon="7.77325">
        <ele>334</ele>
        <time>2025-05-10T04:46:49.000Z</time>
      </trkpt>
      <trkpt lat="49.04551" lon="7.77306">
        <ele>336</ele>
        <time>2025-05-10T04:47:01.000Z</time>
      </trkpt>
      <trkpt lat="49.04547" lon="7.77301">
        <ele>337</ele>
        <time>2025-05-10T04:47:05.000Z</time>
      </trkpt>
      <trkpt lat="49.04538" lon="7.77275">
        <ele>339</ele>
        <time>2025-05-10T04:47:23.000Z</time>
      </trkpt>
      <trkpt lat="49.04535" lon="7.77254">
        <ele>342</ele>
        <time>2025-05-10T04:47:37.000Z</time>
      </trkpt>
      <trkpt lat="49.04536" lon="7.77236">
        <ele>344</ele>
        <time>2025-05-10T04:47:47.000Z</time>
      </trkpt>
      <trkpt lat="49.04534" lon="7.77246">
        <ele>344</ele>
        <time>2025-05-10T04:48:15.000Z</time>
      </trkpt>
      <trkpt lat="49.04535" lon="7.77254">
        <ele>344</ele>
        <time>2025-05-10T04:48:19.000Z</time>
      </trkpt>
      <trkpt lat="49.04535" lon="7.77262">
        <ele>343</ele>
        <time>2025-05-10T04:48:24.000Z</time>
      </trkpt>
      <trkpt lat="49.04547" lon="7.77295">
        <ele>340</ele>
        <time>2025-05-10T04:48:46.000Z</time>
      </trkpt>
      <trkpt lat="49.04558" lon="7.77314">
        <ele>338</ele>
        <time>2025-05-10T04:49:00.000Z</time>
      </trkpt>
      <trkpt lat="49.04558" lon="7.77321">
        <ele>337</ele>
        <time>2025-05-10T04:49:04.000Z</time>
      </trkpt>
      <trkpt lat="49.04558" lon="7.77329">
        <ele>337</ele>
        <time>2025-05-10T04:49:09.000Z</time>
      </trkpt>
      <trkpt lat="49.04553" lon="7.77334">
        <ele>336</ele>
        <time>2025-05-10T04:49:14.000Z</time>
      </trkpt>
      <trkpt lat="49.04515" lon="7.77336">
        <ele>333</ele>
        <time>2025-05-10T04:49:52.000Z</time>
      </trkpt>
      <trkpt lat="49.04475" lon="7.77337">
        <ele>330</ele>
        <time>2025-05-10T04:50:29.000Z</time>
      </trkpt>
      <trkpt lat="49.04465" lon="7.77335">
        <ele>330</ele>
        <time>2025-05-10T04:50:38.000Z</time>
      </trkpt>
      <trkpt lat="49.04433" lon="7.77313">
        <ele>327</ele>
        <time>2025-05-10T04:51:10.000Z</time>
      </trkpt>
      <trkpt lat="49.04403" lon="7.77294">
        <ele>323</ele>
        <time>2025-05-10T04:51:43.000Z</time>
      </trkpt>
      <trkpt lat="49.04392" lon="7.77291">
        <ele>321</ele>
        <time>2025-05-10T04:51:57.000Z</time>
      </trkpt>
      <trkpt lat="49.04385" lon="7.77291">
        <ele>320</ele>
        <time>2025-05-10T04:52:04.000Z</time>
      </trkpt>
      <trkpt lat="49.04373" lon="7.773">
        <ele>318</ele>
        <time>2025-05-10T04:52:27.000Z</time>
      </trkpt>
      <trkpt lat="49.04358" lon="7.77301">
        <ele>316</ele>
        <time>2025-05-10T04:52:39.000Z</time>
      </trkpt>
      <trkpt lat="49.04353" lon="7.773">
        <ele>316</ele>
        <time>2025-05-10T04:52:43.000Z</time>
      </trkpt>
      <trkpt lat="49.04349" lon="7.77296">
        <ele>316</ele>
        <time>2025-05-10T04:52:47.000Z</time>
      </trkpt>
      <trkpt lat="49.04337" lon="7.7728">
        <ele>313</ele>
        <time>2025-05-10T04:53:00.000Z</time>
      </trkpt>
      <trkpt lat="49.04334" lon="7.77277">
        <ele>312</ele>
        <time>2025-05-10T04:53:04.000Z</time>
      </trkpt>
      <trkpt lat="49.0433" lon="7.77273">
        <ele>312</ele>
        <time>2025-05-10T04:53:07.000Z</time>
      </trkpt>
      <trkpt lat="49.04299" lon="7.77236">
        <ele>307</ele>
        <time>2025-05-10T04:53:40.000Z</time>
      </trkpt>
      <trkpt lat="49.04288" lon="7.77223">
        <ele>303</ele>
        <time>2025-05-10T04:53:51.000Z</time>
      </trkpt>
      <trkpt lat="49.04283" lon="7.77217">
        <ele>303</ele>
        <time>2025-05-10T04:53:56.000Z</time>
      </trkpt>
      <trkpt lat="49.04263" lon="7.77191">
        <ele>300</ele>
        <time>2025-05-10T04:54:15.000Z</time>
      </trkpt>
      <trkpt lat="49.04256" lon="7.77181">
        <ele>300</ele>
        <time>2025-05-10T04:54:26.000Z</time>
      </trkpt>
      <trkpt lat="49.04252" lon="7.77176">
        <ele>299</ele>
        <time>2025-05-10T04:54:32.000Z</time>
      </trkpt>
      <trkpt lat="49.04248" lon="7.77171">
        <ele>297</ele>
        <time>2025-05-10T04:54:36.000Z</time>
      </trkpt>
      <trkpt lat="49.04245" lon="7.77167">
        <ele>299</ele>
        <time>2025-05-10T04:54:39.000Z</time>
      </trkpt>
      <trkpt lat="49.04241" lon="7.7716">
        <ele>298</ele>
        <time>2025-05-10T04:54:45.000Z</time>
      </trkpt>
      <trkpt lat="49.04234" lon="7.77149">
        <ele>297</ele>
        <time>2025-05-10T04:54:52.000Z</time>
      </trkpt>
      <trkpt lat="49.04235" lon="7.77135">
        <ele>296</ele>
        <time>2025-05-10T04:54:57.000Z</time>
      </trkpt>
      <trkpt lat="49.04228" lon="7.77109">
        <ele>290</ele>
        <time>2025-05-10T04:55:15.000Z</time>
      </trkpt>
      <trkpt lat="49.04218" lon="7.77102">
        <ele>288</ele>
        <time>2025-05-10T04:55:21.000Z</time>
      </trkpt>
      <trkpt lat="49.04215" lon="7.77093">
        <ele>286</ele>
        <time>2025-05-10T04:55:26.000Z</time>
      </trkpt>
      <trkpt lat="49.04226" lon="7.77081">
        <ele>286</ele>
        <time>2025-05-10T04:55:29.000Z</time>
      </trkpt>
      <trkpt lat="49.04225" lon="7.77076">
        <ele>285</ele>
        <time>2025-05-10T04:55:31.000Z</time>
      </trkpt>
      <trkpt lat="49.04224" lon="7.7706">
        <ele>282</ele>
        <time>2025-05-10T04:55:41.000Z</time>
      </trkpt>
      <trkpt lat="49.04222" lon="7.77054">
        <ele>281</ele>
        <time>2025-05-10T04:55:45.000Z</time>
      </trkpt>
      <trkpt lat="49.04218" lon="7.77042">
        <ele>280</ele>
        <time>2025-05-10T04:55:51.000Z</time>
      </trkpt>
      <trkpt lat="49.04215" lon="7.77037">
        <ele>278</ele>
        <time>2025-05-10T04:55:55.000Z</time>
      </trkpt>
      <trkpt lat="49.0421" lon="7.77034">
        <ele>278</ele>
        <time>2025-05-10T04:56:00.000Z</time>
      </trkpt>
      <trkpt lat="49.04201" lon="7.77007">
        <ele>273</ele>
        <time>2025-05-10T04:56:13.000Z</time>
      </trkpt>
      <trkpt lat="49.0419" lon="7.76993">
        <ele>270</ele>
        <time>2025-05-10T04:56:24.000Z</time>
      </trkpt>
      <trkpt lat="49.04193" lon="7.76955">
        <ele>266</ele>
        <time>2025-05-10T04:56:39.000Z</time>
      </trkpt>
      <trkpt lat="49.04191" lon="7.76949">
        <ele>265</ele>
        <time>2025-05-10T04:56:43.000Z</time>
      </trkpt>
      <trkpt lat="49.04166" lon="7.76893">
        <ele>256</ele>
        <time>2025-05-10T04:57:19.000Z</time>
      </trkpt>
      <trkpt lat="49.04163" lon="7.76887">
        <ele>256</ele>
        <time>2025-05-10T04:57:22.000Z</time>
      </trkpt>
      <trkpt lat="49.0416" lon="7.76881">
        <ele>255</ele>
        <time>2025-05-10T04:57:25.000Z</time>
      </trkpt>
      <trkpt lat="49.04136" lon="7.76836">
        <ele>250</ele>
        <time>2025-05-10T04:57:56.000Z</time>
      </trkpt>
      <trkpt lat="49.04108" lon="7.76777">
        <ele>243</ele>
        <time>2025-05-10T04:58:30.000Z</time>
      </trkpt>
      <trkpt lat="49.04097" lon="7.76752">
        <ele>241</ele>
        <time>2025-05-10T04:58:45.000Z</time>
      </trkpt>
      <trkpt lat="49.04079" lon="7.76715">
        <ele>237</ele>
        <time>2025-05-10T04:59:08.000Z</time>
      </trkpt>
      <trkpt lat="49.04051" lon="7.76676">
        <ele>232</ele>
        <time>2025-05-10T04:59:32.000Z</time>
      </trkpt>
      <trkpt lat="49.04017" lon="7.76641">
        <ele>225</ele>
        <time>2025-05-10T05:00:05.000Z</time>
      </trkpt>
      <trkpt lat="49.03999" lon="7.76626">
        <ele>224</ele>
        <time>2025-05-10T05:00:18.000Z</time>
      </trkpt>
      <trkpt lat="49.0399" lon="7.76621">
        <ele>223</ele>
        <time>2025-05-10T05:00:25.000Z</time>
      </trkpt>
      <trkpt lat="49.03983" lon="7.7662">
        <ele>222</ele>
        <time>2025-05-10T05:00:30.000Z</time>
      </trkpt>
      <trkpt lat="49.03977" lon="7.76616">
        <ele>221</ele>
        <time>2025-05-10T05:00:37.000Z</time>
      </trkpt>
      <trkpt lat="49.03972" lon="7.7662">
        <ele>220</ele>
        <time>2025-05-10T05:00:40.000Z</time>
      </trkpt>
      <trkpt lat="49.03964" lon="7.76626">
        <ele>219</ele>
        <time>2025-05-10T05:00:45.000Z</time>
      </trkpt>
      <trkpt lat="49.0396" lon="7.76628">
        <ele>219</ele>
        <time>2025-05-10T05:00:48.000Z</time>
      </trkpt>
      <trkpt lat="49.03954" lon="7.76628">
        <ele>218</ele>
        <time>2025-05-10T05:00:51.000Z</time>
      </trkpt>
      <trkpt lat="49.03949" lon="7.76628">
        <ele>217</ele>
        <time>2025-05-10T05:00:55.000Z</time>
      </trkpt>
      <trkpt lat="49.03942" lon="7.76632">
        <ele>216</ele>
        <time>2025-05-10T05:01:02.000Z</time>
      </trkpt>
      <trkpt lat="49.03937" lon="7.76628">
        <ele>215</ele>
        <time>2025-05-10T05:01:05.000Z</time>
      </trkpt>
      <trkpt lat="49.03924" lon="7.76626">
        <ele>213</ele>
        <time>2025-05-10T05:01:16.000Z</time>
      </trkpt>
      <trkpt lat="49.03896" lon="7.76606">
        <ele>208</ele>
        <time>2025-05-10T05:01:41.000Z</time>
      </trkpt>
      <trkpt lat="49.03893" lon="7.76599">
        <ele>207</ele>
        <time>2025-05-10T05:01:46.000Z</time>
      </trkpt>
      <trkpt lat="49.03893" lon="7.76576">
        <ele>207</ele>
        <time>2025-05-10T05:01:53.000Z</time>
      </trkpt>
      <trkpt lat="49.03873" lon="7.7653">
        <ele>205</ele>
        <time>2025-05-10T05:02:18.000Z</time>
      </trkpt>
      <trkpt lat="49.03864" lon="7.76519">
        <ele>204</ele>
        <time>2025-05-10T05:02:24.000Z</time>
      </trkpt>
      <trkpt lat="49.03857" lon="7.7651">
        <ele>204</ele>
        <time>2025-05-10T05:02:30.000Z</time>
      </trkpt>
      <trkpt lat="49.03853" lon="7.76507">
        <ele>205</ele>
        <time>2025-05-10T05:02:37.000Z</time>
      </trkpt>
      <trkpt lat="49.03842" lon="7.76501">
        <ele>205</ele>
        <time>2025-05-10T05:02:47.000Z</time>
      </trkpt>
      <trkpt lat="49.03836" lon="7.76503">
        <ele>205</ele>
        <time>2025-05-10T05:02:56.000Z</time>
      </trkpt>
      <trkpt lat="49.03817" lon="7.76505">
        <ele>209</ele>
        <time>2025-05-10T05:03:11.000Z</time>
      </trkpt>
      <trkpt lat="49.03811" lon="7.76509">
        <ele>209</ele>
        <time>2025-05-10T05:03:14.000Z</time>
      </trkpt>
      <trkpt lat="49.03807" lon="7.76507">
        <ele>210</ele>
        <time>2025-05-10T05:03:17.000Z</time>
      </trkpt>
      <trkpt lat="49.03802" lon="7.76502">
        <ele>210</ele>
        <time>2025-05-10T05:03:21.000Z</time>
      </trkpt>
      <trkpt lat="49.03794" lon="7.76497">
        <ele>211</ele>
        <time>2025-05-10T05:03:30.000Z</time>
      </trkpt>
      <trkpt lat="49.0379" lon="7.76491">
        <ele>212</ele>
        <time>2025-05-10T05:03:33.000Z</time>
      </trkpt>
      <trkpt lat="49.03775" lon="7.76463">
        <ele>216</ele>
        <time>2025-05-10T05:03:51.000Z</time>
      </trkpt>
      <trkpt lat="49.03766" lon="7.76434">
        <ele>220</ele>
        <time>2025-05-10T05:04:10.000Z</time>
      </trkpt>
      <trkpt lat="49.03752" lon="7.76368">
        <ele>230</ele>
        <time>2025-05-10T05:04:51.000Z</time>
      </trkpt>
      <trkpt lat="49.0375" lon="7.76361">
        <ele>233</ele>
        <time>2025-05-10T05:05:07.000Z</time>
      </trkpt>
      <trkpt lat="49.03738" lon="7.76313">
        <ele>242</ele>
        <time>2025-05-10T05:05:39.000Z</time>
      </trkpt>
      <trkpt lat="49.0372" lon="7.76273">
        <ele>251</ele>
        <time>2025-05-10T05:06:13.000Z</time>
      </trkpt>
      <trkpt lat="49.03701" lon="7.76248">
        <ele>255</ele>
        <time>2025-05-10T05:06:32.000Z</time>
      </trkpt>
      <trkpt lat="49.03696" lon="7.76246">
        <ele>258</ele>
        <time>2025-05-10T05:06:41.000Z</time>
      </trkpt>
      <trkpt lat="49.03688" lon="7.76235">
        <ele>261</ele>
        <time>2025-05-10T05:06:55.000Z</time>
      </trkpt>
      <trkpt lat="49.03686" lon="7.76218">
        <ele>263</ele>
        <time>2025-05-10T05:07:05.000Z</time>
      </trkpt>
      <trkpt lat="49.03682" lon="7.76222">
        <ele>264</ele>
        <time>2025-05-10T05:07:13.000Z</time>
      </trkpt>
      <trkpt lat="49.03677" lon="7.76223">
        <ele>266</ele>
        <time>2025-05-10T05:07:19.000Z</time>
      </trkpt>
      <trkpt lat="49.03672" lon="7.76225">
        <ele>266</ele>
        <time>2025-05-10T05:07:24.000Z</time>
      </trkpt>
      <trkpt lat="49.03667" lon="7.76223">
        <ele>267</ele>
        <time>2025-05-10T05:07:29.000Z</time>
      </trkpt>
      <trkpt lat="49.03663" lon="7.7622">
        <ele>267</ele>
        <time>2025-05-10T05:07:32.000Z</time>
      </trkpt>
      <trkpt lat="49.03658" lon="7.76212">
        <ele>268</ele>
        <time>2025-05-10T05:07:37.000Z</time>
      </trkpt>
      <trkpt lat="49.03637" lon="7.76184">
        <ele>271</ele>
        <time>2025-05-10T05:07:55.000Z</time>
      </trkpt>
      <trkpt lat="49.03638" lon="7.76175">
        <ele>272</ele>
        <time>2025-05-10T05:07:58.000Z</time>
      </trkpt>
      <trkpt lat="49.03633" lon="7.76169">
        <ele>272</ele>
        <time>2025-05-10T05:08:01.000Z</time>
      </trkpt>
      <trkpt lat="49.03619" lon="7.76146">
        <ele>276</ele>
        <time>2025-05-10T05:08:19.000Z</time>
      </trkpt>
      <trkpt lat="49.03605" lon="7.76119">
        <ele>279</ele>
        <time>2025-05-10T05:08:36.000Z</time>
      </trkpt>
      <trkpt lat="49.036" lon="7.76115">
        <ele>285</ele>
        <time>2025-05-10T05:09:03.000Z</time>
      </trkpt>
      <trkpt lat="49.03596" lon="7.76108">
        <ele>287</ele>
        <time>2025-05-10T05:09:11.000Z</time>
      </trkpt>
      <trkpt lat="49.03589" lon="7.761">
        <ele>290</ele>
        <time>2025-05-10T05:09:23.000Z</time>
      </trkpt>
      <trkpt lat="49.03586" lon="7.76086">
        <ele>292</ele>
        <time>2025-05-10T05:09:32.000Z</time>
      </trkpt>
      <trkpt lat="49.03581" lon="7.76071">
        <ele>294</ele>
        <time>2025-05-10T05:09:43.000Z</time>
      </trkpt>
      <trkpt lat="49.03576" lon="7.76024">
        <ele>301</ele>
        <time>2025-05-10T05:10:14.000Z</time>
      </trkpt>
      <trkpt lat="49.03578" lon="7.76017">
        <ele>302</ele>
        <time>2025-05-10T05:10:18.000Z</time>
      </trkpt>
      <trkpt lat="49.03582" lon="7.76011">
        <ele>302</ele>
        <time>2025-05-10T05:10:22.000Z</time>
      </trkpt>
      <trkpt lat="49.03585" lon="7.76006">
        <ele>302</ele>
        <time>2025-05-10T05:10:24.000Z</time>
      </trkpt>
      <trkpt lat="49.03587" lon="7.75998">
        <ele>303</ele>
        <time>2025-05-10T05:10:27.000Z</time>
      </trkpt>
      <trkpt lat="49.03586" lon="7.75991">
        <ele>303</ele>
        <time>2025-05-10T05:10:30.000Z</time>
      </trkpt>
      <trkpt lat="49.03587" lon="7.75962">
        <ele>306</ele>
        <time>2025-05-10T05:10:44.000Z</time>
      </trkpt>
      <trkpt lat="49.03589" lon="7.75956">
        <ele>307</ele>
        <time>2025-05-10T05:10:47.000Z</time>
      </trkpt>
      <trkpt lat="49.03589" lon="7.75948">
        <ele>307</ele>
        <time>2025-05-10T05:10:50.000Z</time>
      </trkpt>
      <trkpt lat="49.03588" lon="7.75937">
        <ele>308</ele>
        <time>2025-05-10T05:10:58.000Z</time>
      </trkpt>
      <trkpt lat="49.03585" lon="7.75931">
        <ele>308</ele>
        <time>2025-05-10T05:11:02.000Z</time>
      </trkpt>
      <trkpt lat="49.03584" lon="7.75924">
        <ele>308</ele>
        <time>2025-05-10T05:11:06.000Z</time>
      </trkpt>
      <trkpt lat="49.03586" lon="7.75914">
        <ele>308</ele>
        <time>2025-05-10T05:11:10.000Z</time>
      </trkpt>
      <trkpt lat="49.03583" lon="7.75905">
        <ele>309</ele>
        <time>2025-05-10T05:11:15.000Z</time>
      </trkpt>
      <trkpt lat="49.03565" lon="7.75882">
        <ele>311</ele>
        <time>2025-05-10T05:11:37.000Z</time>
      </trkpt>
      <trkpt lat="49.03553" lon="7.75831">
        <ele>314</ele>
        <time>2025-05-10T05:12:04.000Z</time>
      </trkpt>
      <trkpt lat="49.03552" lon="7.75821">
        <ele>314</ele>
        <time>2025-05-10T05:12:09.000Z</time>
      </trkpt>
      <trkpt lat="49.03547" lon="7.75761">
        <ele>317</ele>
        <time>2025-05-10T05:12:43.000Z</time>
      </trkpt>
      <trkpt lat="49.03546" lon="7.7569">
        <ele>319</ele>
        <time>2025-05-10T05:13:15.000Z</time>
      </trkpt>
      <trkpt lat="49.03547" lon="7.7564">
        <ele>321</ele>
        <time>2025-05-10T05:13:39.000Z</time>
      </trkpt>
      <trkpt lat="49.03545" lon="7.75626">
        <ele>321</ele>
        <time>2025-05-10T05:13:46.000Z</time>
      </trkpt>
      <trkpt lat="49.03541" lon="7.75619">
        <ele>321</ele>
        <time>2025-05-10T05:13:50.000Z</time>
      </trkpt>
      <trkpt lat="49.03542" lon="7.7561">
        <ele>322</ele>
        <time>2025-05-10T05:13:53.000Z</time>
      </trkpt>
      <trkpt lat="49.03543" lon="7.75602">
        <ele>322</ele>
        <time>2025-05-10T05:13:56.000Z</time>
      </trkpt>
      <trkpt lat="49.03544" lon="7.75592">
        <ele>322</ele>
        <time>2025-05-10T05:14:05.000Z</time>
      </trkpt>
      <trkpt lat="49.03546" lon="7.75573">
        <ele>323</ele>
        <time>2025-05-10T05:14:10.000Z</time>
      </trkpt>
      <trkpt lat="49.03546" lon="7.75566">
        <ele>323</ele>
        <time>2025-05-10T05:14:16.000Z</time>
      </trkpt>
      <trkpt lat="49.03548" lon="7.75556">
        <ele>324</ele>
        <time>2025-05-10T05:14:20.000Z</time>
      </trkpt>
      <trkpt lat="49.03547" lon="7.75546">
        <ele>324</ele>
        <time>2025-05-10T05:14:25.000Z</time>
      </trkpt>
      <trkpt lat="49.0355" lon="7.75535">
        <ele>324</ele>
        <time>2025-05-10T05:14:30.000Z</time>
      </trkpt>
      <trkpt lat="49.0355" lon="7.75525">
        <ele>324</ele>
        <time>2025-05-10T05:14:34.000Z</time>
      </trkpt>
      <trkpt lat="49.03552" lon="7.7551">
        <ele>325</ele>
        <time>2025-05-10T05:14:43.000Z</time>
      </trkpt>
      <trkpt lat="49.03551" lon="7.755">
        <ele>325</ele>
        <time>2025-05-10T05:14:47.000Z</time>
      </trkpt>
      <trkpt lat="49.0355" lon="7.75492">
        <ele>325</ele>
        <time>2025-05-10T05:14:50.000Z</time>
      </trkpt>
      <trkpt lat="49.0355" lon="7.75484">
        <ele>326</ele>
        <time>2025-05-10T05:14:53.000Z</time>
      </trkpt>
      <trkpt lat="49.03554" lon="7.75476">
        <ele>326</ele>
        <time>2025-05-10T05:14:58.000Z</time>
      </trkpt>
      <trkpt lat="49.03559" lon="7.75452">
        <ele>327</ele>
        <time>2025-05-10T05:15:10.000Z</time>
      </trkpt>
      <trkpt lat="49.03559" lon="7.75438">
        <ele>327</ele>
        <time>2025-05-10T05:15:18.000Z</time>
      </trkpt>
      <trkpt lat="49.03558" lon="7.75428">
        <ele>328</ele>
        <time>2025-05-10T05:15:23.000Z</time>
      </trkpt>
      <trkpt lat="49.03562" lon="7.75423">
        <ele>328</ele>
        <time>2025-05-10T05:15:28.000Z</time>
      </trkpt>
      <trkpt lat="49.0356" lon="7.75391">
        <ele>329</ele>
        <time>2025-05-10T05:15:42.000Z</time>
      </trkpt>
      <trkpt lat="49.03559" lon="7.75373">
        <ele>330</ele>
        <time>2025-05-10T05:15:52.000Z</time>
      </trkpt>
      <trkpt lat="49.03561" lon="7.75362">
        <ele>330</ele>
        <time>2025-05-10T05:15:56.000Z</time>
      </trkpt>
      <trkpt lat="49.03565" lon="7.75357">
        <ele>330</ele>
        <time>2025-05-10T05:16:00.000Z</time>
      </trkpt>
      <trkpt lat="49.03565" lon="7.75348">
        <ele>330</ele>
        <time>2025-05-10T05:16:04.000Z</time>
      </trkpt>
      <trkpt lat="49.03562" lon="7.75329">
        <ele>331</ele>
        <time>2025-05-10T05:16:11.000Z</time>
      </trkpt>
      <trkpt lat="49.03563" lon="7.75312">
        <ele>331</ele>
        <time>2025-05-10T05:16:19.000Z</time>
      </trkpt>
      <trkpt lat="49.03562" lon="7.75304">
        <ele>331</ele>
        <time>2025-05-10T05:16:23.000Z</time>
      </trkpt>
      <trkpt lat="49.03561" lon="7.75293">
        <ele>332</ele>
        <time>2025-05-10T05:16:27.000Z</time>
      </trkpt>
      <trkpt lat="49.03558" lon="7.75287">
        <ele>332</ele>
        <time>2025-05-10T05:16:29.000Z</time>
      </trkpt>
      <trkpt lat="49.03555" lon="7.75279">
        <ele>332</ele>
        <time>2025-05-10T05:16:34.000Z</time>
      </trkpt>
      <trkpt lat="49.03555" lon="7.7527">
        <ele>332</ele>
        <time>2025-05-10T05:16:42.000Z</time>
      </trkpt>
      <trkpt lat="49.03557" lon="7.75261">
        <ele>333</ele>
        <time>2025-05-10T05:16:48.000Z</time>
      </trkpt>
      <trkpt lat="49.03558" lon="7.75254">
        <ele>333</ele>
        <time>2025-05-10T05:16:52.000Z</time>
      </trkpt>
      <trkpt lat="49.03557" lon="7.75238">
        <ele>333</ele>
        <time>2025-05-10T05:16:58.000Z</time>
      </trkpt>
      <trkpt lat="49.03553" lon="7.75232">
        <ele>333</ele>
        <time>2025-05-10T05:17:02.000Z</time>
      </trkpt>
      <trkpt lat="49.03552" lon="7.75225">
        <ele>333</ele>
        <time>2025-05-10T05:17:05.000Z</time>
      </trkpt>
      <trkpt lat="49.03554" lon="7.7521">
        <ele>334</ele>
        <time>2025-05-10T05:17:14.000Z</time>
      </trkpt>
      <trkpt lat="49.03554" lon="7.75204">
        <ele>334</ele>
        <time>2025-05-10T05:17:17.000Z</time>
      </trkpt>
      <trkpt lat="49.03555" lon="7.75197">
        <ele>334</ele>
        <time>2025-05-10T05:17:21.000Z</time>
      </trkpt>
      <trkpt lat="49.03555" lon="7.7519">
        <ele>335</ele>
        <time>2025-05-10T05:17:25.000Z</time>
      </trkpt>
      <trkpt lat="49.03555" lon="7.75183">
        <ele>335</ele>
        <time>2025-05-10T05:17:29.000Z</time>
      </trkpt>
      <trkpt lat="49.03553" lon="7.75175">
        <ele>335</ele>
        <time>2025-05-10T05:17:34.000Z</time>
      </trkpt>
      <trkpt lat="49.03553" lon="7.75168">
        <ele>335</ele>
        <time>2025-05-10T05:17:39.000Z</time>
      </trkpt>
      <trkpt lat="49.03553" lon="7.75161">
        <ele>335</ele>
        <time>2025-05-10T05:17:43.000Z</time>
      </trkpt>
      <trkpt lat="49.03553" lon="7.75153">
        <ele>335</ele>
        <time>2025-05-10T05:17:48.000Z</time>
      </trkpt>
      <trkpt lat="49.03553" lon="7.75139">
        <ele>336</ele>
        <time>2025-05-10T05:17:54.000Z</time>
      </trkpt>
      <trkpt lat="49.03553" lon="7.75124">
        <ele>336</ele>
        <time>2025-05-10T05:18:00.000Z</time>
      </trkpt>
      <trkpt lat="49.03551" lon="7.75109">
        <ele>336</ele>
        <time>2025-05-10T05:18:06.000Z</time>
      </trkpt>
      <trkpt lat="49.03552" lon="7.751">
        <ele>337</ele>
        <time>2025-05-10T05:18:10.000Z</time>
      </trkpt>
      <trkpt lat="49.03553" lon="7.75093">
        <ele>337</ele>
        <time>2025-05-10T05:18:14.000Z</time>
      </trkpt>
      <trkpt lat="49.03555" lon="7.75054">
        <ele>337</ele>
        <time>2025-05-10T05:18:29.000Z</time>
      </trkpt>
      <trkpt lat="49.03562" lon="7.75041">
        <ele>337</ele>
        <time>2025-05-10T05:18:36.000Z</time>
      </trkpt>
      <trkpt lat="49.03563" lon="7.75027">
        <ele>338</ele>
        <time>2025-05-10T05:18:43.000Z</time>
      </trkpt>
      <trkpt lat="49.03568" lon="7.75013">
        <ele>338</ele>
        <time>2025-05-10T05:18:50.000Z</time>
      </trkpt>
      <trkpt lat="49.03576" lon="7.75001">
        <ele>338</ele>
        <time>2025-05-10T05:18:58.000Z</time>
      </trkpt>
      <trkpt lat="49.03579" lon="7.74987">
        <ele>338</ele>
        <time>2025-05-10T05:19:05.000Z</time>
      </trkpt>
      <trkpt lat="49.03583" lon="7.74972">
        <ele>339</ele>
        <time>2025-05-10T05:19:12.000Z</time>
      </trkpt>
      <trkpt lat="49.03589" lon="7.7496">
        <ele>339</ele>
        <time>2025-05-10T05:19:20.000Z</time>
      </trkpt>
      <trkpt lat="49.03592" lon="7.74952">
        <ele>339</ele>
        <time>2025-05-10T05:19:24.000Z</time>
      </trkpt>
      <trkpt lat="49.03605" lon="7.74936">
        <ele>340</ele>
        <time>2025-05-10T05:19:35.000Z</time>
      </trkpt>
      <trkpt lat="49.03627" lon="7.74923">
        <ele>340</ele>
        <time>2025-05-10T05:19:53.000Z</time>
      </trkpt>
      <trkpt lat="49.03634" lon="7.74918">
        <ele>341</ele>
        <time>2025-05-10T05:20:01.000Z</time>
      </trkpt>
      <trkpt lat="49.03636" lon="7.7491">
        <ele>341</ele>
        <time>2025-05-10T05:20:04.000Z</time>
      </trkpt>
      <trkpt lat="49.03641" lon="7.74907">
        <ele>341</ele>
        <time>2025-05-10T05:20:07.000Z</time>
      </trkpt>
      <trkpt lat="49.03648" lon="7.749">
        <ele>341</ele>
        <time>2025-05-10T05:20:13.000Z</time>
      </trkpt>
      <trkpt lat="49.03653" lon="7.74897">
        <ele>341</ele>
        <time>2025-05-10T05:20:17.000Z</time>
      </trkpt>
      <trkpt lat="49.03658" lon="7.74891">
        <ele>342</ele>
        <time>2025-05-10T05:20:20.000Z</time>
      </trkpt>
      <trkpt lat="49.03692" lon="7.74879">
        <ele>343</ele>
        <time>2025-05-10T05:20:43.000Z</time>
      </trkpt>
      <trkpt lat="49.03702" lon="7.74882">
        <ele>343</ele>
        <time>2025-05-10T05:20:50.000Z</time>
      </trkpt>
      <trkpt lat="49.03743" lon="7.74881">
        <ele>345</ele>
        <time>2025-05-10T05:21:17.000Z</time>
      </trkpt>
      <trkpt lat="49.03747" lon="7.74877">
        <ele>345</ele>
        <time>2025-05-10T05:21:20.000Z</time>
      </trkpt>
      <trkpt lat="49.03753" lon="7.74875">
        <ele>345</ele>
        <time>2025-05-10T05:21:23.000Z</time>
      </trkpt>
      <trkpt lat="49.03755" lon="7.7487">
        <ele>345</ele>
        <time>2025-05-10T05:21:27.000Z</time>
      </trkpt>
      <trkpt lat="49.03759" lon="7.74865">
        <ele>345</ele>
        <time>2025-05-10T05:21:31.000Z</time>
      </trkpt>
      <trkpt lat="49.03765" lon="7.74868">
        <ele>346</ele>
        <time>2025-05-10T05:21:39.000Z</time>
      </trkpt>
      <trkpt lat="49.03784" lon="7.74863">
        <ele>346</ele>
        <time>2025-05-10T05:21:55.000Z</time>
      </trkpt>
      <trkpt lat="49.03794" lon="7.74869">
        <ele>347</ele>
        <time>2025-05-10T05:22:02.000Z</time>
      </trkpt>
      <trkpt lat="49.03809" lon="7.74867">
        <ele>347</ele>
        <time>2025-05-10T05:22:11.000Z</time>
      </trkpt>
      <trkpt lat="49.03826" lon="7.7486">
        <ele>347</ele>
        <time>2025-05-10T05:22:21.000Z</time>
      </trkpt>
      <trkpt lat="49.0383" lon="7.74862">
        <ele>348</ele>
        <time>2025-05-10T05:22:25.000Z</time>
      </trkpt>
      <trkpt lat="49.03852" lon="7.74809">
        <ele>349</ele>
        <time>2025-05-10T05:22:52.000Z</time>
      </trkpt>
      <trkpt lat="49.03857" lon="7.74808">
        <ele>349</ele>
        <time>2025-05-10T05:22:56.000Z</time>
      </trkpt>
      <trkpt lat="49.03843" lon="7.74859">
        <ele>355</ele>
        <time>2025-05-10T05:23:19.000Z</time>
      </trkpt>
      <trkpt lat="49.0384" lon="7.74901">
        <ele>357</ele>
        <time>2025-05-10T05:23:44.000Z</time>
      </trkpt>
      <trkpt lat="49.03835" lon="7.74904">
        <ele>358</ele>
        <time>2025-05-10T05:23:49.000Z</time>
      </trkpt>
      <trkpt lat="49.03839" lon="7.74883">
        <ele>357</ele>
        <time>2025-05-10T05:24:07.000Z</time>
      </trkpt>
      <trkpt lat="49.03839" lon="7.74875">
        <ele>356</ele>
        <time>2025-05-10T05:24:10.000Z</time>
      </trkpt>
      <trkpt lat="49.03848" lon="7.7484">
        <ele>354</ele>
        <time>2025-05-10T05:24:27.000Z</time>
      </trkpt>
      <trkpt lat="49.03848" lon="7.74826">
        <ele>352</ele>
        <time>2025-05-10T05:24:34.000Z</time>
      </trkpt>
      <trkpt lat="49.0385" lon="7.7482">
        <ele>350</ele>
        <time>2025-05-10T05:24:37.000Z</time>
      </trkpt>
      <trkpt lat="49.03849" lon="7.74812">
        <ele>350</ele>
        <time>2025-05-10T05:24:40.000Z</time>
      </trkpt>
      <trkpt lat="49.03848" lon="7.74805">
        <ele>349</ele>
        <time>2025-05-10T05:24:43.000Z</time>
      </trkpt>
      <trkpt lat="49.0385" lon="7.748">
        <ele>348</ele>
        <time>2025-05-10T05:24:47.000Z</time>
      </trkpt>
      <trkpt lat="49.03854" lon="7.74794">
        <ele>348</ele>
        <time>2025-05-10T05:24:51.000Z</time>
      </trkpt>
      <trkpt lat="49.03856" lon="7.74787">
        <ele>348</ele>
        <time>2025-05-10T05:24:55.000Z</time>
      </trkpt>
      <trkpt lat="49.03859" lon="7.74782">
        <ele>348</ele>
        <time>2025-05-10T05:24:59.000Z</time>
      </trkpt>
      <trkpt lat="49.0386" lon="7.74775">
        <ele>349</ele>
        <time>2025-05-10T05:25:04.000Z</time>
      </trkpt>
      <trkpt lat="49.03861" lon="7.74766">
        <ele>350</ele>
        <time>2025-05-10T05:25:09.000Z</time>
      </trkpt>
      <trkpt lat="49.03862" lon="7.74755">
        <ele>349</ele>
        <time>2025-05-10T05:25:17.000Z</time>
      </trkpt>
      <trkpt lat="49.03857" lon="7.74731">
        <ele>346</ele>
        <time>2025-05-10T05:25:27.000Z</time>
      </trkpt>
      <trkpt lat="49.03858" lon="7.7472">
        <ele>345</ele>
        <time>2025-05-10T05:25:32.000Z</time>
      </trkpt>
      <trkpt lat="49.03859" lon="7.74704">
        <ele>345</ele>
        <time>2025-05-10T05:25:38.000Z</time>
      </trkpt>
      <trkpt lat="49.03859" lon="7.74692">
        <ele>344</ele>
        <time>2025-05-10T05:25:46.000Z</time>
      </trkpt>
      <trkpt lat="49.03861" lon="7.74659">
        <ele>344</ele>
        <time>2025-05-10T05:26:01.000Z</time>
      </trkpt>
      <trkpt lat="49.03859" lon="7.7465">
        <ele>344</ele>
        <time>2025-05-10T05:26:07.000Z</time>
      </trkpt>
      <trkpt lat="49.03855" lon="7.74645">
        <ele>344</ele>
        <time>2025-05-10T05:26:10.000Z</time>
      </trkpt>
      <trkpt lat="49.03856" lon="7.74626">
        <ele>343</ele>
        <time>2025-05-10T05:26:17.000Z</time>
      </trkpt>
      <trkpt lat="49.03855" lon="7.7462">
        <ele>343</ele>
        <time>2025-05-10T05:26:21.000Z</time>
      </trkpt>
      <trkpt lat="49.03853" lon="7.74612">
        <ele>342</ele>
        <time>2025-05-10T05:26:26.000Z</time>
      </trkpt>
      <trkpt lat="49.03847" lon="7.74602">
        <ele>342</ele>
        <time>2025-05-10T05:26:34.000Z</time>
      </trkpt>
      <trkpt lat="49.03845" lon="7.74585">
        <ele>341</ele>
        <time>2025-05-10T05:26:40.000Z</time>
      </trkpt>
      <trkpt lat="49.03845" lon="7.74574">
        <ele>341</ele>
        <time>2025-05-10T05:26:45.000Z</time>
      </trkpt>
      <trkpt lat="49.0384" lon="7.74563">
        <ele>341</ele>
        <time>2025-05-10T05:26:52.000Z</time>
      </trkpt>
      <trkpt lat="49.03838" lon="7.74553">
        <ele>342</ele>
        <time>2025-05-10T05:27:01.000Z</time>
      </trkpt>
      <trkpt lat="49.03837" lon="7.74542">
        <ele>341</ele>
        <time>2025-05-10T05:27:05.000Z</time>
      </trkpt>
      <trkpt lat="49.03833" lon="7.74533">
        <ele>341</ele>
        <time>2025-05-10T05:27:08.000Z</time>
      </trkpt>
      <trkpt lat="49.03831" lon="7.74525">
        <ele>339</ele>
        <time>2025-05-10T05:27:12.000Z</time>
      </trkpt>
      <trkpt lat="49.03826" lon="7.7452">
        <ele>338</ele>
        <time>2025-05-10T05:27:15.000Z</time>
      </trkpt>
      <trkpt lat="49.03824" lon="7.74513">
        <ele>337</ele>
        <time>2025-05-10T05:27:19.000Z</time>
      </trkpt>
      <trkpt lat="49.03821" lon="7.74503">
        <ele>337</ele>
        <time>2025-05-10T05:27:23.000Z</time>
      </trkpt>
      <trkpt lat="49.03817" lon="7.74498">
        <ele>338</ele>
        <time>2025-05-10T05:27:28.000Z</time>
      </trkpt>
      <trkpt lat="49.03816" lon="7.74488">
        <ele>337</ele>
        <time>2025-05-10T05:27:32.000Z</time>
      </trkpt>
      <trkpt lat="49.03801" lon="7.74465">
        <ele>333</ele>
        <time>2025-05-10T05:27:46.000Z</time>
      </trkpt>
      <trkpt lat="49.0379" lon="7.74457">
        <ele>332</ele>
        <time>2025-05-10T05:27:56.000Z</time>
      </trkpt>
      <trkpt lat="49.03785" lon="7.74448">
        <ele>331</ele>
        <time>2025-05-10T05:28:02.000Z</time>
      </trkpt>
      <trkpt lat="49.03784" lon="7.7444">
        <ele>331</ele>
        <time>2025-05-10T05:28:04.000Z</time>
      </trkpt>
      <trkpt lat="49.03783" lon="7.74438">
        <ele>330</ele>
        <time>2025-05-10T05:28:18.000Z</time>
      </trkpt>
      <trkpt lat="49.03769" lon="7.74422">
        <ele>326</ele>
        <time>2025-05-10T05:28:50.000Z</time>
      </trkpt>
      <trkpt lat="49.03764" lon="7.74419">
        <ele>326</ele>
        <time>2025-05-10T05:28:55.000Z</time>
      </trkpt>
      <trkpt lat="49.03759" lon="7.74418">
        <ele>325</ele>
        <time>2025-05-10T05:28:58.000Z</time>
      </trkpt>
      <trkpt lat="49.03756" lon="7.74413">
        <ele>325</ele>
        <time>2025-05-10T05:29:01.000Z</time>
      </trkpt>
      <trkpt lat="49.03755" lon="7.74396">
        <ele>323</ele>
        <time>2025-05-10T05:29:09.000Z</time>
      </trkpt>
      <trkpt lat="49.03752" lon="7.74391">
        <ele>323</ele>
        <time>2025-05-10T05:29:12.000Z</time>
      </trkpt>
      <trkpt lat="49.03749" lon="7.74387">
        <ele>322</ele>
        <time>2025-05-10T05:29:16.000Z</time>
      </trkpt>
      <trkpt lat="49.03746" lon="7.74381">
        <ele>322</ele>
        <time>2025-05-10T05:29:18.000Z</time>
      </trkpt>
      <trkpt lat="49.03743" lon="7.74373">
        <ele>322</ele>
        <time>2025-05-10T05:29:23.000Z</time>
      </trkpt>
      <trkpt lat="49.0374" lon="7.74371">
        <ele>322</ele>
        <time>2025-05-10T05:29:27.000Z</time>
      </trkpt>
      <trkpt lat="49.03736" lon="7.74369">
        <ele>324</ele>
        <time>2025-05-10T05:29:31.000Z</time>
      </trkpt>
      <trkpt lat="49.03737" lon="7.74363">
        <ele>325</ele>
        <time>2025-05-10T05:29:45.000Z</time>
      </trkpt>
      <trkpt lat="49.0373" lon="7.74354">
        <ele>325</ele>
        <time>2025-05-10T05:30:02.000Z</time>
      </trkpt>
      <trkpt lat="49.03727" lon="7.74349">
        <ele>325</ele>
        <time>2025-05-10T05:30:07.000Z</time>
      </trkpt>
      <trkpt lat="49.03727" lon="7.74341">
        <ele>325</ele>
        <time>2025-05-10T05:30:11.000Z</time>
      </trkpt>
      <trkpt lat="49.03729" lon="7.74334">
        <ele>325</ele>
        <time>2025-05-10T05:30:16.000Z</time>
      </trkpt>
      <trkpt lat="49.03726" lon="7.74325">
        <ele>326</ele>
        <time>2025-05-10T05:30:25.000Z</time>
      </trkpt>
      <trkpt lat="49.03726" lon="7.74318">
        <ele>326</ele>
        <time>2025-05-10T05:30:30.000Z</time>
      </trkpt>
      <trkpt lat="49.03726" lon="7.7431">
        <ele>326</ele>
        <time>2025-05-10T05:30:35.000Z</time>
      </trkpt>
      <trkpt lat="49.03729" lon="7.74301">
        <ele>326</ele>
        <time>2025-05-10T05:30:43.000Z</time>
      </trkpt>
      <trkpt lat="49.03731" lon="7.74294">
        <ele>326</ele>
        <time>2025-05-10T05:30:47.000Z</time>
      </trkpt>
      <trkpt lat="49.03734" lon="7.74289">
        <ele>327</ele>
        <time>2025-05-10T05:30:51.000Z</time>
      </trkpt>
      <trkpt lat="49.03749" lon="7.74273">
        <ele>328</ele>
        <time>2025-05-10T05:31:07.000Z</time>
      </trkpt>
      <trkpt lat="49.03752" lon="7.74268">
        <ele>328</ele>
        <time>2025-05-10T05:31:11.000Z</time>
      </trkpt>
      <trkpt lat="49.03756" lon="7.74264">
        <ele>329</ele>
        <time>2025-05-10T05:31:15.000Z</time>
      </trkpt>
      <trkpt lat="49.0376" lon="7.7426">
        <ele>330</ele>
        <time>2025-05-10T05:31:19.000Z</time>
      </trkpt>
      <trkpt lat="49.03764" lon="7.74257">
        <ele>330</ele>
        <time>2025-05-10T05:31:23.000Z</time>
      </trkpt>
      <trkpt lat="49.03789" lon="7.74229">
        <ele>335</ele>
        <time>2025-05-10T05:31:53.000Z</time>
      </trkpt>
      <trkpt lat="49.03792" lon="7.74224">
        <ele>335</ele>
        <time>2025-05-10T05:31:57.000Z</time>
      </trkpt>
      <trkpt lat="49.03796" lon="7.74221">
        <ele>337</ele>
        <time>2025-05-10T05:32:05.000Z</time>
      </trkpt>
      <trkpt lat="49.03799" lon="7.74213">
        <ele>338</ele>
        <time>2025-05-10T05:32:11.000Z</time>
      </trkpt>
      <trkpt lat="49.03803" lon="7.74207">
        <ele>338</ele>
        <time>2025-05-10T05:32:16.000Z</time>
      </trkpt>
      <trkpt lat="49.03806" lon="7.74203">
        <ele>339</ele>
        <time>2025-05-10T05:32:21.000Z</time>
      </trkpt>
      <trkpt lat="49.03818" lon="7.74176">
        <ele>342</ele>
        <time>2025-05-10T05:32:41.000Z</time>
      </trkpt>
      <trkpt lat="49.03819" lon="7.74169">
        <ele>342</ele>
        <time>2025-05-10T05:32:45.000Z</time>
      </trkpt>
      <trkpt lat="49.03829" lon="7.74147">
        <ele>346</ele>
        <time>2025-05-10T05:33:06.000Z</time>
      </trkpt>
      <trkpt lat="49.03834" lon="7.7413">
        <ele>348</ele>
        <time>2025-05-10T05:33:20.000Z</time>
      </trkpt>
      <trkpt lat="49.03838" lon="7.74118">
        <ele>350</ele>
        <time>2025-05-10T05:33:30.000Z</time>
      </trkpt>
      <trkpt lat="49.03842" lon="7.74103">
        <ele>351</ele>
        <time>2025-05-10T05:33:39.000Z</time>
      </trkpt>
      <trkpt lat="49.03842" lon="7.74096">
        <ele>351</ele>
        <time>2025-05-10T05:33:44.000Z</time>
      </trkpt>
      <trkpt lat="49.03846" lon="7.74092">
        <ele>351</ele>
        <time>2025-05-10T05:33:48.000Z</time>
      </trkpt>
      <trkpt lat="49.03857" lon="7.74104">
        <ele>357</ele>
        <time>2025-05-10T05:34:16.000Z</time>
      </trkpt>
      <trkpt lat="49.03864" lon="7.74097">
        <ele>361</ele>
        <time>2025-05-10T05:34:40.000Z</time>
      </trkpt>
      <trkpt lat="49.03866" lon="7.7409">
        <ele>362</ele>
        <time>2025-05-10T05:34:45.000Z</time>
      </trkpt>
      <trkpt lat="49.03868" lon="7.74078">
        <ele>364</ele>
        <time>2025-05-10T05:34:53.000Z</time>
      </trkpt>
      <trkpt lat="49.03869" lon="7.74069">
        <ele>365</ele>
        <time>2025-05-10T05:34:58.000Z</time>
      </trkpt>
      <trkpt lat="49.03866" lon="7.74055">
        <ele>364</ele>
        <time>2025-05-10T05:35:04.000Z</time>
      </trkpt>
      <trkpt lat="49.03864" lon="7.74047">
        <ele>364</ele>
        <time>2025-05-10T05:35:07.000Z</time>
      </trkpt>
      <trkpt lat="49.03863" lon="7.74041">
        <ele>363</ele>
        <time>2025-05-10T05:35:11.000Z</time>
      </trkpt>
      <trkpt lat="49.03863" lon="7.74033">
        <ele>364</ele>
        <time>2025-05-10T05:35:14.000Z</time>
      </trkpt>
      <trkpt lat="49.03864" lon="7.74017">
        <ele>363</ele>
        <time>2025-05-10T05:35:22.000Z</time>
      </trkpt>
      <trkpt lat="49.03858" lon="7.73991">
        <ele>360</ele>
        <time>2025-05-10T05:35:36.000Z</time>
      </trkpt>
      <trkpt lat="49.03858" lon="7.73983">
        <ele>360</ele>
        <time>2025-05-10T05:35:40.000Z</time>
      </trkpt>
      <trkpt lat="49.03852" lon="7.73936">
        <ele>357</ele>
        <time>2025-05-10T05:36:02.000Z</time>
      </trkpt>
      <trkpt lat="49.03848" lon="7.73927">
        <ele>356</ele>
        <time>2025-05-10T05:36:06.000Z</time>
      </trkpt>
      <trkpt lat="49.03847" lon="7.73918">
        <ele>356</ele>
        <time>2025-05-10T05:36:11.000Z</time>
      </trkpt>
      <trkpt lat="49.0384" lon="7.73894">
        <ele>354</ele>
        <time>2025-05-10T05:36:23.000Z</time>
      </trkpt>
      <trkpt lat="49.03832" lon="7.73857">
        <ele>360</ele>
        <time>2025-05-10T05:36:55.000Z</time>
      </trkpt>
      <trkpt lat="49.0384" lon="7.73833">
        <ele>360</ele>
        <time>2025-05-10T05:37:06.000Z</time>
      </trkpt>
      <trkpt lat="49.03836" lon="7.73822">
        <ele>359</ele>
        <time>2025-05-10T05:37:10.000Z</time>
      </trkpt>
      <trkpt lat="49.03833" lon="7.73813">
        <ele>359</ele>
        <time>2025-05-10T05:37:13.000Z</time>
      </trkpt>
      <trkpt lat="49.03826" lon="7.73795">
        <ele>360</ele>
        <time>2025-05-10T05:37:24.000Z</time>
      </trkpt>
      <trkpt lat="49.03823" lon="7.7379">
        <ele>360</ele>
        <time>2025-05-10T05:37:27.000Z</time>
      </trkpt>
      <trkpt lat="49.03814" lon="7.73775">
        <ele>359</ele>
        <time>2025-05-10T05:37:37.000Z</time>
      </trkpt>
      <trkpt lat="49.03806" lon="7.73765">
        <ele>358</ele>
        <time>2025-05-10T05:37:48.000Z</time>
      </trkpt>
      <trkpt lat="49.03799" lon="7.73752">
        <ele>359</ele>
        <time>2025-05-10T05:37:56.000Z</time>
      </trkpt>
      <trkpt lat="49.03793" lon="7.73748">
        <ele>360</ele>
        <time>2025-05-10T05:37:59.000Z</time>
      </trkpt>
      <trkpt lat="49.03785" lon="7.73742">
        <ele>360</ele>
        <time>2025-05-10T05:38:08.000Z</time>
      </trkpt>
      <trkpt lat="49.03784" lon="7.73731">
        <ele>360</ele>
        <time>2025-05-10T05:38:13.000Z</time>
      </trkpt>
      <trkpt lat="49.03782" lon="7.73723">
        <ele>360</ele>
        <time>2025-05-10T05:38:18.000Z</time>
      </trkpt>
      <trkpt lat="49.03776" lon="7.73718">
        <ele>359</ele>
        <time>2025-05-10T05:38:23.000Z</time>
      </trkpt>
      <trkpt lat="49.03769" lon="7.73713">
        <ele>358</ele>
        <time>2025-05-10T05:38:33.000Z</time>
      </trkpt>
      <trkpt lat="49.03763" lon="7.73708">
        <ele>358</ele>
        <time>2025-05-10T05:38:39.000Z</time>
      </trkpt>
      <trkpt lat="49.03756" lon="7.73703">
        <ele>358</ele>
        <time>2025-05-10T05:38:42.000Z</time>
      </trkpt>
      <trkpt lat="49.03752" lon="7.73701">
        <ele>359</ele>
        <time>2025-05-10T05:38:54.000Z</time>
      </trkpt>
      <trkpt lat="49.03748" lon="7.737">
        <ele>359</ele>
        <time>2025-05-10T05:38:59.000Z</time>
      </trkpt>
      <trkpt lat="49.03743" lon="7.73702">
        <ele>360</ele>
        <time>2025-05-10T05:39:03.000Z</time>
      </trkpt>
      <trkpt lat="49.03739" lon="7.73701">
        <ele>359</ele>
        <time>2025-05-10T05:39:06.000Z</time>
      </trkpt>
      <trkpt lat="49.03732" lon="7.73698">
        <ele>360</ele>
        <time>2025-05-10T05:39:13.000Z</time>
      </trkpt>
      <trkpt lat="49.03728" lon="7.73699">
        <ele>360</ele>
        <time>2025-05-10T05:39:17.000Z</time>
      </trkpt>
      <trkpt lat="49.03724" lon="7.73696">
        <ele>360</ele>
        <time>2025-05-10T05:39:21.000Z</time>
      </trkpt>
      <trkpt lat="49.03719" lon="7.73694">
        <ele>359</ele>
        <time>2025-05-10T05:39:25.000Z</time>
      </trkpt>
      <trkpt lat="49.03707" lon="7.73689">
        <ele>359</ele>
        <time>2025-05-10T05:39:36.000Z</time>
      </trkpt>
      <trkpt lat="49.03703" lon="7.73687">
        <ele>360</ele>
        <time>2025-05-10T05:39:40.000Z</time>
      </trkpt>
      <trkpt lat="49.03693" lon="7.73682">
        <ele>359</ele>
        <time>2025-05-10T05:39:48.000Z</time>
      </trkpt>
      <trkpt lat="49.03685" lon="7.73679">
        <ele>360</ele>
        <time>2025-05-10T05:39:56.000Z</time>
      </trkpt>
      <trkpt lat="49.03676" lon="7.73676">
        <ele>359</ele>
        <time>2025-05-10T05:40:04.000Z</time>
      </trkpt>
      <trkpt lat="49.0367" lon="7.73675">
        <ele>359</ele>
        <time>2025-05-10T05:40:08.000Z</time>
      </trkpt>
      <trkpt lat="49.03666" lon="7.73675">
        <ele>359</ele>
        <time>2025-05-10T05:40:11.000Z</time>
      </trkpt>
      <trkpt lat="49.03662" lon="7.73675">
        <ele>360</ele>
        <time>2025-05-10T05:40:15.000Z</time>
      </trkpt>
      <trkpt lat="49.03656" lon="7.73674">
        <ele>359</ele>
        <time>2025-05-10T05:40:19.000Z</time>
      </trkpt>
      <trkpt lat="49.03652" lon="7.73673">
        <ele>359</ele>
        <time>2025-05-10T05:40:22.000Z</time>
      </trkpt>
      <trkpt lat="49.03644" lon="7.73666">
        <ele>359</ele>
        <time>2025-05-10T05:40:30.000Z</time>
      </trkpt>
      <trkpt lat="49.03639" lon="7.73663">
        <ele>359</ele>
        <time>2025-05-10T05:40:34.000Z</time>
      </trkpt>
      <trkpt lat="49.03635" lon="7.73662">
        <ele>359</ele>
        <time>2025-05-10T05:40:39.000Z</time>
      </trkpt>
      <trkpt lat="49.03624" lon="7.73653">
        <ele>359</ele>
        <time>2025-05-10T05:40:46.000Z</time>
      </trkpt>
      <trkpt lat="49.03618" lon="7.73652">
        <ele>359</ele>
        <time>2025-05-10T05:40:50.000Z</time>
      </trkpt>
      <trkpt lat="49.03614" lon="7.73651">
        <ele>359</ele>
        <time>2025-05-10T05:40:53.000Z</time>
      </trkpt>
      <trkpt lat="49.03605" lon="7.73649">
        <ele>360</ele>
        <time>2025-05-10T05:40:57.000Z</time>
      </trkpt>
      <trkpt lat="49.036" lon="7.73649">
        <ele>360</ele>
        <time>2025-05-10T05:41:01.000Z</time>
      </trkpt>
      <trkpt lat="49.03593" lon="7.73646">
        <ele>360</ele>
        <time>2025-05-10T05:41:04.000Z</time>
      </trkpt>
      <trkpt lat="49.03583" lon="7.73648">
        <ele>359</ele>
        <time>2025-05-10T05:41:11.000Z</time>
      </trkpt>
      <trkpt lat="49.03577" lon="7.73649">
        <ele>360</ele>
        <time>2025-05-10T05:41:17.000Z</time>
      </trkpt>
      <trkpt lat="49.03567" lon="7.73653">
        <ele>360</ele>
        <time>2025-05-10T05:41:23.000Z</time>
      </trkpt>
      <trkpt lat="49.03562" lon="7.73653">
        <ele>359</ele>
        <time>2025-05-10T05:41:27.000Z</time>
      </trkpt>
      <trkpt lat="49.03557" lon="7.73652">
        <ele>360</ele>
        <time>2025-05-10T05:41:30.000Z</time>
      </trkpt>
      <trkpt lat="49.03552" lon="7.73654">
        <ele>360</ele>
        <time>2025-05-10T05:41:33.000Z</time>
      </trkpt>
      <trkpt lat="49.03546" lon="7.73653">
        <ele>360</ele>
        <time>2025-05-10T05:41:38.000Z</time>
      </trkpt>
      <trkpt lat="49.03541" lon="7.73652">
        <ele>360</ele>
        <time>2025-05-10T05:41:42.000Z</time>
      </trkpt>
      <trkpt lat="49.03532" lon="7.73647">
        <ele>360</ele>
        <time>2025-05-10T05:41:51.000Z</time>
      </trkpt>
      <trkpt lat="49.03527" lon="7.73645">
        <ele>359</ele>
        <time>2025-05-10T05:41:55.000Z</time>
      </trkpt>
      <trkpt lat="49.03525" lon="7.73638">
        <ele>359</ele>
        <time>2025-05-10T05:41:57.000Z</time>
      </trkpt>
      <trkpt lat="49.0352" lon="7.73635">
        <ele>359</ele>
        <time>2025-05-10T05:41:59.000Z</time>
      </trkpt>
      <trkpt lat="49.03516" lon="7.73633">
        <ele>360</ele>
        <time>2025-05-10T05:42:02.000Z</time>
      </trkpt>
      <trkpt lat="49.03512" lon="7.73633">
        <ele>360</ele>
        <time>2025-05-10T05:42:06.000Z</time>
      </trkpt>
      <trkpt lat="49.03507" lon="7.73633">
        <ele>360</ele>
        <time>2025-05-10T05:42:09.000Z</time>
      </trkpt>
      <trkpt lat="49.03504" lon="7.73636">
        <ele>360</ele>
        <time>2025-05-10T05:42:11.000Z</time>
      </trkpt>
      <trkpt lat="49.03499" lon="7.73632">
        <ele>360</ele>
        <time>2025-05-10T05:42:14.000Z</time>
      </trkpt>
      <trkpt lat="49.03492" lon="7.73639">
        <ele>360</ele>
        <time>2025-05-10T05:42:21.000Z</time>
      </trkpt>
      <trkpt lat="49.03489" lon="7.73635">
        <ele>359</ele>
        <time>2025-05-10T05:42:25.000Z</time>
      </trkpt>
      <trkpt lat="49.0348" lon="7.73632">
        <ele>360</ele>
        <time>2025-05-10T05:42:33.000Z</time>
      </trkpt>
      <trkpt lat="49.03476" lon="7.73633">
        <ele>360</ele>
        <time>2025-05-10T05:42:36.000Z</time>
      </trkpt>
      <trkpt lat="49.03471" lon="7.73634">
        <ele>360</ele>
        <time>2025-05-10T05:42:41.000Z</time>
      </trkpt>
      <trkpt lat="49.03466" lon="7.73632">
        <ele>360</ele>
        <time>2025-05-10T05:42:45.000Z</time>
      </trkpt>
      <trkpt lat="49.03462" lon="7.73632">
        <ele>360</ele>
        <time>2025-05-10T05:42:48.000Z</time>
      </trkpt>
      <trkpt lat="49.03453" lon="7.73634">
        <ele>360</ele>
        <time>2025-05-10T05:42:56.000Z</time>
      </trkpt>
      <trkpt lat="49.0345" lon="7.7363">
        <ele>360</ele>
        <time>2025-05-10T05:42:59.000Z</time>
      </trkpt>
      <trkpt lat="49.03446" lon="7.73626">
        <ele>361</ele>
        <time>2025-05-10T05:43:01.000Z</time>
      </trkpt>
      <trkpt lat="49.0344" lon="7.73627">
        <ele>361</ele>
        <time>2025-05-10T05:43:04.000Z</time>
      </trkpt>
      <trkpt lat="49.03436" lon="7.73628">
        <ele>361</ele>
        <time>2025-05-10T05:43:08.000Z</time>
      </trkpt>
      <trkpt lat="49.03431" lon="7.73629">
        <ele>362</ele>
        <time>2025-05-10T05:43:11.000Z</time>
      </trkpt>
      <trkpt lat="49.03426" lon="7.73627">
        <ele>363</ele>
        <time>2025-05-10T05:43:17.000Z</time>
      </trkpt>
      <trkpt lat="49.03421" lon="7.73628">
        <ele>363</ele>
        <time>2025-05-10T05:43:23.000Z</time>
      </trkpt>
      <trkpt lat="49.03416" lon="7.73632">
        <ele>364</ele>
        <time>2025-05-10T05:43:27.000Z</time>
      </trkpt>
      <trkpt lat="49.03409" lon="7.7363">
        <ele>364</ele>
        <time>2025-05-10T05:43:33.000Z</time>
      </trkpt>
      <trkpt lat="49.03403" lon="7.73634">
        <ele>366</ele>
        <time>2025-05-10T05:43:38.000Z</time>
      </trkpt>
      <trkpt lat="49.03398" lon="7.73638">
        <ele>366</ele>
        <time>2025-05-10T05:43:42.000Z</time>
      </trkpt>
      <trkpt lat="49.03391" lon="7.7365">
        <ele>367</ele>
        <time>2025-05-10T05:43:48.000Z</time>
      </trkpt>
      <trkpt lat="49.03386" lon="7.7365">
        <ele>367</ele>
        <time>2025-05-10T05:43:51.000Z</time>
      </trkpt>
      <trkpt lat="49.03381" lon="7.73647">
        <ele>368</ele>
        <time>2025-05-10T05:43:58.000Z</time>
      </trkpt>
      <trkpt lat="49.03379" lon="7.73639">
        <ele>369</ele>
        <time>2025-05-10T05:44:01.000Z</time>
      </trkpt>
      <trkpt lat="49.03366" lon="7.73621">
        <ele>372</ele>
        <time>2025-05-10T05:44:16.000Z</time>
      </trkpt>
      <trkpt lat="49.03361" lon="7.7362">
        <ele>372</ele>
        <time>2025-05-10T05:44:19.000Z</time>
      </trkpt>
      <trkpt lat="49.03351" lon="7.73613">
        <ele>372</ele>
        <time>2025-05-10T05:44:27.000Z</time>
      </trkpt>
      <trkpt lat="49.03348" lon="7.73607">
        <ele>371</ele>
        <time>2025-05-10T05:44:31.000Z</time>
      </trkpt>
      <trkpt lat="49.03341" lon="7.73592">
        <ele>373</ele>
        <time>2025-05-10T05:44:41.000Z</time>
      </trkpt>
      <trkpt lat="49.03338" lon="7.73589">
        <ele>374</ele>
        <time>2025-05-10T05:44:43.000Z</time>
      </trkpt>
      <trkpt lat="49.03333" lon="7.73568">
        <ele>375</ele>
        <time>2025-05-10T05:44:56.000Z</time>
      </trkpt>
      <trkpt lat="49.03334" lon="7.73562">
        <ele>376</ele>
        <time>2025-05-10T05:45:00.000Z</time>
      </trkpt>
      <trkpt lat="49.03345" lon="7.73543">
        <ele>379</ele>
        <time>2025-05-10T05:45:14.000Z</time>
      </trkpt>
      <trkpt lat="49.03346" lon="7.73535">
        <ele>380</ele>
        <time>2025-05-10T05:45:19.000Z</time>
      </trkpt>
      <trkpt lat="49.03346" lon="7.73527">
        <ele>380</ele>
        <time>2025-05-10T05:45:22.000Z</time>
      </trkpt>
      <trkpt lat="49.03343" lon="7.7352">
        <ele>380</ele>
        <time>2025-05-10T05:45:25.000Z</time>
      </trkpt>
      <trkpt lat="49.03342" lon="7.73513">
        <ele>380</ele>
        <time>2025-05-10T05:45:28.000Z</time>
      </trkpt>
      <trkpt lat="49.0334" lon="7.73506">
        <ele>380</ele>
        <time>2025-05-10T05:45:31.000Z</time>
      </trkpt>
      <trkpt lat="49.03335" lon="7.735">
        <ele>381</ele>
        <time>2025-05-10T05:45:35.000Z</time>
      </trkpt>
      <trkpt lat="49.03332" lon="7.73494">
        <ele>380</ele>
        <time>2025-05-10T05:45:39.000Z</time>
      </trkpt>
      <trkpt lat="49.03331" lon="7.73487">
        <ele>381</ele>
        <time>2025-05-10T05:45:43.000Z</time>
      </trkpt>
      <trkpt lat="49.03327" lon="7.73471">
        <ele>381</ele>
        <time>2025-05-10T05:45:49.000Z</time>
      </trkpt>
      <trkpt lat="49.03326" lon="7.73408">
        <ele>380</ele>
        <time>2025-05-10T05:46:19.000Z</time>
      </trkpt>
      <trkpt lat="49.03329" lon="7.73386">
        <ele>380</ele>
        <time>2025-05-10T05:46:30.000Z</time>
      </trkpt>
      <trkpt lat="49.03331" lon="7.73378">
        <ele>380</ele>
        <time>2025-05-10T05:46:34.000Z</time>
      </trkpt>
      <trkpt lat="49.03333" lon="7.7337">
        <ele>381</ele>
        <time>2025-05-10T05:46:38.000Z</time>
      </trkpt>
      <trkpt lat="49.03335" lon="7.7336">
        <ele>380</ele>
        <time>2025-05-10T05:46:43.000Z</time>
      </trkpt>
      <trkpt lat="49.03337" lon="7.73354">
        <ele>380</ele>
        <time>2025-05-10T05:46:46.000Z</time>
      </trkpt>
      <trkpt lat="49.03339" lon="7.73347">
        <ele>380</ele>
        <time>2025-05-10T05:46:49.000Z</time>
      </trkpt>
      <trkpt lat="49.03341" lon="7.73341">
        <ele>380</ele>
        <time>2025-05-10T05:46:52.000Z</time>
      </trkpt>
      <trkpt lat="49.03344" lon="7.73335">
        <ele>380</ele>
        <time>2025-05-10T05:46:57.000Z</time>
      </trkpt>
      <trkpt lat="49.03347" lon="7.73329">
        <ele>380</ele>
        <time>2025-05-10T05:47:01.000Z</time>
      </trkpt>
      <trkpt lat="49.0335" lon="7.73322">
        <ele>380</ele>
        <time>2025-05-10T05:47:05.000Z</time>
      </trkpt>
      <trkpt lat="49.03355" lon="7.73313">
        <ele>380</ele>
        <time>2025-05-10T05:47:10.000Z</time>
      </trkpt>
      <trkpt lat="49.0336" lon="7.73311">
        <ele>380</ele>
        <time>2025-05-10T05:47:13.000Z</time>
      </trkpt>
      <trkpt lat="49.03366" lon="7.73308">
        <ele>380</ele>
        <time>2025-05-10T05:47:16.000Z</time>
      </trkpt>
      <trkpt lat="49.03367" lon="7.73302">
        <ele>380</ele>
        <time>2025-05-10T05:47:20.000Z</time>
      </trkpt>
      <trkpt lat="49.03372" lon="7.73298">
        <ele>380</ele>
        <time>2025-05-10T05:47:22.000Z</time>
      </trkpt>
      <trkpt lat="49.03375" lon="7.73293">
        <ele>380</ele>
        <time>2025-05-10T05:47:25.000Z</time>
      </trkpt>
      <trkpt lat="49.03384" lon="7.73284">
        <ele>380</ele>
        <time>2025-05-10T05:47:32.000Z</time>
      </trkpt>
      <trkpt lat="49.03387" lon="7.73276">
        <ele>380</ele>
        <time>2025-05-10T05:47:37.000Z</time>
      </trkpt>
      <trkpt lat="49.03391" lon="7.73273">
        <ele>380</ele>
        <time>2025-05-10T05:47:40.000Z</time>
      </trkpt>
      <trkpt lat="49.03395" lon="7.7327">
        <ele>379</ele>
        <time>2025-05-10T05:47:43.000Z</time>
      </trkpt>
      <trkpt lat="49.03416" lon="7.73272">
        <ele>378</ele>
        <time>2025-05-10T05:47:58.000Z</time>
      </trkpt>
      <trkpt lat="49.03422" lon="7.73269">
        <ele>377</ele>
        <time>2025-05-10T05:48:00.000Z</time>
      </trkpt>
      <trkpt lat="49.03431" lon="7.7327">
        <ele>376</ele>
        <time>2025-05-10T05:48:07.000Z</time>
      </trkpt>
      <trkpt lat="49.0344" lon="7.73264">
        <ele>375</ele>
        <time>2025-05-10T05:48:15.000Z</time>
      </trkpt>
      <trkpt lat="49.03447" lon="7.73265">
        <ele>374</ele>
        <time>2025-05-10T05:48:20.000Z</time>
      </trkpt>
      <trkpt lat="49.03451" lon="7.7326">
        <ele>374</ele>
        <time>2025-05-10T05:48:22.000Z</time>
      </trkpt>
      <trkpt lat="49.03458" lon="7.73262">
        <ele>373</ele>
        <time>2025-05-10T05:48:28.000Z</time>
      </trkpt>
      <trkpt lat="49.03463" lon="7.7326">
        <ele>373</ele>
        <time>2025-05-10T05:48:32.000Z</time>
      </trkpt>
      <trkpt lat="49.0347" lon="7.73258">
        <ele>373</ele>
        <time>2025-05-10T05:48:37.000Z</time>
      </trkpt>
      <trkpt lat="49.03483" lon="7.73263">
        <ele>373</ele>
        <time>2025-05-10T05:48:44.000Z</time>
      </trkpt>
      <trkpt lat="49.03489" lon="7.73262">
        <ele>373</ele>
        <time>2025-05-10T05:48:49.000Z</time>
      </trkpt>
      <trkpt lat="49.03495" lon="7.73261">
        <ele>372</ele>
        <time>2025-05-10T05:48:54.000Z</time>
      </trkpt>
      <trkpt lat="49.03502" lon="7.73257">
        <ele>372</ele>
        <time>2025-05-10T05:49:02.000Z</time>
      </trkpt>
      <trkpt lat="49.03509" lon="7.73259">
        <ele>371</ele>
        <time>2025-05-10T05:49:07.000Z</time>
      </trkpt>
      <trkpt lat="49.03523" lon="7.7326">
        <ele>372</ele>
        <time>2025-05-10T05:49:15.000Z</time>
      </trkpt>
      <trkpt lat="49.03535" lon="7.73266">
        <ele>371</ele>
        <time>2025-05-10T05:49:23.000Z</time>
      </trkpt>
      <trkpt lat="49.03541" lon="7.73261">
        <ele>371</ele>
        <time>2025-05-10T05:49:28.000Z</time>
      </trkpt>
      <trkpt lat="49.03546" lon="7.7326">
        <ele>371</ele>
        <time>2025-05-10T05:49:32.000Z</time>
      </trkpt>
      <trkpt lat="49.03552" lon="7.73261">
        <ele>370</ele>
        <time>2025-05-10T05:49:35.000Z</time>
      </trkpt>
      <trkpt lat="49.03557" lon="7.73255">
        <ele>370</ele>
        <time>2025-05-10T05:49:39.000Z</time>
      </trkpt>
      <trkpt lat="49.03569" lon="7.73257">
        <ele>369</ele>
        <time>2025-05-10T05:49:45.000Z</time>
      </trkpt>
      <trkpt lat="49.03575" lon="7.73257">
        <ele>369</ele>
        <time>2025-05-10T05:49:49.000Z</time>
      </trkpt>
      <trkpt lat="49.03581" lon="7.73255">
        <ele>369</ele>
        <time>2025-05-10T05:49:53.000Z</time>
      </trkpt>
      <trkpt lat="49.03587" lon="7.73255">
        <ele>369</ele>
        <time>2025-05-10T05:49:58.000Z</time>
      </trkpt>
      <trkpt lat="49.03591" lon="7.73255">
        <ele>368</ele>
        <time>2025-05-10T05:50:01.000Z</time>
      </trkpt>
      <trkpt lat="49.03601" lon="7.73246">
        <ele>367</ele>
        <time>2025-05-10T05:50:09.000Z</time>
      </trkpt>
      <trkpt lat="49.03615" lon="7.73238">
        <ele>367</ele>
        <time>2025-05-10T05:50:20.000Z</time>
      </trkpt>
      <trkpt lat="49.03628" lon="7.73225">
        <ele>366</ele>
        <time>2025-05-10T05:50:31.000Z</time>
      </trkpt>
      <trkpt lat="49.03634" lon="7.73218">
        <ele>367</ele>
        <time>2025-05-10T05:50:38.000Z</time>
      </trkpt>
      <trkpt lat="49.0364" lon="7.73214">
        <ele>367</ele>
        <time>2025-05-10T05:50:41.000Z</time>
      </trkpt>
      <trkpt lat="49.03647" lon="7.73203">
        <ele>366</ele>
        <time>2025-05-10T05:50:48.000Z</time>
      </trkpt>
      <trkpt lat="49.03653" lon="7.73201">
        <ele>366</ele>
        <time>2025-05-10T05:50:54.000Z</time>
      </trkpt>
      <trkpt lat="49.0368" lon="7.73192">
        <ele>364</ele>
        <time>2025-05-10T05:51:11.000Z</time>
      </trkpt>
      <trkpt lat="49.03684" lon="7.73192">
        <ele>364</ele>
        <time>2025-05-10T05:51:14.000Z</time>
      </trkpt>
      <trkpt lat="49.0369" lon="7.73189">
        <ele>363</ele>
        <time>2025-05-10T05:51:20.000Z</time>
      </trkpt>
      <trkpt lat="49.03701" lon="7.73182">
        <ele>363</ele>
        <time>2025-05-10T05:51:28.000Z</time>
      </trkpt>
      <trkpt lat="49.03707" lon="7.73178">
        <ele>362</ele>
        <time>2025-05-10T05:51:33.000Z</time>
      </trkpt>
      <trkpt lat="49.03711" lon="7.73174">
        <ele>361</ele>
        <time>2025-05-10T05:51:37.000Z</time>
      </trkpt>
      <trkpt lat="49.03716" lon="7.73174">
        <ele>361</ele>
        <time>2025-05-10T05:51:41.000Z</time>
      </trkpt>
      <trkpt lat="49.03721" lon="7.73171">
        <ele>361</ele>
        <time>2025-05-10T05:51:45.000Z</time>
      </trkpt>
      <trkpt lat="49.0373" lon="7.73166">
        <ele>362</ele>
        <time>2025-05-10T05:51:51.000Z</time>
      </trkpt>
      <trkpt lat="49.03736" lon="7.73165">
        <ele>361</ele>
        <time>2025-05-10T05:51:55.000Z</time>
      </trkpt>
      <trkpt lat="49.03766" lon="7.73164">
        <ele>360</ele>
        <time>2025-05-10T05:52:15.000Z</time>
      </trkpt>
      <trkpt lat="49.03772" lon="7.73164">
        <ele>360</ele>
        <time>2025-05-10T05:52:18.000Z</time>
      </trkpt>
      <trkpt lat="49.03782" lon="7.73158">
        <ele>359</ele>
        <time>2025-05-10T05:52:29.000Z</time>
      </trkpt>
      <trkpt lat="49.03794" lon="7.73157">
        <ele>358</ele>
        <time>2025-05-10T05:52:38.000Z</time>
      </trkpt>
      <trkpt lat="49.03799" lon="7.73153">
        <ele>358</ele>
        <time>2025-05-10T05:52:42.000Z</time>
      </trkpt>
      <trkpt lat="49.03811" lon="7.73153">
        <ele>358</ele>
        <time>2025-05-10T05:52:48.000Z</time>
      </trkpt>
      <trkpt lat="49.03826" lon="7.73158">
        <ele>358</ele>
        <time>2025-05-10T05:52:57.000Z</time>
      </trkpt>
      <trkpt lat="49.03831" lon="7.73157">
        <ele>357</ele>
        <time>2025-05-10T05:53:01.000Z</time>
      </trkpt>
      <trkpt lat="49.03838" lon="7.7316">
        <ele>357</ele>
        <time>2025-05-10T05:53:05.000Z</time>
      </trkpt>
      <trkpt lat="49.03844" lon="7.7316">
        <ele>357</ele>
        <time>2025-05-10T05:53:09.000Z</time>
      </trkpt>
      <trkpt lat="49.0385" lon="7.73158">
        <ele>357</ele>
        <time>2025-05-10T05:53:14.000Z</time>
      </trkpt>
      <trkpt lat="49.03855" lon="7.73159">
        <ele>356</ele>
        <time>2025-05-10T05:53:17.000Z</time>
      </trkpt>
      <trkpt lat="49.03861" lon="7.73158">
        <ele>356</ele>
        <time>2025-05-10T05:53:23.000Z</time>
      </trkpt>
      <trkpt lat="49.03876" lon="7.73163">
        <ele>357</ele>
        <time>2025-05-10T05:53:35.000Z</time>
      </trkpt>
      <trkpt lat="49.03896" lon="7.73159">
        <ele>356</ele>
        <time>2025-05-10T05:53:49.000Z</time>
      </trkpt>
      <trkpt lat="49.03908" lon="7.73159">
        <ele>355</ele>
        <time>2025-05-10T05:53:57.000Z</time>
      </trkpt>
      <trkpt lat="49.03914" lon="7.7316">
        <ele>355</ele>
        <time>2025-05-10T05:54:01.000Z</time>
      </trkpt>
      <trkpt lat="49.03919" lon="7.73156">
        <ele>355</ele>
        <time>2025-05-10T05:54:08.000Z</time>
      </trkpt>
      <trkpt lat="49.03925" lon="7.73154">
        <ele>355</ele>
        <time>2025-05-10T05:54:12.000Z</time>
      </trkpt>
      <trkpt lat="49.03932" lon="7.73154">
        <ele>354</ele>
        <time>2025-05-10T05:54:15.000Z</time>
      </trkpt>
      <trkpt lat="49.03937" lon="7.73151">
        <ele>354</ele>
        <time>2025-05-10T05:54:20.000Z</time>
      </trkpt>
      <trkpt lat="49.03943" lon="7.7315">
        <ele>355</ele>
        <time>2025-05-10T05:54:26.000Z</time>
      </trkpt>
      <trkpt lat="49.03949" lon="7.73148">
        <ele>355</ele>
        <time>2025-05-10T05:54:29.000Z</time>
      </trkpt>
      <trkpt lat="49.03956" lon="7.73145">
        <ele>355</ele>
        <time>2025-05-10T05:54:32.000Z</time>
      </trkpt>
      <trkpt lat="49.03965" lon="7.73147">
        <ele>355</ele>
        <time>2025-05-10T05:54:39.000Z</time>
      </trkpt>
      <trkpt lat="49.0397" lon="7.73144">
        <ele>355</ele>
        <time>2025-05-10T05:54:42.000Z</time>
      </trkpt>
      <trkpt lat="49.03975" lon="7.73145">
        <ele>355</ele>
        <time>2025-05-10T05:54:45.000Z</time>
      </trkpt>
      <trkpt lat="49.0398" lon="7.73145">
        <ele>354</ele>
        <time>2025-05-10T05:54:49.000Z</time>
      </trkpt>
      <trkpt lat="49.0399" lon="7.73138">
        <ele>354</ele>
        <time>2025-05-10T05:55:00.000Z</time>
      </trkpt>
      <trkpt lat="49.03997" lon="7.73137">
        <ele>354</ele>
        <time>2025-05-10T05:55:03.000Z</time>
      </trkpt>
      <trkpt lat="49.04004" lon="7.73138">
        <ele>354</ele>
        <time>2025-05-10T05:55:06.000Z</time>
      </trkpt>
      <trkpt lat="49.04017" lon="7.73131">
        <ele>353</ele>
        <time>2025-05-10T05:55:15.000Z</time>
      </trkpt>
      <trkpt lat="49.04022" lon="7.73135">
        <ele>354</ele>
        <time>2025-05-10T05:55:20.000Z</time>
      </trkpt>
      <trkpt lat="49.0404" lon="7.73129">
        <ele>352</ele>
        <time>2025-05-10T05:55:34.000Z</time>
      </trkpt>
      <trkpt lat="49.04046" lon="7.73123">
        <ele>352</ele>
        <time>2025-05-10T05:55:38.000Z</time>
      </trkpt>
      <trkpt lat="49.04053" lon="7.73122">
        <ele>352</ele>
        <time>2025-05-10T05:55:42.000Z</time>
      </trkpt>
      <trkpt lat="49.04057" lon="7.73119">
        <ele>352</ele>
        <time>2025-05-10T05:55:47.000Z</time>
      </trkpt>
      <trkpt lat="49.04064" lon="7.7312">
        <ele>352</ele>
        <time>2025-05-10T05:55:51.000Z</time>
      </trkpt>
      <trkpt lat="49.04078" lon="7.73114">
        <ele>350</ele>
        <time>2025-05-10T05:56:01.000Z</time>
      </trkpt>
      <trkpt lat="49.04084" lon="7.7311">
        <ele>349</ele>
        <time>2025-05-10T05:56:08.000Z</time>
      </trkpt>
      <trkpt lat="49.04099" lon="7.73113">
        <ele>350</ele>
        <time>2025-05-10T05:56:12.000Z</time>
      </trkpt>
      <trkpt lat="49.04105" lon="7.7311">
        <ele>350</ele>
        <time>2025-05-10T05:56:16.000Z</time>
      </trkpt>
      <trkpt lat="49.04113" lon="7.73105">
        <ele>350</ele>
        <time>2025-05-10T05:56:24.000Z</time>
      </trkpt>
      <trkpt lat="49.0412" lon="7.73108">
        <ele>350</ele>
        <time>2025-05-10T05:56:27.000Z</time>
      </trkpt>
      <trkpt lat="49.04127" lon="7.73107">
        <ele>351</ele>
        <time>2025-05-10T05:56:32.000Z</time>
      </trkpt>
      <trkpt lat="49.04139" lon="7.73097">
        <ele>351</ele>
        <time>2025-05-10T05:56:42.000Z</time>
      </trkpt>
      <trkpt lat="49.04145" lon="7.73095">
        <ele>351</ele>
        <time>2025-05-10T05:56:46.000Z</time>
      </trkpt>
      <trkpt lat="49.04151" lon="7.73094">
        <ele>351</ele>
        <time>2025-05-10T05:56:50.000Z</time>
      </trkpt>
      <trkpt lat="49.04165" lon="7.73086">
        <ele>352</ele>
        <time>2025-05-10T05:57:00.000Z</time>
      </trkpt>
      <trkpt lat="49.04172" lon="7.7309">
        <ele>352</ele>
        <time>2025-05-10T05:57:03.000Z</time>
      </trkpt>
      <trkpt lat="49.04181" lon="7.73083">
        <ele>352</ele>
        <time>2025-05-10T05:57:12.000Z</time>
      </trkpt>
      <trkpt lat="49.04189" lon="7.73083">
        <ele>352</ele>
        <time>2025-05-10T05:57:18.000Z</time>
      </trkpt>
      <trkpt lat="49.04192" lon="7.73078">
        <ele>352</ele>
        <time>2025-05-10T05:57:21.000Z</time>
      </trkpt>
      <trkpt lat="49.04193" lon="7.73072">
        <ele>353</ele>
        <time>2025-05-10T05:57:26.000Z</time>
      </trkpt>
      <trkpt lat="49.04198" lon="7.73068">
        <ele>353</ele>
        <time>2025-05-10T05:57:31.000Z</time>
      </trkpt>
      <trkpt lat="49.04212" lon="7.7306">
        <ele>354</ele>
        <time>2025-05-10T05:57:43.000Z</time>
      </trkpt>
      <trkpt lat="49.04216" lon="7.73057">
        <ele>354</ele>
        <time>2025-05-10T05:57:46.000Z</time>
      </trkpt>
      <trkpt lat="49.04225" lon="7.73051">
        <ele>354</ele>
        <time>2025-05-10T05:57:53.000Z</time>
      </trkpt>
      <trkpt lat="49.04242" lon="7.73037">
        <ele>355</ele>
        <time>2025-05-10T05:58:03.000Z</time>
      </trkpt>
      <trkpt lat="49.04249" lon="7.73028">
        <ele>355</ele>
        <time>2025-05-10T05:58:07.000Z</time>
      </trkpt>
      <trkpt lat="49.04246" lon="7.73017">
        <ele>356</ele>
        <time>2025-05-10T05:58:17.000Z</time>
      </trkpt>
      <trkpt lat="49.0424" lon="7.73009">
        <ele>356</ele>
        <time>2025-05-10T05:58:20.000Z</time>
      </trkpt>
      <trkpt lat="49.04233" lon="7.73004">
        <ele>357</ele>
        <time>2025-05-10T05:58:21.000Z</time>
      </trkpt>
      <trkpt lat="49.04227" lon="7.73001">
        <ele>357</ele>
        <time>2025-05-10T05:58:23.000Z</time>
      </trkpt>
      <trkpt lat="49.04214" lon="7.72994">
        <ele>359</ele>
        <time>2025-05-10T05:58:36.000Z</time>
      </trkpt>
      <trkpt lat="49.0421" lon="7.7299">
        <ele>359</ele>
        <time>2025-05-10T05:58:41.000Z</time>
      </trkpt>
      <trkpt lat="49.04189" lon="7.72965">
        <ele>361</ele>
        <time>2025-05-10T05:59:02.000Z</time>
      </trkpt>
      <trkpt lat="49.04185" lon="7.72959">
        <ele>361</ele>
        <time>2025-05-10T05:59:06.000Z</time>
      </trkpt>
      <trkpt lat="49.04182" lon="7.72951">
        <ele>362</ele>
        <time>2025-05-10T05:59:09.000Z</time>
      </trkpt>
      <trkpt lat="49.04178" lon="7.7294">
        <ele>362</ele>
        <time>2025-05-10T05:59:12.000Z</time>
      </trkpt>
      <trkpt lat="49.04175" lon="7.72934">
        <ele>362</ele>
        <time>2025-05-10T05:59:16.000Z</time>
      </trkpt>
      <trkpt lat="49.04169" lon="7.72931">
        <ele>363</ele>
        <time>2025-05-10T05:59:19.000Z</time>
      </trkpt>
      <trkpt lat="49.04166" lon="7.72928">
        <ele>363</ele>
        <time>2025-05-10T05:59:34.000Z</time>
      </trkpt>
      <trkpt lat="49.04163" lon="7.72927">
        <ele>363</ele>
        <time>2025-05-10T05:59:56.000Z</time>
      </trkpt>
      <trkpt lat="49.04156" lon="7.72906">
        <ele>364</ele>
        <time>2025-05-10T06:00:05.000Z</time>
      </trkpt>
      <trkpt lat="49.04155" lon="7.72899">
        <ele>363</ele>
        <time>2025-05-10T06:00:09.000Z</time>
      </trkpt>
      <trkpt lat="49.04149" lon="7.72892">
        <ele>365</ele>
        <time>2025-05-10T06:00:15.000Z</time>
      </trkpt>
      <trkpt lat="49.04147" lon="7.72883">
        <ele>365</ele>
        <time>2025-05-10T06:00:20.000Z</time>
      </trkpt>
      <trkpt lat="49.04121" lon="7.72822">
        <ele>369</ele>
        <time>2025-05-10T06:00:50.000Z</time>
      </trkpt>
      <trkpt lat="49.04119" lon="7.72814">
        <ele>369</ele>
        <time>2025-05-10T06:00:54.000Z</time>
      </trkpt>
      <trkpt lat="49.04119" lon="7.72806">
        <ele>370</ele>
        <time>2025-05-10T06:00:58.000Z</time>
      </trkpt>
      <trkpt lat="49.04117" lon="7.72799">
        <ele>370</ele>
        <time>2025-05-10T06:01:01.000Z</time>
      </trkpt>
      <trkpt lat="49.04115" lon="7.72791">
        <ele>370</ele>
        <time>2025-05-10T06:01:05.000Z</time>
      </trkpt>
      <trkpt lat="49.04112" lon="7.72761">
        <ele>372</ele>
        <time>2025-05-10T06:01:21.000Z</time>
      </trkpt>
      <trkpt lat="49.0411" lon="7.72753">
        <ele>373</ele>
        <time>2025-05-10T06:01:26.000Z</time>
      </trkpt>
      <trkpt lat="49.04107" lon="7.7273">
        <ele>374</ele>
        <time>2025-05-10T06:01:40.000Z</time>
      </trkpt>
      <trkpt lat="49.0411" lon="7.72715">
        <ele>375</ele>
        <time>2025-05-10T06:01:46.000Z</time>
      </trkpt>
      <trkpt lat="49.0411" lon="7.72684">
        <ele>376</ele>
        <time>2025-05-10T06:02:01.000Z</time>
      </trkpt>
      <trkpt lat="49.04112" lon="7.72678">
        <ele>376</ele>
        <time>2025-05-10T06:02:04.000Z</time>
      </trkpt>
      <trkpt lat="49.04111" lon="7.7267">
        <ele>376</ele>
        <time>2025-05-10T06:02:07.000Z</time>
      </trkpt>
      <trkpt lat="49.04111" lon="7.72649">
        <ele>378</ele>
        <time>2025-05-10T06:02:17.000Z</time>
      </trkpt>
      <trkpt lat="49.04112" lon="7.72639">
        <ele>378</ele>
        <time>2025-05-10T06:02:23.000Z</time>
      </trkpt>
      <trkpt lat="49.04111" lon="7.72633">
        <ele>378</ele>
        <time>2025-05-10T06:02:26.000Z</time>
      </trkpt>
      <trkpt lat="49.04111" lon="7.72625">
        <ele>379</ele>
        <time>2025-05-10T06:02:29.000Z</time>
      </trkpt>
      <trkpt lat="49.04113" lon="7.72612">
        <ele>379</ele>
        <time>2025-05-10T06:02:35.000Z</time>
      </trkpt>
      <trkpt lat="49.04111" lon="7.72573">
        <ele>381</ele>
        <time>2025-05-10T06:02:55.000Z</time>
      </trkpt>
      <trkpt lat="49.0411" lon="7.72566">
        <ele>381</ele>
        <time>2025-05-10T06:02:57.000Z</time>
      </trkpt>
      <trkpt lat="49.04108" lon="7.72549">
        <ele>382</ele>
        <time>2025-05-10T06:03:06.000Z</time>
      </trkpt>
      <trkpt lat="49.0411" lon="7.72529">
        <ele>383</ele>
        <time>2025-05-10T06:03:18.000Z</time>
      </trkpt>
      <trkpt lat="49.04106" lon="7.72512">
        <ele>384</ele>
        <time>2025-05-10T06:03:26.000Z</time>
      </trkpt>
      <trkpt lat="49.04105" lon="7.72503">
        <ele>384</ele>
        <time>2025-05-10T06:03:29.000Z</time>
      </trkpt>
      <trkpt lat="49.04097" lon="7.7249">
        <ele>385</ele>
        <time>2025-05-10T06:03:37.000Z</time>
      </trkpt>
      <trkpt lat="49.04093" lon="7.72479">
        <ele>386</ele>
        <time>2025-05-10T06:03:46.000Z</time>
      </trkpt>
      <trkpt lat="49.04093" lon="7.72473">
        <ele>386</ele>
        <time>2025-05-10T06:03:49.000Z</time>
      </trkpt>
      <trkpt lat="49.04092" lon="7.72455">
        <ele>387</ele>
        <time>2025-05-10T06:03:58.000Z</time>
      </trkpt>
      <trkpt lat="49.04093" lon="7.72449">
        <ele>387</ele>
        <time>2025-05-10T06:04:01.000Z</time>
      </trkpt>
      <trkpt lat="49.04094" lon="7.72419">
        <ele>389</ele>
        <time>2025-05-10T06:04:15.000Z</time>
      </trkpt>
      <trkpt lat="49.04087" lon="7.72391">
        <ele>391</ele>
        <time>2025-05-10T06:04:29.000Z</time>
      </trkpt>
      <trkpt lat="49.04087" lon="7.72384">
        <ele>391</ele>
        <time>2025-05-10T06:04:32.000Z</time>
      </trkpt>
      <trkpt lat="49.04086" lon="7.72378">
        <ele>391</ele>
        <time>2025-05-10T06:04:35.000Z</time>
      </trkpt>
      <trkpt lat="49.04082" lon="7.72372">
        <ele>392</ele>
        <time>2025-05-10T06:04:39.000Z</time>
      </trkpt>
      <trkpt lat="49.04079" lon="7.72362">
        <ele>392</ele>
        <time>2025-05-10T06:04:45.000Z</time>
      </trkpt>
      <trkpt lat="49.04076" lon="7.72356">
        <ele>393</ele>
        <time>2025-05-10T06:04:50.000Z</time>
      </trkpt>
      <trkpt lat="49.04075" lon="7.72348">
        <ele>393</ele>
        <time>2025-05-10T06:04:54.000Z</time>
      </trkpt>
      <trkpt lat="49.04071" lon="7.72341">
        <ele>394</ele>
        <time>2025-05-10T06:04:58.000Z</time>
      </trkpt>
      <trkpt lat="49.04068" lon="7.72334">
        <ele>394</ele>
        <time>2025-05-10T06:05:01.000Z</time>
      </trkpt>
      <trkpt lat="49.04062" lon="7.72299">
        <ele>396</ele>
        <time>2025-05-10T06:05:17.000Z</time>
      </trkpt>
      <trkpt lat="49.04058" lon="7.72291">
        <ele>396</ele>
        <time>2025-05-10T06:05:21.000Z</time>
      </trkpt>
      <trkpt lat="49.04054" lon="7.72285">
        <ele>397</ele>
        <time>2025-05-10T06:05:26.000Z</time>
      </trkpt>
      <trkpt lat="49.04052" lon="7.7228">
        <ele>397</ele>
        <time>2025-05-10T06:05:29.000Z</time>
      </trkpt>
      <trkpt lat="49.04051" lon="7.72264">
        <ele>398</ele>
        <time>2025-05-10T06:05:37.000Z</time>
      </trkpt>
      <trkpt lat="49.04051" lon="7.72257">
        <ele>398</ele>
        <time>2025-05-10T06:05:40.000Z</time>
      </trkpt>
      <trkpt lat="49.04056" lon="7.72245">
        <ele>399</ele>
        <time>2025-05-10T06:05:46.000Z</time>
      </trkpt>
      <trkpt lat="49.04065" lon="7.7224">
        <ele>399</ele>
        <time>2025-05-10T06:05:53.000Z</time>
      </trkpt>
      <trkpt lat="49.04075" lon="7.72238">
        <ele>399</ele>
        <time>2025-05-10T06:06:01.000Z</time>
      </trkpt>
      <trkpt lat="49.04109" lon="7.7222">
        <ele>400</ele>
        <time>2025-05-10T06:06:31.000Z</time>
      </trkpt>
      <trkpt lat="49.04134" lon="7.72211">
        <ele>406</ele>
        <time>2025-05-10T06:06:56.000Z</time>
      </trkpt>
      <trkpt lat="49.04138" lon="7.72213">
        <ele>407</ele>
        <time>2025-05-10T06:06:59.000Z</time>
      </trkpt>
      <trkpt lat="49.04146" lon="7.72222">
        <ele>408</ele>
        <time>2025-05-10T06:07:05.000Z</time>
      </trkpt>
      <trkpt lat="49.04155" lon="7.72227">
        <ele>408</ele>
        <time>2025-05-10T06:07:12.000Z</time>
      </trkpt>
      <trkpt lat="49.04166" lon="7.72227">
        <ele>409</ele>
        <time>2025-05-10T06:07:22.000Z</time>
      </trkpt>
      <trkpt lat="49.04187" lon="7.72221">
        <ele>411</ele>
        <time>2025-05-10T06:07:37.000Z</time>
      </trkpt>
      <trkpt lat="49.04192" lon="7.7222">
        <ele>411</ele>
        <time>2025-05-10T06:07:40.000Z</time>
      </trkpt>
      <trkpt lat="49.04237" lon="7.72209">
        <ele>415</ele>
        <time>2025-05-10T06:08:10.000Z</time>
      </trkpt>
      <trkpt lat="49.04241" lon="7.72205">
        <ele>416</ele>
        <time>2025-05-10T06:08:13.000Z</time>
      </trkpt>
      <trkpt lat="49.04245" lon="7.72207">
        <ele>417</ele>
        <time>2025-05-10T06:08:22.000Z</time>
      </trkpt>
      <trkpt lat="49.04248" lon="7.722">
        <ele>418</ele>
        <time>2025-05-10T06:08:24.000Z</time>
      </trkpt>
      <trkpt lat="49.04263" lon="7.7219">
        <ele>420</ele>
        <time>2025-05-10T06:08:35.000Z</time>
      </trkpt>
      <trkpt lat="49.04267" lon="7.72183">
        <ele>420</ele>
        <time>2025-05-10T06:08:37.000Z</time>
      </trkpt>
      <trkpt lat="49.04275" lon="7.72182">
        <ele>421</ele>
        <time>2025-05-10T06:08:42.000Z</time>
      </trkpt>
      <trkpt lat="49.04279" lon="7.72175">
        <ele>421</ele>
        <time>2025-05-10T06:08:46.000Z</time>
      </trkpt>
      <trkpt lat="49.04293" lon="7.72179">
        <ele>423</ele>
        <time>2025-05-10T06:08:57.000Z</time>
      </trkpt>
      <trkpt lat="49.04295" lon="7.72186">
        <ele>424</ele>
        <time>2025-05-10T06:09:02.000Z</time>
      </trkpt>
      <trkpt lat="49.04297" lon="7.72194">
        <ele>424</ele>
        <time>2025-05-10T06:09:04.000Z</time>
      </trkpt>
      <trkpt lat="49.04302" lon="7.72191">
        <ele>425</ele>
        <time>2025-05-10T06:09:07.000Z</time>
      </trkpt>
      <trkpt lat="49.04309" lon="7.72177">
        <ele>426</ele>
        <time>2025-05-10T06:09:13.000Z</time>
      </trkpt>
      <trkpt lat="49.0431" lon="7.7217">
        <ele>426</ele>
        <time>2025-05-10T06:09:17.000Z</time>
      </trkpt>
      <trkpt lat="49.04313" lon="7.72165">
        <ele>426</ele>
        <time>2025-05-10T06:09:21.000Z</time>
      </trkpt>
      <trkpt lat="49.04321" lon="7.7215">
        <ele>425</ele>
        <time>2025-05-10T06:09:28.000Z</time>
      </trkpt>
      <trkpt lat="49.04324" lon="7.72144">
        <ele>425</ele>
        <time>2025-05-10T06:09:32.000Z</time>
      </trkpt>
      <trkpt lat="49.04327" lon="7.72138">
        <ele>424</ele>
        <time>2025-05-10T06:09:35.000Z</time>
      </trkpt>
      <trkpt lat="49.04331" lon="7.7213">
        <ele>424</ele>
        <time>2025-05-10T06:09:39.000Z</time>
      </trkpt>
      <trkpt lat="49.04336" lon="7.72136">
        <ele>424</ele>
        <time>2025-05-10T06:09:41.000Z</time>
      </trkpt>
      <trkpt lat="49.0434" lon="7.7213">
        <ele>424</ele>
        <time>2025-05-10T06:09:45.000Z</time>
      </trkpt>
      <trkpt lat="49.04342" lon="7.72124">
        <ele>424</ele>
        <time>2025-05-10T06:09:48.000Z</time>
      </trkpt>
      <trkpt lat="49.04346" lon="7.72121">
        <ele>424</ele>
        <time>2025-05-10T06:09:51.000Z</time>
      </trkpt>
      <trkpt lat="49.04349" lon="7.72116">
        <ele>424</ele>
        <time>2025-05-10T06:09:54.000Z</time>
      </trkpt>
      <trkpt lat="49.04354" lon="7.7211">
        <ele>423</ele>
        <time>2025-05-10T06:09:58.000Z</time>
      </trkpt>
      <trkpt lat="49.04357" lon="7.72105">
        <ele>423</ele>
        <time>2025-05-10T06:10:03.000Z</time>
      </trkpt>
      <trkpt lat="49.04364" lon="7.72093">
        <ele>423</ele>
        <time>2025-05-10T06:10:11.000Z</time>
      </trkpt>
      <trkpt lat="49.04368" lon="7.72089">
        <ele>423</ele>
        <time>2025-05-10T06:10:15.000Z</time>
      </trkpt>
      <trkpt lat="49.04373" lon="7.72089">
        <ele>423</ele>
        <time>2025-05-10T06:10:17.000Z</time>
      </trkpt>
      <trkpt lat="49.04377" lon="7.72083">
        <ele>423</ele>
        <time>2025-05-10T06:10:21.000Z</time>
      </trkpt>
      <trkpt lat="49.04407" lon="7.72019">
        <ele>421</ele>
        <time>2025-05-10T06:10:56.000Z</time>
      </trkpt>
      <trkpt lat="49.0441" lon="7.72013">
        <ele>421</ele>
        <time>2025-05-10T06:10:58.000Z</time>
      </trkpt>
      <trkpt lat="49.04412" lon="7.72009">
        <ele>421</ele>
        <time>2025-05-10T06:11:02.000Z</time>
      </trkpt>
      <trkpt lat="49.04422" lon="7.71988">
        <ele>420</ele>
        <time>2025-05-10T06:11:13.000Z</time>
      </trkpt>
      <trkpt lat="49.04427" lon="7.71975">
        <ele>420</ele>
        <time>2025-05-10T06:11:20.000Z</time>
      </trkpt>
      <trkpt lat="49.0443" lon="7.71967">
        <ele>420</ele>
        <time>2025-05-10T06:11:24.000Z</time>
      </trkpt>
      <trkpt lat="49.04432" lon="7.71961">
        <ele>420</ele>
        <time>2025-05-10T06:11:27.000Z</time>
      </trkpt>
      <trkpt lat="49.04437" lon="7.71946">
        <ele>419</ele>
        <time>2025-05-10T06:11:33.000Z</time>
      </trkpt>
      <trkpt lat="49.04441" lon="7.71933">
        <ele>419</ele>
        <time>2025-05-10T06:11:40.000Z</time>
      </trkpt>
      <trkpt lat="49.04445" lon="7.71892">
        <ele>418</ele>
        <time>2025-05-10T06:12:00.000Z</time>
      </trkpt>
      <trkpt lat="49.04447" lon="7.7187">
        <ele>418</ele>
        <time>2025-05-10T06:12:10.000Z</time>
      </trkpt>
      <trkpt lat="49.04445" lon="7.71848">
        <ele>418</ele>
        <time>2025-05-10T06:12:20.000Z</time>
      </trkpt>
      <trkpt lat="49.04446" lon="7.71841">
        <ele>418</ele>
        <time>2025-05-10T06:12:23.000Z</time>
      </trkpt>
      <trkpt lat="49.04443" lon="7.71772">
        <ele>417</ele>
        <time>2025-05-10T06:12:57.000Z</time>
      </trkpt>
      <trkpt lat="49.04444" lon="7.71739">
        <ele>417</ele>
        <time>2025-05-10T06:13:08.000Z</time>
      </trkpt>
      <trkpt lat="49.04443" lon="7.7173">
        <ele>416</ele>
        <time>2025-05-10T06:13:12.000Z</time>
      </trkpt>
      <trkpt lat="49.04441" lon="7.71723">
        <ele>417</ele>
        <time>2025-05-10T06:13:16.000Z</time>
      </trkpt>
      <trkpt lat="49.04423" lon="7.71654">
        <ele>424</ele>
        <time>2025-05-10T06:13:53.000Z</time>
      </trkpt>
      <trkpt lat="49.04408" lon="7.71621">
        <ele>427</ele>
        <time>2025-05-10T06:14:16.000Z</time>
      </trkpt>
      <trkpt lat="49.04407" lon="7.71615">
        <ele>427</ele>
        <time>2025-05-10T06:14:20.000Z</time>
      </trkpt>
      <trkpt lat="49.04403" lon="7.71605">
        <ele>427</ele>
        <time>2025-05-10T06:14:23.000Z</time>
      </trkpt>
      <trkpt lat="49.04379" lon="7.71554">
        <ele>433</ele>
        <time>2025-05-10T06:14:57.000Z</time>
      </trkpt>
      <trkpt lat="49.04363" lon="7.71518">
        <ele>437</ele>
        <time>2025-05-10T06:15:20.000Z</time>
      </trkpt>
      <trkpt lat="49.04361" lon="7.71509">
        <ele>438</ele>
        <time>2025-05-10T06:15:28.000Z</time>
      </trkpt>
      <trkpt lat="49.04359" lon="7.71502">
        <ele>438</ele>
        <time>2025-05-10T06:15:31.000Z</time>
      </trkpt>
      <trkpt lat="49.04348" lon="7.7146">
        <ele>444</ele>
        <time>2025-05-10T06:16:12.000Z</time>
      </trkpt>
      <trkpt lat="49.04349" lon="7.71453">
        <ele>445</ele>
        <time>2025-05-10T06:16:20.000Z</time>
      </trkpt>
      <trkpt lat="49.04349" lon="7.71444">
        <ele>444</ele>
        <time>2025-05-10T06:16:25.000Z</time>
      </trkpt>
      <trkpt lat="49.04348" lon="7.71438">
        <ele>443</ele>
        <time>2025-05-10T06:16:28.000Z</time>
      </trkpt>
      <trkpt lat="49.04351" lon="7.71426">
        <ele>443</ele>
        <time>2025-05-10T06:16:34.000Z</time>
      </trkpt>
      <trkpt lat="49.0435" lon="7.71419">
        <ele>442</ele>
        <time>2025-05-10T06:16:37.000Z</time>
      </trkpt>
      <trkpt lat="49.0435" lon="7.71411">
        <ele>442</ele>
        <time>2025-05-10T06:16:42.000Z</time>
      </trkpt>
      <trkpt lat="49.04349" lon="7.7139">
        <ele>440</ele>
        <time>2025-05-10T06:16:54.000Z</time>
      </trkpt>
      <trkpt lat="49.04346" lon="7.71381">
        <ele>440</ele>
        <time>2025-05-10T06:17:03.000Z</time>
      </trkpt>
      <trkpt lat="49.0434" lon="7.71353">
        <ele>438</ele>
        <time>2025-05-10T06:17:21.000Z</time>
      </trkpt>
      <trkpt lat="49.04353" lon="7.71317">
        <ele>435</ele>
        <time>2025-05-10T06:17:36.000Z</time>
      </trkpt>
      <trkpt lat="49.04355" lon="7.71311">
        <ele>434</ele>
        <time>2025-05-10T06:17:40.000Z</time>
      </trkpt>
      <trkpt lat="49.04357" lon="7.71304">
        <ele>433</ele>
        <time>2025-05-10T06:17:44.000Z</time>
      </trkpt>
      <trkpt lat="49.04359" lon="7.71298">
        <ele>433</ele>
        <time>2025-05-10T06:17:47.000Z</time>
      </trkpt>
      <trkpt lat="49.04374" lon="7.71253">
        <ele>429</ele>
        <time>2025-05-10T06:18:13.000Z</time>
      </trkpt>
      <trkpt lat="49.04387" lon="7.71195">
        <ele>424</ele>
        <time>2025-05-10T06:18:45.000Z</time>
      </trkpt>
      <trkpt lat="49.04393" lon="7.71157">
        <ele>422</ele>
        <time>2025-05-10T06:19:04.000Z</time>
      </trkpt>
      <trkpt lat="49.04394" lon="7.71133">
        <ele>420</ele>
        <time>2025-05-10T06:19:16.000Z</time>
      </trkpt>
      <trkpt lat="49.04393" lon="7.71121">
        <ele>418</ele>
        <time>2025-05-10T06:19:23.000Z</time>
      </trkpt>
      <trkpt lat="49.04391" lon="7.71103">
        <ele>418</ele>
        <time>2025-05-10T06:19:29.000Z</time>
      </trkpt>
      <trkpt lat="49.0439" lon="7.71045">
        <ele>414</ele>
        <time>2025-05-10T06:19:56.000Z</time>
      </trkpt>
      <trkpt lat="49.04392" lon="7.71031">
        <ele>412</ele>
        <time>2025-05-10T06:20:02.000Z</time>
      </trkpt>
      <trkpt lat="49.04393" lon="7.71007">
        <ele>410</ele>
        <time>2025-05-10T06:20:14.000Z</time>
      </trkpt>
      <trkpt lat="49.04395" lon="7.70996">
        <ele>408</ele>
        <time>2025-05-10T06:20:22.000Z</time>
      </trkpt>
      <trkpt lat="49.04396" lon="7.70987">
        <ele>407</ele>
        <time>2025-05-10T06:20:27.000Z</time>
      </trkpt>
      <trkpt lat="49.04396" lon="7.7098">
        <ele>407</ele>
        <time>2025-05-10T06:20:31.000Z</time>
      </trkpt>
      <trkpt lat="49.04398" lon="7.70966">
        <ele>406</ele>
        <time>2025-05-10T06:20:38.000Z</time>
      </trkpt>
      <trkpt lat="49.04393" lon="7.7096">
        <ele>405</ele>
        <time>2025-05-10T06:20:46.000Z</time>
      </trkpt>
      <trkpt lat="49.04389" lon="7.70954">
        <ele>405</ele>
        <time>2025-05-10T06:20:47.000Z</time>
      </trkpt>
      <trkpt lat="49.04382" lon="7.70934">
        <ele>403</ele>
        <time>2025-05-10T06:20:57.000Z</time>
      </trkpt>
      <trkpt lat="49.04379" lon="7.70922">
        <ele>402</ele>
        <time>2025-05-10T06:21:03.000Z</time>
      </trkpt>
      <trkpt lat="49.04381" lon="7.70916">
        <ele>402</ele>
        <time>2025-05-10T06:21:06.000Z</time>
      </trkpt>
      <trkpt lat="49.04385" lon="7.70909">
        <ele>402</ele>
        <time>2025-05-10T06:21:07.000Z</time>
      </trkpt>
      <trkpt lat="49.04385" lon="7.70904">
        <ele>402</ele>
        <time>2025-05-10T06:21:12.000Z</time>
      </trkpt>
      <trkpt lat="49.04385" lon="7.70894">
        <ele>402</ele>
        <time>2025-05-10T06:21:16.000Z</time>
      </trkpt>
      <trkpt lat="49.04385" lon="7.70872">
        <ele>402</ele>
        <time>2025-05-10T06:21:25.000Z</time>
      </trkpt>
      <trkpt lat="49.04387" lon="7.70865">
        <ele>401</ele>
        <time>2025-05-10T06:21:27.000Z</time>
      </trkpt>
      <trkpt lat="49.04389" lon="7.70858">
        <ele>402</ele>
        <time>2025-05-10T06:21:30.000Z</time>
      </trkpt>
      <trkpt lat="49.04387" lon="7.70852">
        <ele>402</ele>
        <time>2025-05-10T06:21:34.000Z</time>
      </trkpt>
      <trkpt lat="49.0439" lon="7.7084">
        <ele>401</ele>
        <time>2025-05-10T06:21:41.000Z</time>
      </trkpt>
      <trkpt lat="49.04391" lon="7.70834">
        <ele>402</ele>
        <time>2025-05-10T06:21:43.000Z</time>
      </trkpt>
      <trkpt lat="49.04396" lon="7.70827">
        <ele>402</ele>
        <time>2025-05-10T06:21:45.000Z</time>
      </trkpt>
      <trkpt lat="49.04398" lon="7.70821">
        <ele>402</ele>
        <time>2025-05-10T06:21:48.000Z</time>
      </trkpt>
      <trkpt lat="49.04405" lon="7.70812">
        <ele>402</ele>
        <time>2025-05-10T06:21:54.000Z</time>
      </trkpt>
      <trkpt lat="49.04408" lon="7.70804">
        <ele>401</ele>
        <time>2025-05-10T06:21:58.000Z</time>
      </trkpt>
      <trkpt lat="49.0441" lon="7.70798">
        <ele>401</ele>
        <time>2025-05-10T06:22:03.000Z</time>
      </trkpt>
      <trkpt lat="49.04413" lon="7.70793">
        <ele>401</ele>
        <time>2025-05-10T06:22:06.000Z</time>
      </trkpt>
      <trkpt lat="49.04415" lon="7.70787">
        <ele>401</ele>
        <time>2025-05-10T06:22:09.000Z</time>
      </trkpt>
      <trkpt lat="49.04416" lon="7.70778">
        <ele>401</ele>
        <time>2025-05-10T06:22:14.000Z</time>
      </trkpt>
      <trkpt lat="49.04415" lon="7.7077">
        <ele>401</ele>
        <time>2025-05-10T06:22:17.000Z</time>
      </trkpt>
      <trkpt lat="49.04414" lon="7.70763">
        <ele>402</ele>
        <time>2025-05-10T06:22:21.000Z</time>
      </trkpt>
      <trkpt lat="49.04417" lon="7.70757">
        <ele>403</ele>
        <time>2025-05-10T06:22:26.000Z</time>
      </trkpt>
      <trkpt lat="49.04421" lon="7.70752">
        <ele>403</ele>
        <time>2025-05-10T06:22:29.000Z</time>
      </trkpt>
      <trkpt lat="49.04426" lon="7.70747">
        <ele>402</ele>
        <time>2025-05-10T06:22:34.000Z</time>
      </trkpt>
      <trkpt lat="49.04431" lon="7.70744">
        <ele>402</ele>
        <time>2025-05-10T06:22:37.000Z</time>
      </trkpt>
      <trkpt lat="49.04435" lon="7.70741">
        <ele>402</ele>
        <time>2025-05-10T06:22:41.000Z</time>
      </trkpt>
      <trkpt lat="49.04441" lon="7.70744">
        <ele>401</ele>
        <time>2025-05-10T06:22:44.000Z</time>
      </trkpt>
      <trkpt lat="49.04447" lon="7.70742">
        <ele>401</ele>
        <time>2025-05-10T06:22:49.000Z</time>
      </trkpt>
      <trkpt lat="49.04453" lon="7.70737">
        <ele>401</ele>
        <time>2025-05-10T06:22:53.000Z</time>
      </trkpt>
      <trkpt lat="49.04459" lon="7.7073">
        <ele>401</ele>
        <time>2025-05-10T06:23:03.000Z</time>
      </trkpt>
      <trkpt lat="49.04463" lon="7.70728">
        <ele>401</ele>
        <time>2025-05-10T06:23:06.000Z</time>
      </trkpt>
      <trkpt lat="49.0447" lon="7.70723">
        <ele>401</ele>
        <time>2025-05-10T06:23:09.000Z</time>
      </trkpt>
      <trkpt lat="49.04473" lon="7.7072">
        <ele>401</ele>
        <time>2025-05-10T06:23:12.000Z</time>
      </trkpt>
      <trkpt lat="49.04474" lon="7.70714">
        <ele>401</ele>
        <time>2025-05-10T06:23:16.000Z</time>
      </trkpt>
      <trkpt lat="49.04478" lon="7.70708">
        <ele>402</ele>
        <time>2025-05-10T06:23:21.000Z</time>
      </trkpt>
      <trkpt lat="49.04483" lon="7.70704">
        <ele>401</ele>
        <time>2025-05-10T06:23:24.000Z</time>
      </trkpt>
      <trkpt lat="49.04487" lon="7.70697">
        <ele>400</ele>
        <time>2025-05-10T06:23:29.000Z</time>
      </trkpt>
      <trkpt lat="49.04492" lon="7.70697">
        <ele>400</ele>
        <time>2025-05-10T06:23:34.000Z</time>
      </trkpt>
      <trkpt lat="49.04497" lon="7.70698">
        <ele>400</ele>
        <time>2025-05-10T06:23:36.000Z</time>
      </trkpt>
      <trkpt lat="49.04503" lon="7.70694">
        <ele>399</ele>
        <time>2025-05-10T06:23:39.000Z</time>
      </trkpt>
      <trkpt lat="49.04509" lon="7.70689">
        <ele>399</ele>
        <time>2025-05-10T06:23:46.000Z</time>
      </trkpt>
      <trkpt lat="49.04522" lon="7.70677">
        <ele>399</ele>
        <time>2025-05-10T06:23:55.000Z</time>
      </trkpt>
      <trkpt lat="49.04524" lon="7.70672">
        <ele>399</ele>
        <time>2025-05-10T06:23:58.000Z</time>
      </trkpt>
      <trkpt lat="49.04526" lon="7.70665">
        <ele>398</ele>
        <time>2025-05-10T06:24:03.000Z</time>
      </trkpt>
      <trkpt lat="49.04531" lon="7.70651">
        <ele>397</ele>
        <time>2025-05-10T06:24:11.000Z</time>
      </trkpt>
      <trkpt lat="49.04539" lon="7.70631">
        <ele>395</ele>
        <time>2025-05-10T06:24:23.000Z</time>
      </trkpt>
      <trkpt lat="49.04554" lon="7.70612">
        <ele>393</ele>
        <time>2025-05-10T06:24:37.000Z</time>
      </trkpt>
      <trkpt lat="49.04563" lon="7.70598">
        <ele>393</ele>
        <time>2025-05-10T06:24:43.000Z</time>
      </trkpt>
      <trkpt lat="49.04563" lon="7.7059">
        <ele>394</ele>
        <time>2025-05-10T06:24:47.000Z</time>
      </trkpt>
      <trkpt lat="49.0456" lon="7.70577">
        <ele>393</ele>
        <time>2025-05-10T06:24:53.000Z</time>
      </trkpt>
      <trkpt lat="49.04563" lon="7.7057">
        <ele>392</ele>
        <time>2025-05-10T06:24:56.000Z</time>
      </trkpt>
      <trkpt lat="49.04566" lon="7.70565">
        <ele>390</ele>
        <time>2025-05-10T06:25:00.000Z</time>
      </trkpt>
      <trkpt lat="49.04577" lon="7.70561">
        <ele>388</ele>
        <time>2025-05-10T06:25:06.000Z</time>
      </trkpt>
      <trkpt lat="49.04582" lon="7.70567">
        <ele>388</ele>
        <time>2025-05-10T06:25:08.000Z</time>
      </trkpt>
      <trkpt lat="49.04586" lon="7.7057">
        <ele>388</ele>
        <time>2025-05-10T06:25:10.000Z</time>
      </trkpt>
      <trkpt lat="49.04591" lon="7.70565">
        <ele>387</ele>
        <time>2025-05-10T06:25:17.000Z</time>
      </trkpt>
      <trkpt lat="49.04594" lon="7.70558">
        <ele>386</ele>
        <time>2025-05-10T06:25:21.000Z</time>
      </trkpt>
      <trkpt lat="49.04605" lon="7.70549">
        <ele>384</ele>
        <time>2025-05-10T06:25:31.000Z</time>
      </trkpt>
      <trkpt lat="49.0461" lon="7.70548">
        <ele>383</ele>
        <time>2025-05-10T06:25:35.000Z</time>
      </trkpt>
      <trkpt lat="49.04615" lon="7.70544">
        <ele>382</ele>
        <time>2025-05-10T06:25:39.000Z</time>
      </trkpt>
      <trkpt lat="49.0462" lon="7.70545">
        <ele>382</ele>
        <time>2025-05-10T06:25:42.000Z</time>
      </trkpt>
      <trkpt lat="49.04624" lon="7.70543">
        <ele>381</ele>
        <time>2025-05-10T06:25:43.000Z</time>
      </trkpt>
      <trkpt lat="49.04639" lon="7.70533">
        <ele>379</ele>
        <time>2025-05-10T06:25:55.000Z</time>
      </trkpt>
      <trkpt lat="49.04648" lon="7.70522">
        <ele>377</ele>
        <time>2025-05-10T06:26:03.000Z</time>
      </trkpt>
      <trkpt lat="49.04671" lon="7.70476">
        <ele>371</ele>
        <time>2025-05-10T06:26:34.000Z</time>
      </trkpt>
      <trkpt lat="49.04695" lon="7.7043">
        <ele>366</ele>
        <time>2025-05-10T06:27:05.000Z</time>
      </trkpt>
      <trkpt lat="49.04721" lon="7.70376">
        <ele>360</ele>
        <time>2025-05-10T06:27:36.000Z</time>
      </trkpt>
      <trkpt lat="49.04719" lon="7.70367">
        <ele>359</ele>
        <time>2025-05-10T06:27:41.000Z</time>
      </trkpt>
      <trkpt lat="49.04719" lon="7.70359">
        <ele>358</ele>
        <time>2025-05-10T06:27:46.000Z</time>
      </trkpt>
      <trkpt lat="49.04717" lon="7.70351">
        <ele>357</ele>
        <time>2025-05-10T06:27:50.000Z</time>
      </trkpt>
      <trkpt lat="49.04718" lon="7.70344">
        <ele>356</ele>
        <time>2025-05-10T06:27:55.000Z</time>
      </trkpt>
      <trkpt lat="49.04722" lon="7.70338">
        <ele>356</ele>
        <time>2025-05-10T06:27:58.000Z</time>
      </trkpt>
      <trkpt lat="49.04727" lon="7.70334">
        <ele>355</ele>
        <time>2025-05-10T06:28:02.000Z</time>
      </trkpt>
      <trkpt lat="49.04731" lon="7.70331">
        <ele>355</ele>
        <time>2025-05-10T06:28:05.000Z</time>
      </trkpt>
      <trkpt lat="49.04736" lon="7.70331">
        <ele>354</ele>
        <time>2025-05-10T06:28:09.000Z</time>
      </trkpt>
      <trkpt lat="49.0474" lon="7.70323">
        <ele>353</ele>
        <time>2025-05-10T06:28:14.000Z</time>
      </trkpt>
      <trkpt lat="49.04744" lon="7.70319">
        <ele>352</ele>
        <time>2025-05-10T06:28:17.000Z</time>
      </trkpt>
      <trkpt lat="49.04747" lon="7.70316">
        <ele>352</ele>
        <time>2025-05-10T06:28:21.000Z</time>
      </trkpt>
      <trkpt lat="49.04753" lon="7.70313">
        <ele>351</ele>
        <time>2025-05-10T06:28:24.000Z</time>
      </trkpt>
      <trkpt lat="49.04754" lon="7.70304">
        <ele>351</ele>
        <time>2025-05-10T06:28:27.000Z</time>
      </trkpt>
      <trkpt lat="49.04761" lon="7.70291">
        <ele>349</ele>
        <time>2025-05-10T06:28:37.000Z</time>
      </trkpt>
      <trkpt lat="49.04764" lon="7.70267">
        <ele>347</ele>
        <time>2025-05-10T06:28:49.000Z</time>
      </trkpt>
      <trkpt lat="49.04771" lon="7.70266">
        <ele>346</ele>
        <time>2025-05-10T06:28:54.000Z</time>
      </trkpt>
      <trkpt lat="49.04765" lon="7.70258">
        <ele>346</ele>
        <time>2025-05-10T06:28:55.000Z</time>
      </trkpt>
      <trkpt lat="49.04766" lon="7.70252">
        <ele>346</ele>
        <time>2025-05-10T06:28:58.000Z</time>
      </trkpt>
      <trkpt lat="49.04769" lon="7.70247">
        <ele>346</ele>
        <time>2025-05-10T06:29:03.000Z</time>
      </trkpt>
      <trkpt lat="49.04773" lon="7.70245">
        <ele>347</ele>
        <time>2025-05-10T06:29:06.000Z</time>
      </trkpt>
      <trkpt lat="49.04778" lon="7.70248">
        <ele>348</ele>
        <time>2025-05-10T06:29:09.000Z</time>
      </trkpt>
      <trkpt lat="49.04785" lon="7.70258">
        <ele>348</ele>
        <time>2025-05-10T06:29:14.000Z</time>
      </trkpt>
      <trkpt lat="49.04796" lon="7.70257">
        <ele>350</ele>
        <time>2025-05-10T06:29:26.000Z</time>
      </trkpt>
      <trkpt lat="49.04803" lon="7.70252">
        <ele>350</ele>
        <time>2025-05-10T06:29:55.000Z</time>
      </trkpt>
      <trkpt lat="49.04807" lon="7.70247">
        <ele>351</ele>
        <time>2025-05-10T06:29:58.000Z</time>
      </trkpt>
      <trkpt lat="49.04812" lon="7.70249">
        <ele>351</ele>
        <time>2025-05-10T06:30:02.000Z</time>
      </trkpt>
      <trkpt lat="49.04808" lon="7.70253">
        <ele>351</ele>
        <time>2025-05-10T06:30:21.000Z</time>
      </trkpt>
      <trkpt lat="49.04806" lon="7.70235">
        <ele>350</ele>
        <time>2025-05-10T06:30:30.000Z</time>
      </trkpt>
      <trkpt lat="49.04799" lon="7.70234">
        <ele>352</ele>
        <time>2025-05-10T06:30:40.000Z</time>
      </trkpt>
      <trkpt lat="49.04795" lon="7.70239">
        <ele>353</ele>
        <time>2025-05-10T06:30:44.000Z</time>
      </trkpt>
      <trkpt lat="49.04791" lon="7.70241">
        <ele>353</ele>
        <time>2025-05-10T06:30:48.000Z</time>
      </trkpt>
      <trkpt lat="49.04787" lon="7.70235">
        <ele>352</ele>
        <time>2025-05-10T06:30:54.000Z</time>
      </trkpt>
      <trkpt lat="49.04784" lon="7.7023">
        <ele>351</ele>
        <time>2025-05-10T06:30:58.000Z</time>
      </trkpt>
      <trkpt lat="49.04784" lon="7.70219">
        <ele>350</ele>
        <time>2025-05-10T06:31:17.000Z</time>
      </trkpt>
      <trkpt lat="49.04784" lon="7.70212">
        <ele>350</ele>
        <time>2025-05-10T06:31:24.000Z</time>
      </trkpt>
      <trkpt lat="49.04789" lon="7.70197">
        <ele>346</ele>
        <time>2025-05-10T06:31:42.000Z</time>
      </trkpt>
      <trkpt lat="49.04783" lon="7.7019">
        <ele>344</ele>
        <time>2025-05-10T06:32:03.000Z</time>
      </trkpt>
      <trkpt lat="49.04783" lon="7.7018">
        <ele>348</ele>
        <time>2025-05-10T06:32:18.000Z</time>
      </trkpt>
      <trkpt lat="49.04776" lon="7.70174">
        <ele>349</ele>
        <time>2025-05-10T06:32:22.000Z</time>
      </trkpt>
      <trkpt lat="49.04772" lon="7.7017">
        <ele>349</ele>
        <time>2025-05-10T06:32:25.000Z</time>
      </trkpt>
      <trkpt lat="49.04767" lon="7.70171">
        <ele>349</ele>
        <time>2025-05-10T06:32:29.000Z</time>
      </trkpt>
      <trkpt lat="49.04762" lon="7.70166">
        <ele>350</ele>
        <time>2025-05-10T06:32:33.000Z</time>
      </trkpt>
      <trkpt lat="49.04765" lon="7.70159">
        <ele>352</ele>
        <time>2025-05-10T06:32:38.000Z</time>
      </trkpt>
      <trkpt lat="49.04776" lon="7.70162">
        <ele>353</ele>
        <time>2025-05-10T06:32:40.000Z</time>
      </trkpt>
      <trkpt lat="49.04781" lon="7.70163">
        <ele>353</ele>
        <time>2025-05-10T06:32:43.000Z</time>
      </trkpt>
      <trkpt lat="49.04792" lon="7.70168">
        <ele>354</ele>
        <time>2025-05-10T06:32:50.000Z</time>
      </trkpt>
      <trkpt lat="49.04792" lon="7.70174">
        <ele>354</ele>
        <time>2025-05-10T06:32:57.000Z</time>
      </trkpt>
      <trkpt lat="49.04792" lon="7.70172">
        <ele>366</ele>
        <time>2025-05-10T06:34:00.000Z</time>
      </trkpt>
      <trkpt lat="49.04792" lon="7.70171">
        <ele>366</ele>
        <time>2025-05-10T06:35:19.000Z</time>
      </trkpt>
      <trkpt lat="49.04784" lon="7.70175">
        <ele>362</ele>
        <time>2025-05-10T06:35:55.000Z</time>
      </trkpt>
      <trkpt lat="49.04783" lon="7.70182">
        <ele>361</ele>
        <time>2025-05-10T06:35:59.000Z</time>
      </trkpt>
      <trkpt lat="49.04795" lon="7.70211">
        <ele>359</ele>
        <time>2025-05-10T06:36:15.000Z</time>
      </trkpt>
      <trkpt lat="49.04802" lon="7.70207">
        <ele>359</ele>
        <time>2025-05-10T06:36:17.000Z</time>
      </trkpt>
      <trkpt lat="49.04795" lon="7.70193">
        <ele>361</ele>
        <time>2025-05-10T06:36:30.000Z</time>
      </trkpt>
      <trkpt lat="49.04796" lon="7.70186">
        <ele>361</ele>
        <time>2025-05-10T06:36:32.000Z</time>
      </trkpt>
      <trkpt lat="49.04795" lon="7.7018">
        <ele>361</ele>
        <time>2025-05-10T06:36:35.000Z</time>
      </trkpt>
      <trkpt lat="49.04796" lon="7.70175">
        <ele>340</ele>
        <time>2025-05-10T06:37:56.000Z</time>
      </trkpt>
      <trkpt lat="49.04793" lon="7.70169">
        <ele>338</ele>
        <time>2025-05-10T06:38:02.000Z</time>
      </trkpt>
      <trkpt lat="49.04788" lon="7.70167">
        <ele>338</ele>
        <time>2025-05-10T06:38:07.000Z</time>
      </trkpt>
      <trkpt lat="49.0479" lon="7.70164">
        <ele>336</ele>
        <time>2025-05-10T06:38:16.000Z</time>
      </trkpt>
      <trkpt lat="49.04787" lon="7.70145">
        <ele>331</ele>
        <time>2025-05-10T06:38:31.000Z</time>
      </trkpt>
      <trkpt lat="49.0479" lon="7.70135">
        <ele>331</ele>
        <time>2025-05-10T06:38:44.000Z</time>
      </trkpt>
      <trkpt lat="49.04792" lon="7.70128">
        <ele>335</ele>
        <time>2025-05-10T06:38:57.000Z</time>
      </trkpt>
      <trkpt lat="49.04787" lon="7.70124">
        <ele>335</ele>
        <time>2025-05-10T06:39:03.000Z</time>
      </trkpt>
      <trkpt lat="49.04787" lon="7.70123">
        <ele>335</ele>
        <time>2025-05-10T06:39:42.000Z</time>
      </trkpt>
      <trkpt lat="49.04782" lon="7.7014">
        <ele>355</ele>
        <time>2025-05-10T06:40:59.000Z</time>
      </trkpt>
      <trkpt lat="49.04789" lon="7.70191">
        <ele>358</ele>
        <time>2025-05-10T06:41:44.000Z</time>
      </trkpt>
      <trkpt lat="49.04787" lon="7.70188">
        <ele>358</ele>
        <time>2025-05-10T06:42:27.000Z</time>
      </trkpt>
      <trkpt lat="49.04799" lon="7.70172">
        <ele>355</ele>
        <time>2025-05-10T06:42:59.000Z</time>
      </trkpt>
      <trkpt lat="49.04795" lon="7.70159">
        <ele>354</ele>
        <time>2025-05-10T06:43:04.000Z</time>
      </trkpt>
      <trkpt lat="49.0479" lon="7.70146">
        <ele>354</ele>
        <time>2025-05-10T06:43:06.000Z</time>
      </trkpt>
      <trkpt lat="49.04776" lon="7.70143">
        <ele>352</ele>
        <time>2025-05-10T06:43:15.000Z</time>
      </trkpt>
      <trkpt lat="49.04761" lon="7.70173">
        <ele>343</ele>
        <time>2025-05-10T06:44:09.000Z</time>
      </trkpt>
      <trkpt lat="49.04783" lon="7.70181">
        <ele>343</ele>
        <time>2025-05-10T06:44:10.000Z</time>
      </trkpt>
      <trkpt lat="49.0479" lon="7.70177">
        <ele>343</ele>
        <time>2025-05-10T06:44:11.000Z</time>
      </trkpt>
      <trkpt lat="49.04795" lon="7.70163">
        <ele>343</ele>
        <time>2025-05-10T06:44:12.000Z</time>
      </trkpt>
      <trkpt lat="49.04797" lon="7.70154">
        <ele>342</ele>
        <time>2025-05-10T06:44:13.000Z</time>
      </trkpt>
      <trkpt lat="49.04797" lon="7.70148">
        <ele>341</ele>
        <time>2025-05-10T06:44:16.000Z</time>
      </trkpt>
      <trkpt lat="49.04792" lon="7.7013">
        <ele>336</ele>
        <time>2025-05-10T06:44:32.000Z</time>
      </trkpt>
      <trkpt lat="49.04781" lon="7.70147">
        <ele>328</ele>
        <time>2025-05-10T06:45:04.000Z</time>
      </trkpt>
      <trkpt lat="49.04779" lon="7.70138">
        <ele>325</ele>
        <time>2025-05-10T06:45:18.000Z</time>
      </trkpt>
      <trkpt lat="49.04779" lon="7.7013">
        <ele>324</ele>
        <time>2025-05-10T06:45:38.000Z</time>
      </trkpt>
      <trkpt lat="49.04779" lon="7.70134">
        <ele>325</ele>
        <time>2025-05-10T06:46:16.000Z</time>
      </trkpt>
      <trkpt lat="49.04783" lon="7.70134">
        <ele>326</ele>
        <time>2025-05-10T06:46:51.000Z</time>
      </trkpt>
      <trkpt lat="49.04782" lon="7.70142">
        <ele>327</ele>
        <time>2025-05-10T06:46:58.000Z</time>
      </trkpt>
      <trkpt lat="49.04777" lon="7.70143">
        <ele>327</ele>
        <time>2025-05-10T06:47:03.000Z</time>
      </trkpt>
      <trkpt lat="49.04775" lon="7.70158">
        <ele>326</ele>
        <time>2025-05-10T06:47:13.000Z</time>
      </trkpt>
      <trkpt lat="49.04776" lon="7.70166">
        <ele>326</ele>
        <time>2025-05-10T06:47:17.000Z</time>
      </trkpt>
      <trkpt lat="49.04777" lon="7.70173">
        <ele>326</ele>
        <time>2025-05-10T06:47:22.000Z</time>
      </trkpt>
      <trkpt lat="49.04774" lon="7.70187">
        <ele>325</ele>
        <time>2025-05-10T06:47:31.000Z</time>
      </trkpt>
      <trkpt lat="49.0477" lon="7.70192">
        <ele>324</ele>
        <time>2025-05-10T06:47:35.000Z</time>
      </trkpt>
      <trkpt lat="49.04765" lon="7.70196">
        <ele>323</ele>
        <time>2025-05-10T06:47:41.000Z</time>
      </trkpt>
      <trkpt lat="49.04762" lon="7.70207">
        <ele>325</ele>
        <time>2025-05-10T06:48:04.000Z</time>
      </trkpt>
      <trkpt lat="49.04765" lon="7.70227">
        <ele>330</ele>
        <time>2025-05-10T06:48:23.000Z</time>
      </trkpt>
      <trkpt lat="49.04782" lon="7.70202">
        <ele>335</ele>
        <time>2025-05-10T06:48:44.000Z</time>
      </trkpt>
      <trkpt lat="49.04779" lon="7.70227">
        <ele>339</ele>
        <time>2025-05-10T06:49:07.000Z</time>
      </trkpt>
      <trkpt lat="49.04775" lon="7.70238">
        <ele>340</ele>
        <time>2025-05-10T06:49:12.000Z</time>
      </trkpt>
      <trkpt lat="49.04777" lon="7.70248">
        <ele>341</ele>
        <time>2025-05-10T06:49:21.000Z</time>
      </trkpt>
      <trkpt lat="49.04777" lon="7.70256">
        <ele>342</ele>
        <time>2025-05-10T06:49:26.000Z</time>
      </trkpt>
      <trkpt lat="49.04775" lon="7.70261">
        <ele>342</ele>
        <time>2025-05-10T06:49:30.000Z</time>
      </trkpt>
      <trkpt lat="49.04772" lon="7.7027">
        <ele>343</ele>
        <time>2025-05-10T06:49:37.000Z</time>
      </trkpt>
      <trkpt lat="49.04769" lon="7.70275">
        <ele>343</ele>
        <time>2025-05-10T06:49:41.000Z</time>
      </trkpt>
      <trkpt lat="49.04752" lon="7.70295">
        <ele>341</ele>
        <time>2025-05-10T06:50:03.000Z</time>
      </trkpt>
      <trkpt lat="49.04749" lon="7.70298">
        <ele>341</ele>
        <time>2025-05-10T06:50:07.000Z</time>
      </trkpt>
      <trkpt lat="49.04744" lon="7.70298">
        <ele>340</ele>
        <time>2025-05-10T06:50:11.000Z</time>
      </trkpt>
      <trkpt lat="49.04738" lon="7.70304">
        <ele>339</ele>
        <time>2025-05-10T06:50:19.000Z</time>
      </trkpt>
      <trkpt lat="49.04733" lon="7.70305">
        <ele>339</ele>
        <time>2025-05-10T06:50:22.000Z</time>
      </trkpt>
      <trkpt lat="49.0473" lon="7.70309">
        <ele>339</ele>
        <time>2025-05-10T06:50:26.000Z</time>
      </trkpt>
      <trkpt lat="49.0472" lon="7.70312">
        <ele>339</ele>
        <time>2025-05-10T06:50:36.000Z</time>
      </trkpt>
      <trkpt lat="49.04711" lon="7.70316">
        <ele>338</ele>
        <time>2025-05-10T06:50:44.000Z</time>
      </trkpt>
      <trkpt lat="49.04707" lon="7.70323">
        <ele>337</ele>
        <time>2025-05-10T06:50:50.000Z</time>
      </trkpt>
      <trkpt lat="49.04698" lon="7.70335">
        <ele>335</ele>
        <time>2025-05-10T06:51:00.000Z</time>
      </trkpt>
      <trkpt lat="49.04692" lon="7.70355">
        <ele>334</ele>
        <time>2025-05-10T06:51:13.000Z</time>
      </trkpt>
      <trkpt lat="49.04672" lon="7.70376">
        <ele>332</ele>
        <time>2025-05-10T06:51:32.000Z</time>
      </trkpt>
      <trkpt lat="49.04667" lon="7.70378">
        <ele>332</ele>
        <time>2025-05-10T06:51:36.000Z</time>
      </trkpt>
      <trkpt lat="49.04662" lon="7.70382">
        <ele>332</ele>
        <time>2025-05-10T06:51:39.000Z</time>
      </trkpt>
      <trkpt lat="49.04657" lon="7.70385">
        <ele>332</ele>
        <time>2025-05-10T06:51:43.000Z</time>
      </trkpt>
      <trkpt lat="49.04653" lon="7.70387">
        <ele>331</ele>
        <time>2025-05-10T06:51:47.000Z</time>
      </trkpt>
      <trkpt lat="49.04643" lon="7.70384">
        <ele>331</ele>
        <time>2025-05-10T06:51:54.000Z</time>
      </trkpt>
      <trkpt lat="49.04639" lon="7.70379">
        <ele>330</ele>
        <time>2025-05-10T06:51:58.000Z</time>
      </trkpt>
      <trkpt lat="49.04624" lon="7.70347">
        <ele>328</ele>
        <time>2025-05-10T06:52:17.000Z</time>
      </trkpt>
      <trkpt lat="49.04624" lon="7.70339">
        <ele>328</ele>
        <time>2025-05-10T06:52:22.000Z</time>
      </trkpt>
      <trkpt lat="49.04625" lon="7.70331">
        <ele>327</ele>
        <time>2025-05-10T06:52:26.000Z</time>
      </trkpt>
      <trkpt lat="49.04618" lon="7.70268">
        <ele>322</ele>
        <time>2025-05-10T06:52:57.000Z</time>
      </trkpt>
      <trkpt lat="49.04616" lon="7.70239">
        <ele>320</ele>
        <time>2025-05-10T06:53:11.000Z</time>
      </trkpt>
      <trkpt lat="49.04615" lon="7.70228">
        <ele>320</ele>
        <time>2025-05-10T06:53:18.000Z</time>
      </trkpt>
      <trkpt lat="49.04614" lon="7.70221">
        <ele>320</ele>
        <time>2025-05-10T06:53:21.000Z</time>
      </trkpt>
      <trkpt lat="49.04612" lon="7.702">
        <ele>317</ele>
        <time>2025-05-10T06:53:32.000Z</time>
      </trkpt>
      <trkpt lat="49.04611" lon="7.70192">
        <ele>317</ele>
        <time>2025-05-10T06:53:37.000Z</time>
      </trkpt>
      <trkpt lat="49.04609" lon="7.70177">
        <ele>316</ele>
        <time>2025-05-10T06:53:44.000Z</time>
      </trkpt>
      <trkpt lat="49.04609" lon="7.7017">
        <ele>316</ele>
        <time>2025-05-10T06:53:47.000Z</time>
      </trkpt>
      <trkpt lat="49.04605" lon="7.70148">
        <ele>314</ele>
        <time>2025-05-10T06:54:00.000Z</time>
      </trkpt>
      <trkpt lat="49.04601" lon="7.70146">
        <ele>314</ele>
        <time>2025-05-10T06:54:02.000Z</time>
      </trkpt>
      <trkpt lat="49.04593" lon="7.70126">
        <ele>312</ele>
        <time>2025-05-10T06:54:12.000Z</time>
      </trkpt>
      <trkpt lat="49.04589" lon="7.70119">
        <ele>312</ele>
        <time>2025-05-10T06:54:17.000Z</time>
      </trkpt>
      <trkpt lat="49.04585" lon="7.70112">
        <ele>312</ele>
        <time>2025-05-10T06:54:20.000Z</time>
      </trkpt>
      <trkpt lat="49.04582" lon="7.70106">
        <ele>311</ele>
        <time>2025-05-10T06:54:23.000Z</time>
      </trkpt>
      <trkpt lat="49.04552" lon="7.70074">
        <ele>307</ele>
        <time>2025-05-10T06:54:54.000Z</time>
      </trkpt>
      <trkpt lat="49.04547" lon="7.70069">
        <ele>306</ele>
        <time>2025-05-10T06:54:58.000Z</time>
      </trkpt>
      <trkpt lat="49.04543" lon="7.70066">
        <ele>306</ele>
        <time>2025-05-10T06:55:02.000Z</time>
      </trkpt>
      <trkpt lat="49.04529" lon="7.70056">
        <ele>304</ele>
        <time>2025-05-10T06:55:14.000Z</time>
      </trkpt>
      <trkpt lat="49.04526" lon="7.70051">
        <ele>304</ele>
        <time>2025-05-10T06:55:18.000Z</time>
      </trkpt>
      <trkpt lat="49.04506" lon="7.70042">
        <ele>302</ele>
        <time>2025-05-10T06:55:35.000Z</time>
      </trkpt>
      <trkpt lat="49.04501" lon="7.70042">
        <ele>301</ele>
        <time>2025-05-10T06:55:39.000Z</time>
      </trkpt>
      <trkpt lat="49.04495" lon="7.70039">
        <ele>300</ele>
        <time>2025-05-10T06:55:43.000Z</time>
      </trkpt>
      <trkpt lat="49.0449" lon="7.70039">
        <ele>300</ele>
        <time>2025-05-10T06:55:47.000Z</time>
      </trkpt>
      <trkpt lat="49.04486" lon="7.70037">
        <ele>300</ele>
        <time>2025-05-10T06:55:50.000Z</time>
      </trkpt>
      <trkpt lat="49.04477" lon="7.70035">
        <ele>298</ele>
        <time>2025-05-10T06:55:56.000Z</time>
      </trkpt>
      <trkpt lat="49.0443" lon="7.70022">
        <ele>293</ele>
        <time>2025-05-10T06:56:29.000Z</time>
      </trkpt>
      <trkpt lat="49.04425" lon="7.7002">
        <ele>293</ele>
        <time>2025-05-10T06:56:32.000Z</time>
      </trkpt>
      <trkpt lat="49.04416" lon="7.70018">
        <ele>292</ele>
        <time>2025-05-10T06:56:38.000Z</time>
      </trkpt>
      <trkpt lat="49.04411" lon="7.70016">
        <ele>292</ele>
        <time>2025-05-10T06:56:42.000Z</time>
      </trkpt>
      <trkpt lat="49.04389" lon="7.70007">
        <ele>289</ele>
        <time>2025-05-10T06:57:02.000Z</time>
      </trkpt>
      <trkpt lat="49.04377" lon="7.69998">
        <ele>287</ele>
        <time>2025-05-10T06:57:15.000Z</time>
      </trkpt>
      <trkpt lat="49.04374" lon="7.69994">
        <ele>288</ele>
        <time>2025-05-10T06:57:19.000Z</time>
      </trkpt>
      <trkpt lat="49.04369" lon="7.6999">
        <ele>287</ele>
        <time>2025-05-10T06:57:25.000Z</time>
      </trkpt>
      <trkpt lat="49.04364" lon="7.69985">
        <ele>287</ele>
        <time>2025-05-10T06:57:28.000Z</time>
      </trkpt>
      <trkpt lat="49.04359" lon="7.69981">
        <ele>286</ele>
        <time>2025-05-10T06:57:33.000Z</time>
      </trkpt>
      <trkpt lat="49.04355" lon="7.69977">
        <ele>286</ele>
        <time>2025-05-10T06:57:38.000Z</time>
      </trkpt>
      <trkpt lat="49.04347" lon="7.69971">
        <ele>284</ele>
        <time>2025-05-10T06:57:49.000Z</time>
      </trkpt>
      <trkpt lat="49.04318" lon="7.69929">
        <ele>281</ele>
        <time>2025-05-10T06:58:13.000Z</time>
      </trkpt>
      <trkpt lat="49.04306" lon="7.6992">
        <ele>279</ele>
        <time>2025-05-10T06:58:26.000Z</time>
      </trkpt>
      <trkpt lat="49.043" lon="7.69915">
        <ele>279</ele>
        <time>2025-05-10T06:58:31.000Z</time>
      </trkpt>
      <trkpt lat="49.04294" lon="7.69912">
        <ele>278</ele>
        <time>2025-05-10T06:58:37.000Z</time>
      </trkpt>
      <trkpt lat="49.04269" lon="7.699">
        <ele>275</ele>
        <time>2025-05-10T06:58:56.000Z</time>
      </trkpt>
      <trkpt lat="49.04223" lon="7.6988">
        <ele>270</ele>
        <time>2025-05-10T06:59:32.000Z</time>
      </trkpt>
      <trkpt lat="49.04209" lon="7.6987">
        <ele>267</ele>
        <time>2025-05-10T06:59:40.000Z</time>
      </trkpt>
      <trkpt lat="49.04206" lon="7.69868">
        <ele>269</ele>
        <time>2025-05-10T06:59:43.000Z</time>
      </trkpt>
      <trkpt lat="49.04195" lon="7.69858">
        <ele>267</ele>
        <time>2025-05-10T06:59:49.000Z</time>
      </trkpt>
      <trkpt lat="49.04191" lon="7.69853">
        <ele>267</ele>
        <time>2025-05-10T06:59:53.000Z</time>
      </trkpt>
      <trkpt lat="49.04164" lon="7.69828">
        <ele>264</ele>
        <time>2025-05-10T07:00:20.000Z</time>
      </trkpt>
      <trkpt lat="49.04128" lon="7.69814">
        <ele>260</ele>
        <time>2025-05-10T07:00:52.000Z</time>
      </trkpt>
      <trkpt lat="49.04103" lon="7.69806">
        <ele>257</ele>
        <time>2025-05-10T07:01:15.000Z</time>
      </trkpt>
      <trkpt lat="49.04098" lon="7.69805">
        <ele>257</ele>
        <time>2025-05-10T07:01:18.000Z</time>
      </trkpt>
      <trkpt lat="49.04088" lon="7.69802">
        <ele>255</ele>
        <time>2025-05-10T07:01:27.000Z</time>
      </trkpt>
      <trkpt lat="49.04084" lon="7.69802">
        <ele>255</ele>
        <time>2025-05-10T07:01:30.000Z</time>
      </trkpt>
      <trkpt lat="49.0408" lon="7.69801">
        <ele>257</ele>
        <time>2025-05-10T07:01:34.000Z</time>
      </trkpt>
      <trkpt lat="49.04074" lon="7.698">
        <ele>255</ele>
        <time>2025-05-10T07:01:37.000Z</time>
      </trkpt>
      <trkpt lat="49.04026" lon="7.69791">
        <ele>251</ele>
        <time>2025-05-10T07:02:09.000Z</time>
      </trkpt>
      <trkpt lat="49.04004" lon="7.6978">
        <ele>249</ele>
        <time>2025-05-10T07:02:27.000Z</time>
      </trkpt>
      <trkpt lat="49.04001" lon="7.69772">
        <ele>248</ele>
        <time>2025-05-10T07:02:31.000Z</time>
      </trkpt>
      <trkpt lat="49.04001" lon="7.69765">
        <ele>247</ele>
        <time>2025-05-10T07:02:34.000Z</time>
      </trkpt>
      <trkpt lat="49.03999" lon="7.69757">
        <ele>247</ele>
        <time>2025-05-10T07:02:37.000Z</time>
      </trkpt>
      <trkpt lat="49.03996" lon="7.69751">
        <ele>247</ele>
        <time>2025-05-10T07:02:41.000Z</time>
      </trkpt>
      <trkpt lat="49.03991" lon="7.69748">
        <ele>248</ele>
        <time>2025-05-10T07:02:45.000Z</time>
      </trkpt>
      <trkpt lat="49.03976" lon="7.69747">
        <ele>248</ele>
        <time>2025-05-10T07:02:56.000Z</time>
      </trkpt>
      <trkpt lat="49.03972" lon="7.69741">
        <ele>248</ele>
        <time>2025-05-10T07:03:03.000Z</time>
      </trkpt>
      <trkpt lat="49.03966" lon="7.69742">
        <ele>249</ele>
        <time>2025-05-10T07:03:06.000Z</time>
      </trkpt>
      <trkpt lat="49.03961" lon="7.69744">
        <ele>248</ele>
        <time>2025-05-10T07:03:10.000Z</time>
      </trkpt>
      <trkpt lat="49.03955" lon="7.6974">
        <ele>248</ele>
        <time>2025-05-10T07:03:17.000Z</time>
      </trkpt>
      <trkpt lat="49.03951" lon="7.69739">
        <ele>249</ele>
        <time>2025-05-10T07:03:21.000Z</time>
      </trkpt>
      <trkpt lat="49.03946" lon="7.69739">
        <ele>249</ele>
        <time>2025-05-10T07:03:24.000Z</time>
      </trkpt>
      <trkpt lat="49.03942" lon="7.69738">
        <ele>249</ele>
        <time>2025-05-10T07:03:28.000Z</time>
      </trkpt>
      <trkpt lat="49.03936" lon="7.69741">
        <ele>249</ele>
        <time>2025-05-10T07:03:33.000Z</time>
      </trkpt>
      <trkpt lat="49.03926" lon="7.69743">
        <ele>249</ele>
        <time>2025-05-10T07:03:39.000Z</time>
      </trkpt>
      <trkpt lat="49.039" lon="7.69735">
        <ele>250</ele>
        <time>2025-05-10T07:03:59.000Z</time>
      </trkpt>
      <trkpt lat="49.03861" lon="7.69715">
        <ele>253</ele>
        <time>2025-05-10T07:04:31.000Z</time>
      </trkpt>
      <trkpt lat="49.03853" lon="7.69709">
        <ele>254</ele>
        <time>2025-05-10T07:04:39.000Z</time>
      </trkpt>
      <trkpt lat="49.03838" lon="7.69696">
        <ele>257</ele>
        <time>2025-05-10T07:05:01.000Z</time>
      </trkpt>
      <trkpt lat="49.03834" lon="7.69691">
        <ele>258</ele>
        <time>2025-05-10T07:05:06.000Z</time>
      </trkpt>
      <trkpt lat="49.03826" lon="7.69683">
        <ele>259</ele>
        <time>2025-05-10T07:05:17.000Z</time>
      </trkpt>
      <trkpt lat="49.03818" lon="7.69671">
        <ele>260</ele>
        <time>2025-05-10T07:05:26.000Z</time>
      </trkpt>
      <trkpt lat="49.03815" lon="7.69664">
        <ele>261</ele>
        <time>2025-05-10T07:05:30.000Z</time>
      </trkpt>
      <trkpt lat="49.03815" lon="7.69656">
        <ele>262</ele>
        <time>2025-05-10T07:05:38.000Z</time>
      </trkpt>
      <trkpt lat="49.03803" lon="7.69642">
        <ele>263</ele>
        <time>2025-05-10T07:05:48.000Z</time>
      </trkpt>
      <trkpt lat="49.038" lon="7.69638">
        <ele>263</ele>
        <time>2025-05-10T07:05:52.000Z</time>
      </trkpt>
      <trkpt lat="49.03795" lon="7.69625">
        <ele>263</ele>
        <time>2025-05-10T07:06:00.000Z</time>
      </trkpt>
      <trkpt lat="49.03792" lon="7.69618">
        <ele>262</ele>
        <time>2025-05-10T07:06:04.000Z</time>
      </trkpt>
      <trkpt lat="49.03788" lon="7.69612">
        <ele>262</ele>
        <time>2025-05-10T07:06:09.000Z</time>
      </trkpt>
      <trkpt lat="49.03788" lon="7.69603">
        <ele>263</ele>
        <time>2025-05-10T07:06:13.000Z</time>
      </trkpt>
      <trkpt lat="49.03786" lon="7.69596">
        <ele>262</ele>
        <time>2025-05-10T07:06:17.000Z</time>
      </trkpt>
      <trkpt lat="49.03784" lon="7.69589">
        <ele>262</ele>
        <time>2025-05-10T07:06:20.000Z</time>
      </trkpt>
      <trkpt lat="49.03782" lon="7.69582">
        <ele>262</ele>
        <time>2025-05-10T07:06:24.000Z</time>
      </trkpt>
      <trkpt lat="49.0378" lon="7.69576">
        <ele>262</ele>
        <time>2025-05-10T07:06:27.000Z</time>
      </trkpt>
      <trkpt lat="49.03778" lon="7.6957">
        <ele>261</ele>
        <time>2025-05-10T07:06:30.000Z</time>
      </trkpt>
      <trkpt lat="49.03775" lon="7.69562">
        <ele>261</ele>
        <time>2025-05-10T07:06:34.000Z</time>
      </trkpt>
      <trkpt lat="49.03773" lon="7.69555">
        <ele>261</ele>
        <time>2025-05-10T07:06:38.000Z</time>
      </trkpt>
      <trkpt lat="49.03771" lon="7.69541">
        <ele>260</ele>
        <time>2025-05-10T07:06:47.000Z</time>
      </trkpt>
      <trkpt lat="49.03758" lon="7.69509">
        <ele>260</ele>
        <time>2025-05-10T07:07:05.000Z</time>
      </trkpt>
      <trkpt lat="49.03754" lon="7.69493">
        <ele>259</ele>
        <time>2025-05-10T07:07:13.000Z</time>
      </trkpt>
      <trkpt lat="49.03751" lon="7.69487">
        <ele>259</ele>
        <time>2025-05-10T07:07:17.000Z</time>
      </trkpt>
      <trkpt lat="49.03749" lon="7.69481">
        <ele>259</ele>
        <time>2025-05-10T07:07:21.000Z</time>
      </trkpt>
      <trkpt lat="49.03746" lon="7.69474">
        <ele>258</ele>
        <time>2025-05-10T07:07:25.000Z</time>
      </trkpt>
      <trkpt lat="49.03743" lon="7.69467">
        <ele>258</ele>
        <time>2025-05-10T07:07:29.000Z</time>
      </trkpt>
      <trkpt lat="49.0374" lon="7.69455">
        <ele>258</ele>
        <time>2025-05-10T07:07:36.000Z</time>
      </trkpt>
      <trkpt lat="49.03738" lon="7.69448">
        <ele>258</ele>
        <time>2025-05-10T07:07:40.000Z</time>
      </trkpt>
      <trkpt lat="49.03732" lon="7.69434">
        <ele>257</ele>
        <time>2025-05-10T07:07:47.000Z</time>
      </trkpt>
      <trkpt lat="49.03728" lon="7.69428">
        <ele>257</ele>
        <time>2025-05-10T07:07:51.000Z</time>
      </trkpt>
      <trkpt lat="49.03728" lon="7.6942">
        <ele>257</ele>
        <time>2025-05-10T07:07:55.000Z</time>
      </trkpt>
      <trkpt lat="49.03727" lon="7.69412">
        <ele>257</ele>
        <time>2025-05-10T07:07:59.000Z</time>
      </trkpt>
      <trkpt lat="49.03727" lon="7.69405">
        <ele>256</ele>
        <time>2025-05-10T07:08:02.000Z</time>
      </trkpt>
      <trkpt lat="49.03725" lon="7.69399">
        <ele>257</ele>
        <time>2025-05-10T07:08:05.000Z</time>
      </trkpt>
      <trkpt lat="49.03725" lon="7.69384">
        <ele>255</ele>
        <time>2025-05-10T07:08:12.000Z</time>
      </trkpt>
      <trkpt lat="49.03723" lon="7.69375">
        <ele>256</ele>
        <time>2025-05-10T07:08:16.000Z</time>
      </trkpt>
      <trkpt lat="49.03721" lon="7.6937">
        <ele>256</ele>
        <time>2025-05-10T07:08:19.000Z</time>
      </trkpt>
      <trkpt lat="49.03721" lon="7.69362">
        <ele>256</ele>
        <time>2025-05-10T07:08:24.000Z</time>
      </trkpt>
      <trkpt lat="49.0372" lon="7.69355">
        <ele>255</ele>
        <time>2025-05-10T07:08:27.000Z</time>
      </trkpt>
      <trkpt lat="49.03717" lon="7.69349">
        <ele>255</ele>
        <time>2025-05-10T07:08:30.000Z</time>
      </trkpt>
      <trkpt lat="49.03718" lon="7.69343">
        <ele>255</ele>
        <time>2025-05-10T07:08:33.000Z</time>
      </trkpt>
      <trkpt lat="49.03717" lon="7.69335">
        <ele>255</ele>
        <time>2025-05-10T07:08:37.000Z</time>
      </trkpt>
      <trkpt lat="49.03718" lon="7.69328">
        <ele>254</ele>
        <time>2025-05-10T07:08:40.000Z</time>
      </trkpt>
      <trkpt lat="49.03716" lon="7.69322">
        <ele>255</ele>
        <time>2025-05-10T07:08:43.000Z</time>
      </trkpt>
      <trkpt lat="49.03717" lon="7.69314">
        <ele>254</ele>
        <time>2025-05-10T07:08:47.000Z</time>
      </trkpt>
      <trkpt lat="49.03716" lon="7.69306">
        <ele>254</ele>
        <time>2025-05-10T07:08:52.000Z</time>
      </trkpt>
      <trkpt lat="49.03714" lon="7.693">
        <ele>253</ele>
        <time>2025-05-10T07:08:55.000Z</time>
      </trkpt>
      <trkpt lat="49.03713" lon="7.69293">
        <ele>253</ele>
        <time>2025-05-10T07:08:59.000Z</time>
      </trkpt>
      <trkpt lat="49.03711" lon="7.69286">
        <ele>253</ele>
        <time>2025-05-10T07:09:03.000Z</time>
      </trkpt>
      <trkpt lat="49.03709" lon="7.69281">
        <ele>253</ele>
        <time>2025-05-10T07:09:06.000Z</time>
      </trkpt>
      <trkpt lat="49.03704" lon="7.69268">
        <ele>252</ele>
        <time>2025-05-10T07:09:14.000Z</time>
      </trkpt>
      <trkpt lat="49.03703" lon="7.69259">
        <ele>252</ele>
        <time>2025-05-10T07:09:19.000Z</time>
      </trkpt>
      <trkpt lat="49.03701" lon="7.69253">
        <ele>251</ele>
        <time>2025-05-10T07:09:22.000Z</time>
      </trkpt>
      <trkpt lat="49.03698" lon="7.69245">
        <ele>251</ele>
        <time>2025-05-10T07:09:26.000Z</time>
      </trkpt>
      <trkpt lat="49.03696" lon="7.69239">
        <ele>251</ele>
        <time>2025-05-10T07:09:29.000Z</time>
      </trkpt>
      <trkpt lat="49.03693" lon="7.69232">
        <ele>250</ele>
        <time>2025-05-10T07:09:33.000Z</time>
      </trkpt>
      <trkpt lat="49.03689" lon="7.69218">
        <ele>249</ele>
        <time>2025-05-10T07:09:41.000Z</time>
      </trkpt>
      <trkpt lat="49.03686" lon="7.69211">
        <ele>248</ele>
        <time>2025-05-10T07:09:45.000Z</time>
      </trkpt>
      <trkpt lat="49.0368" lon="7.69198">
        <ele>248</ele>
        <time>2025-05-10T07:09:52.000Z</time>
      </trkpt>
      <trkpt lat="49.03658" lon="7.69156">
        <ele>246</ele>
        <time>2025-05-10T07:10:19.000Z</time>
      </trkpt>
      <trkpt lat="49.03647" lon="7.69148">
        <ele>245</ele>
        <time>2025-05-10T07:10:28.000Z</time>
      </trkpt>
      <trkpt lat="49.03643" lon="7.69145">
        <ele>245</ele>
        <time>2025-05-10T07:10:31.000Z</time>
      </trkpt>
      <trkpt lat="49.0363" lon="7.69131">
        <ele>244</ele>
        <time>2025-05-10T07:10:43.000Z</time>
      </trkpt>
      <trkpt lat="49.03625" lon="7.69129">
        <ele>244</ele>
        <time>2025-05-10T07:10:45.000Z</time>
      </trkpt>
      <trkpt lat="49.03615" lon="7.6912">
        <ele>243</ele>
        <time>2025-05-10T07:10:56.000Z</time>
      </trkpt>
      <trkpt lat="49.03606" lon="7.69115">
        <ele>243</ele>
        <time>2025-05-10T07:11:02.000Z</time>
      </trkpt>
      <trkpt lat="49.03599" lon="7.69103">
        <ele>242</ele>
        <time>2025-05-10T07:11:09.000Z</time>
      </trkpt>
      <trkpt lat="49.03598" lon="7.69096">
        <ele>242</ele>
        <time>2025-05-10T07:11:13.000Z</time>
      </trkpt>
      <trkpt lat="49.03591" lon="7.69093">
        <ele>241</ele>
        <time>2025-05-10T07:11:21.000Z</time>
      </trkpt>
      <trkpt lat="49.03582" lon="7.69093">
        <ele>241</ele>
        <time>2025-05-10T07:11:27.000Z</time>
      </trkpt>
      <trkpt lat="49.03581" lon="7.69086">
        <ele>241</ele>
        <time>2025-05-10T07:11:31.000Z</time>
      </trkpt>
      <trkpt lat="49.03576" lon="7.69085">
        <ele>241</ele>
        <time>2025-05-10T07:11:34.000Z</time>
      </trkpt>
      <trkpt lat="49.03571" lon="7.69091">
        <ele>241</ele>
        <time>2025-05-10T07:11:37.000Z</time>
      </trkpt>
      <trkpt lat="49.03569" lon="7.69093">
        <ele>240</ele>
        <time>2025-05-10T07:12:03.000Z</time>
      </trkpt>
      <trkpt lat="49.03562" lon="7.69086">
        <ele>240</ele>
        <time>2025-05-10T07:12:11.000Z</time>
      </trkpt>
      <trkpt lat="49.03551" lon="7.69087">
        <ele>240</ele>
        <time>2025-05-10T07:12:18.000Z</time>
      </trkpt>
      <trkpt lat="49.03546" lon="7.69087">
        <ele>239</ele>
        <time>2025-05-10T07:12:21.000Z</time>
      </trkpt>
      <trkpt lat="49.03542" lon="7.69088">
        <ele>239</ele>
        <time>2025-05-10T07:12:24.000Z</time>
      </trkpt>
      <trkpt lat="49.03537" lon="7.69088">
        <ele>239</ele>
        <time>2025-05-10T07:12:28.000Z</time>
      </trkpt>
      <trkpt lat="49.03522" lon="7.6909">
        <ele>238</ele>
        <time>2025-05-10T07:12:39.000Z</time>
      </trkpt>
      <trkpt lat="49.03517" lon="7.6909">
        <ele>239</ele>
        <time>2025-05-10T07:12:43.000Z</time>
      </trkpt>
      <trkpt lat="49.03512" lon="7.69089">
        <ele>238</ele>
        <time>2025-05-10T07:12:47.000Z</time>
      </trkpt>
      <trkpt lat="49.03502" lon="7.69089">
        <ele>239</ele>
        <time>2025-05-10T07:12:55.000Z</time>
      </trkpt>
      <trkpt lat="49.03493" lon="7.69085">
        <ele>239</ele>
        <time>2025-05-10T07:13:04.000Z</time>
      </trkpt>
      <trkpt lat="49.03488" lon="7.69074">
        <ele>239</ele>
        <time>2025-05-10T07:13:22.000Z</time>
      </trkpt>
      <trkpt lat="49.03485" lon="7.69066">
        <ele>239</ele>
        <time>2025-05-10T07:13:24.000Z</time>
      </trkpt>
      <trkpt lat="49.03484" lon="7.69059">
        <ele>240</ele>
        <time>2025-05-10T07:13:28.000Z</time>
      </trkpt>
      <trkpt lat="49.03482" lon="7.69052">
        <ele>239</ele>
        <time>2025-05-10T07:13:32.000Z</time>
      </trkpt>
      <trkpt lat="49.03481" lon="7.69046">
        <ele>240</ele>
        <time>2025-05-10T07:13:36.000Z</time>
      </trkpt>
      <trkpt lat="49.0348" lon="7.69038">
        <ele>240</ele>
        <time>2025-05-10T07:13:40.000Z</time>
      </trkpt>
      <trkpt lat="49.03478" lon="7.69031">
        <ele>240</ele>
        <time>2025-05-10T07:13:43.000Z</time>
      </trkpt>
      <trkpt lat="49.03473" lon="7.69019">
        <ele>240</ele>
        <time>2025-05-10T07:13:52.000Z</time>
      </trkpt>
      <trkpt lat="49.03465" lon="7.6901">
        <ele>241</ele>
        <time>2025-05-10T07:13:58.000Z</time>
      </trkpt>
      <trkpt lat="49.0346" lon="7.69008">
        <ele>241</ele>
        <time>2025-05-10T07:14:03.000Z</time>
      </trkpt>
      <trkpt lat="49.03451" lon="7.69007">
        <ele>241</ele>
        <time>2025-05-10T07:14:07.000Z</time>
      </trkpt>
      <trkpt lat="49.03442" lon="7.69002">
        <ele>242</ele>
        <time>2025-05-10T07:14:14.000Z</time>
      </trkpt>
      <trkpt lat="49.03429" lon="7.68987">
        <ele>243</ele>
        <time>2025-05-10T07:14:28.000Z</time>
      </trkpt>
      <trkpt lat="49.03393" lon="7.68962">
        <ele>244</ele>
        <time>2025-05-10T07:15:02.000Z</time>
      </trkpt>
      <trkpt lat="49.03356" lon="7.68942">
        <ele>246</ele>
        <time>2025-05-10T07:15:34.000Z</time>
      </trkpt>
      <trkpt lat="49.03351" lon="7.68937">
        <ele>246</ele>
        <time>2025-05-10T07:15:39.000Z</time>
      </trkpt>
      <trkpt lat="49.03346" lon="7.68932">
        <ele>246</ele>
        <time>2025-05-10T07:15:42.000Z</time>
      </trkpt>
      <trkpt lat="49.03341" lon="7.68929">
        <ele>247</ele>
        <time>2025-05-10T07:15:46.000Z</time>
      </trkpt>
      <trkpt lat="49.03329" lon="7.68927">
        <ele>248</ele>
        <time>2025-05-10T07:15:54.000Z</time>
      </trkpt>
      <trkpt lat="49.03326" lon="7.68919">
        <ele>248</ele>
        <time>2025-05-10T07:15:57.000Z</time>
      </trkpt>
      <trkpt lat="49.03323" lon="7.68914">
        <ele>248</ele>
        <time>2025-05-10T07:16:01.000Z</time>
      </trkpt>
      <trkpt lat="49.0332" lon="7.68907">
        <ele>248</ele>
        <time>2025-05-10T07:16:04.000Z</time>
      </trkpt>
      <trkpt lat="49.03317" lon="7.68902">
        <ele>248</ele>
        <time>2025-05-10T07:16:08.000Z</time>
      </trkpt>
      <trkpt lat="49.03313" lon="7.68894">
        <ele>249</ele>
        <time>2025-05-10T07:16:15.000Z</time>
      </trkpt>
      <trkpt lat="49.03309" lon="7.68889">
        <ele>249</ele>
        <time>2025-05-10T07:16:19.000Z</time>
      </trkpt>
      <trkpt lat="49.03298" lon="7.68881">
        <ele>250</ele>
        <time>2025-05-10T07:16:29.000Z</time>
      </trkpt>
      <trkpt lat="49.03294" lon="7.68876">
        <ele>250</ele>
        <time>2025-05-10T07:16:33.000Z</time>
      </trkpt>
      <trkpt lat="49.03289" lon="7.68872">
        <ele>251</ele>
        <time>2025-05-10T07:16:37.000Z</time>
      </trkpt>
      <trkpt lat="49.03283" lon="7.6887">
        <ele>251</ele>
        <time>2025-05-10T07:16:41.000Z</time>
      </trkpt>
      <trkpt lat="49.03279" lon="7.68861">
        <ele>252</ele>
        <time>2025-05-10T07:16:49.000Z</time>
      </trkpt>
      <trkpt lat="49.03274" lon="7.68858">
        <ele>252</ele>
        <time>2025-05-10T07:16:52.000Z</time>
      </trkpt>
      <trkpt lat="49.03266" lon="7.68849">
        <ele>252</ele>
        <time>2025-05-10T07:17:00.000Z</time>
      </trkpt>
      <trkpt lat="49.03251" lon="7.68841">
        <ele>253</ele>
        <time>2025-05-10T07:17:15.000Z</time>
      </trkpt>
      <trkpt lat="49.03248" lon="7.68836">
        <ele>253</ele>
        <time>2025-05-10T07:17:20.000Z</time>
      </trkpt>
      <trkpt lat="49.03243" lon="7.68833">
        <ele>253</ele>
        <time>2025-05-10T07:17:22.000Z</time>
      </trkpt>
      <trkpt lat="49.03239" lon="7.6883">
        <ele>253</ele>
        <time>2025-05-10T07:17:25.000Z</time>
      </trkpt>
      <trkpt lat="49.03234" lon="7.68829">
        <ele>253</ele>
        <time>2025-05-10T07:17:29.000Z</time>
      </trkpt>
      <trkpt lat="49.03229" lon="7.68826">
        <ele>253</ele>
        <time>2025-05-10T07:17:33.000Z</time>
      </trkpt>
      <trkpt lat="49.0322" lon="7.6882">
        <ele>253</ele>
        <time>2025-05-10T07:17:41.000Z</time>
      </trkpt>
      <trkpt lat="49.03215" lon="7.68814">
        <ele>254</ele>
        <time>2025-05-10T07:17:47.000Z</time>
      </trkpt>
      <trkpt lat="49.03211" lon="7.6881">
        <ele>254</ele>
        <time>2025-05-10T07:17:51.000Z</time>
      </trkpt>
      <trkpt lat="49.03206" lon="7.68806">
        <ele>254</ele>
        <time>2025-05-10T07:17:55.000Z</time>
      </trkpt>
      <trkpt lat="49.03197" lon="7.68797">
        <ele>255</ele>
        <time>2025-05-10T07:18:03.000Z</time>
      </trkpt>
      <trkpt lat="49.03193" lon="7.68794">
        <ele>255</ele>
        <time>2025-05-10T07:18:06.000Z</time>
      </trkpt>
      <trkpt lat="49.03189" lon="7.68792">
        <ele>255</ele>
        <time>2025-05-10T07:18:09.000Z</time>
      </trkpt>
      <trkpt lat="49.03185" lon="7.68788">
        <ele>255</ele>
        <time>2025-05-10T07:18:13.000Z</time>
      </trkpt>
      <trkpt lat="49.03176" lon="7.68781">
        <ele>255</ele>
        <time>2025-05-10T07:18:20.000Z</time>
      </trkpt>
      <trkpt lat="49.03166" lon="7.68773">
        <ele>255</ele>
        <time>2025-05-10T07:18:28.000Z</time>
      </trkpt>
      <trkpt lat="49.03162" lon="7.6877">
        <ele>255</ele>
        <time>2025-05-10T07:18:31.000Z</time>
      </trkpt>
      <trkpt lat="49.03158" lon="7.68765">
        <ele>255</ele>
        <time>2025-05-10T07:18:35.000Z</time>
      </trkpt>
      <trkpt lat="49.03116" lon="7.68747">
        <ele>258</ele>
        <time>2025-05-10T07:19:09.000Z</time>
      </trkpt>
      <trkpt lat="49.0311" lon="7.68746">
        <ele>258</ele>
        <time>2025-05-10T07:19:13.000Z</time>
      </trkpt>
      <trkpt lat="49.03106" lon="7.68741">
        <ele>258</ele>
        <time>2025-05-10T07:19:20.000Z</time>
      </trkpt>
      <trkpt lat="49.03102" lon="7.68739">
        <ele>259</ele>
        <time>2025-05-10T07:19:23.000Z</time>
      </trkpt>
      <trkpt lat="49.03077" lon="7.6874">
        <ele>260</ele>
        <time>2025-05-10T07:19:42.000Z</time>
      </trkpt>
      <trkpt lat="49.03068" lon="7.68739">
        <ele>260</ele>
        <time>2025-05-10T07:19:51.000Z</time>
      </trkpt>
      <trkpt lat="49.03064" lon="7.68741">
        <ele>260</ele>
        <time>2025-05-10T07:19:54.000Z</time>
      </trkpt>
      <trkpt lat="49.03059" lon="7.68741">
        <ele>260</ele>
        <time>2025-05-10T07:19:58.000Z</time>
      </trkpt>
      <trkpt lat="49.03039" lon="7.68741">
        <ele>261</ele>
        <time>2025-05-10T07:20:12.000Z</time>
      </trkpt>
      <trkpt lat="49.03034" lon="7.68739">
        <ele>261</ele>
        <time>2025-05-10T07:20:15.000Z</time>
      </trkpt>
      <trkpt lat="49.03029" lon="7.68733">
        <ele>262</ele>
        <time>2025-05-10T07:20:18.000Z</time>
      </trkpt>
      <trkpt lat="49.03022" lon="7.68735">
        <ele>262</ele>
        <time>2025-05-10T07:20:24.000Z</time>
      </trkpt>
      <trkpt lat="49.03016" lon="7.68736">
        <ele>264</ele>
        <time>2025-05-10T07:20:31.000Z</time>
      </trkpt>
      <trkpt lat="49.0301" lon="7.68731">
        <ele>264</ele>
        <time>2025-05-10T07:20:39.000Z</time>
      </trkpt>
      <trkpt lat="49.03006" lon="7.68726">
        <ele>264</ele>
        <time>2025-05-10T07:20:43.000Z</time>
      </trkpt>
      <trkpt lat="49.02993" lon="7.68717">
        <ele>266</ele>
        <time>2025-05-10T07:20:54.000Z</time>
      </trkpt>
      <trkpt lat="49.02985" lon="7.68709">
        <ele>267</ele>
        <time>2025-05-10T07:21:02.000Z</time>
      </trkpt>
      <trkpt lat="49.02982" lon="7.68703">
        <ele>267</ele>
        <time>2025-05-10T07:21:07.000Z</time>
      </trkpt>
      <trkpt lat="49.02978" lon="7.68697">
        <ele>268</ele>
        <time>2025-05-10T07:21:11.000Z</time>
      </trkpt>
      <trkpt lat="49.02974" lon="7.6869">
        <ele>269</ele>
        <time>2025-05-10T07:21:17.000Z</time>
      </trkpt>
      <trkpt lat="49.02969" lon="7.68686">
        <ele>269</ele>
        <time>2025-05-10T07:21:20.000Z</time>
      </trkpt>
      <trkpt lat="49.02964" lon="7.68681">
        <ele>269</ele>
        <time>2025-05-10T07:21:22.000Z</time>
      </trkpt>
      <trkpt lat="49.02961" lon="7.68675">
        <ele>270</ele>
        <time>2025-05-10T07:21:28.000Z</time>
      </trkpt>
      <trkpt lat="49.0294" lon="7.68654">
        <ele>273</ele>
        <time>2025-05-10T07:21:49.000Z</time>
      </trkpt>
      <trkpt lat="49.02931" lon="7.68651">
        <ele>273</ele>
        <time>2025-05-10T07:21:54.000Z</time>
      </trkpt>
      <trkpt lat="49.0292" lon="7.68635">
        <ele>275</ele>
        <time>2025-05-10T07:22:10.000Z</time>
      </trkpt>
      <trkpt lat="49.02909" lon="7.68623">
        <ele>276</ele>
        <time>2025-05-10T07:22:22.000Z</time>
      </trkpt>
      <trkpt lat="49.02898" lon="7.68606">
        <ele>277</ele>
        <time>2025-05-10T07:22:30.000Z</time>
      </trkpt>
      <trkpt lat="49.02878" lon="7.68601">
        <ele>279</ele>
        <time>2025-05-10T07:22:47.000Z</time>
      </trkpt>
      <trkpt lat="49.02875" lon="7.68587">
        <ele>280</ele>
        <time>2025-05-10T07:22:56.000Z</time>
      </trkpt>
      <trkpt lat="49.0285" lon="7.68538">
        <ele>282</ele>
        <time>2025-05-10T07:23:22.000Z</time>
      </trkpt>
      <trkpt lat="49.02847" lon="7.68534">
        <ele>283</ele>
        <time>2025-05-10T07:23:42.000Z</time>
      </trkpt>
      <trkpt lat="49.02834" lon="7.68515">
        <ele>283</ele>
        <time>2025-05-10T07:23:57.000Z</time>
      </trkpt>
      <trkpt lat="49.02827" lon="7.6851">
        <ele>283</ele>
        <time>2025-05-10T07:24:06.000Z</time>
      </trkpt>
      <trkpt lat="49.02823" lon="7.68507">
        <ele>282</ele>
        <time>2025-05-10T07:24:11.000Z</time>
      </trkpt>
      <trkpt lat="49.02816" lon="7.68502">
        <ele>282</ele>
        <time>2025-05-10T07:24:17.000Z</time>
      </trkpt>
      <trkpt lat="49.02811" lon="7.68496">
        <ele>282</ele>
        <time>2025-05-10T07:24:23.000Z</time>
      </trkpt>
      <trkpt lat="49.028" lon="7.68473">
        <ele>283</ele>
        <time>2025-05-10T07:24:38.000Z</time>
      </trkpt>
      <trkpt lat="49.02796" lon="7.68468">
        <ele>283</ele>
        <time>2025-05-10T07:24:42.000Z</time>
      </trkpt>
      <trkpt lat="49.02793" lon="7.68463">
        <ele>284</ele>
        <time>2025-05-10T07:24:46.000Z</time>
      </trkpt>
      <trkpt lat="49.02786" lon="7.68457">
        <ele>284</ele>
        <time>2025-05-10T07:24:53.000Z</time>
      </trkpt>
      <trkpt lat="49.02783" lon="7.6845">
        <ele>285</ele>
        <time>2025-05-10T07:25:00.000Z</time>
      </trkpt>
      <trkpt lat="49.02769" lon="7.6843">
        <ele>286</ele>
        <time>2025-05-10T07:25:12.000Z</time>
      </trkpt>
      <trkpt lat="49.02767" lon="7.68423">
        <ele>286</ele>
        <time>2025-05-10T07:25:16.000Z</time>
      </trkpt>
      <trkpt lat="49.02753" lon="7.68406">
        <ele>287</ele>
        <time>2025-05-10T07:25:28.000Z</time>
      </trkpt>
      <trkpt lat="49.02748" lon="7.68403">
        <ele>287</ele>
        <time>2025-05-10T07:25:31.000Z</time>
      </trkpt>
      <trkpt lat="49.02748" lon="7.68395">
        <ele>287</ele>
        <time>2025-05-10T07:25:33.000Z</time>
      </trkpt>
      <trkpt lat="49.02744" lon="7.6839">
        <ele>288</ele>
        <time>2025-05-10T07:25:38.000Z</time>
      </trkpt>
      <trkpt lat="49.0274" lon="7.68382">
        <ele>288</ele>
        <time>2025-05-10T07:25:43.000Z</time>
      </trkpt>
      <trkpt lat="49.02736" lon="7.68376">
        <ele>288</ele>
        <time>2025-05-10T07:25:47.000Z</time>
      </trkpt>
      <trkpt lat="49.02732" lon="7.68373">
        <ele>288</ele>
        <time>2025-05-10T07:25:51.000Z</time>
      </trkpt>
      <trkpt lat="49.02728" lon="7.68373">
        <ele>289</ele>
        <time>2025-05-10T07:25:55.000Z</time>
      </trkpt>
      <trkpt lat="49.02724" lon="7.68367">
        <ele>289</ele>
        <time>2025-05-10T07:25:58.000Z</time>
      </trkpt>
      <trkpt lat="49.0272" lon="7.68367">
        <ele>289</ele>
        <time>2025-05-10T07:26:01.000Z</time>
      </trkpt>
      <trkpt lat="49.02718" lon="7.68358">
        <ele>290</ele>
        <time>2025-05-10T07:26:04.000Z</time>
      </trkpt>
      <trkpt lat="49.02695" lon="7.68333">
        <ele>292</ele>
        <time>2025-05-10T07:26:24.000Z</time>
      </trkpt>
      <trkpt lat="49.02691" lon="7.68324">
        <ele>292</ele>
        <time>2025-05-10T07:26:31.000Z</time>
      </trkpt>
      <trkpt lat="49.02688" lon="7.68319">
        <ele>292</ele>
        <time>2025-05-10T07:26:34.000Z</time>
      </trkpt>
      <trkpt lat="49.02687" lon="7.68313">
        <ele>292</ele>
        <time>2025-05-10T07:26:38.000Z</time>
      </trkpt>
      <trkpt lat="49.0268" lon="7.6831">
        <ele>292</ele>
        <time>2025-05-10T07:26:44.000Z</time>
      </trkpt>
      <trkpt lat="49.02656" lon="7.68298">
        <ele>291</ele>
        <time>2025-05-10T07:27:04.000Z</time>
      </trkpt>
      <trkpt lat="49.02649" lon="7.68295">
        <ele>291</ele>
        <time>2025-05-10T07:27:11.000Z</time>
      </trkpt>
      <trkpt lat="49.0264" lon="7.68291">
        <ele>292</ele>
        <time>2025-05-10T07:27:19.000Z</time>
      </trkpt>
      <trkpt lat="49.02638" lon="7.68286">
        <ele>292</ele>
        <time>2025-05-10T07:27:23.000Z</time>
      </trkpt>
      <trkpt lat="49.02616" lon="7.68273">
        <ele>293</ele>
        <time>2025-05-10T07:27:39.000Z</time>
      </trkpt>
      <trkpt lat="49.02613" lon="7.68268">
        <ele>294</ele>
        <time>2025-05-10T07:27:43.000Z</time>
      </trkpt>
      <trkpt lat="49.02609" lon="7.68268">
        <ele>295</ele>
        <time>2025-05-10T07:27:48.000Z</time>
      </trkpt>
      <trkpt lat="49.02605" lon="7.68264">
        <ele>295</ele>
        <time>2025-05-10T07:27:52.000Z</time>
      </trkpt>
      <trkpt lat="49.02599" lon="7.68264">
        <ele>296</ele>
        <time>2025-05-10T07:27:57.000Z</time>
      </trkpt>
      <trkpt lat="49.02586" lon="7.6825">
        <ele>299</ele>
        <time>2025-05-10T07:28:10.000Z</time>
      </trkpt>
      <trkpt lat="49.02578" lon="7.68237">
        <ele>300</ele>
        <time>2025-05-10T07:28:19.000Z</time>
      </trkpt>
      <trkpt lat="49.02571" lon="7.68237">
        <ele>301</ele>
        <time>2025-05-10T07:28:24.000Z</time>
      </trkpt>
      <trkpt lat="49.02563" lon="7.68216">
        <ele>304</ele>
        <time>2025-05-10T07:28:41.000Z</time>
      </trkpt>
      <trkpt lat="49.02558" lon="7.68216">
        <ele>305</ele>
        <time>2025-05-10T07:28:45.000Z</time>
      </trkpt>
      <trkpt lat="49.02553" lon="7.68209">
        <ele>306</ele>
        <time>2025-05-10T07:28:50.000Z</time>
      </trkpt>
      <trkpt lat="49.02544" lon="7.68202">
        <ele>307</ele>
        <time>2025-05-10T07:28:59.000Z</time>
      </trkpt>
      <trkpt lat="49.02539" lon="7.68195">
        <ele>308</ele>
        <time>2025-05-10T07:29:02.000Z</time>
      </trkpt>
      <trkpt lat="49.02537" lon="7.68187">
        <ele>309</ele>
        <time>2025-05-10T07:29:10.000Z</time>
      </trkpt>
      <trkpt lat="49.02532" lon="7.68184">
        <ele>310</ele>
        <time>2025-05-10T07:29:15.000Z</time>
      </trkpt>
      <trkpt lat="49.02526" lon="7.68173">
        <ele>311</ele>
        <time>2025-05-10T07:29:21.000Z</time>
      </trkpt>
      <trkpt lat="49.02524" lon="7.68166">
        <ele>312</ele>
        <time>2025-05-10T07:29:24.000Z</time>
      </trkpt>
      <trkpt lat="49.02516" lon="7.68159">
        <ele>313</ele>
        <time>2025-05-10T07:29:33.000Z</time>
      </trkpt>
      <trkpt lat="49.02509" lon="7.68143">
        <ele>315</ele>
        <time>2025-05-10T07:29:45.000Z</time>
      </trkpt>
      <trkpt lat="49.02505" lon="7.68137">
        <ele>316</ele>
        <time>2025-05-10T07:29:50.000Z</time>
      </trkpt>
      <trkpt lat="49.02502" lon="7.68131">
        <ele>317</ele>
        <time>2025-05-10T07:29:54.000Z</time>
      </trkpt>
      <trkpt lat="49.02499" lon="7.68118">
        <ele>319</ele>
        <time>2025-05-10T07:30:07.000Z</time>
      </trkpt>
      <trkpt lat="49.02489" lon="7.68112">
        <ele>321</ele>
        <time>2025-05-10T07:30:13.000Z</time>
      </trkpt>
      <trkpt lat="49.02483" lon="7.6811">
        <ele>321</ele>
        <time>2025-05-10T07:30:19.000Z</time>
      </trkpt>
      <trkpt lat="49.02476" lon="7.68101">
        <ele>323</ele>
        <time>2025-05-10T07:30:25.000Z</time>
      </trkpt>
      <trkpt lat="49.02464" lon="7.68079">
        <ele>326</ele>
        <time>2025-05-10T07:30:41.000Z</time>
      </trkpt>
      <trkpt lat="49.0246" lon="7.68076">
        <ele>326</ele>
        <time>2025-05-10T07:30:46.000Z</time>
      </trkpt>
      <trkpt lat="49.02456" lon="7.68065">
        <ele>328</ele>
        <time>2025-05-10T07:30:55.000Z</time>
      </trkpt>
      <trkpt lat="49.02456" lon="7.68055">
        <ele>329</ele>
        <time>2025-05-10T07:30:59.000Z</time>
      </trkpt>
      <trkpt lat="49.02448" lon="7.68041">
        <ele>330</ele>
        <time>2025-05-10T07:31:08.000Z</time>
      </trkpt>
      <trkpt lat="49.02447" lon="7.68029">
        <ele>331</ele>
        <time>2025-05-10T07:31:16.000Z</time>
      </trkpt>
      <trkpt lat="49.02444" lon="7.68022">
        <ele>332</ele>
        <time>2025-05-10T07:31:20.000Z</time>
      </trkpt>
      <trkpt lat="49.02441" lon="7.68006">
        <ele>334</ele>
        <time>2025-05-10T07:31:33.000Z</time>
      </trkpt>
      <trkpt lat="49.02435" lon="7.67996">
        <ele>336</ele>
        <time>2025-05-10T07:31:41.000Z</time>
      </trkpt>
      <trkpt lat="49.02426" lon="7.67969">
        <ele>339</ele>
        <time>2025-05-10T07:32:01.000Z</time>
      </trkpt>
      <trkpt lat="49.02425" lon="7.67958">
        <ele>340</ele>
        <time>2025-05-10T07:32:05.000Z</time>
      </trkpt>
      <trkpt lat="49.02424" lon="7.67946">
        <ele>341</ele>
        <time>2025-05-10T07:32:13.000Z</time>
      </trkpt>
      <trkpt lat="49.02423" lon="7.67937">
        <ele>342</ele>
        <time>2025-05-10T07:32:18.000Z</time>
      </trkpt>
      <trkpt lat="49.02416" lon="7.67929">
        <ele>343</ele>
        <time>2025-05-10T07:32:25.000Z</time>
      </trkpt>
      <trkpt lat="49.02407" lon="7.67921">
        <ele>344</ele>
        <time>2025-05-10T07:32:34.000Z</time>
      </trkpt>
      <trkpt lat="49.02399" lon="7.679">
        <ele>348</ele>
        <time>2025-05-10T07:32:55.000Z</time>
      </trkpt>
      <trkpt lat="49.02394" lon="7.67894">
        <ele>349</ele>
        <time>2025-05-10T07:33:00.000Z</time>
      </trkpt>
      <trkpt lat="49.02389" lon="7.67871">
        <ele>351</ele>
        <time>2025-05-10T07:33:10.000Z</time>
      </trkpt>
      <trkpt lat="49.02389" lon="7.6786">
        <ele>352</ele>
        <time>2025-05-10T07:33:19.000Z</time>
      </trkpt>
      <trkpt lat="49.02387" lon="7.67851">
        <ele>353</ele>
        <time>2025-05-10T07:33:23.000Z</time>
      </trkpt>
      <trkpt lat="49.0238" lon="7.67841">
        <ele>354</ele>
        <time>2025-05-10T07:33:30.000Z</time>
      </trkpt>
      <trkpt lat="49.02379" lon="7.67828">
        <ele>355</ele>
        <time>2025-05-10T07:33:37.000Z</time>
      </trkpt>
      <trkpt lat="49.02371" lon="7.67805">
        <ele>358</ele>
        <time>2025-05-10T07:33:55.000Z</time>
      </trkpt>
      <trkpt lat="49.02362" lon="7.67787">
        <ele>360</ele>
        <time>2025-05-10T07:34:07.000Z</time>
      </trkpt>
      <trkpt lat="49.02355" lon="7.67783">
        <ele>361</ele>
        <time>2025-05-10T07:34:16.000Z</time>
      </trkpt>
      <trkpt lat="49.02347" lon="7.67771">
        <ele>363</ele>
        <time>2025-05-10T07:34:25.000Z</time>
      </trkpt>
      <trkpt lat="49.02339" lon="7.67771">
        <ele>366</ele>
        <time>2025-05-10T07:34:41.000Z</time>
      </trkpt>
      <trkpt lat="49.02334" lon="7.67755">
        <ele>367</ele>
        <time>2025-05-10T07:34:51.000Z</time>
      </trkpt>
      <trkpt lat="49.02333" lon="7.67748">
        <ele>367</ele>
        <time>2025-05-10T07:34:55.000Z</time>
      </trkpt>
      <trkpt lat="49.02332" lon="7.67742">
        <ele>367</ele>
        <time>2025-05-10T07:34:59.000Z</time>
      </trkpt>
      <trkpt lat="49.0233" lon="7.67734">
        <ele>368</ele>
        <time>2025-05-10T07:35:02.000Z</time>
      </trkpt>
      <trkpt lat="49.02327" lon="7.67726">
        <ele>369</ele>
        <time>2025-05-10T07:35:06.000Z</time>
      </trkpt>
      <trkpt lat="49.02321" lon="7.67712">
        <ele>370</ele>
        <time>2025-05-10T07:35:15.000Z</time>
      </trkpt>
      <trkpt lat="49.02314" lon="7.67704">
        <ele>371</ele>
        <time>2025-05-10T07:35:22.000Z</time>
      </trkpt>
      <trkpt lat="49.0231" lon="7.67696">
        <ele>372</ele>
        <time>2025-05-10T07:35:29.000Z</time>
      </trkpt>
      <trkpt lat="49.02306" lon="7.67693">
        <ele>373</ele>
        <time>2025-05-10T07:35:32.000Z</time>
      </trkpt>
      <trkpt lat="49.02304" lon="7.67684">
        <ele>373</ele>
        <time>2025-05-10T07:35:36.000Z</time>
      </trkpt>
      <trkpt lat="49.02298" lon="7.67688">
        <ele>375</ele>
        <time>2025-05-10T07:35:47.000Z</time>
      </trkpt>
      <trkpt lat="49.02293" lon="7.67685">
        <ele>375</ele>
        <time>2025-05-10T07:35:53.000Z</time>
      </trkpt>
      <trkpt lat="49.02288" lon="7.67686">
        <ele>376</ele>
        <time>2025-05-10T07:35:59.000Z</time>
      </trkpt>
      <trkpt lat="49.02281" lon="7.67697">
        <ele>376</ele>
        <time>2025-05-10T07:36:05.000Z</time>
      </trkpt>
      <trkpt lat="49.02279" lon="7.67704">
        <ele>376</ele>
        <time>2025-05-10T07:36:08.000Z</time>
      </trkpt>
      <trkpt lat="49.02278" lon="7.6771">
        <ele>377</ele>
        <time>2025-05-10T07:36:12.000Z</time>
      </trkpt>
      <trkpt lat="49.02271" lon="7.67727">
        <ele>377</ele>
        <time>2025-05-10T07:36:21.000Z</time>
      </trkpt>
      <trkpt lat="49.02261" lon="7.67745">
        <ele>378</ele>
        <time>2025-05-10T07:36:32.000Z</time>
      </trkpt>
      <trkpt lat="49.02257" lon="7.67758">
        <ele>379</ele>
        <time>2025-05-10T07:36:40.000Z</time>
      </trkpt>
      <trkpt lat="49.02251" lon="7.67765">
        <ele>380</ele>
        <time>2025-05-10T07:36:47.000Z</time>
      </trkpt>
      <trkpt lat="49.02247" lon="7.67768">
        <ele>380</ele>
        <time>2025-05-10T07:36:50.000Z</time>
      </trkpt>
      <trkpt lat="49.02244" lon="7.67774">
        <ele>381</ele>
        <time>2025-05-10T07:36:54.000Z</time>
      </trkpt>
      <trkpt lat="49.0223" lon="7.67794">
        <ele>383</ele>
        <time>2025-05-10T07:37:10.000Z</time>
      </trkpt>
      <trkpt lat="49.02213" lon="7.67819">
        <ele>385</ele>
        <time>2025-05-10T07:37:29.000Z</time>
      </trkpt>
      <trkpt lat="49.02209" lon="7.67823">
        <ele>385</ele>
        <time>2025-05-10T07:37:33.000Z</time>
      </trkpt>
      <trkpt lat="49.02204" lon="7.67825">
        <ele>386</ele>
        <time>2025-05-10T07:37:40.000Z</time>
      </trkpt>
      <trkpt lat="49.02197" lon="7.67827">
        <ele>386</ele>
        <time>2025-05-10T07:37:47.000Z</time>
      </trkpt>
      <trkpt lat="49.02194" lon="7.67835">
        <ele>387</ele>
        <time>2025-05-10T07:37:53.000Z</time>
      </trkpt>
      <trkpt lat="49.02192" lon="7.67851">
        <ele>388</ele>
        <time>2025-05-10T07:38:07.000Z</time>
      </trkpt>
      <trkpt lat="49.02189" lon="7.67856">
        <ele>388</ele>
        <time>2025-05-10T07:38:11.000Z</time>
      </trkpt>
      <trkpt lat="49.02182" lon="7.6787">
        <ele>389</ele>
        <time>2025-05-10T07:38:20.000Z</time>
      </trkpt>
      <trkpt lat="49.02172" lon="7.67899">
        <ele>391</ele>
        <time>2025-05-10T07:38:33.000Z</time>
      </trkpt>
      <trkpt lat="49.02174" lon="7.67917">
        <ele>392</ele>
        <time>2025-05-10T07:38:46.000Z</time>
      </trkpt>
      <trkpt lat="49.02173" lon="7.67952">
        <ele>394</ele>
        <time>2025-05-10T07:39:04.000Z</time>
      </trkpt>
      <trkpt lat="49.02181" lon="7.67995">
        <ele>396</ele>
        <time>2025-05-10T07:39:28.000Z</time>
      </trkpt>
      <trkpt lat="49.02179" lon="7.68005">
        <ele>396</ele>
        <time>2025-05-10T07:39:32.000Z</time>
      </trkpt>
      <trkpt lat="49.02183" lon="7.68019">
        <ele>397</ele>
        <time>2025-05-10T07:39:41.000Z</time>
      </trkpt>
      <trkpt lat="49.02205" lon="7.68062">
        <ele>399</ele>
        <time>2025-05-10T07:40:14.000Z</time>
      </trkpt>
      <trkpt lat="49.0222" lon="7.68075">
        <ele>401</ele>
        <time>2025-05-10T07:40:29.000Z</time>
      </trkpt>
      <trkpt lat="49.02228" lon="7.68096">
        <ele>402</ele>
        <time>2025-05-10T07:40:45.000Z</time>
      </trkpt>
      <trkpt lat="49.0223" lon="7.68102">
        <ele>402</ele>
        <time>2025-05-10T07:40:47.000Z</time>
      </trkpt>
      <trkpt lat="49.02236" lon="7.68112">
        <ele>403</ele>
        <time>2025-05-10T07:40:53.000Z</time>
      </trkpt>
      <trkpt lat="49.02256" lon="7.68129">
        <ele>404</ele>
        <time>2025-05-10T07:41:17.000Z</time>
      </trkpt>
      <trkpt lat="49.0226" lon="7.68136">
        <ele>404</ele>
        <time>2025-05-10T07:41:23.000Z</time>
      </trkpt>
      <trkpt lat="49.02264" lon="7.68139">
        <ele>405</ele>
        <time>2025-05-10T07:41:27.000Z</time>
      </trkpt>
      <trkpt lat="49.02268" lon="7.68144">
        <ele>406</ele>
        <time>2025-05-10T07:41:31.000Z</time>
      </trkpt>
      <trkpt lat="49.02274" lon="7.68145">
        <ele>406</ele>
        <time>2025-05-10T07:41:37.000Z</time>
      </trkpt>
      <trkpt lat="49.0228" lon="7.68149">
        <ele>406</ele>
        <time>2025-05-10T07:41:42.000Z</time>
      </trkpt>
      <trkpt lat="49.02286" lon="7.68148">
        <ele>407</ele>
        <time>2025-05-10T07:41:46.000Z</time>
      </trkpt>
      <trkpt lat="49.02292" lon="7.68144">
        <ele>408</ele>
        <time>2025-05-10T07:41:53.000Z</time>
      </trkpt>
      <trkpt lat="49.02298" lon="7.6814">
        <ele>410</ele>
        <time>2025-05-10T07:42:04.000Z</time>
      </trkpt>
      <trkpt lat="49.02303" lon="7.68137">
        <ele>410</ele>
        <time>2025-05-10T07:42:07.000Z</time>
      </trkpt>
      <trkpt lat="49.02308" lon="7.68134">
        <ele>410</ele>
        <time>2025-05-10T07:42:12.000Z</time>
      </trkpt>
      <trkpt lat="49.02306" lon="7.68126">
        <ele>409</ele>
        <time>2025-05-10T07:42:16.000Z</time>
      </trkpt>
      <trkpt lat="49.0231" lon="7.68121">
        <ele>410</ele>
        <time>2025-05-10T07:42:25.000Z</time>
      </trkpt>
      <trkpt lat="49.02314" lon="7.68091">
        <ele>411</ele>
        <time>2025-05-10T07:42:38.000Z</time>
      </trkpt>
      <trkpt lat="49.02317" lon="7.68084">
        <ele>411</ele>
        <time>2025-05-10T07:42:43.000Z</time>
      </trkpt>
      <trkpt lat="49.02319" lon="7.68073">
        <ele>412</ele>
        <time>2025-05-10T07:42:53.000Z</time>
      </trkpt>
      <trkpt lat="49.02319" lon="7.68064">
        <ele>413</ele>
        <time>2025-05-10T07:42:58.000Z</time>
      </trkpt>
      <trkpt lat="49.0232" lon="7.68055">
        <ele>413</ele>
        <time>2025-05-10T07:43:03.000Z</time>
      </trkpt>
      <trkpt lat="49.0232" lon="7.68044">
        <ele>414</ele>
        <time>2025-05-10T07:43:09.000Z</time>
      </trkpt>
      <trkpt lat="49.02313" lon="7.68027">
        <ele>415</ele>
        <time>2025-05-10T07:43:20.000Z</time>
      </trkpt>
      <trkpt lat="49.02314" lon="7.68016">
        <ele>415</ele>
        <time>2025-05-10T07:43:25.000Z</time>
      </trkpt>
      <trkpt lat="49.02314" lon="7.68007">
        <ele>415</ele>
        <time>2025-05-10T07:43:30.000Z</time>
      </trkpt>
      <trkpt lat="49.02313" lon="7.68">
        <ele>416</ele>
        <time>2025-05-10T07:43:35.000Z</time>
      </trkpt>
      <trkpt lat="49.02306" lon="7.67987">
        <ele>417</ele>
        <time>2025-05-10T07:43:41.000Z</time>
      </trkpt>
      <trkpt lat="49.02304" lon="7.67979">
        <ele>418</ele>
        <time>2025-05-10T07:43:48.000Z</time>
      </trkpt>
      <trkpt lat="49.02304" lon="7.67969">
        <ele>418</ele>
        <time>2025-05-10T07:43:52.000Z</time>
      </trkpt>
      <trkpt lat="49.02304" lon="7.67959">
        <ele>418</ele>
        <time>2025-05-10T07:43:57.000Z</time>
      </trkpt>
      <trkpt lat="49.02295" lon="7.67948">
        <ele>419</ele>
        <time>2025-05-10T07:44:08.000Z</time>
      </trkpt>
      <trkpt lat="49.02291" lon="7.67921">
        <ele>421</ele>
        <time>2025-05-10T07:44:25.000Z</time>
      </trkpt>
      <trkpt lat="49.02289" lon="7.67913">
        <ele>422</ele>
        <time>2025-05-10T07:44:31.000Z</time>
      </trkpt>
      <trkpt lat="49.02283" lon="7.67907">
        <ele>422</ele>
        <time>2025-05-10T07:44:35.000Z</time>
      </trkpt>
      <trkpt lat="49.02281" lon="7.679">
        <ele>423</ele>
        <time>2025-05-10T07:44:38.000Z</time>
      </trkpt>
      <trkpt lat="49.02275" lon="7.67894">
        <ele>424</ele>
        <time>2025-05-10T07:44:46.000Z</time>
      </trkpt>
      <trkpt lat="49.02266" lon="7.67895">
        <ele>424</ele>
        <time>2025-05-10T07:44:55.000Z</time>
      </trkpt>
      <trkpt lat="49.02256" lon="7.67894">
        <ele>425</ele>
        <time>2025-05-10T07:45:02.000Z</time>
      </trkpt>
      <trkpt lat="49.02247" lon="7.67895">
        <ele>426</ele>
        <time>2025-05-10T07:45:13.000Z</time>
      </trkpt>
      <trkpt lat="49.02246" lon="7.67902">
        <ele>427</ele>
        <time>2025-05-10T07:45:19.000Z</time>
      </trkpt>
      <trkpt lat="49.02242" lon="7.67909">
        <ele>427</ele>
        <time>2025-05-10T07:45:23.000Z</time>
      </trkpt>
      <trkpt lat="49.0224" lon="7.67918">
        <ele>427</ele>
        <time>2025-05-10T07:45:26.000Z</time>
      </trkpt>
      <trkpt lat="49.02237" lon="7.67926">
        <ele>428</ele>
        <time>2025-05-10T07:45:32.000Z</time>
      </trkpt>
      <trkpt lat="49.0223" lon="7.67939">
        <ele>429</ele>
        <time>2025-05-10T07:45:41.000Z</time>
      </trkpt>
      <trkpt lat="49.02231" lon="7.67947">
        <ele>429</ele>
        <time>2025-05-10T07:45:49.000Z</time>
      </trkpt>
      <trkpt lat="49.02234" lon="7.67957">
        <ele>431</ele>
        <time>2025-05-10T07:45:57.000Z</time>
      </trkpt>
      <trkpt lat="49.02235" lon="7.67965">
        <ele>431</ele>
        <time>2025-05-10T07:46:00.000Z</time>
      </trkpt>
      <trkpt lat="49.0224" lon="7.67982">
        <ele>431</ele>
        <time>2025-05-10T07:46:08.000Z</time>
      </trkpt>
      <trkpt lat="49.02242" lon="7.67989">
        <ele>432</ele>
        <time>2025-05-10T07:46:15.000Z</time>
      </trkpt>
      <trkpt lat="49.02243" lon="7.67996">
        <ele>432</ele>
        <time>2025-05-10T07:46:18.000Z</time>
      </trkpt>
      <trkpt lat="49.02254" lon="7.68017">
        <ele>434</ele>
        <time>2025-05-10T07:46:41.000Z</time>
      </trkpt>
      <trkpt lat="49.02259" lon="7.68031">
        <ele>435</ele>
        <time>2025-05-10T07:46:51.000Z</time>
      </trkpt>
      <trkpt lat="49.02274" lon="7.68028">
        <ele>437</ele>
        <time>2025-05-10T07:47:04.000Z</time>
      </trkpt>
      <trkpt lat="49.02281" lon="7.68026">
        <ele>438</ele>
        <time>2025-05-10T07:47:19.000Z</time>
      </trkpt>
      <trkpt lat="49.02273" lon="7.68039">
        <ele>438</ele>
        <time>2025-05-10T07:47:35.000Z</time>
      </trkpt>
      <trkpt lat="49.02274" lon="7.68047">
        <ele>438</ele>
        <time>2025-05-10T07:47:40.000Z</time>
      </trkpt>
      <trkpt lat="49.02277" lon="7.68057">
        <ele>437</ele>
        <time>2025-05-10T07:47:50.000Z</time>
      </trkpt>
      <trkpt lat="49.02276" lon="7.68067">
        <ele>434</ele>
        <time>2025-05-10T07:47:58.000Z</time>
      </trkpt>
      <trkpt lat="49.02271" lon="7.68052">
        <ele>433</ele>
        <time>2025-05-10T07:48:29.000Z</time>
      </trkpt>
      <trkpt lat="49.02275" lon="7.68056">
        <ele>432</ele>
        <time>2025-05-10T07:49:59.000Z</time>
      </trkpt>
      <trkpt lat="49.02274" lon="7.68043">
        <ele>437</ele>
        <time>2025-05-10T07:50:35.000Z</time>
      </trkpt>
      <trkpt lat="49.0227" lon="7.68039">
        <ele>437</ele>
        <time>2025-05-10T07:50:39.000Z</time>
      </trkpt>
      <trkpt lat="49.0227" lon="7.68032">
        <ele>437</ele>
        <time>2025-05-10T07:50:44.000Z</time>
      </trkpt>
      <trkpt lat="49.02269" lon="7.68026">
        <ele>437</ele>
        <time>2025-05-10T07:50:49.000Z</time>
      </trkpt>
      <trkpt lat="49.02264" lon="7.68025">
        <ele>439</ele>
        <time>2025-05-10T07:51:03.000Z</time>
      </trkpt>
      <trkpt lat="49.0226" lon="7.68018">
        <ele>440</ele>
        <time>2025-05-10T07:51:08.000Z</time>
      </trkpt>
      <trkpt lat="49.02265" lon="7.6801">
        <ele>443</ele>
        <time>2025-05-10T07:51:17.000Z</time>
      </trkpt>
      <trkpt lat="49.02265" lon="7.67998">
        <ele>444</ele>
        <time>2025-05-10T07:51:29.000Z</time>
      </trkpt>
      <trkpt lat="49.0226" lon="7.6799">
        <ele>445</ele>
        <time>2025-05-10T07:51:43.000Z</time>
      </trkpt>
      <trkpt lat="49.0226" lon="7.67982">
        <ele>445</ele>
        <time>2025-05-10T07:51:48.000Z</time>
      </trkpt>
      <trkpt lat="49.02259" lon="7.67976">
        <ele>445</ele>
        <time>2025-05-10T07:51:52.000Z</time>
      </trkpt>
      <trkpt lat="49.02257" lon="7.67966">
        <ele>445</ele>
        <time>2025-05-10T07:51:58.000Z</time>
      </trkpt>
      <trkpt lat="49.02253" lon="7.67959">
        <ele>445</ele>
        <time>2025-05-10T07:52:05.000Z</time>
      </trkpt>
      <trkpt lat="49.02253" lon="7.67959">
        <ele>442</ele>
        <time>2025-05-10T07:52:29.000Z</time>
      </trkpt>
      <trkpt lat="49.02253" lon="7.67969">
        <ele>442</ele>
        <time>2025-05-10T07:52:33.000Z</time>
      </trkpt>
      <trkpt lat="49.02251" lon="7.67977">
        <ele>442</ele>
        <time>2025-05-10T07:52:36.000Z</time>
      </trkpt>
      <trkpt lat="49.02262" lon="7.67982">
        <ele>442</ele>
        <time>2025-05-10T07:52:52.000Z</time>
      </trkpt>
      <trkpt lat="49.02261" lon="7.67997">
        <ele>440</ele>
        <time>2025-05-10T07:53:14.000Z</time>
      </trkpt>
      <trkpt lat="49.02265" lon="7.68012">
        <ele>442</ele>
        <time>2025-05-10T07:53:27.000Z</time>
      </trkpt>
      <trkpt lat="49.02261" lon="7.68009">
        <ele>441</ele>
        <time>2025-05-10T07:54:29.000Z</time>
      </trkpt>
      <trkpt lat="49.02255" lon="7.68003">
        <ele>440</ele>
        <time>2025-05-10T07:54:38.000Z</time>
      </trkpt>
      <trkpt lat="49.02253" lon="7.67991">
        <ele>439</ele>
        <time>2025-05-10T07:54:48.000Z</time>
      </trkpt>
      <trkpt lat="49.0225" lon="7.67986">
        <ele>441</ele>
        <time>2025-05-10T07:54:54.000Z</time>
      </trkpt>
      <trkpt lat="49.0225" lon="7.67986">
        <ele>440</ele>
        <time>2025-05-10T07:55:36.000Z</time>
      </trkpt>
      <trkpt lat="49.02251" lon="7.67978">
        <ele>439</ele>
        <time>2025-05-10T08:41:28.000Z</time>
      </trkpt>
      <trkpt lat="49.0225" lon="7.67977">
        <ele>439</ele>
        <time>2025-05-10T08:41:29.000Z</time>
      </trkpt>
      <trkpt lat="49.02247" lon="7.67972">
        <ele>438</ele>
        <time>2025-05-10T08:41:36.000Z</time>
      </trkpt>
      <trkpt lat="49.02247" lon="7.67958">
        <ele>438</ele>
        <time>2025-05-10T08:41:46.000Z</time>
      </trkpt>
      <trkpt lat="49.02247" lon="7.67951">
        <ele>438</ele>
        <time>2025-05-10T08:41:50.000Z</time>
      </trkpt>
      <trkpt lat="49.02251" lon="7.67942">
        <ele>437</ele>
        <time>2025-05-10T08:41:57.000Z</time>
      </trkpt>
      <trkpt lat="49.02259" lon="7.67928">
        <ele>435</ele>
        <time>2025-05-10T08:42:10.000Z</time>
      </trkpt>
      <trkpt lat="49.02256" lon="7.67917">
        <ele>431</ele>
        <time>2025-05-10T08:42:22.000Z</time>
      </trkpt>
      <trkpt lat="49.02255" lon="7.67904">
        <ele>427</ele>
        <time>2025-05-10T08:42:33.000Z</time>
      </trkpt>
      <trkpt lat="49.0226" lon="7.67886">
        <ele>421</ele>
        <time>2025-05-10T08:42:50.000Z</time>
      </trkpt>
      <trkpt lat="49.02259" lon="7.67881">
        <ele>419</ele>
        <time>2025-05-10T08:43:43.000Z</time>
      </trkpt>
      <trkpt lat="49.02262" lon="7.67861">
        <ele>415</ele>
        <time>2025-05-10T08:43:56.000Z</time>
      </trkpt>
      <trkpt lat="49.02265" lon="7.67856">
        <ele>414</ele>
        <time>2025-05-10T08:44:00.000Z</time>
      </trkpt>
      <trkpt lat="49.02261" lon="7.67851">
        <ele>411</ele>
        <time>2025-05-10T08:44:05.000Z</time>
      </trkpt>
      <trkpt lat="49.0226" lon="7.67838">
        <ele>408</ele>
        <time>2025-05-10T08:44:14.000Z</time>
      </trkpt>
      <trkpt lat="49.02257" lon="7.6783">
        <ele>403</ele>
        <time>2025-05-10T08:44:23.000Z</time>
      </trkpt>
      <trkpt lat="49.02264" lon="7.67813">
        <ele>400</ele>
        <time>2025-05-10T08:44:34.000Z</time>
      </trkpt>
      <trkpt lat="49.02264" lon="7.67801">
        <ele>398</ele>
        <time>2025-05-10T08:44:43.000Z</time>
      </trkpt>
      <trkpt lat="49.02266" lon="7.67777">
        <ele>390</ele>
        <time>2025-05-10T08:44:59.000Z</time>
      </trkpt>
      <trkpt lat="49.02271" lon="7.6777">
        <ele>387</ele>
        <time>2025-05-10T08:45:05.000Z</time>
      </trkpt>
      <trkpt lat="49.02274" lon="7.67747">
        <ele>381</ele>
        <time>2025-05-10T08:45:20.000Z</time>
      </trkpt>
      <trkpt lat="49.02272" lon="7.67742">
        <ele>381</ele>
        <time>2025-05-10T08:45:24.000Z</time>
      </trkpt>
      <trkpt lat="49.02274" lon="7.67735">
        <ele>379</ele>
        <time>2025-05-10T08:45:29.000Z</time>
      </trkpt>
      <trkpt lat="49.02276" lon="7.67729">
        <ele>378</ele>
        <time>2025-05-10T08:45:32.000Z</time>
      </trkpt>
      <trkpt lat="49.02281" lon="7.67704">
        <ele>375</ele>
        <time>2025-05-10T08:45:45.000Z</time>
      </trkpt>
      <trkpt lat="49.02281" lon="7.67696">
        <ele>375</ele>
        <time>2025-05-10T08:45:49.000Z</time>
      </trkpt>
      <trkpt lat="49.02283" lon="7.67689">
        <ele>373</ele>
        <time>2025-05-10T08:45:53.000Z</time>
      </trkpt>
      <trkpt lat="49.02286" lon="7.67681">
        <ele>372</ele>
        <time>2025-05-10T08:45:59.000Z</time>
      </trkpt>
      <trkpt lat="49.02283" lon="7.67675">
        <ele>372</ele>
        <time>2025-05-10T08:46:03.000Z</time>
      </trkpt>
      <trkpt lat="49.0226" lon="7.67667">
        <ele>366</ele>
        <time>2025-05-10T08:46:24.000Z</time>
      </trkpt>
      <trkpt lat="49.02256" lon="7.6766">
        <ele>365</ele>
        <time>2025-05-10T08:46:28.000Z</time>
      </trkpt>
      <trkpt lat="49.02256" lon="7.67652">
        <ele>364</ele>
        <time>2025-05-10T08:46:31.000Z</time>
      </trkpt>
      <trkpt lat="49.02258" lon="7.67644">
        <ele>364</ele>
        <time>2025-05-10T08:46:33.000Z</time>
      </trkpt>
      <trkpt lat="49.02256" lon="7.67629">
        <ele>364</ele>
        <time>2025-05-10T08:46:40.000Z</time>
      </trkpt>
      <trkpt lat="49.02252" lon="7.67623">
        <ele>364</ele>
        <time>2025-05-10T08:46:44.000Z</time>
      </trkpt>
      <trkpt lat="49.0225" lon="7.67608">
        <ele>364</ele>
        <time>2025-05-10T08:46:51.000Z</time>
      </trkpt>
      <trkpt lat="49.02249" lon="7.67586">
        <ele>364</ele>
        <time>2025-05-10T08:47:01.000Z</time>
      </trkpt>
      <trkpt lat="49.02246" lon="7.67573">
        <ele>363</ele>
        <time>2025-05-10T08:47:09.000Z</time>
      </trkpt>
      <trkpt lat="49.02242" lon="7.67577">
        <ele>364</ele>
        <time>2025-05-10T08:47:45.000Z</time>
      </trkpt>
      <trkpt lat="49.02247" lon="7.67584">
        <ele>363</ele>
        <time>2025-05-10T08:48:09.000Z</time>
      </trkpt>
      <trkpt lat="49.02249" lon="7.67577">
        <ele>363</ele>
        <time>2025-05-10T08:48:14.000Z</time>
      </trkpt>
      <trkpt lat="49.02249" lon="7.67569">
        <ele>363</ele>
        <time>2025-05-10T08:48:16.000Z</time>
      </trkpt>
      <trkpt lat="49.02246" lon="7.67562">
        <ele>363</ele>
        <time>2025-05-10T08:48:19.000Z</time>
      </trkpt>
      <trkpt lat="49.02234" lon="7.67521">
        <ele>362</ele>
        <time>2025-05-10T08:48:42.000Z</time>
      </trkpt>
      <trkpt lat="49.02231" lon="7.67516">
        <ele>361</ele>
        <time>2025-05-10T08:48:45.000Z</time>
      </trkpt>
      <trkpt lat="49.02225" lon="7.67503">
        <ele>361</ele>
        <time>2025-05-10T08:48:53.000Z</time>
      </trkpt>
      <trkpt lat="49.0222" lon="7.6749">
        <ele>360</ele>
        <time>2025-05-10T08:49:01.000Z</time>
      </trkpt>
      <trkpt lat="49.02218" lon="7.67483">
        <ele>360</ele>
        <time>2025-05-10T08:49:05.000Z</time>
      </trkpt>
      <trkpt lat="49.02215" lon="7.67477">
        <ele>360</ele>
        <time>2025-05-10T08:49:09.000Z</time>
      </trkpt>
      <trkpt lat="49.02213" lon="7.67472">
        <ele>360</ele>
        <time>2025-05-10T08:49:12.000Z</time>
      </trkpt>
      <trkpt lat="49.02209" lon="7.67465">
        <ele>360</ele>
        <time>2025-05-10T08:49:16.000Z</time>
      </trkpt>
      <trkpt lat="49.02207" lon="7.67459">
        <ele>360</ele>
        <time>2025-05-10T08:49:19.000Z</time>
      </trkpt>
      <trkpt lat="49.02204" lon="7.67453">
        <ele>359</ele>
        <time>2025-05-10T08:49:23.000Z</time>
      </trkpt>
      <trkpt lat="49.02204" lon="7.67445">
        <ele>359</ele>
        <time>2025-05-10T08:49:27.000Z</time>
      </trkpt>
      <trkpt lat="49.02205" lon="7.67437">
        <ele>359</ele>
        <time>2025-05-10T08:49:29.000Z</time>
      </trkpt>
      <trkpt lat="49.02201" lon="7.67432">
        <ele>359</ele>
        <time>2025-05-10T08:49:32.000Z</time>
      </trkpt>
      <trkpt lat="49.02196" lon="7.67415">
        <ele>358</ele>
        <time>2025-05-10T08:49:43.000Z</time>
      </trkpt>
      <trkpt lat="49.02193" lon="7.6741">
        <ele>358</ele>
        <time>2025-05-10T08:49:46.000Z</time>
      </trkpt>
      <trkpt lat="49.02192" lon="7.67402">
        <ele>358</ele>
        <time>2025-05-10T08:49:50.000Z</time>
      </trkpt>
      <trkpt lat="49.02184" lon="7.67384">
        <ele>357</ele>
        <time>2025-05-10T08:50:01.000Z</time>
      </trkpt>
      <trkpt lat="49.02181" lon="7.67378">
        <ele>358</ele>
        <time>2025-05-10T08:50:05.000Z</time>
      </trkpt>
      <trkpt lat="49.02174" lon="7.67359">
        <ele>357</ele>
        <time>2025-05-10T08:50:16.000Z</time>
      </trkpt>
      <trkpt lat="49.02173" lon="7.67352">
        <ele>357</ele>
        <time>2025-05-10T08:50:20.000Z</time>
      </trkpt>
      <trkpt lat="49.02169" lon="7.67345">
        <ele>357</ele>
        <time>2025-05-10T08:50:24.000Z</time>
      </trkpt>
      <trkpt lat="49.02166" lon="7.67332">
        <ele>357</ele>
        <time>2025-05-10T08:50:32.000Z</time>
      </trkpt>
      <trkpt lat="49.02162" lon="7.67302">
        <ele>356</ele>
        <time>2025-05-10T08:50:48.000Z</time>
      </trkpt>
      <trkpt lat="49.0215" lon="7.67253">
        <ele>354</ele>
        <time>2025-05-10T08:51:14.000Z</time>
      </trkpt>
      <trkpt lat="49.02144" lon="7.67197">
        <ele>352</ele>
        <time>2025-05-10T08:51:46.000Z</time>
      </trkpt>
      <trkpt lat="49.02135" lon="7.67133">
        <ele>352</ele>
        <time>2025-05-10T08:52:18.000Z</time>
      </trkpt>
      <trkpt lat="49.02134" lon="7.67125">
        <ele>352</ele>
        <time>2025-05-10T08:52:22.000Z</time>
      </trkpt>
      <trkpt lat="49.02133" lon="7.67117">
        <ele>352</ele>
        <time>2025-05-10T08:52:26.000Z</time>
      </trkpt>
      <trkpt lat="49.02134" lon="7.67101">
        <ele>352</ele>
        <time>2025-05-10T08:52:33.000Z</time>
      </trkpt>
      <trkpt lat="49.02136" lon="7.67094">
        <ele>352</ele>
        <time>2025-05-10T08:52:35.000Z</time>
      </trkpt>
      <trkpt lat="49.02137" lon="7.67086">
        <ele>351</ele>
        <time>2025-05-10T08:52:39.000Z</time>
      </trkpt>
      <trkpt lat="49.02137" lon="7.67078">
        <ele>351</ele>
        <time>2025-05-10T08:52:43.000Z</time>
      </trkpt>
      <trkpt lat="49.02135" lon="7.67071">
        <ele>351</ele>
        <time>2025-05-10T08:52:47.000Z</time>
      </trkpt>
      <trkpt lat="49.02135" lon="7.67062">
        <ele>351</ele>
        <time>2025-05-10T08:52:51.000Z</time>
      </trkpt>
      <trkpt lat="49.02131" lon="7.67047">
        <ele>351</ele>
        <time>2025-05-10T08:52:58.000Z</time>
      </trkpt>
      <trkpt lat="49.02114" lon="7.66997">
        <ele>349</ele>
        <time>2025-05-10T08:53:28.000Z</time>
      </trkpt>
      <trkpt lat="49.02087" lon="7.66946">
        <ele>344</ele>
        <time>2025-05-10T08:54:03.000Z</time>
      </trkpt>
      <trkpt lat="49.02076" lon="7.66929">
        <ele>343</ele>
        <time>2025-05-10T08:54:14.000Z</time>
      </trkpt>
      <trkpt lat="49.02066" lon="7.66912">
        <ele>342</ele>
        <time>2025-05-10T08:54:24.000Z</time>
      </trkpt>
      <trkpt lat="49.02058" lon="7.66903">
        <ele>341</ele>
        <time>2025-05-10T08:54:31.000Z</time>
      </trkpt>
      <trkpt lat="49.02041" lon="7.66867">
        <ele>340</ele>
        <time>2025-05-10T08:54:52.000Z</time>
      </trkpt>
      <trkpt lat="49.02032" lon="7.66857">
        <ele>340</ele>
        <time>2025-05-10T08:54:58.000Z</time>
      </trkpt>
      <trkpt lat="49.02029" lon="7.66841">
        <ele>340</ele>
        <time>2025-05-10T08:55:05.000Z</time>
      </trkpt>
      <trkpt lat="49.02026" lon="7.66834">
        <ele>340</ele>
        <time>2025-05-10T08:55:10.000Z</time>
      </trkpt>
      <trkpt lat="49.02024" lon="7.66827">
        <ele>340</ele>
        <time>2025-05-10T08:55:13.000Z</time>
      </trkpt>
      <trkpt lat="49.02026" lon="7.6682">
        <ele>340</ele>
        <time>2025-05-10T08:55:16.000Z</time>
      </trkpt>
      <trkpt lat="49.02033" lon="7.6681">
        <ele>339</ele>
        <time>2025-05-10T08:55:22.000Z</time>
      </trkpt>
      <trkpt lat="49.02042" lon="7.66806">
        <ele>338</ele>
        <time>2025-05-10T08:55:30.000Z</time>
      </trkpt>
      <trkpt lat="49.02049" lon="7.66804">
        <ele>338</ele>
        <time>2025-05-10T08:55:34.000Z</time>
      </trkpt>
      <trkpt lat="49.02053" lon="7.66803">
        <ele>338</ele>
        <time>2025-05-10T08:55:38.000Z</time>
      </trkpt>
      <trkpt lat="49.02058" lon="7.66802">
        <ele>337</ele>
        <time>2025-05-10T08:55:43.000Z</time>
      </trkpt>
      <trkpt lat="49.02063" lon="7.66802">
        <ele>337</ele>
        <time>2025-05-10T08:55:46.000Z</time>
      </trkpt>
      <trkpt lat="49.02069" lon="7.66804">
        <ele>337</ele>
        <time>2025-05-10T08:55:49.000Z</time>
      </trkpt>
      <trkpt lat="49.02075" lon="7.66804">
        <ele>336</ele>
        <time>2025-05-10T08:55:52.000Z</time>
      </trkpt>
      <trkpt lat="49.02085" lon="7.66803">
        <ele>335</ele>
        <time>2025-05-10T08:55:58.000Z</time>
      </trkpt>
      <trkpt lat="49.0209" lon="7.66798">
        <ele>335</ele>
        <time>2025-05-10T08:56:02.000Z</time>
      </trkpt>
      <trkpt lat="49.02123" lon="7.66799">
        <ele>332</ele>
        <time>2025-05-10T08:56:24.000Z</time>
      </trkpt>
      <trkpt lat="49.02127" lon="7.66797">
        <ele>332</ele>
        <time>2025-05-10T08:56:29.000Z</time>
      </trkpt>
      <trkpt lat="49.02139" lon="7.66802">
        <ele>331</ele>
        <time>2025-05-10T08:56:37.000Z</time>
      </trkpt>
      <trkpt lat="49.02144" lon="7.66805">
        <ele>330</ele>
        <time>2025-05-10T08:56:40.000Z</time>
      </trkpt>
      <trkpt lat="49.02166" lon="7.66804">
        <ele>328</ele>
        <time>2025-05-10T08:56:57.000Z</time>
      </trkpt>
      <trkpt lat="49.0217" lon="7.66807">
        <ele>327</ele>
        <time>2025-05-10T08:57:01.000Z</time>
      </trkpt>
      <trkpt lat="49.02178" lon="7.66808">
        <ele>326</ele>
        <time>2025-05-10T08:57:05.000Z</time>
      </trkpt>
      <trkpt lat="49.02182" lon="7.66812">
        <ele>325</ele>
        <time>2025-05-10T08:57:09.000Z</time>
      </trkpt>
      <trkpt lat="49.02192" lon="7.66814">
        <ele>325</ele>
        <time>2025-05-10T08:57:14.000Z</time>
      </trkpt>
      <trkpt lat="49.02196" lon="7.6681">
        <ele>324</ele>
        <time>2025-05-10T08:57:18.000Z</time>
      </trkpt>
      <trkpt lat="49.02206" lon="7.66811">
        <ele>323</ele>
        <time>2025-05-10T08:57:27.000Z</time>
      </trkpt>
      <trkpt lat="49.0221" lon="7.6681">
        <ele>323</ele>
        <time>2025-05-10T08:57:29.000Z</time>
      </trkpt>
      <trkpt lat="49.02217" lon="7.66801">
        <ele>322</ele>
        <time>2025-05-10T08:57:36.000Z</time>
      </trkpt>
      <trkpt lat="49.02227" lon="7.66807">
        <ele>321</ele>
        <time>2025-05-10T08:57:44.000Z</time>
      </trkpt>
      <trkpt lat="49.02247" lon="7.66802">
        <ele>319</ele>
        <time>2025-05-10T08:58:00.000Z</time>
      </trkpt>
      <trkpt lat="49.0227" lon="7.66792">
        <ele>317</ele>
        <time>2025-05-10T08:58:18.000Z</time>
      </trkpt>
      <trkpt lat="49.02275" lon="7.66791">
        <ele>317</ele>
        <time>2025-05-10T08:58:21.000Z</time>
      </trkpt>
      <trkpt lat="49.02281" lon="7.66787">
        <ele>316</ele>
        <time>2025-05-10T08:58:25.000Z</time>
      </trkpt>
      <trkpt lat="49.02286" lon="7.66787">
        <ele>316</ele>
        <time>2025-05-10T08:58:29.000Z</time>
      </trkpt>
      <trkpt lat="49.02291" lon="7.66784">
        <ele>315</ele>
        <time>2025-05-10T08:58:33.000Z</time>
      </trkpt>
      <trkpt lat="49.02296" lon="7.6678">
        <ele>315</ele>
        <time>2025-05-10T08:58:38.000Z</time>
      </trkpt>
      <trkpt lat="49.023" lon="7.66779">
        <ele>315</ele>
        <time>2025-05-10T08:58:41.000Z</time>
      </trkpt>
      <trkpt lat="49.0231" lon="7.66771">
        <ele>314</ele>
        <time>2025-05-10T08:58:47.000Z</time>
      </trkpt>
      <trkpt lat="49.02315" lon="7.66768">
        <ele>313</ele>
        <time>2025-05-10T08:58:50.000Z</time>
      </trkpt>
      <trkpt lat="49.02318" lon="7.66763">
        <ele>313</ele>
        <time>2025-05-10T08:58:54.000Z</time>
      </trkpt>
      <trkpt lat="49.02328" lon="7.66755">
        <ele>312</ele>
        <time>2025-05-10T08:59:02.000Z</time>
      </trkpt>
      <trkpt lat="49.02332" lon="7.66749">
        <ele>311</ele>
        <time>2025-05-10T08:59:10.000Z</time>
      </trkpt>
      <trkpt lat="49.02337" lon="7.66748">
        <ele>311</ele>
        <time>2025-05-10T08:59:11.000Z</time>
      </trkpt>
      <trkpt lat="49.02341" lon="7.66743">
        <ele>310</ele>
        <time>2025-05-10T08:59:14.000Z</time>
      </trkpt>
      <trkpt lat="49.02346" lon="7.66742">
        <ele>310</ele>
        <time>2025-05-10T08:59:19.000Z</time>
      </trkpt>
      <trkpt lat="49.02352" lon="7.66737">
        <ele>309</ele>
        <time>2025-05-10T08:59:24.000Z</time>
      </trkpt>
      <trkpt lat="49.02358" lon="7.66734">
        <ele>309</ele>
        <time>2025-05-10T08:59:28.000Z</time>
      </trkpt>
      <trkpt lat="49.02362" lon="7.66729">
        <ele>308</ele>
        <time>2025-05-10T08:59:32.000Z</time>
      </trkpt>
      <trkpt lat="49.02374" lon="7.66727">
        <ele>307</ele>
        <time>2025-05-10T08:59:41.000Z</time>
      </trkpt>
      <trkpt lat="49.02378" lon="7.66721">
        <ele>306</ele>
        <time>2025-05-10T08:59:45.000Z</time>
      </trkpt>
      <trkpt lat="49.02383" lon="7.6672">
        <ele>306</ele>
        <time>2025-05-10T08:59:48.000Z</time>
      </trkpt>
      <trkpt lat="49.02401" lon="7.66724">
        <ele>304</ele>
        <time>2025-05-10T08:59:58.000Z</time>
      </trkpt>
      <trkpt lat="49.02406" lon="7.66719">
        <ele>304</ele>
        <time>2025-05-10T09:00:02.000Z</time>
      </trkpt>
      <trkpt lat="49.02435" lon="7.66714">
        <ele>302</ele>
        <time>2025-05-10T09:00:22.000Z</time>
      </trkpt>
      <trkpt lat="49.02439" lon="7.66717">
        <ele>301</ele>
        <time>2025-05-10T09:00:25.000Z</time>
      </trkpt>
      <trkpt lat="49.02458" lon="7.66714">
        <ele>300</ele>
        <time>2025-05-10T09:00:39.000Z</time>
      </trkpt>
      <trkpt lat="49.02463" lon="7.66711">
        <ele>299</ele>
        <time>2025-05-10T09:00:45.000Z</time>
      </trkpt>
      <trkpt lat="49.02469" lon="7.66711">
        <ele>298</ele>
        <time>2025-05-10T09:00:48.000Z</time>
      </trkpt>
      <trkpt lat="49.02473" lon="7.66712">
        <ele>298</ele>
        <time>2025-05-10T09:00:51.000Z</time>
      </trkpt>
      <trkpt lat="49.02487" lon="7.66721">
        <ele>297</ele>
        <time>2025-05-10T09:01:00.000Z</time>
      </trkpt>
      <trkpt lat="49.02492" lon="7.66717">
        <ele>296</ele>
        <time>2025-05-10T09:01:04.000Z</time>
      </trkpt>
      <trkpt lat="49.02497" lon="7.66719">
        <ele>296</ele>
        <time>2025-05-10T09:01:07.000Z</time>
      </trkpt>
      <trkpt lat="49.02502" lon="7.66718">
        <ele>295</ele>
        <time>2025-05-10T09:01:11.000Z</time>
      </trkpt>
      <trkpt lat="49.02506" lon="7.66715">
        <ele>295</ele>
        <time>2025-05-10T09:01:14.000Z</time>
      </trkpt>
      <trkpt lat="49.02528" lon="7.66716">
        <ele>293</ele>
        <time>2025-05-10T09:01:31.000Z</time>
      </trkpt>
      <trkpt lat="49.02534" lon="7.66717">
        <ele>292</ele>
        <time>2025-05-10T09:01:33.000Z</time>
      </trkpt>
      <trkpt lat="49.02538" lon="7.66719">
        <ele>292</ele>
        <time>2025-05-10T09:01:37.000Z</time>
      </trkpt>
      <trkpt lat="49.02558" lon="7.66718">
        <ele>289</ele>
        <time>2025-05-10T09:01:54.000Z</time>
      </trkpt>
      <trkpt lat="49.02563" lon="7.66716">
        <ele>290</ele>
        <time>2025-05-10T09:01:58.000Z</time>
      </trkpt>
      <trkpt lat="49.02578" lon="7.66711">
        <ele>287</ele>
        <time>2025-05-10T09:02:10.000Z</time>
      </trkpt>
      <trkpt lat="49.02583" lon="7.66711">
        <ele>287</ele>
        <time>2025-05-10T09:02:14.000Z</time>
      </trkpt>
      <trkpt lat="49.02592" lon="7.6671">
        <ele>286</ele>
        <time>2025-05-10T09:02:21.000Z</time>
      </trkpt>
      <trkpt lat="49.02594" lon="7.66701">
        <ele>285</ele>
        <time>2025-05-10T09:02:25.000Z</time>
      </trkpt>
      <trkpt lat="49.02591" lon="7.66695">
        <ele>285</ele>
        <time>2025-05-10T09:02:27.000Z</time>
      </trkpt>
      <trkpt lat="49.0259" lon="7.66685">
        <ele>285</ele>
        <time>2025-05-10T09:02:29.000Z</time>
      </trkpt>
      <trkpt lat="49.02589" lon="7.66678">
        <ele>284</ele>
        <time>2025-05-10T09:02:33.000Z</time>
      </trkpt>
      <trkpt lat="49.02584" lon="7.6667">
        <ele>286</ele>
        <time>2025-05-10T09:02:46.000Z</time>
      </trkpt>
      <trkpt lat="49.02575" lon="7.6666">
        <ele>288</ele>
        <time>2025-05-10T09:03:00.000Z</time>
      </trkpt>
      <trkpt lat="49.02566" lon="7.66649">
        <ele>289</ele>
        <time>2025-05-10T09:03:06.000Z</time>
      </trkpt>
      <trkpt lat="49.02558" lon="7.66629">
        <ele>291</ele>
        <time>2025-05-10T09:03:15.000Z</time>
      </trkpt>
      <trkpt lat="49.02553" lon="7.66623">
        <ele>291</ele>
        <time>2025-05-10T09:03:19.000Z</time>
      </trkpt>
      <trkpt lat="49.02552" lon="7.66608">
        <ele>292</ele>
        <time>2025-05-10T09:03:29.000Z</time>
      </trkpt>
      <trkpt lat="49.02546" lon="7.66583">
        <ele>292</ele>
        <time>2025-05-10T09:03:41.000Z</time>
      </trkpt>
      <trkpt lat="49.02542" lon="7.66576">
        <ele>293</ele>
        <time>2025-05-10T09:03:44.000Z</time>
      </trkpt>
      <trkpt lat="49.02518" lon="7.6655">
        <ele>294</ele>
        <time>2025-05-10T09:04:10.000Z</time>
      </trkpt>
      <trkpt lat="49.02508" lon="7.66538">
        <ele>296</ele>
        <time>2025-05-10T09:04:22.000Z</time>
      </trkpt>
      <trkpt lat="49.02485" lon="7.66535">
        <ele>300</ele>
        <time>2025-05-10T09:04:43.000Z</time>
      </trkpt>
      <trkpt lat="49.02479" lon="7.66542">
        <ele>301</ele>
        <time>2025-05-10T09:04:45.000Z</time>
      </trkpt>
      <trkpt lat="49.02473" lon="7.66534">
        <ele>302</ele>
        <time>2025-05-10T09:04:53.000Z</time>
      </trkpt>
      <trkpt lat="49.02463" lon="7.66518">
        <ele>304</ele>
        <time>2025-05-10T09:05:07.000Z</time>
      </trkpt>
      <trkpt lat="49.02446" lon="7.66507">
        <ele>306</ele>
        <time>2025-05-10T09:05:17.000Z</time>
      </trkpt>
      <trkpt lat="49.02441" lon="7.66498">
        <ele>307</ele>
        <time>2025-05-10T09:05:23.000Z</time>
      </trkpt>
      <trkpt lat="49.0243" lon="7.6649">
        <ele>309</ele>
        <time>2025-05-10T09:05:34.000Z</time>
      </trkpt>
      <trkpt lat="49.02419" lon="7.6649">
        <ele>310</ele>
        <time>2025-05-10T09:05:45.000Z</time>
      </trkpt>
      <trkpt lat="49.02411" lon="7.66485">
        <ele>311</ele>
        <time>2025-05-10T09:05:50.000Z</time>
      </trkpt>
      <trkpt lat="49.02402" lon="7.66483">
        <ele>312</ele>
        <time>2025-05-10T09:05:56.000Z</time>
      </trkpt>
      <trkpt lat="49.02397" lon="7.66475">
        <ele>312</ele>
        <time>2025-05-10T09:06:03.000Z</time>
      </trkpt>
      <trkpt lat="49.02383" lon="7.66466">
        <ele>313</ele>
        <time>2025-05-10T09:06:15.000Z</time>
      </trkpt>
      <trkpt lat="49.02374" lon="7.66459">
        <ele>314</ele>
        <time>2025-05-10T09:06:23.000Z</time>
      </trkpt>
      <trkpt lat="49.02354" lon="7.66467">
        <ele>315</ele>
        <time>2025-05-10T09:06:38.000Z</time>
      </trkpt>
      <trkpt lat="49.02349" lon="7.66456">
        <ele>316</ele>
        <time>2025-05-10T09:06:48.000Z</time>
      </trkpt>
      <trkpt lat="49.02342" lon="7.66451">
        <ele>316</ele>
        <time>2025-05-10T09:06:53.000Z</time>
      </trkpt>
      <trkpt lat="49.02318" lon="7.66442">
        <ele>317</ele>
        <time>2025-05-10T09:07:11.000Z</time>
      </trkpt>
      <trkpt lat="49.0231" lon="7.66437">
        <ele>318</ele>
        <time>2025-05-10T09:07:17.000Z</time>
      </trkpt>
      <trkpt lat="49.02304" lon="7.66441">
        <ele>318</ele>
        <time>2025-05-10T09:07:21.000Z</time>
      </trkpt>
      <trkpt lat="49.02297" lon="7.66441">
        <ele>318</ele>
        <time>2025-05-10T09:07:26.000Z</time>
      </trkpt>
      <trkpt lat="49.02283" lon="7.66419">
        <ele>319</ele>
        <time>2025-05-10T09:07:43.000Z</time>
      </trkpt>
      <trkpt lat="49.02242" lon="7.66397">
        <ele>322</ele>
        <time>2025-05-10T09:08:21.000Z</time>
      </trkpt>
      <trkpt lat="49.02233" lon="7.66385">
        <ele>323</ele>
        <time>2025-05-10T09:08:31.000Z</time>
      </trkpt>
      <trkpt lat="49.02229" lon="7.66375">
        <ele>324</ele>
        <time>2025-05-10T09:08:36.000Z</time>
      </trkpt>
      <trkpt lat="49.02219" lon="7.66368">
        <ele>325</ele>
        <time>2025-05-10T09:08:47.000Z</time>
      </trkpt>
      <trkpt lat="49.02211" lon="7.66368">
        <ele>326</ele>
        <time>2025-05-10T09:08:52.000Z</time>
      </trkpt>
      <trkpt lat="49.02199" lon="7.66364">
        <ele>327</ele>
        <time>2025-05-10T09:09:03.000Z</time>
      </trkpt>
      <trkpt lat="49.02193" lon="7.66366">
        <ele>328</ele>
        <time>2025-05-10T09:09:07.000Z</time>
      </trkpt>
      <trkpt lat="49.02184" lon="7.66333">
        <ele>329</ele>
        <time>2025-05-10T09:09:22.000Z</time>
      </trkpt>
      <trkpt lat="49.02174" lon="7.66328">
        <ele>329</ele>
        <time>2025-05-10T09:09:27.000Z</time>
      </trkpt>
      <trkpt lat="49.02169" lon="7.66332">
        <ele>330</ele>
        <time>2025-05-10T09:09:30.000Z</time>
      </trkpt>
      <trkpt lat="49.02162" lon="7.66327">
        <ele>330</ele>
        <time>2025-05-10T09:09:36.000Z</time>
      </trkpt>
      <trkpt lat="49.02156" lon="7.66314">
        <ele>330</ele>
        <time>2025-05-10T09:09:47.000Z</time>
      </trkpt>
      <trkpt lat="49.02151" lon="7.66311">
        <ele>330</ele>
        <time>2025-05-10T09:09:52.000Z</time>
      </trkpt>
      <trkpt lat="49.02145" lon="7.66304">
        <ele>330</ele>
        <time>2025-05-10T09:09:56.000Z</time>
      </trkpt>
      <trkpt lat="49.0214" lon="7.66296">
        <ele>330</ele>
        <time>2025-05-10T09:10:01.000Z</time>
      </trkpt>
      <trkpt lat="49.02137" lon="7.66281">
        <ele>332</ele>
        <time>2025-05-10T09:10:11.000Z</time>
      </trkpt>
      <trkpt lat="49.02133" lon="7.66281">
        <ele>332</ele>
        <time>2025-05-10T09:10:15.000Z</time>
      </trkpt>
      <trkpt lat="49.02129" lon="7.66279">
        <ele>331</ele>
        <time>2025-05-10T09:10:19.000Z</time>
      </trkpt>
      <trkpt lat="49.02124" lon="7.66277">
        <ele>331</ele>
        <time>2025-05-10T09:10:24.000Z</time>
      </trkpt>
      <trkpt lat="49.02121" lon="7.66266">
        <ele>334</ele>
        <time>2025-05-10T09:10:35.000Z</time>
      </trkpt>
      <trkpt lat="49.02117" lon="7.66263">
        <ele>333</ele>
        <time>2025-05-10T09:10:39.000Z</time>
      </trkpt>
      <trkpt lat="49.02112" lon="7.66262">
        <ele>333</ele>
        <time>2025-05-10T09:10:42.000Z</time>
      </trkpt>
      <trkpt lat="49.02105" lon="7.66251">
        <ele>334</ele>
        <time>2025-05-10T09:10:49.000Z</time>
      </trkpt>
      <trkpt lat="49.02097" lon="7.66253">
        <ele>335</ele>
        <time>2025-05-10T09:10:55.000Z</time>
      </trkpt>
      <trkpt lat="49.02094" lon="7.66248">
        <ele>335</ele>
        <time>2025-05-10T09:10:59.000Z</time>
      </trkpt>
      <trkpt lat="49.02089" lon="7.66247">
        <ele>335</ele>
        <time>2025-05-10T09:11:04.000Z</time>
      </trkpt>
      <trkpt lat="49.02085" lon="7.66241">
        <ele>335</ele>
        <time>2025-05-10T09:11:09.000Z</time>
      </trkpt>
      <trkpt lat="49.02081" lon="7.66237">
        <ele>336</ele>
        <time>2025-05-10T09:11:13.000Z</time>
      </trkpt>
      <trkpt lat="49.02078" lon="7.66233">
        <ele>336</ele>
        <time>2025-05-10T09:11:16.000Z</time>
      </trkpt>
      <trkpt lat="49.02076" lon="7.66227">
        <ele>336</ele>
        <time>2025-05-10T09:11:20.000Z</time>
      </trkpt>
      <trkpt lat="49.02071" lon="7.66214">
        <ele>335</ele>
        <time>2025-05-10T09:11:29.000Z</time>
      </trkpt>
      <trkpt lat="49.02068" lon="7.66199">
        <ele>337</ele>
        <time>2025-05-10T09:11:38.000Z</time>
      </trkpt>
      <trkpt lat="49.02065" lon="7.66194">
        <ele>337</ele>
        <time>2025-05-10T09:11:41.000Z</time>
      </trkpt>
      <trkpt lat="49.02058" lon="7.66175">
        <ele>339</ele>
        <time>2025-05-10T09:11:49.000Z</time>
      </trkpt>
      <trkpt lat="49.02049" lon="7.66163">
        <ele>341</ele>
        <time>2025-05-10T09:11:59.000Z</time>
      </trkpt>
      <trkpt lat="49.0204" lon="7.66153">
        <ele>341</ele>
        <time>2025-05-10T09:12:06.000Z</time>
      </trkpt>
      <trkpt lat="49.02029" lon="7.66144">
        <ele>342</ele>
        <time>2025-05-10T09:12:16.000Z</time>
      </trkpt>
      <trkpt lat="49.02023" lon="7.6613">
        <ele>343</ele>
        <time>2025-05-10T09:12:27.000Z</time>
      </trkpt>
      <trkpt lat="49.02017" lon="7.66124">
        <ele>344</ele>
        <time>2025-05-10T09:12:30.000Z</time>
      </trkpt>
      <trkpt lat="49.02015" lon="7.66116">
        <ele>344</ele>
        <time>2025-05-10T09:12:34.000Z</time>
      </trkpt>
      <trkpt lat="49.02011" lon="7.66109">
        <ele>344</ele>
        <time>2025-05-10T09:12:40.000Z</time>
      </trkpt>
      <trkpt lat="49.02006" lon="7.66098">
        <ele>345</ele>
        <time>2025-05-10T09:12:43.000Z</time>
      </trkpt>
      <trkpt lat="49.02001" lon="7.66085">
        <ele>346</ele>
        <time>2025-05-10T09:12:55.000Z</time>
      </trkpt>
      <trkpt lat="49.01991" lon="7.66072">
        <ele>346</ele>
        <time>2025-05-10T09:13:02.000Z</time>
      </trkpt>
      <trkpt lat="49.01986" lon="7.6607">
        <ele>347</ele>
        <time>2025-05-10T09:13:05.000Z</time>
      </trkpt>
      <trkpt lat="49.01981" lon="7.66058">
        <ele>347</ele>
        <time>2025-05-10T09:13:13.000Z</time>
      </trkpt>
      <trkpt lat="49.01976" lon="7.66054">
        <ele>347</ele>
        <time>2025-05-10T09:13:16.000Z</time>
      </trkpt>
      <trkpt lat="49.01969" lon="7.66035">
        <ele>348</ele>
        <time>2025-05-10T09:13:29.000Z</time>
      </trkpt>
      <trkpt lat="49.01964" lon="7.66034">
        <ele>349</ele>
        <time>2025-05-10T09:13:34.000Z</time>
      </trkpt>
      <trkpt lat="49.01955" lon="7.66025">
        <ele>349</ele>
        <time>2025-05-10T09:13:40.000Z</time>
      </trkpt>
      <trkpt lat="49.01953" lon="7.66019">
        <ele>349</ele>
        <time>2025-05-10T09:13:42.000Z</time>
      </trkpt>
      <trkpt lat="49.01946" lon="7.66015">
        <ele>350</ele>
        <time>2025-05-10T09:13:48.000Z</time>
      </trkpt>
      <trkpt lat="49.01947" lon="7.66008">
        <ele>349</ele>
        <time>2025-05-10T09:13:51.000Z</time>
      </trkpt>
      <trkpt lat="49.01943" lon="7.65999">
        <ele>350</ele>
        <time>2025-05-10T09:13:54.000Z</time>
      </trkpt>
      <trkpt lat="49.01934" lon="7.65992">
        <ele>350</ele>
        <time>2025-05-10T09:14:05.000Z</time>
      </trkpt>
      <trkpt lat="49.01928" lon="7.65977">
        <ele>351</ele>
        <time>2025-05-10T09:14:15.000Z</time>
      </trkpt>
      <trkpt lat="49.01924" lon="7.65969">
        <ele>351</ele>
        <time>2025-05-10T09:14:19.000Z</time>
      </trkpt>
      <trkpt lat="49.01921" lon="7.65958">
        <ele>351</ele>
        <time>2025-05-10T09:14:23.000Z</time>
      </trkpt>
      <trkpt lat="49.01918" lon="7.65955">
        <ele>352</ele>
        <time>2025-05-10T09:14:26.000Z</time>
      </trkpt>
      <trkpt lat="49.01912" lon="7.65951">
        <ele>352</ele>
        <time>2025-05-10T09:14:32.000Z</time>
      </trkpt>
      <trkpt lat="49.01906" lon="7.65954">
        <ele>353</ele>
        <time>2025-05-10T09:14:37.000Z</time>
      </trkpt>
      <trkpt lat="49.01901" lon="7.65959">
        <ele>353</ele>
        <time>2025-05-10T09:14:40.000Z</time>
      </trkpt>
      <trkpt lat="49.01895" lon="7.65959">
        <ele>353</ele>
        <time>2025-05-10T09:14:43.000Z</time>
      </trkpt>
      <trkpt lat="49.0189" lon="7.65949">
        <ele>354</ele>
        <time>2025-05-10T09:14:51.000Z</time>
      </trkpt>
      <trkpt lat="49.01891" lon="7.65929">
        <ele>356</ele>
        <time>2025-05-10T09:15:00.000Z</time>
      </trkpt>
      <trkpt lat="49.01892" lon="7.65921">
        <ele>356</ele>
        <time>2025-05-10T09:15:05.000Z</time>
      </trkpt>
      <trkpt lat="49.01885" lon="7.65919">
        <ele>355</ele>
        <time>2025-05-10T09:15:11.000Z</time>
      </trkpt>
      <trkpt lat="49.01882" lon="7.65912">
        <ele>355</ele>
        <time>2025-05-10T09:15:19.000Z</time>
      </trkpt>
      <trkpt lat="49.01877" lon="7.65908">
        <ele>355</ele>
        <time>2025-05-10T09:15:21.000Z</time>
      </trkpt>
      <trkpt lat="49.0187" lon="7.65902">
        <ele>355</ele>
        <time>2025-05-10T09:15:27.000Z</time>
      </trkpt>
      <trkpt lat="49.01863" lon="7.65901">
        <ele>356</ele>
        <time>2025-05-10T09:15:33.000Z</time>
      </trkpt>
      <trkpt lat="49.01858" lon="7.65896">
        <ele>356</ele>
        <time>2025-05-10T09:15:36.000Z</time>
      </trkpt>
      <trkpt lat="49.01849" lon="7.65884">
        <ele>358</ele>
        <time>2025-05-10T09:15:47.000Z</time>
      </trkpt>
      <trkpt lat="49.01846" lon="7.65879">
        <ele>358</ele>
        <time>2025-05-10T09:15:52.000Z</time>
      </trkpt>
      <trkpt lat="49.0184" lon="7.65875">
        <ele>359</ele>
        <time>2025-05-10T09:15:57.000Z</time>
      </trkpt>
      <trkpt lat="49.01837" lon="7.65871">
        <ele>359</ele>
        <time>2025-05-10T09:16:00.000Z</time>
      </trkpt>
      <trkpt lat="49.01834" lon="7.65863">
        <ele>360</ele>
        <time>2025-05-10T09:16:04.000Z</time>
      </trkpt>
      <trkpt lat="49.01832" lon="7.65858">
        <ele>361</ele>
        <time>2025-05-10T09:16:09.000Z</time>
      </trkpt>
      <trkpt lat="49.01827" lon="7.65853">
        <ele>362</ele>
        <time>2025-05-10T09:16:15.000Z</time>
      </trkpt>
      <trkpt lat="49.0182" lon="7.65837">
        <ele>362</ele>
        <time>2025-05-10T09:16:25.000Z</time>
      </trkpt>
      <trkpt lat="49.01816" lon="7.6583">
        <ele>363</ele>
        <time>2025-05-10T09:16:31.000Z</time>
      </trkpt>
      <trkpt lat="49.01812" lon="7.65825">
        <ele>364</ele>
        <time>2025-05-10T09:16:36.000Z</time>
      </trkpt>
      <trkpt lat="49.01817" lon="7.65813">
        <ele>365</ele>
        <time>2025-05-10T09:16:48.000Z</time>
      </trkpt>
      <trkpt lat="49.01825" lon="7.6581">
        <ele>368</ele>
        <time>2025-05-10T09:17:09.000Z</time>
      </trkpt>
      <trkpt lat="49.0183" lon="7.65809">
        <ele>368</ele>
        <time>2025-05-10T09:17:10.000Z</time>
      </trkpt>
      <trkpt lat="49.01833" lon="7.65808">
        <ele>368</ele>
        <time>2025-05-10T09:17:48.000Z</time>
      </trkpt>
      <trkpt lat="49.01836" lon="7.65816">
        <ele>368</ele>
        <time>2025-05-10T09:17:58.000Z</time>
      </trkpt>
      <trkpt lat="49.01843" lon="7.65818">
        <ele>368</ele>
        <time>2025-05-10T09:18:06.000Z</time>
      </trkpt>
      <trkpt lat="49.01841" lon="7.65821">
        <ele>369</ele>
        <time>2025-05-10T09:18:40.000Z</time>
      </trkpt>
      <trkpt lat="49.01831" lon="7.65819">
        <ele>370</ele>
        <time>2025-05-10T09:18:56.000Z</time>
      </trkpt>
      <trkpt lat="49.01825" lon="7.65823">
        <ele>368</ele>
        <time>2025-05-10T09:19:07.000Z</time>
      </trkpt>
      <trkpt lat="49.01821" lon="7.65825">
        <ele>367</ele>
        <time>2025-05-10T09:19:19.000Z</time>
      </trkpt>
      <trkpt lat="49.01824" lon="7.65832">
        <ele>366</ele>
        <time>2025-05-10T09:19:36.000Z</time>
      </trkpt>
      <trkpt lat="49.01827" lon="7.65837">
        <ele>366</ele>
        <time>2025-05-10T09:19:40.000Z</time>
      </trkpt>
      <trkpt lat="49.01834" lon="7.65834">
        <ele>365</ele>
        <time>2025-05-10T09:19:46.000Z</time>
      </trkpt>
      <trkpt lat="49.01836" lon="7.65843">
        <ele>365</ele>
        <time>2025-05-10T09:19:50.000Z</time>
      </trkpt>
      <trkpt lat="49.0184" lon="7.65851">
        <ele>364</ele>
        <time>2025-05-10T09:19:57.000Z</time>
      </trkpt>
      <trkpt lat="49.01845" lon="7.65855">
        <ele>363</ele>
        <time>2025-05-10T09:20:06.000Z</time>
      </trkpt>
      <trkpt lat="49.0185" lon="7.65859">
        <ele>364</ele>
        <time>2025-05-10T09:20:11.000Z</time>
      </trkpt>
      <trkpt lat="49.01855" lon="7.65869">
        <ele>364</ele>
        <time>2025-05-10T09:20:18.000Z</time>
      </trkpt>
      <trkpt lat="49.0186" lon="7.65873">
        <ele>364</ele>
        <time>2025-05-10T09:20:21.000Z</time>
      </trkpt>
      <trkpt lat="49.01866" lon="7.65874">
        <ele>364</ele>
        <time>2025-05-10T09:20:27.000Z</time>
      </trkpt>
      <trkpt lat="49.01872" lon="7.65877">
        <ele>365</ele>
        <time>2025-05-10T09:20:31.000Z</time>
      </trkpt>
      <trkpt lat="49.01877" lon="7.65882">
        <ele>364</ele>
        <time>2025-05-10T09:20:38.000Z</time>
      </trkpt>
      <trkpt lat="49.01895" lon="7.6589">
        <ele>365</ele>
        <time>2025-05-10T09:20:57.000Z</time>
      </trkpt>
      <trkpt lat="49.01898" lon="7.65883">
        <ele>366</ele>
        <time>2025-05-10T09:21:02.000Z</time>
      </trkpt>
      <trkpt lat="49.01898" lon="7.65886">
        <ele>366</ele>
        <time>2025-05-10T09:21:31.000Z</time>
      </trkpt>
      <trkpt lat="49.01891" lon="7.65892">
        <ele>365</ele>
        <time>2025-05-10T09:21:38.000Z</time>
      </trkpt>
      <trkpt lat="49.01884" lon="7.65893">
        <ele>365</ele>
        <time>2025-05-10T09:21:43.000Z</time>
      </trkpt>
      <trkpt lat="49.01871" lon="7.65878">
        <ele>364</ele>
        <time>2025-05-10T09:22:15.000Z</time>
      </trkpt>
      <trkpt lat="49.01872" lon="7.65878">
        <ele>364</ele>
        <time>2025-05-10T09:22:43.000Z</time>
      </trkpt>
      <trkpt lat="49.01878" lon="7.65885">
        <ele>364</ele>
        <time>2025-05-10T09:22:47.000Z</time>
      </trkpt>
      <trkpt lat="49.01886" lon="7.65886">
        <ele>364</ele>
        <time>2025-05-10T09:22:51.000Z</time>
      </trkpt>
      <trkpt lat="49.01892" lon="7.65885">
        <ele>365</ele>
        <time>2025-05-10T09:22:55.000Z</time>
      </trkpt>
      <trkpt lat="49.01895" lon="7.65878">
        <ele>365</ele>
        <time>2025-05-10T09:23:03.000Z</time>
      </trkpt>
      <trkpt lat="49.01897" lon="7.65873">
        <ele>365</ele>
        <time>2025-05-10T09:23:07.000Z</time>
      </trkpt>
      <trkpt lat="49.01905" lon="7.65883">
        <ele>366</ele>
        <time>2025-05-10T09:23:19.000Z</time>
      </trkpt>
      <trkpt lat="49.01913" lon="7.65873">
        <ele>366</ele>
        <time>2025-05-10T09:23:33.000Z</time>
      </trkpt>
      <trkpt lat="49.01884" lon="7.65896">
        <ele>361</ele>
        <time>2025-05-10T09:32:16.000Z</time>
      </trkpt>
      <trkpt lat="49.01877" lon="7.65885">
        <ele>360</ele>
        <time>2025-05-10T09:32:25.000Z</time>
      </trkpt>
      <trkpt lat="49.01871" lon="7.65881">
        <ele>360</ele>
        <time>2025-05-10T09:32:28.000Z</time>
      </trkpt>
      <trkpt lat="49.01865" lon="7.65881">
        <ele>360</ele>
        <time>2025-05-10T09:32:34.000Z</time>
      </trkpt>
      <trkpt lat="49.01851" lon="7.65868">
        <ele>359</ele>
        <time>2025-05-10T09:32:49.000Z</time>
      </trkpt>
      <trkpt lat="49.01847" lon="7.65864">
        <ele>359</ele>
        <time>2025-05-10T09:32:52.000Z</time>
      </trkpt>
      <trkpt lat="49.01839" lon="7.65849">
        <ele>358</ele>
        <time>2025-05-10T09:33:04.000Z</time>
      </trkpt>
      <trkpt lat="49.0183" lon="7.65837">
        <ele>360</ele>
        <time>2025-05-10T09:33:24.000Z</time>
      </trkpt>
      <trkpt lat="49.01827" lon="7.6583">
        <ele>360</ele>
        <time>2025-05-10T09:33:27.000Z</time>
      </trkpt>
      <trkpt lat="49.01823" lon="7.65825">
        <ele>361</ele>
        <time>2025-05-10T09:33:35.000Z</time>
      </trkpt>
      <trkpt lat="49.0182" lon="7.65818">
        <ele>360</ele>
        <time>2025-05-10T09:33:38.000Z</time>
      </trkpt>
      <trkpt lat="49.01811" lon="7.65809">
        <ele>360</ele>
        <time>2025-05-10T09:33:42.000Z</time>
      </trkpt>
      <trkpt lat="49.01809" lon="7.65804">
        <ele>358</ele>
        <time>2025-05-10T09:33:46.000Z</time>
      </trkpt>
      <trkpt lat="49.01808" lon="7.65797">
        <ele>357</ele>
        <time>2025-05-10T09:33:51.000Z</time>
      </trkpt>
      <trkpt lat="49.01823" lon="7.65778">
        <ele>354</ele>
        <time>2025-05-10T09:34:07.000Z</time>
      </trkpt>
      <trkpt lat="49.01828" lon="7.65776">
        <ele>352</ele>
        <time>2025-05-10T09:34:12.000Z</time>
      </trkpt>
      <trkpt lat="49.01862" lon="7.65777">
        <ele>347</ele>
        <time>2025-05-10T09:34:42.000Z</time>
      </trkpt>
      <trkpt lat="49.01885" lon="7.65775">
        <ele>341</ele>
        <time>2025-05-10T09:35:03.000Z</time>
      </trkpt>
      <trkpt lat="49.01889" lon="7.65774">
        <ele>340</ele>
        <time>2025-05-10T09:35:06.000Z</time>
      </trkpt>
      <trkpt lat="49.01894" lon="7.6577">
        <ele>340</ele>
        <time>2025-05-10T09:35:09.000Z</time>
      </trkpt>
      <trkpt lat="49.01901" lon="7.6576">
        <ele>338</ele>
        <time>2025-05-10T09:35:16.000Z</time>
      </trkpt>
      <trkpt lat="49.01905" lon="7.65755">
        <ele>337</ele>
        <time>2025-05-10T09:35:20.000Z</time>
      </trkpt>
      <trkpt lat="49.01914" lon="7.65756">
        <ele>337</ele>
        <time>2025-05-10T09:35:27.000Z</time>
      </trkpt>
      <trkpt lat="49.01927" lon="7.65763">
        <ele>336</ele>
        <time>2025-05-10T09:35:38.000Z</time>
      </trkpt>
      <trkpt lat="49.01932" lon="7.65763">
        <ele>336</ele>
        <time>2025-05-10T09:35:41.000Z</time>
      </trkpt>
      <trkpt lat="49.01946" lon="7.65764">
        <ele>336</ele>
        <time>2025-05-10T09:35:50.000Z</time>
      </trkpt>
      <trkpt lat="49.01956" lon="7.65766">
        <ele>336</ele>
        <time>2025-05-10T09:35:56.000Z</time>
      </trkpt>
      <trkpt lat="49.02003" lon="7.6577">
        <ele>334</ele>
        <time>2025-05-10T09:36:28.000Z</time>
      </trkpt>
      <trkpt lat="49.02045" lon="7.65772">
        <ele>333</ele>
        <time>2025-05-10T09:36:55.000Z</time>
      </trkpt>
      <trkpt lat="49.02051" lon="7.65767">
        <ele>333</ele>
        <time>2025-05-10T09:36:59.000Z</time>
      </trkpt>
      <trkpt lat="49.02056" lon="7.65766">
        <ele>333</ele>
        <time>2025-05-10T09:37:03.000Z</time>
      </trkpt>
      <trkpt lat="49.02075" lon="7.65746">
        <ele>332</ele>
        <time>2025-05-10T09:37:23.000Z</time>
      </trkpt>
      <trkpt lat="49.02078" lon="7.6574">
        <ele>331</ele>
        <time>2025-05-10T09:37:28.000Z</time>
      </trkpt>
      <trkpt lat="49.02078" lon="7.65733">
        <ele>331</ele>
        <time>2025-05-10T09:37:30.000Z</time>
      </trkpt>
      <trkpt lat="49.02078" lon="7.65724">
        <ele>331</ele>
        <time>2025-05-10T09:37:34.000Z</time>
      </trkpt>
      <trkpt lat="49.02079" lon="7.65715">
        <ele>330</ele>
        <time>2025-05-10T09:37:39.000Z</time>
      </trkpt>
      <trkpt lat="49.02081" lon="7.65706">
        <ele>330</ele>
        <time>2025-05-10T09:37:42.000Z</time>
      </trkpt>
      <trkpt lat="49.02087" lon="7.65687">
        <ele>329</ele>
        <time>2025-05-10T09:37:51.000Z</time>
      </trkpt>
      <trkpt lat="49.02089" lon="7.65681">
        <ele>329</ele>
        <time>2025-05-10T09:37:55.000Z</time>
      </trkpt>
      <trkpt lat="49.02093" lon="7.65667">
        <ele>328</ele>
        <time>2025-05-10T09:38:03.000Z</time>
      </trkpt>
      <trkpt lat="49.02095" lon="7.65661">
        <ele>328</ele>
        <time>2025-05-10T09:38:07.000Z</time>
      </trkpt>
      <trkpt lat="49.02098" lon="7.65654">
        <ele>328</ele>
        <time>2025-05-10T09:38:11.000Z</time>
      </trkpt>
      <trkpt lat="49.02102" lon="7.65641">
        <ele>326</ele>
        <time>2025-05-10T09:38:19.000Z</time>
      </trkpt>
      <trkpt lat="49.02107" lon="7.65629">
        <ele>326</ele>
        <time>2025-05-10T09:38:27.000Z</time>
      </trkpt>
      <trkpt lat="49.02135" lon="7.65579">
        <ele>324</ele>
        <time>2025-05-10T09:39:00.000Z</time>
      </trkpt>
      <trkpt lat="49.02164" lon="7.65534">
        <ele>322</ele>
        <time>2025-05-10T09:39:32.000Z</time>
      </trkpt>
      <trkpt lat="49.02171" lon="7.65523">
        <ele>321</ele>
        <time>2025-05-10T09:39:40.000Z</time>
      </trkpt>
      <trkpt lat="49.02201" lon="7.65484">
        <ele>320</ele>
        <time>2025-05-10T09:40:13.000Z</time>
      </trkpt>
      <trkpt lat="49.02204" lon="7.6548">
        <ele>319</ele>
        <time>2025-05-10T09:40:17.000Z</time>
      </trkpt>
      <trkpt lat="49.02216" lon="7.65467">
        <ele>319</ele>
        <time>2025-05-10T09:40:29.000Z</time>
      </trkpt>
      <trkpt lat="49.0222" lon="7.65465">
        <ele>319</ele>
        <time>2025-05-10T09:40:33.000Z</time>
      </trkpt>
      <trkpt lat="49.0223" lon="7.65456">
        <ele>319</ele>
        <time>2025-05-10T09:40:42.000Z</time>
      </trkpt>
      <trkpt lat="49.02253" lon="7.65444">
        <ele>317</ele>
        <time>2025-05-10T09:41:03.000Z</time>
      </trkpt>
      <trkpt lat="49.02258" lon="7.65443">
        <ele>317</ele>
        <time>2025-05-10T09:41:07.000Z</time>
      </trkpt>
      <trkpt lat="49.02285" lon="7.65441">
        <ele>316</ele>
        <time>2025-05-10T09:41:29.000Z</time>
      </trkpt>
      <trkpt lat="49.02314" lon="7.65452">
        <ele>315</ele>
        <time>2025-05-10T09:41:55.000Z</time>
      </trkpt>
      <trkpt lat="49.02331" lon="7.65467">
        <ele>314</ele>
        <time>2025-05-10T09:42:11.000Z</time>
      </trkpt>
      <trkpt lat="49.0235" lon="7.65491">
        <ele>313</ele>
        <time>2025-05-10T09:42:33.000Z</time>
      </trkpt>
      <trkpt lat="49.02353" lon="7.65496">
        <ele>312</ele>
        <time>2025-05-10T09:42:37.000Z</time>
      </trkpt>
      <trkpt lat="49.02359" lon="7.65507">
        <ele>312</ele>
        <time>2025-05-10T09:42:45.000Z</time>
      </trkpt>
      <trkpt lat="49.02379" lon="7.65538">
        <ele>310</ele>
        <time>2025-05-10T09:43:06.000Z</time>
      </trkpt>
      <trkpt lat="49.02385" lon="7.65551">
        <ele>309</ele>
        <time>2025-05-10T09:43:13.000Z</time>
      </trkpt>
      <trkpt lat="49.02394" lon="7.65576">
        <ele>308</ele>
        <time>2025-05-10T09:43:27.000Z</time>
      </trkpt>
      <trkpt lat="49.02403" lon="7.65579">
        <ele>308</ele>
        <time>2025-05-10T09:43:33.000Z</time>
      </trkpt>
      <trkpt lat="49.02408" lon="7.65575">
        <ele>308</ele>
        <time>2025-05-10T09:43:36.000Z</time>
      </trkpt>
      <trkpt lat="49.02416" lon="7.65566">
        <ele>307</ele>
        <time>2025-05-10T09:43:42.000Z</time>
      </trkpt>
      <trkpt lat="49.02419" lon="7.6556">
        <ele>307</ele>
        <time>2025-05-10T09:43:45.000Z</time>
      </trkpt>
      <trkpt lat="49.02423" lon="7.65545">
        <ele>306</ele>
        <time>2025-05-10T09:43:52.000Z</time>
      </trkpt>
      <trkpt lat="49.02444" lon="7.65491">
        <ele>304</ele>
        <time>2025-05-10T09:44:26.000Z</time>
      </trkpt>
      <trkpt lat="49.02447" lon="7.65485">
        <ele>304</ele>
        <time>2025-05-10T09:44:31.000Z</time>
      </trkpt>
      <trkpt lat="49.02461" lon="7.65445">
        <ele>305</ele>
        <time>2025-05-10T09:44:55.000Z</time>
      </trkpt>
      <trkpt lat="49.02463" lon="7.65439">
        <ele>305</ele>
        <time>2025-05-10T09:44:59.000Z</time>
      </trkpt>
      <trkpt lat="49.02465" lon="7.65433">
        <ele>305</ele>
        <time>2025-05-10T09:45:02.000Z</time>
      </trkpt>
      <trkpt lat="49.02468" lon="7.65426">
        <ele>304</ele>
        <time>2025-05-10T09:45:06.000Z</time>
      </trkpt>
      <trkpt lat="49.0247" lon="7.6542">
        <ele>304</ele>
        <time>2025-05-10T09:45:10.000Z</time>
      </trkpt>
      <trkpt lat="49.02473" lon="7.654">
        <ele>304</ele>
        <time>2025-05-10T09:45:20.000Z</time>
      </trkpt>
      <trkpt lat="49.02475" lon="7.65393">
        <ele>305</ele>
        <time>2025-05-10T09:45:23.000Z</time>
      </trkpt>
      <trkpt lat="49.02484" lon="7.6538">
        <ele>305</ele>
        <time>2025-05-10T09:45:33.000Z</time>
      </trkpt>
      <trkpt lat="49.02497" lon="7.65356">
        <ele>304</ele>
        <time>2025-05-10T09:45:46.000Z</time>
      </trkpt>
      <trkpt lat="49.02498" lon="7.65346">
        <ele>304</ele>
        <time>2025-05-10T09:45:48.000Z</time>
      </trkpt>
      <trkpt lat="49.02503" lon="7.65342">
        <ele>304</ele>
        <time>2025-05-10T09:45:52.000Z</time>
      </trkpt>
      <trkpt lat="49.02517" lon="7.65339">
        <ele>303</ele>
        <time>2025-05-10T09:46:05.000Z</time>
      </trkpt>
      <trkpt lat="49.02526" lon="7.65342">
        <ele>304</ele>
        <time>2025-05-10T09:46:11.000Z</time>
      </trkpt>
      <trkpt lat="49.02541" lon="7.65349">
        <ele>303</ele>
        <time>2025-05-10T09:46:23.000Z</time>
      </trkpt>
      <trkpt lat="49.02545" lon="7.65349">
        <ele>303</ele>
        <time>2025-05-10T09:46:26.000Z</time>
      </trkpt>
      <trkpt lat="49.0255" lon="7.65349">
        <ele>303</ele>
        <time>2025-05-10T09:46:29.000Z</time>
      </trkpt>
      <trkpt lat="49.02554" lon="7.6535">
        <ele>303</ele>
        <time>2025-05-10T09:46:32.000Z</time>
      </trkpt>
      <trkpt lat="49.02559" lon="7.65352">
        <ele>302</ele>
        <time>2025-05-10T09:46:37.000Z</time>
      </trkpt>
      <trkpt lat="49.02564" lon="7.65353">
        <ele>302</ele>
        <time>2025-05-10T09:46:41.000Z</time>
      </trkpt>
      <trkpt lat="49.02604" lon="7.65368">
        <ele>296</ele>
        <time>2025-05-10T09:47:13.000Z</time>
      </trkpt>
      <trkpt lat="49.02618" lon="7.65372">
        <ele>294</ele>
        <time>2025-05-10T09:47:24.000Z</time>
      </trkpt>
      <trkpt lat="49.02624" lon="7.65374">
        <ele>294</ele>
        <time>2025-05-10T09:47:26.000Z</time>
      </trkpt>
      <trkpt lat="49.02668" lon="7.65389">
        <ele>287</ele>
        <time>2025-05-10T09:47:59.000Z</time>
      </trkpt>
      <trkpt lat="49.02708" lon="7.65404">
        <ele>281</ele>
        <time>2025-05-10T09:48:31.000Z</time>
      </trkpt>
      <trkpt lat="49.02713" lon="7.65407">
        <ele>280</ele>
        <time>2025-05-10T09:48:36.000Z</time>
      </trkpt>
      <trkpt lat="49.02754" lon="7.65421">
        <ele>275</ele>
        <time>2025-05-10T09:49:08.000Z</time>
      </trkpt>
      <trkpt lat="49.02792" lon="7.65437">
        <ele>270</ele>
        <time>2025-05-10T09:49:39.000Z</time>
      </trkpt>
      <trkpt lat="49.02784" lon="7.65421">
        <ele>268</ele>
        <time>2025-05-10T09:49:51.000Z</time>
      </trkpt>
      <trkpt lat="49.02762" lon="7.65389">
        <ele>266</ele>
        <time>2025-05-10T09:50:12.000Z</time>
      </trkpt>
      <trkpt lat="49.02755" lon="7.6537">
        <ele>265</ele>
        <time>2025-05-10T09:50:23.000Z</time>
      </trkpt>
      <trkpt lat="49.02754" lon="7.65363">
        <ele>265</ele>
        <time>2025-05-10T09:50:26.000Z</time>
      </trkpt>
      <trkpt lat="49.02752" lon="7.65357">
        <ele>265</ele>
        <time>2025-05-10T09:50:31.000Z</time>
      </trkpt>
      <trkpt lat="49.02749" lon="7.65351">
        <ele>264</ele>
        <time>2025-05-10T09:50:36.000Z</time>
      </trkpt>
      <trkpt lat="49.0274" lon="7.65324">
        <ele>263</ele>
        <time>2025-05-10T09:50:48.000Z</time>
      </trkpt>
      <trkpt lat="49.02748" lon="7.65319">
        <ele>262</ele>
        <time>2025-05-10T09:50:58.000Z</time>
      </trkpt>
      <trkpt lat="49.02758" lon="7.65315">
        <ele>262</ele>
        <time>2025-05-10T09:51:09.000Z</time>
      </trkpt>
      <trkpt lat="49.02763" lon="7.65313">
        <ele>262</ele>
        <time>2025-05-10T09:51:14.000Z</time>
      </trkpt>
      <trkpt lat="49.02773" lon="7.65308">
        <ele>262</ele>
        <time>2025-05-10T09:51:22.000Z</time>
      </trkpt>
      <trkpt lat="49.02784" lon="7.65303">
        <ele>262</ele>
        <time>2025-05-10T09:51:30.000Z</time>
      </trkpt>
      <trkpt lat="49.02789" lon="7.65301">
        <ele>262</ele>
        <time>2025-05-10T09:51:34.000Z</time>
      </trkpt>
      <trkpt lat="49.02793" lon="7.65299">
        <ele>263</ele>
        <time>2025-05-10T09:51:38.000Z</time>
      </trkpt>
      <trkpt lat="49.02799" lon="7.65296">
        <ele>263</ele>
        <time>2025-05-10T09:51:43.000Z</time>
      </trkpt>
      <trkpt lat="49.02804" lon="7.65293">
        <ele>263</ele>
        <time>2025-05-10T09:51:46.000Z</time>
      </trkpt>
      <trkpt lat="49.02812" lon="7.65286">
        <ele>263</ele>
        <time>2025-05-10T09:51:52.000Z</time>
      </trkpt>
      <trkpt lat="49.02817" lon="7.65282">
        <ele>263</ele>
        <time>2025-05-10T09:51:56.000Z</time>
      </trkpt>
      <trkpt lat="49.02821" lon="7.65279">
        <ele>263</ele>
        <time>2025-05-10T09:51:59.000Z</time>
      </trkpt>
      <trkpt lat="49.02825" lon="7.65275">
        <ele>263</ele>
        <time>2025-05-10T09:52:02.000Z</time>
      </trkpt>
      <trkpt lat="49.0283" lon="7.65272">
        <ele>263</ele>
        <time>2025-05-10T09:52:06.000Z</time>
      </trkpt>
      <trkpt lat="49.02852" lon="7.65245">
        <ele>263</ele>
        <time>2025-05-10T09:52:26.000Z</time>
      </trkpt>
      <trkpt lat="49.02856" lon="7.65238">
        <ele>263</ele>
        <time>2025-05-10T09:52:30.000Z</time>
      </trkpt>
      <trkpt lat="49.02865" lon="7.65223">
        <ele>264</ele>
        <time>2025-05-10T09:52:40.000Z</time>
      </trkpt>
      <trkpt lat="49.02868" lon="7.65214">
        <ele>264</ele>
        <time>2025-05-10T09:52:44.000Z</time>
      </trkpt>
      <trkpt lat="49.02869" lon="7.65205">
        <ele>264</ele>
        <time>2025-05-10T09:52:48.000Z</time>
      </trkpt>
      <trkpt lat="49.0287" lon="7.65198">
        <ele>265</ele>
        <time>2025-05-10T09:52:51.000Z</time>
      </trkpt>
      <trkpt lat="49.02871" lon="7.65189">
        <ele>265</ele>
        <time>2025-05-10T09:52:55.000Z</time>
      </trkpt>
      <trkpt lat="49.0287" lon="7.65182">
        <ele>265</ele>
        <time>2025-05-10T09:52:59.000Z</time>
      </trkpt>
      <trkpt lat="49.02874" lon="7.65163">
        <ele>266</ele>
        <time>2025-05-10T09:53:10.000Z</time>
      </trkpt>
      <trkpt lat="49.02878" lon="7.65158">
        <ele>266</ele>
        <time>2025-05-10T09:53:13.000Z</time>
      </trkpt>
      <trkpt lat="49.02882" lon="7.65154">
        <ele>267</ele>
        <time>2025-05-10T09:53:16.000Z</time>
      </trkpt>
      <trkpt lat="49.02885" lon="7.65148">
        <ele>267</ele>
        <time>2025-05-10T09:53:20.000Z</time>
      </trkpt>
      <trkpt lat="49.02891" lon="7.65142">
        <ele>267</ele>
        <time>2025-05-10T09:53:25.000Z</time>
      </trkpt>
      <trkpt lat="49.02898" lon="7.65122">
        <ele>267</ele>
        <time>2025-05-10T09:53:34.000Z</time>
      </trkpt>
      <trkpt lat="49.02897" lon="7.65114">
        <ele>267</ele>
        <time>2025-05-10T09:53:37.000Z</time>
      </trkpt>
      <trkpt lat="49.02907" lon="7.65095">
        <ele>269</ele>
        <time>2025-05-10T09:53:50.000Z</time>
      </trkpt>
      <trkpt lat="49.0291" lon="7.6509">
        <ele>269</ele>
        <time>2025-05-10T09:53:53.000Z</time>
      </trkpt>
      <trkpt lat="49.02915" lon="7.65087">
        <ele>269</ele>
        <time>2025-05-10T09:53:57.000Z</time>
      </trkpt>
      <trkpt lat="49.02917" lon="7.65082">
        <ele>270</ele>
        <time>2025-05-10T09:54:01.000Z</time>
      </trkpt>
      <trkpt lat="49.02921" lon="7.65077">
        <ele>270</ele>
        <time>2025-05-10T09:54:04.000Z</time>
      </trkpt>
      <trkpt lat="49.02927" lon="7.65073">
        <ele>271</ele>
        <time>2025-05-10T09:54:09.000Z</time>
      </trkpt>
      <trkpt lat="49.02934" lon="7.65071">
        <ele>271</ele>
        <time>2025-05-10T09:54:13.000Z</time>
      </trkpt>
      <trkpt lat="49.02947" lon="7.6507">
        <ele>272</ele>
        <time>2025-05-10T09:54:20.000Z</time>
      </trkpt>
      <trkpt lat="49.02951" lon="7.65065">
        <ele>272</ele>
        <time>2025-05-10T09:54:25.000Z</time>
      </trkpt>
      <trkpt lat="49.02965" lon="7.65062">
        <ele>273</ele>
        <time>2025-05-10T09:54:36.000Z</time>
      </trkpt>
      <trkpt lat="49.0297" lon="7.65068">
        <ele>273</ele>
        <time>2025-05-10T09:54:43.000Z</time>
      </trkpt>
      <trkpt lat="49.02976" lon="7.65063">
        <ele>273</ele>
        <time>2025-05-10T09:54:49.000Z</time>
      </trkpt>
      <trkpt lat="49.02983" lon="7.65062">
        <ele>273</ele>
        <time>2025-05-10T09:54:54.000Z</time>
      </trkpt>
      <trkpt lat="49.02991" lon="7.65058">
        <ele>274</ele>
        <time>2025-05-10T09:55:04.000Z</time>
      </trkpt>
      <trkpt lat="49.02997" lon="7.65057">
        <ele>274</ele>
        <time>2025-05-10T09:55:07.000Z</time>
      </trkpt>
      <trkpt lat="49.03" lon="7.65054">
        <ele>274</ele>
        <time>2025-05-10T09:55:10.000Z</time>
      </trkpt>
      <trkpt lat="49.03005" lon="7.65055">
        <ele>274</ele>
        <time>2025-05-10T09:55:14.000Z</time>
      </trkpt>
      <trkpt lat="49.03015" lon="7.6506">
        <ele>274</ele>
        <time>2025-05-10T09:55:21.000Z</time>
      </trkpt>
      <trkpt lat="49.03021" lon="7.65063">
        <ele>274</ele>
        <time>2025-05-10T09:55:25.000Z</time>
      </trkpt>
      <trkpt lat="49.03038" lon="7.65072">
        <ele>274</ele>
        <time>2025-05-10T09:55:40.000Z</time>
      </trkpt>
      <trkpt lat="49.03044" lon="7.65075">
        <ele>275</ele>
        <time>2025-05-10T09:55:43.000Z</time>
      </trkpt>
      <trkpt lat="49.03048" lon="7.65076">
        <ele>275</ele>
        <time>2025-05-10T09:55:46.000Z</time>
      </trkpt>
      <trkpt lat="49.03081" lon="7.65072">
        <ele>276</ele>
        <time>2025-05-10T09:56:06.000Z</time>
      </trkpt>
      <trkpt lat="49.0309" lon="7.6507">
        <ele>277</ele>
        <time>2025-05-10T09:56:13.000Z</time>
      </trkpt>
      <trkpt lat="49.03098" lon="7.65071">
        <ele>277</ele>
        <time>2025-05-10T09:56:17.000Z</time>
      </trkpt>
      <trkpt lat="49.03103" lon="7.65074">
        <ele>277</ele>
        <time>2025-05-10T09:56:21.000Z</time>
      </trkpt>
      <trkpt lat="49.03116" lon="7.65076">
        <ele>278</ele>
        <time>2025-05-10T09:56:34.000Z</time>
      </trkpt>
      <trkpt lat="49.03121" lon="7.65073">
        <ele>279</ele>
        <time>2025-05-10T09:56:38.000Z</time>
      </trkpt>
      <trkpt lat="49.03125" lon="7.65071">
        <ele>279</ele>
        <time>2025-05-10T09:56:41.000Z</time>
      </trkpt>
      <trkpt lat="49.03132" lon="7.65063">
        <ele>280</ele>
        <time>2025-05-10T09:56:49.000Z</time>
      </trkpt>
      <trkpt lat="49.03138" lon="7.65055">
        <ele>280</ele>
        <time>2025-05-10T09:56:55.000Z</time>
      </trkpt>
      <trkpt lat="49.03144" lon="7.65053">
        <ele>280</ele>
        <time>2025-05-10T09:57:00.000Z</time>
      </trkpt>
      <trkpt lat="49.03151" lon="7.65048">
        <ele>280</ele>
        <time>2025-05-10T09:57:05.000Z</time>
      </trkpt>
      <trkpt lat="49.03156" lon="7.65047">
        <ele>280</ele>
        <time>2025-05-10T09:57:09.000Z</time>
      </trkpt>
      <trkpt lat="49.03162" lon="7.65045">
        <ele>281</ele>
        <time>2025-05-10T09:57:12.000Z</time>
      </trkpt>
      <trkpt lat="49.03165" lon="7.65039">
        <ele>281</ele>
        <time>2025-05-10T09:57:16.000Z</time>
      </trkpt>
      <trkpt lat="49.0317" lon="7.65038">
        <ele>281</ele>
        <time>2025-05-10T09:57:23.000Z</time>
      </trkpt>
      <trkpt lat="49.03175" lon="7.65036">
        <ele>281</ele>
        <time>2025-05-10T09:57:28.000Z</time>
      </trkpt>
      <trkpt lat="49.03186" lon="7.65024">
        <ele>281</ele>
        <time>2025-05-10T09:57:39.000Z</time>
      </trkpt>
      <trkpt lat="49.03196" lon="7.65023">
        <ele>282</ele>
        <time>2025-05-10T09:57:44.000Z</time>
      </trkpt>
      <trkpt lat="49.03201" lon="7.65018">
        <ele>282</ele>
        <time>2025-05-10T09:57:49.000Z</time>
      </trkpt>
      <trkpt lat="49.03207" lon="7.65018">
        <ele>282</ele>
        <time>2025-05-10T09:57:54.000Z</time>
      </trkpt>
      <trkpt lat="49.03214" lon="7.65018">
        <ele>282</ele>
        <time>2025-05-10T09:57:58.000Z</time>
      </trkpt>
      <trkpt lat="49.03219" lon="7.65013">
        <ele>283</ele>
        <time>2025-05-10T09:58:04.000Z</time>
      </trkpt>
      <trkpt lat="49.03228" lon="7.65017">
        <ele>283</ele>
        <time>2025-05-10T09:58:08.000Z</time>
      </trkpt>
      <trkpt lat="49.03246" lon="7.65009">
        <ele>283</ele>
        <time>2025-05-10T09:58:20.000Z</time>
      </trkpt>
      <trkpt lat="49.03252" lon="7.65011">
        <ele>284</ele>
        <time>2025-05-10T09:58:23.000Z</time>
      </trkpt>
      <trkpt lat="49.0326" lon="7.65008">
        <ele>284</ele>
        <time>2025-05-10T09:58:34.000Z</time>
      </trkpt>
      <trkpt lat="49.03267" lon="7.65004">
        <ele>284</ele>
        <time>2025-05-10T09:58:39.000Z</time>
      </trkpt>
      <trkpt lat="49.03271" lon="7.64997">
        <ele>284</ele>
        <time>2025-05-10T09:58:43.000Z</time>
      </trkpt>
      <trkpt lat="49.03283" lon="7.64996">
        <ele>285</ele>
        <time>2025-05-10T09:58:49.000Z</time>
      </trkpt>
      <trkpt lat="49.03289" lon="7.64992">
        <ele>285</ele>
        <time>2025-05-10T09:58:55.000Z</time>
      </trkpt>
      <trkpt lat="49.03299" lon="7.64994">
        <ele>285</ele>
        <time>2025-05-10T09:59:04.000Z</time>
      </trkpt>
      <trkpt lat="49.03302" lon="7.64985">
        <ele>286</ele>
        <time>2025-05-10T09:59:11.000Z</time>
      </trkpt>
      <trkpt lat="49.03309" lon="7.6498">
        <ele>286</ele>
        <time>2025-05-10T09:59:19.000Z</time>
      </trkpt>
      <trkpt lat="49.03316" lon="7.64982">
        <ele>286</ele>
        <time>2025-05-10T09:59:21.000Z</time>
      </trkpt>
      <trkpt lat="49.03323" lon="7.64979">
        <ele>286</ele>
        <time>2025-05-10T09:59:25.000Z</time>
      </trkpt>
      <trkpt lat="49.03329" lon="7.64986">
        <ele>286</ele>
        <time>2025-05-10T09:59:28.000Z</time>
      </trkpt>
      <trkpt lat="49.03343" lon="7.6499">
        <ele>287</ele>
        <time>2025-05-10T09:59:37.000Z</time>
      </trkpt>
      <trkpt lat="49.03349" lon="7.64989">
        <ele>287</ele>
        <time>2025-05-10T09:59:41.000Z</time>
      </trkpt>
      <trkpt lat="49.03354" lon="7.64992">
        <ele>287</ele>
        <time>2025-05-10T09:59:47.000Z</time>
      </trkpt>
      <trkpt lat="49.03358" lon="7.64994">
        <ele>288</ele>
        <time>2025-05-10T09:59:51.000Z</time>
      </trkpt>
      <trkpt lat="49.03368" lon="7.64995">
        <ele>289</ele>
        <time>2025-05-10T10:00:00.000Z</time>
      </trkpt>
      <trkpt lat="49.03373" lon="7.64998">
        <ele>289</ele>
        <time>2025-05-10T10:00:04.000Z</time>
      </trkpt>
      <trkpt lat="49.03377" lon="7.65">
        <ele>289</ele>
        <time>2025-05-10T10:00:08.000Z</time>
      </trkpt>
      <trkpt lat="49.03382" lon="7.65002">
        <ele>290</ele>
        <time>2025-05-10T10:00:16.000Z</time>
      </trkpt>
      <trkpt lat="49.03417" lon="7.65005">
        <ele>293</ele>
        <time>2025-05-10T10:00:38.000Z</time>
      </trkpt>
      <trkpt lat="49.03427" lon="7.65021">
        <ele>294</ele>
        <time>2025-05-10T10:00:49.000Z</time>
      </trkpt>
      <trkpt lat="49.03458" lon="7.65054">
        <ele>297</ele>
        <time>2025-05-10T10:01:13.000Z</time>
      </trkpt>
      <trkpt lat="49.0346" lon="7.65061">
        <ele>298</ele>
        <time>2025-05-10T10:01:21.000Z</time>
      </trkpt>
      <trkpt lat="49.0347" lon="7.65076">
        <ele>298</ele>
        <time>2025-05-10T10:01:29.000Z</time>
      </trkpt>
      <trkpt lat="49.03472" lon="7.65086">
        <ele>299</ele>
        <time>2025-05-10T10:01:33.000Z</time>
      </trkpt>
      <trkpt lat="49.03468" lon="7.65108">
        <ele>299</ele>
        <time>2025-05-10T10:01:44.000Z</time>
      </trkpt>
      <trkpt lat="49.0347" lon="7.65116">
        <ele>300</ele>
        <time>2025-05-10T10:01:47.000Z</time>
      </trkpt>
      <trkpt lat="49.03475" lon="7.6514">
        <ele>301</ele>
        <time>2025-05-10T10:02:02.000Z</time>
      </trkpt>
      <trkpt lat="49.0348" lon="7.65147">
        <ele>302</ele>
        <time>2025-05-10T10:02:06.000Z</time>
      </trkpt>
      <trkpt lat="49.03489" lon="7.65149">
        <ele>303</ele>
        <time>2025-05-10T10:02:10.000Z</time>
      </trkpt>
      <trkpt lat="49.03497" lon="7.65154">
        <ele>304</ele>
        <time>2025-05-10T10:02:19.000Z</time>
      </trkpt>
      <trkpt lat="49.03502" lon="7.65162">
        <ele>304</ele>
        <time>2025-05-10T10:02:28.000Z</time>
      </trkpt>
      <trkpt lat="49.03509" lon="7.65171">
        <ele>305</ele>
        <time>2025-05-10T10:02:37.000Z</time>
      </trkpt>
      <trkpt lat="49.03512" lon="7.65178">
        <ele>305</ele>
        <time>2025-05-10T10:02:41.000Z</time>
      </trkpt>
      <trkpt lat="49.03514" lon="7.65183">
        <ele>305</ele>
        <time>2025-05-10T10:02:46.000Z</time>
      </trkpt>
      <trkpt lat="49.03526" lon="7.65188">
        <ele>305</ele>
        <time>2025-05-10T10:02:57.000Z</time>
      </trkpt>
      <trkpt lat="49.03562" lon="7.65206">
        <ele>306</ele>
        <time>2025-05-10T10:03:21.000Z</time>
      </trkpt>
      <trkpt lat="49.03566" lon="7.6521">
        <ele>306</ele>
        <time>2025-05-10T10:03:25.000Z</time>
      </trkpt>
      <trkpt lat="49.03572" lon="7.65215">
        <ele>305</ele>
        <time>2025-05-10T10:03:28.000Z</time>
      </trkpt>
      <trkpt lat="49.03578" lon="7.65228">
        <ele>305</ele>
        <time>2025-05-10T10:03:35.000Z</time>
      </trkpt>
      <trkpt lat="49.03584" lon="7.65235">
        <ele>305</ele>
        <time>2025-05-10T10:03:43.000Z</time>
      </trkpt>
      <trkpt lat="49.03592" lon="7.65248">
        <ele>304</ele>
        <time>2025-05-10T10:03:50.000Z</time>
      </trkpt>
      <trkpt lat="49.03597" lon="7.65249">
        <ele>304</ele>
        <time>2025-05-10T10:03:54.000Z</time>
      </trkpt>
      <trkpt lat="49.03607" lon="7.6526">
        <ele>303</ele>
        <time>2025-05-10T10:04:07.000Z</time>
      </trkpt>
      <trkpt lat="49.03612" lon="7.65268">
        <ele>302</ele>
        <time>2025-05-10T10:04:10.000Z</time>
      </trkpt>
      <trkpt lat="49.03617" lon="7.65271">
        <ele>302</ele>
        <time>2025-05-10T10:04:14.000Z</time>
      </trkpt>
      <trkpt lat="49.03645" lon="7.65276">
        <ele>299</ele>
        <time>2025-05-10T10:04:37.000Z</time>
      </trkpt>
      <trkpt lat="49.03657" lon="7.65282">
        <ele>298</ele>
        <time>2025-05-10T10:04:47.000Z</time>
      </trkpt>
      <trkpt lat="49.03678" lon="7.65278">
        <ele>293</ele>
        <time>2025-05-10T10:05:07.000Z</time>
      </trkpt>
      <trkpt lat="49.03683" lon="7.65279">
        <ele>293</ele>
        <time>2025-05-10T10:05:10.000Z</time>
      </trkpt>
      <trkpt lat="49.03687" lon="7.65276">
        <ele>292</ele>
        <time>2025-05-10T10:05:14.000Z</time>
      </trkpt>
      <trkpt lat="49.03694" lon="7.65275">
        <ele>290</ele>
        <time>2025-05-10T10:05:21.000Z</time>
      </trkpt>
      <trkpt lat="49.03699" lon="7.65276">
        <ele>290</ele>
        <time>2025-05-10T10:05:24.000Z</time>
      </trkpt>
      <trkpt lat="49.03705" lon="7.65273">
        <ele>290</ele>
        <time>2025-05-10T10:05:27.000Z</time>
      </trkpt>
      <trkpt lat="49.03709" lon="7.65276">
        <ele>289</ele>
        <time>2025-05-10T10:05:30.000Z</time>
      </trkpt>
      <trkpt lat="49.03713" lon="7.65272">
        <ele>288</ele>
        <time>2025-05-10T10:05:33.000Z</time>
      </trkpt>
      <trkpt lat="49.03717" lon="7.65271">
        <ele>288</ele>
        <time>2025-05-10T10:05:36.000Z</time>
      </trkpt>
      <trkpt lat="49.0372" lon="7.65263">
        <ele>287</ele>
        <time>2025-05-10T10:05:41.000Z</time>
      </trkpt>
      <trkpt lat="49.03722" lon="7.65255">
        <ele>286</ele>
        <time>2025-05-10T10:05:44.000Z</time>
      </trkpt>
      <trkpt lat="49.03725" lon="7.65249">
        <ele>285</ele>
        <time>2025-05-10T10:05:49.000Z</time>
      </trkpt>
      <trkpt lat="49.03727" lon="7.65243">
        <ele>284</ele>
        <time>2025-05-10T10:05:52.000Z</time>
      </trkpt>
      <trkpt lat="49.03731" lon="7.65238">
        <ele>283</ele>
        <time>2025-05-10T10:05:56.000Z</time>
      </trkpt>
      <trkpt lat="49.03739" lon="7.65223">
        <ele>281</ele>
        <time>2025-05-10T10:06:07.000Z</time>
      </trkpt>
      <trkpt lat="49.03743" lon="7.65222">
        <ele>280</ele>
        <time>2025-05-10T10:06:10.000Z</time>
      </trkpt>
      <trkpt lat="49.03748" lon="7.65218">
        <ele>280</ele>
        <time>2025-05-10T10:06:14.000Z</time>
      </trkpt>
      <trkpt lat="49.03752" lon="7.65212">
        <ele>279</ele>
        <time>2025-05-10T10:06:17.000Z</time>
      </trkpt>
      <trkpt lat="49.03762" lon="7.65209">
        <ele>278</ele>
        <time>2025-05-10T10:06:25.000Z</time>
      </trkpt>
      <trkpt lat="49.03779" lon="7.6521">
        <ele>277</ele>
        <time>2025-05-10T10:06:34.000Z</time>
      </trkpt>
      <trkpt lat="49.03783" lon="7.65211">
        <ele>276</ele>
        <time>2025-05-10T10:06:40.000Z</time>
      </trkpt>
      <trkpt lat="49.03793" lon="7.65206">
        <ele>275</ele>
        <time>2025-05-10T10:06:48.000Z</time>
      </trkpt>
      <trkpt lat="49.03799" lon="7.65207">
        <ele>274</ele>
        <time>2025-05-10T10:06:53.000Z</time>
      </trkpt>
      <trkpt lat="49.03803" lon="7.65207">
        <ele>274</ele>
        <time>2025-05-10T10:06:56.000Z</time>
      </trkpt>
      <trkpt lat="49.03808" lon="7.65208">
        <ele>273</ele>
        <time>2025-05-10T10:07:01.000Z</time>
      </trkpt>
      <trkpt lat="49.0382" lon="7.65211">
        <ele>274</ele>
        <time>2025-05-10T10:07:10.000Z</time>
      </trkpt>
      <trkpt lat="49.0383" lon="7.65207">
        <ele>275</ele>
        <time>2025-05-10T10:07:17.000Z</time>
      </trkpt>
      <trkpt lat="49.03835" lon="7.65206">
        <ele>275</ele>
        <time>2025-05-10T10:07:19.000Z</time>
      </trkpt>
      <trkpt lat="49.03865" lon="7.65198">
        <ele>277</ele>
        <time>2025-05-10T10:07:43.000Z</time>
      </trkpt>
      <trkpt lat="49.03877" lon="7.65192">
        <ele>278</ele>
        <time>2025-05-10T10:07:53.000Z</time>
      </trkpt>
      <trkpt lat="49.03881" lon="7.65192">
        <ele>278</ele>
        <time>2025-05-10T10:07:56.000Z</time>
      </trkpt>
      <trkpt lat="49.03886" lon="7.65191">
        <ele>278</ele>
        <time>2025-05-10T10:08:03.000Z</time>
      </trkpt>
      <trkpt lat="49.03893" lon="7.65191">
        <ele>278</ele>
        <time>2025-05-10T10:08:07.000Z</time>
      </trkpt>
      <trkpt lat="49.03899" lon="7.65194">
        <ele>278</ele>
        <time>2025-05-10T10:08:13.000Z</time>
      </trkpt>
      <trkpt lat="49.03905" lon="7.6519">
        <ele>278</ele>
        <time>2025-05-10T10:08:17.000Z</time>
      </trkpt>
      <trkpt lat="49.03917" lon="7.6519">
        <ele>276</ele>
        <time>2025-05-10T10:08:26.000Z</time>
      </trkpt>
      <trkpt lat="49.03923" lon="7.65187">
        <ele>275</ele>
        <time>2025-05-10T10:08:32.000Z</time>
      </trkpt>
      <trkpt lat="49.03943" lon="7.65183">
        <ele>273</ele>
        <time>2025-05-10T10:08:44.000Z</time>
      </trkpt>
      <trkpt lat="49.03948" lon="7.6518">
        <ele>272</ele>
        <time>2025-05-10T10:08:48.000Z</time>
      </trkpt>
      <trkpt lat="49.03959" lon="7.65173">
        <ele>271</ele>
        <time>2025-05-10T10:08:56.000Z</time>
      </trkpt>
      <trkpt lat="49.03966" lon="7.65175">
        <ele>271</ele>
        <time>2025-05-10T10:08:59.000Z</time>
      </trkpt>
      <trkpt lat="49.03973" lon="7.65172">
        <ele>271</ele>
        <time>2025-05-10T10:09:06.000Z</time>
      </trkpt>
      <trkpt lat="49.03987" lon="7.65173">
        <ele>271</ele>
        <time>2025-05-10T10:09:16.000Z</time>
      </trkpt>
      <trkpt lat="49.03992" lon="7.65169">
        <ele>271</ele>
        <time>2025-05-10T10:09:24.000Z</time>
      </trkpt>
      <trkpt lat="49.03998" lon="7.65167">
        <ele>271</ele>
        <time>2025-05-10T10:09:28.000Z</time>
      </trkpt>
      <trkpt lat="49.04004" lon="7.65165">
        <ele>271</ele>
        <time>2025-05-10T10:09:31.000Z</time>
      </trkpt>
      <trkpt lat="49.04029" lon="7.65159">
        <ele>270</ele>
        <time>2025-05-10T10:09:49.000Z</time>
      </trkpt>
      <trkpt lat="49.04034" lon="7.65161">
        <ele>270</ele>
        <time>2025-05-10T10:09:53.000Z</time>
      </trkpt>
      <trkpt lat="49.04066" lon="7.6515">
        <ele>268</ele>
        <time>2025-05-10T10:10:18.000Z</time>
      </trkpt>
      <trkpt lat="49.0407" lon="7.65147">
        <ele>267</ele>
        <time>2025-05-10T10:10:22.000Z</time>
      </trkpt>
      <trkpt lat="49.04082" lon="7.65148">
        <ele>267</ele>
        <time>2025-05-10T10:10:28.000Z</time>
      </trkpt>
      <trkpt lat="49.04093" lon="7.65141">
        <ele>267</ele>
        <time>2025-05-10T10:10:36.000Z</time>
      </trkpt>
      <trkpt lat="49.04111" lon="7.65143">
        <ele>267</ele>
        <time>2025-05-10T10:10:47.000Z</time>
      </trkpt>
      <trkpt lat="49.04115" lon="7.6514">
        <ele>267</ele>
        <time>2025-05-10T10:10:51.000Z</time>
      </trkpt>
      <trkpt lat="49.04121" lon="7.6514">
        <ele>267</ele>
        <time>2025-05-10T10:10:57.000Z</time>
      </trkpt>
      <trkpt lat="49.04127" lon="7.65137">
        <ele>267</ele>
        <time>2025-05-10T10:11:01.000Z</time>
      </trkpt>
      <trkpt lat="49.04137" lon="7.65139">
        <ele>268</ele>
        <time>2025-05-10T10:11:12.000Z</time>
      </trkpt>
      <trkpt lat="49.04151" lon="7.6514">
        <ele>268</ele>
        <time>2025-05-10T10:11:18.000Z</time>
      </trkpt>
      <trkpt lat="49.04176" lon="7.65129">
        <ele>272</ele>
        <time>2025-05-10T10:11:50.000Z</time>
      </trkpt>
      <trkpt lat="49.0418" lon="7.6513">
        <ele>272</ele>
        <time>2025-05-10T10:11:54.000Z</time>
      </trkpt>
      <trkpt lat="49.04185" lon="7.6513">
        <ele>273</ele>
        <time>2025-05-10T10:11:57.000Z</time>
      </trkpt>
      <trkpt lat="49.04189" lon="7.65132">
        <ele>273</ele>
        <time>2025-05-10T10:12:00.000Z</time>
      </trkpt>
      <trkpt lat="49.04195" lon="7.65127">
        <ele>273</ele>
        <time>2025-05-10T10:12:03.000Z</time>
      </trkpt>
      <trkpt lat="49.04203" lon="7.6512">
        <ele>274</ele>
        <time>2025-05-10T10:12:10.000Z</time>
      </trkpt>
      <trkpt lat="49.04205" lon="7.65115">
        <ele>274</ele>
        <time>2025-05-10T10:12:14.000Z</time>
      </trkpt>
      <trkpt lat="49.04213" lon="7.65105">
        <ele>275</ele>
        <time>2025-05-10T10:12:20.000Z</time>
      </trkpt>
      <trkpt lat="49.04219" lon="7.65107">
        <ele>275</ele>
        <time>2025-05-10T10:12:28.000Z</time>
      </trkpt>
      <trkpt lat="49.04225" lon="7.6511">
        <ele>276</ele>
        <time>2025-05-10T10:12:33.000Z</time>
      </trkpt>
      <trkpt lat="49.0423" lon="7.65112">
        <ele>276</ele>
        <time>2025-05-10T10:12:41.000Z</time>
      </trkpt>
      <trkpt lat="49.04249" lon="7.65125">
        <ele>276</ele>
        <time>2025-05-10T10:12:50.000Z</time>
      </trkpt>
      <trkpt lat="49.04266" lon="7.65127">
        <ele>277</ele>
        <time>2025-05-10T10:12:59.000Z</time>
      </trkpt>
      <trkpt lat="49.0427" lon="7.65125">
        <ele>278</ele>
        <time>2025-05-10T10:13:05.000Z</time>
      </trkpt>
      <trkpt lat="49.04283" lon="7.65129">
        <ele>278</ele>
        <time>2025-05-10T10:13:12.000Z</time>
      </trkpt>
      <trkpt lat="49.04309" lon="7.65144">
        <ele>278</ele>
        <time>2025-05-10T10:13:37.000Z</time>
      </trkpt>
      <trkpt lat="49.04314" lon="7.65151">
        <ele>278</ele>
        <time>2025-05-10T10:13:42.000Z</time>
      </trkpt>
      <trkpt lat="49.04321" lon="7.65155">
        <ele>279</ele>
        <time>2025-05-10T10:13:44.000Z</time>
      </trkpt>
      <trkpt lat="49.04338" lon="7.65165">
        <ele>280</ele>
        <time>2025-05-10T10:13:56.000Z</time>
      </trkpt>
      <trkpt lat="49.04348" lon="7.65166">
        <ele>281</ele>
        <time>2025-05-10T10:14:07.000Z</time>
      </trkpt>
      <trkpt lat="49.04363" lon="7.65171">
        <ele>281</ele>
        <time>2025-05-10T10:14:18.000Z</time>
      </trkpt>
      <trkpt lat="49.04368" lon="7.65169">
        <ele>281</ele>
        <time>2025-05-10T10:14:23.000Z</time>
      </trkpt>
      <trkpt lat="49.04375" lon="7.65173">
        <ele>281</ele>
        <time>2025-05-10T10:14:26.000Z</time>
      </trkpt>
      <trkpt lat="49.04388" lon="7.65184">
        <ele>281</ele>
        <time>2025-05-10T10:14:35.000Z</time>
      </trkpt>
      <trkpt lat="49.04397" lon="7.65183">
        <ele>281</ele>
        <time>2025-05-10T10:14:41.000Z</time>
      </trkpt>
      <trkpt lat="49.04429" lon="7.65188">
        <ele>281</ele>
        <time>2025-05-10T10:15:12.000Z</time>
      </trkpt>
      <trkpt lat="49.04435" lon="7.65184">
        <ele>281</ele>
        <time>2025-05-10T10:15:17.000Z</time>
      </trkpt>
      <trkpt lat="49.04439" lon="7.65177">
        <ele>281</ele>
        <time>2025-05-10T10:15:20.000Z</time>
      </trkpt>
      <trkpt lat="49.04446" lon="7.65163">
        <ele>281</ele>
        <time>2025-05-10T10:15:30.000Z</time>
      </trkpt>
      <trkpt lat="49.04446" lon="7.65155">
        <ele>281</ele>
        <time>2025-05-10T10:15:34.000Z</time>
      </trkpt>
      <trkpt lat="49.0445" lon="7.65149">
        <ele>281</ele>
        <time>2025-05-10T10:15:38.000Z</time>
      </trkpt>
      <trkpt lat="49.04453" lon="7.65145">
        <ele>281</ele>
        <time>2025-05-10T10:15:43.000Z</time>
      </trkpt>
      <trkpt lat="49.04451" lon="7.65134">
        <ele>281</ele>
        <time>2025-05-10T10:15:54.000Z</time>
      </trkpt>
      <trkpt lat="49.04456" lon="7.65118">
        <ele>281</ele>
        <time>2025-05-10T10:16:06.000Z</time>
      </trkpt>
      <trkpt lat="49.04459" lon="7.65109">
        <ele>281</ele>
        <time>2025-05-10T10:16:13.000Z</time>
      </trkpt>
      <trkpt lat="49.04471" lon="7.65084">
        <ele>281</ele>
        <time>2025-05-10T10:16:29.000Z</time>
      </trkpt>
      <trkpt lat="49.0448" lon="7.65049">
        <ele>281</ele>
        <time>2025-05-10T10:16:46.000Z</time>
      </trkpt>
      <trkpt lat="49.04482" lon="7.65043">
        <ele>282</ele>
        <time>2025-05-10T10:16:50.000Z</time>
      </trkpt>
      <trkpt lat="49.04483" lon="7.65036">
        <ele>282</ele>
        <time>2025-05-10T10:16:54.000Z</time>
      </trkpt>
      <trkpt lat="49.04487" lon="7.6503">
        <ele>282</ele>
        <time>2025-05-10T10:16:58.000Z</time>
      </trkpt>
      <trkpt lat="49.04489" lon="7.65023">
        <ele>282</ele>
        <time>2025-05-10T10:17:02.000Z</time>
      </trkpt>
      <trkpt lat="49.04492" lon="7.65019">
        <ele>282</ele>
        <time>2025-05-10T10:17:06.000Z</time>
      </trkpt>
      <trkpt lat="49.04494" lon="7.65012">
        <ele>282</ele>
        <time>2025-05-10T10:17:10.000Z</time>
      </trkpt>
      <trkpt lat="49.04498" lon="7.64996">
        <ele>281</ele>
        <time>2025-05-10T10:17:17.000Z</time>
      </trkpt>
      <trkpt lat="49.045" lon="7.64991">
        <ele>281</ele>
        <time>2025-05-10T10:17:20.000Z</time>
      </trkpt>
      <trkpt lat="49.04503" lon="7.64985">
        <ele>281</ele>
        <time>2025-05-10T10:17:24.000Z</time>
      </trkpt>
      <trkpt lat="49.04506" lon="7.64976">
        <ele>281</ele>
        <time>2025-05-10T10:17:27.000Z</time>
      </trkpt>
      <trkpt lat="49.04509" lon="7.64969">
        <ele>281</ele>
        <time>2025-05-10T10:17:32.000Z</time>
      </trkpt>
      <trkpt lat="49.04517" lon="7.64954">
        <ele>281</ele>
        <time>2025-05-10T10:17:41.000Z</time>
      </trkpt>
      <trkpt lat="49.0453" lon="7.64947">
        <ele>282</ele>
        <time>2025-05-10T10:17:50.000Z</time>
      </trkpt>
      <trkpt lat="49.04536" lon="7.64933">
        <ele>283</ele>
        <time>2025-05-10T10:17:58.000Z</time>
      </trkpt>
      <trkpt lat="49.04538" lon="7.64895">
        <ele>284</ele>
        <time>2025-05-10T10:18:15.000Z</time>
      </trkpt>
      <trkpt lat="49.0454" lon="7.64889">
        <ele>284</ele>
        <time>2025-05-10T10:18:19.000Z</time>
      </trkpt>
      <trkpt lat="49.04539" lon="7.64881">
        <ele>284</ele>
        <time>2025-05-10T10:18:23.000Z</time>
      </trkpt>
      <trkpt lat="49.0454" lon="7.64873">
        <ele>284</ele>
        <time>2025-05-10T10:18:26.000Z</time>
      </trkpt>
      <trkpt lat="49.04537" lon="7.64867">
        <ele>284</ele>
        <time>2025-05-10T10:18:29.000Z</time>
      </trkpt>
      <trkpt lat="49.04538" lon="7.64854">
        <ele>283</ele>
        <time>2025-05-10T10:18:37.000Z</time>
      </trkpt>
      <trkpt lat="49.04537" lon="7.64848">
        <ele>283</ele>
        <time>2025-05-10T10:18:40.000Z</time>
      </trkpt>
      <trkpt lat="49.04539" lon="7.64839">
        <ele>283</ele>
        <time>2025-05-10T10:18:44.000Z</time>
      </trkpt>
      <trkpt lat="49.0454" lon="7.64831">
        <ele>283</ele>
        <time>2025-05-10T10:18:47.000Z</time>
      </trkpt>
      <trkpt lat="49.04537" lon="7.64825">
        <ele>282</ele>
        <time>2025-05-10T10:18:51.000Z</time>
      </trkpt>
      <trkpt lat="49.04535" lon="7.64818">
        <ele>282</ele>
        <time>2025-05-10T10:18:54.000Z</time>
      </trkpt>
      <trkpt lat="49.04534" lon="7.64805">
        <ele>282</ele>
        <time>2025-05-10T10:19:04.000Z</time>
      </trkpt>
      <trkpt lat="49.04536" lon="7.64798">
        <ele>282</ele>
        <time>2025-05-10T10:19:07.000Z</time>
      </trkpt>
      <trkpt lat="49.04535" lon="7.64787">
        <ele>282</ele>
        <time>2025-05-10T10:19:10.000Z</time>
      </trkpt>
      <trkpt lat="49.04535" lon="7.6478">
        <ele>282</ele>
        <time>2025-05-10T10:19:13.000Z</time>
      </trkpt>
      <trkpt lat="49.04535" lon="7.64773">
        <ele>282</ele>
        <time>2025-05-10T10:19:17.000Z</time>
      </trkpt>
      <trkpt lat="49.04537" lon="7.64765">
        <ele>281</ele>
        <time>2025-05-10T10:19:21.000Z</time>
      </trkpt>
      <trkpt lat="49.04538" lon="7.64758">
        <ele>281</ele>
        <time>2025-05-10T10:19:26.000Z</time>
      </trkpt>
      <trkpt lat="49.04537" lon="7.64749">
        <ele>281</ele>
        <time>2025-05-10T10:19:29.000Z</time>
      </trkpt>
      <trkpt lat="49.04533" lon="7.64745">
        <ele>280</ele>
        <time>2025-05-10T10:19:31.000Z</time>
      </trkpt>
      <trkpt lat="49.04532" lon="7.64731">
        <ele>280</ele>
        <time>2025-05-10T10:19:39.000Z</time>
      </trkpt>
      <trkpt lat="49.04534" lon="7.64724">
        <ele>279</ele>
        <time>2025-05-10T10:19:43.000Z</time>
      </trkpt>
      <trkpt lat="49.04533" lon="7.64717">
        <ele>279</ele>
        <time>2025-05-10T10:19:46.000Z</time>
      </trkpt>
      <trkpt lat="49.04536" lon="7.64708">
        <ele>278</ele>
        <time>2025-05-10T10:19:49.000Z</time>
      </trkpt>
      <trkpt lat="49.04537" lon="7.647">
        <ele>278</ele>
        <time>2025-05-10T10:19:53.000Z</time>
      </trkpt>
      <trkpt lat="49.04538" lon="7.64685">
        <ele>276</ele>
        <time>2025-05-10T10:20:01.000Z</time>
      </trkpt>
      <trkpt lat="49.04537" lon="7.64677">
        <ele>276</ele>
        <time>2025-05-10T10:20:05.000Z</time>
      </trkpt>
      <trkpt lat="49.04539" lon="7.64667">
        <ele>275</ele>
        <time>2025-05-10T10:20:11.000Z</time>
      </trkpt>
      <trkpt lat="49.04541" lon="7.64659">
        <ele>275</ele>
        <time>2025-05-10T10:20:14.000Z</time>
      </trkpt>
      <trkpt lat="49.04543" lon="7.64641">
        <ele>273</ele>
        <time>2025-05-10T10:20:28.000Z</time>
      </trkpt>
      <trkpt lat="49.04541" lon="7.64634">
        <ele>273</ele>
        <time>2025-05-10T10:20:31.000Z</time>
      </trkpt>
      <trkpt lat="49.04541" lon="7.64618">
        <ele>272</ele>
        <time>2025-05-10T10:20:39.000Z</time>
      </trkpt>
      <trkpt lat="49.04545" lon="7.64593">
        <ele>271</ele>
        <time>2025-05-10T10:20:51.000Z</time>
      </trkpt>
      <trkpt lat="49.04544" lon="7.64587">
        <ele>270</ele>
        <time>2025-05-10T10:20:55.000Z</time>
      </trkpt>
      <trkpt lat="49.04544" lon="7.64579">
        <ele>270</ele>
        <time>2025-05-10T10:20:59.000Z</time>
      </trkpt>
      <trkpt lat="49.04545" lon="7.64557">
        <ele>269</ele>
        <time>2025-05-10T10:21:11.000Z</time>
      </trkpt>
      <trkpt lat="49.04548" lon="7.64551">
        <ele>269</ele>
        <time>2025-05-10T10:21:15.000Z</time>
      </trkpt>
      <trkpt lat="49.0455" lon="7.64513">
        <ele>267</ele>
        <time>2025-05-10T10:21:35.000Z</time>
      </trkpt>
      <trkpt lat="49.04549" lon="7.64504">
        <ele>267</ele>
        <time>2025-05-10T10:21:38.000Z</time>
      </trkpt>
      <trkpt lat="49.04548" lon="7.64495">
        <ele>266</ele>
        <time>2025-05-10T10:21:43.000Z</time>
      </trkpt>
      <trkpt lat="49.04545" lon="7.64487">
        <ele>266</ele>
        <time>2025-05-10T10:21:46.000Z</time>
      </trkpt>
      <trkpt lat="49.04544" lon="7.6448">
        <ele>266</ele>
        <time>2025-05-10T10:21:49.000Z</time>
      </trkpt>
      <trkpt lat="49.04541" lon="7.64474">
        <ele>265</ele>
        <time>2025-05-10T10:21:52.000Z</time>
      </trkpt>
      <trkpt lat="49.0454" lon="7.64467">
        <ele>265</ele>
        <time>2025-05-10T10:21:56.000Z</time>
      </trkpt>
      <trkpt lat="49.04541" lon="7.6445">
        <ele>264</ele>
        <time>2025-05-10T10:22:04.000Z</time>
      </trkpt>
      <trkpt lat="49.04539" lon="7.64444">
        <ele>264</ele>
        <time>2025-05-10T10:22:08.000Z</time>
      </trkpt>
      <trkpt lat="49.0454" lon="7.6442">
        <ele>263</ele>
        <time>2025-05-10T10:22:18.000Z</time>
      </trkpt>
      <trkpt lat="49.04543" lon="7.64413">
        <ele>262</ele>
        <time>2025-05-10T10:22:22.000Z</time>
      </trkpt>
      <trkpt lat="49.04544" lon="7.64405">
        <ele>263</ele>
        <time>2025-05-10T10:22:25.000Z</time>
      </trkpt>
      <trkpt lat="49.04544" lon="7.64398">
        <ele>262</ele>
        <time>2025-05-10T10:22:29.000Z</time>
      </trkpt>
      <trkpt lat="49.04543" lon="7.6439">
        <ele>262</ele>
        <time>2025-05-10T10:22:35.000Z</time>
      </trkpt>
      <trkpt lat="49.04543" lon="7.64382">
        <ele>261</ele>
        <time>2025-05-10T10:22:38.000Z</time>
      </trkpt>
      <trkpt lat="49.04542" lon="7.64375">
        <ele>261</ele>
        <time>2025-05-10T10:22:41.000Z</time>
      </trkpt>
      <trkpt lat="49.04541" lon="7.64368">
        <ele>261</ele>
        <time>2025-05-10T10:22:44.000Z</time>
      </trkpt>
      <trkpt lat="49.04537" lon="7.64359">
        <ele>261</ele>
        <time>2025-05-10T10:22:47.000Z</time>
      </trkpt>
      <trkpt lat="49.04536" lon="7.64353">
        <ele>260</ele>
        <time>2025-05-10T10:22:51.000Z</time>
      </trkpt>
      <trkpt lat="49.04535" lon="7.64344">
        <ele>260</ele>
        <time>2025-05-10T10:22:55.000Z</time>
      </trkpt>
      <trkpt lat="49.04535" lon="7.64337">
        <ele>260</ele>
        <time>2025-05-10T10:22:58.000Z</time>
      </trkpt>
      <trkpt lat="49.04537" lon="7.64329">
        <ele>260</ele>
        <time>2025-05-10T10:23:03.000Z</time>
      </trkpt>
      <trkpt lat="49.04539" lon="7.64312">
        <ele>259</ele>
        <time>2025-05-10T10:23:10.000Z</time>
      </trkpt>
      <trkpt lat="49.04539" lon="7.64301">
        <ele>259</ele>
        <time>2025-05-10T10:23:16.000Z</time>
      </trkpt>
      <trkpt lat="49.04537" lon="7.64292">
        <ele>259</ele>
        <time>2025-05-10T10:23:21.000Z</time>
      </trkpt>
      <trkpt lat="49.04538" lon="7.64285">
        <ele>258</ele>
        <time>2025-05-10T10:23:25.000Z</time>
      </trkpt>
      <trkpt lat="49.04537" lon="7.64278">
        <ele>258</ele>
        <time>2025-05-10T10:23:28.000Z</time>
      </trkpt>
      <trkpt lat="49.0454" lon="7.64268">
        <ele>258</ele>
        <time>2025-05-10T10:23:31.000Z</time>
      </trkpt>
      <trkpt lat="49.0454" lon="7.64261">
        <ele>258</ele>
        <time>2025-05-10T10:23:34.000Z</time>
      </trkpt>
      <trkpt lat="49.04539" lon="7.64242">
        <ele>257</ele>
        <time>2025-05-10T10:23:43.000Z</time>
      </trkpt>
      <trkpt lat="49.04541" lon="7.64235">
        <ele>257</ele>
        <time>2025-05-10T10:23:48.000Z</time>
      </trkpt>
      <trkpt lat="49.04542" lon="7.64227">
        <ele>257</ele>
        <time>2025-05-10T10:23:51.000Z</time>
      </trkpt>
      <trkpt lat="49.04542" lon="7.64218">
        <ele>257</ele>
        <time>2025-05-10T10:23:56.000Z</time>
      </trkpt>
      <trkpt lat="49.04541" lon="7.6421">
        <ele>257</ele>
        <time>2025-05-10T10:24:02.000Z</time>
      </trkpt>
      <trkpt lat="49.04542" lon="7.64202">
        <ele>257</ele>
        <time>2025-05-10T10:24:05.000Z</time>
      </trkpt>
      <trkpt lat="49.04542" lon="7.64195">
        <ele>257</ele>
        <time>2025-05-10T10:24:08.000Z</time>
      </trkpt>
      <trkpt lat="49.04544" lon="7.64188">
        <ele>256</ele>
        <time>2025-05-10T10:24:11.000Z</time>
      </trkpt>
      <trkpt lat="49.04548" lon="7.64183">
        <ele>256</ele>
        <time>2025-05-10T10:24:14.000Z</time>
      </trkpt>
      <trkpt lat="49.04547" lon="7.64174">
        <ele>256</ele>
        <time>2025-05-10T10:24:18.000Z</time>
      </trkpt>
      <trkpt lat="49.04547" lon="7.64166">
        <ele>255</ele>
        <time>2025-05-10T10:24:22.000Z</time>
      </trkpt>
      <trkpt lat="49.04547" lon="7.64159">
        <ele>255</ele>
        <time>2025-05-10T10:24:25.000Z</time>
      </trkpt>
      <trkpt lat="49.04554" lon="7.64137">
        <ele>255</ele>
        <time>2025-05-10T10:24:37.000Z</time>
      </trkpt>
      <trkpt lat="49.04553" lon="7.64131">
        <ele>255</ele>
        <time>2025-05-10T10:24:42.000Z</time>
      </trkpt>
      <trkpt lat="49.04552" lon="7.64124">
        <ele>255</ele>
        <time>2025-05-10T10:24:45.000Z</time>
      </trkpt>
      <trkpt lat="49.04552" lon="7.64108">
        <ele>255</ele>
        <time>2025-05-10T10:24:54.000Z</time>
      </trkpt>
      <trkpt lat="49.04555" lon="7.64099">
        <ele>255</ele>
        <time>2025-05-10T10:24:59.000Z</time>
      </trkpt>
      <trkpt lat="49.04556" lon="7.64091">
        <ele>255</ele>
        <time>2025-05-10T10:25:02.000Z</time>
      </trkpt>
      <trkpt lat="49.0456" lon="7.64077">
        <ele>254</ele>
        <time>2025-05-10T10:25:08.000Z</time>
      </trkpt>
      <trkpt lat="49.04561" lon="7.6407">
        <ele>254</ele>
        <time>2025-05-10T10:25:12.000Z</time>
      </trkpt>
      <trkpt lat="49.04564" lon="7.64065">
        <ele>254</ele>
        <time>2025-05-10T10:25:16.000Z</time>
      </trkpt>
      <trkpt lat="49.04567" lon="7.64059">
        <ele>253</ele>
        <time>2025-05-10T10:25:20.000Z</time>
      </trkpt>
      <trkpt lat="49.04568" lon="7.64051">
        <ele>253</ele>
        <time>2025-05-10T10:25:22.000Z</time>
      </trkpt>
      <trkpt lat="49.0457" lon="7.64041">
        <ele>253</ele>
        <time>2025-05-10T10:25:26.000Z</time>
      </trkpt>
      <trkpt lat="49.0457" lon="7.64034">
        <ele>254</ele>
        <time>2025-05-10T10:25:29.000Z</time>
      </trkpt>
      <trkpt lat="49.04575" lon="7.64014">
        <ele>254</ele>
        <time>2025-05-10T10:25:40.000Z</time>
      </trkpt>
      <trkpt lat="49.04578" lon="7.63978">
        <ele>253</ele>
        <time>2025-05-10T10:26:01.000Z</time>
      </trkpt>
      <trkpt lat="49.0458" lon="7.63972">
        <ele>253</ele>
        <time>2025-05-10T10:26:05.000Z</time>
      </trkpt>
      <trkpt lat="49.04582" lon="7.63965">
        <ele>254</ele>
        <time>2025-05-10T10:26:08.000Z</time>
      </trkpt>
      <trkpt lat="49.04583" lon="7.63959">
        <ele>254</ele>
        <time>2025-05-10T10:26:11.000Z</time>
      </trkpt>
      <trkpt lat="49.04581" lon="7.63951">
        <ele>254</ele>
        <time>2025-05-10T10:26:15.000Z</time>
      </trkpt>
      <trkpt lat="49.04581" lon="7.63943">
        <ele>254</ele>
        <time>2025-05-10T10:26:18.000Z</time>
      </trkpt>
      <trkpt lat="49.04581" lon="7.63937">
        <ele>254</ele>
        <time>2025-05-10T10:26:21.000Z</time>
      </trkpt>
      <trkpt lat="49.04581" lon="7.63928">
        <ele>254</ele>
        <time>2025-05-10T10:26:23.000Z</time>
      </trkpt>
      <trkpt lat="49.04581" lon="7.63914">
        <ele>254</ele>
        <time>2025-05-10T10:26:29.000Z</time>
      </trkpt>
      <trkpt lat="49.04582" lon="7.63891">
        <ele>254</ele>
        <time>2025-05-10T10:26:42.000Z</time>
      </trkpt>
      <trkpt lat="49.04585" lon="7.63887">
        <ele>254</ele>
        <time>2025-05-10T10:26:45.000Z</time>
      </trkpt>
      <trkpt lat="49.04586" lon="7.6388">
        <ele>254</ele>
        <time>2025-05-10T10:26:50.000Z</time>
      </trkpt>
      <trkpt lat="49.04588" lon="7.63873">
        <ele>254</ele>
        <time>2025-05-10T10:26:52.000Z</time>
      </trkpt>
      <trkpt lat="49.0459" lon="7.63857">
        <ele>254</ele>
        <time>2025-05-10T10:26:59.000Z</time>
      </trkpt>
      <trkpt lat="49.04593" lon="7.63851">
        <ele>254</ele>
        <time>2025-05-10T10:27:02.000Z</time>
      </trkpt>
      <trkpt lat="49.04597" lon="7.63833">
        <ele>254</ele>
        <time>2025-05-10T10:27:12.000Z</time>
      </trkpt>
      <trkpt lat="49.04602" lon="7.63827">
        <ele>254</ele>
        <time>2025-05-10T10:27:17.000Z</time>
      </trkpt>
      <trkpt lat="49.04604" lon="7.6382">
        <ele>254</ele>
        <time>2025-05-10T10:27:19.000Z</time>
      </trkpt>
      <trkpt lat="49.04604" lon="7.63809">
        <ele>255</ele>
        <time>2025-05-10T10:27:25.000Z</time>
      </trkpt>
      <trkpt lat="49.04604" lon="7.63801">
        <ele>254</ele>
        <time>2025-05-10T10:27:28.000Z</time>
      </trkpt>
      <trkpt lat="49.04605" lon="7.63791">
        <ele>255</ele>
        <time>2025-05-10T10:27:33.000Z</time>
      </trkpt>
      <trkpt lat="49.04607" lon="7.63782">
        <ele>254</ele>
        <time>2025-05-10T10:27:36.000Z</time>
      </trkpt>
      <trkpt lat="49.04608" lon="7.63774">
        <ele>255</ele>
        <time>2025-05-10T10:27:39.000Z</time>
      </trkpt>
      <trkpt lat="49.0461" lon="7.63767">
        <ele>254</ele>
        <time>2025-05-10T10:27:43.000Z</time>
      </trkpt>
      <trkpt lat="49.0461" lon="7.6376">
        <ele>254</ele>
        <time>2025-05-10T10:27:48.000Z</time>
      </trkpt>
      <trkpt lat="49.04608" lon="7.63747">
        <ele>254</ele>
        <time>2025-05-10T10:27:54.000Z</time>
      </trkpt>
      <trkpt lat="49.0461" lon="7.63741">
        <ele>254</ele>
        <time>2025-05-10T10:27:58.000Z</time>
      </trkpt>
      <trkpt lat="49.04609" lon="7.63734">
        <ele>254</ele>
        <time>2025-05-10T10:28:02.000Z</time>
      </trkpt>
      <trkpt lat="49.04606" lon="7.63728">
        <ele>254</ele>
        <time>2025-05-10T10:28:05.000Z</time>
      </trkpt>
      <trkpt lat="49.04603" lon="7.63705">
        <ele>254</ele>
        <time>2025-05-10T10:28:15.000Z</time>
      </trkpt>
      <trkpt lat="49.04604" lon="7.63691">
        <ele>254</ele>
        <time>2025-05-10T10:28:23.000Z</time>
      </trkpt>
      <trkpt lat="49.04598" lon="7.63671">
        <ele>254</ele>
        <time>2025-05-10T10:28:36.000Z</time>
      </trkpt>
      <trkpt lat="49.04597" lon="7.63652">
        <ele>254</ele>
        <time>2025-05-10T10:28:46.000Z</time>
      </trkpt>
      <trkpt lat="49.04588" lon="7.63622">
        <ele>254</ele>
        <time>2025-05-10T10:29:01.000Z</time>
      </trkpt>
      <trkpt lat="49.04587" lon="7.6361">
        <ele>254</ele>
        <time>2025-05-10T10:29:09.000Z</time>
      </trkpt>
      <trkpt lat="49.04585" lon="7.63602">
        <ele>254</ele>
        <time>2025-05-10T10:29:13.000Z</time>
      </trkpt>
      <trkpt lat="49.04586" lon="7.63582">
        <ele>254</ele>
        <time>2025-05-10T10:29:23.000Z</time>
      </trkpt>
      <trkpt lat="49.04584" lon="7.63568">
        <ele>254</ele>
        <time>2025-05-10T10:29:31.000Z</time>
      </trkpt>
      <trkpt lat="49.04584" lon="7.63551">
        <ele>254</ele>
        <time>2025-05-10T10:29:40.000Z</time>
      </trkpt>
      <trkpt lat="49.04584" lon="7.63543">
        <ele>254</ele>
        <time>2025-05-10T10:29:44.000Z</time>
      </trkpt>
      <trkpt lat="49.04583" lon="7.63535">
        <ele>254</ele>
        <time>2025-05-10T10:29:48.000Z</time>
      </trkpt>
      <trkpt lat="49.04584" lon="7.63529">
        <ele>254</ele>
        <time>2025-05-10T10:29:52.000Z</time>
      </trkpt>
      <trkpt lat="49.04584" lon="7.63522">
        <ele>255</ele>
        <time>2025-05-10T10:29:56.000Z</time>
      </trkpt>
      <trkpt lat="49.04584" lon="7.63503">
        <ele>255</ele>
        <time>2025-05-10T10:30:06.000Z</time>
      </trkpt>
      <trkpt lat="49.04585" lon="7.63491">
        <ele>255</ele>
        <time>2025-05-10T10:30:12.000Z</time>
      </trkpt>
      <trkpt lat="49.04588" lon="7.63481">
        <ele>255</ele>
        <time>2025-05-10T10:30:14.000Z</time>
      </trkpt>
      <trkpt lat="49.04587" lon="7.63474">
        <ele>255</ele>
        <time>2025-05-10T10:30:18.000Z</time>
      </trkpt>
      <trkpt lat="49.04588" lon="7.63467">
        <ele>255</ele>
        <time>2025-05-10T10:30:22.000Z</time>
      </trkpt>
      <trkpt lat="49.0459" lon="7.63459">
        <ele>255</ele>
        <time>2025-05-10T10:30:25.000Z</time>
      </trkpt>
      <trkpt lat="49.04595" lon="7.63449">
        <ele>256</ele>
        <time>2025-05-10T10:30:32.000Z</time>
      </trkpt>
      <trkpt lat="49.04596" lon="7.63443">
        <ele>256</ele>
        <time>2025-05-10T10:30:37.000Z</time>
      </trkpt>
      <trkpt lat="49.04596" lon="7.63434">
        <ele>256</ele>
        <time>2025-05-10T10:30:39.000Z</time>
      </trkpt>
      <trkpt lat="49.04599" lon="7.63424">
        <ele>256</ele>
        <time>2025-05-10T10:30:46.000Z</time>
      </trkpt>
      <trkpt lat="49.04597" lon="7.63419">
        <ele>256</ele>
        <time>2025-05-10T10:30:48.000Z</time>
      </trkpt>
      <trkpt lat="49.046" lon="7.63412">
        <ele>257</ele>
        <time>2025-05-10T10:30:52.000Z</time>
      </trkpt>
      <trkpt lat="49.046" lon="7.63399">
        <ele>257</ele>
        <time>2025-05-10T10:31:00.000Z</time>
      </trkpt>
      <trkpt lat="49.04605" lon="7.63378">
        <ele>257</ele>
        <time>2025-05-10T10:31:09.000Z</time>
      </trkpt>
      <trkpt lat="49.04606" lon="7.63372">
        <ele>257</ele>
        <time>2025-05-10T10:31:12.000Z</time>
      </trkpt>
      <trkpt lat="49.04609" lon="7.63367">
        <ele>257</ele>
        <time>2025-05-10T10:31:16.000Z</time>
      </trkpt>
      <trkpt lat="49.04612" lon="7.63359">
        <ele>258</ele>
        <time>2025-05-10T10:31:22.000Z</time>
      </trkpt>
      <trkpt lat="49.04614" lon="7.63352">
        <ele>258</ele>
        <time>2025-05-10T10:31:25.000Z</time>
      </trkpt>
      <trkpt lat="49.04615" lon="7.63336">
        <ele>258</ele>
        <time>2025-05-10T10:31:31.000Z</time>
      </trkpt>
      <trkpt lat="49.04619" lon="7.63326">
        <ele>259</ele>
        <time>2025-05-10T10:31:39.000Z</time>
      </trkpt>
      <trkpt lat="49.0462" lon="7.63319">
        <ele>259</ele>
        <time>2025-05-10T10:31:42.000Z</time>
      </trkpt>
      <trkpt lat="49.0462" lon="7.63302">
        <ele>259</ele>
        <time>2025-05-10T10:31:48.000Z</time>
      </trkpt>
      <trkpt lat="49.04623" lon="7.63295">
        <ele>259</ele>
        <time>2025-05-10T10:31:51.000Z</time>
      </trkpt>
      <trkpt lat="49.04625" lon="7.63267">
        <ele>259</ele>
        <time>2025-05-10T10:32:05.000Z</time>
      </trkpt>
      <trkpt lat="49.04624" lon="7.63261">
        <ele>259</ele>
        <time>2025-05-10T10:32:08.000Z</time>
      </trkpt>
      <trkpt lat="49.04622" lon="7.63251">
        <ele>260</ele>
        <time>2025-05-10T10:32:18.000Z</time>
      </trkpt>
      <trkpt lat="49.04621" lon="7.63242">
        <ele>260</ele>
        <time>2025-05-10T10:32:20.000Z</time>
      </trkpt>
      <trkpt lat="49.04623" lon="7.63236">
        <ele>260</ele>
        <time>2025-05-10T10:32:24.000Z</time>
      </trkpt>
      <trkpt lat="49.04622" lon="7.63228">
        <ele>260</ele>
        <time>2025-05-10T10:32:29.000Z</time>
      </trkpt>
      <trkpt lat="49.04621" lon="7.6322">
        <ele>260</ele>
        <time>2025-05-10T10:32:32.000Z</time>
      </trkpt>
      <trkpt lat="49.04623" lon="7.63213">
        <ele>260</ele>
        <time>2025-05-10T10:32:36.000Z</time>
      </trkpt>
      <trkpt lat="49.04624" lon="7.63206">
        <ele>260</ele>
        <time>2025-05-10T10:32:42.000Z</time>
      </trkpt>
      <trkpt lat="49.04624" lon="7.63199">
        <ele>260</ele>
        <time>2025-05-10T10:32:45.000Z</time>
      </trkpt>
      <trkpt lat="49.04623" lon="7.63192">
        <ele>261</ele>
        <time>2025-05-10T10:32:49.000Z</time>
      </trkpt>
      <trkpt lat="49.04622" lon="7.63181">
        <ele>261</ele>
        <time>2025-05-10T10:32:52.000Z</time>
      </trkpt>
      <trkpt lat="49.04624" lon="7.63173">
        <ele>261</ele>
        <time>2025-05-10T10:32:55.000Z</time>
      </trkpt>
      <trkpt lat="49.04627" lon="7.63168">
        <ele>261</ele>
        <time>2025-05-10T10:32:59.000Z</time>
      </trkpt>
      <trkpt lat="49.0463" lon="7.63162">
        <ele>261</ele>
        <time>2025-05-10T10:33:03.000Z</time>
      </trkpt>
      <trkpt lat="49.0463" lon="7.63142">
        <ele>261</ele>
        <time>2025-05-10T10:33:12.000Z</time>
      </trkpt>
      <trkpt lat="49.04627" lon="7.6313">
        <ele>261</ele>
        <time>2025-05-10T10:33:17.000Z</time>
      </trkpt>
      <trkpt lat="49.04626" lon="7.63118">
        <ele>262</ele>
        <time>2025-05-10T10:33:24.000Z</time>
      </trkpt>
      <trkpt lat="49.04628" lon="7.63101">
        <ele>263</ele>
        <time>2025-05-10T10:33:32.000Z</time>
      </trkpt>
      <trkpt lat="49.04629" lon="7.63095">
        <ele>263</ele>
        <time>2025-05-10T10:33:36.000Z</time>
      </trkpt>
      <trkpt lat="49.04627" lon="7.63088">
        <ele>263</ele>
        <time>2025-05-10T10:33:38.000Z</time>
      </trkpt>
      <trkpt lat="49.04626" lon="7.63078">
        <ele>264</ele>
        <time>2025-05-10T10:33:43.000Z</time>
      </trkpt>
      <trkpt lat="49.04628" lon="7.63074">
        <ele>265</ele>
        <time>2025-05-10T10:33:48.000Z</time>
      </trkpt>
      <trkpt lat="49.04629" lon="7.63066">
        <ele>265</ele>
        <time>2025-05-10T10:33:52.000Z</time>
      </trkpt>
      <trkpt lat="49.04627" lon="7.6306">
        <ele>265</ele>
        <time>2025-05-10T10:33:55.000Z</time>
      </trkpt>
      <trkpt lat="49.04622" lon="7.63057">
        <ele>265</ele>
        <time>2025-05-10T10:33:58.000Z</time>
      </trkpt>
      <trkpt lat="49.04619" lon="7.6305">
        <ele>266</ele>
        <time>2025-05-10T10:34:04.000Z</time>
      </trkpt>
      <trkpt lat="49.04618" lon="7.63041">
        <ele>267</ele>
        <time>2025-05-10T10:34:09.000Z</time>
      </trkpt>
      <trkpt lat="49.04618" lon="7.63028">
        <ele>267</ele>
        <time>2025-05-10T10:34:16.000Z</time>
      </trkpt>
      <trkpt lat="49.04616" lon="7.63023">
        <ele>268</ele>
        <time>2025-05-10T10:34:20.000Z</time>
      </trkpt>
      <trkpt lat="49.04616" lon="7.63015">
        <ele>268</ele>
        <time>2025-05-10T10:34:26.000Z</time>
      </trkpt>
      <trkpt lat="49.04619" lon="7.63007">
        <ele>269</ele>
        <time>2025-05-10T10:34:29.000Z</time>
      </trkpt>
      <trkpt lat="49.04616" lon="7.62993">
        <ele>269</ele>
        <time>2025-05-10T10:34:34.000Z</time>
      </trkpt>
      <trkpt lat="49.04618" lon="7.62978">
        <ele>269</ele>
        <time>2025-05-10T10:34:41.000Z</time>
      </trkpt>
      <trkpt lat="49.04618" lon="7.62956">
        <ele>268</ele>
        <time>2025-05-10T10:34:53.000Z</time>
      </trkpt>
      <trkpt lat="49.04614" lon="7.62939">
        <ele>268</ele>
        <time>2025-05-10T10:35:03.000Z</time>
      </trkpt>
      <trkpt lat="49.04614" lon="7.62932">
        <ele>268</ele>
        <time>2025-05-10T10:35:07.000Z</time>
      </trkpt>
      <trkpt lat="49.04608" lon="7.6291">
        <ele>267</ele>
        <time>2025-05-10T10:35:18.000Z</time>
      </trkpt>
      <trkpt lat="49.04608" lon="7.62904">
        <ele>267</ele>
        <time>2025-05-10T10:35:20.000Z</time>
      </trkpt>
      <trkpt lat="49.04604" lon="7.62879">
        <ele>264</ele>
        <time>2025-05-10T10:35:35.000Z</time>
      </trkpt>
      <trkpt lat="49.04602" lon="7.62874">
        <ele>265</ele>
        <time>2025-05-10T10:35:39.000Z</time>
      </trkpt>
      <trkpt lat="49.04599" lon="7.62853">
        <ele>264</ele>
        <time>2025-05-10T10:35:49.000Z</time>
      </trkpt>
      <trkpt lat="49.04598" lon="7.62846">
        <ele>264</ele>
        <time>2025-05-10T10:35:53.000Z</time>
      </trkpt>
      <trkpt lat="49.04587" lon="7.62782">
        <ele>262</ele>
        <time>2025-05-10T10:36:25.000Z</time>
      </trkpt>
      <trkpt lat="49.04586" lon="7.62773">
        <ele>262</ele>
        <time>2025-05-10T10:36:30.000Z</time>
      </trkpt>
      <trkpt lat="49.04584" lon="7.62767">
        <ele>262</ele>
        <time>2025-05-10T10:36:34.000Z</time>
      </trkpt>
      <trkpt lat="49.04584" lon="7.62757">
        <ele>262</ele>
        <time>2025-05-10T10:36:38.000Z</time>
      </trkpt>
      <trkpt lat="49.04582" lon="7.6275">
        <ele>261</ele>
        <time>2025-05-10T10:36:42.000Z</time>
      </trkpt>
      <trkpt lat="49.04581" lon="7.62743">
        <ele>261</ele>
        <time>2025-05-10T10:36:46.000Z</time>
      </trkpt>
      <trkpt lat="49.04582" lon="7.62733">
        <ele>261</ele>
        <time>2025-05-10T10:36:50.000Z</time>
      </trkpt>
      <trkpt lat="49.04582" lon="7.62726">
        <ele>261</ele>
        <time>2025-05-10T10:36:53.000Z</time>
      </trkpt>
      <trkpt lat="49.04582" lon="7.62718">
        <ele>261</ele>
        <time>2025-05-10T10:36:57.000Z</time>
      </trkpt>
      <trkpt lat="49.04581" lon="7.6271">
        <ele>261</ele>
        <time>2025-05-10T10:37:01.000Z</time>
      </trkpt>
      <trkpt lat="49.04579" lon="7.627">
        <ele>261</ele>
        <time>2025-05-10T10:37:06.000Z</time>
      </trkpt>
      <trkpt lat="49.04578" lon="7.62693">
        <ele>260</ele>
        <time>2025-05-10T10:37:09.000Z</time>
      </trkpt>
      <trkpt lat="49.04579" lon="7.62685">
        <ele>260</ele>
        <time>2025-05-10T10:37:12.000Z</time>
      </trkpt>
      <trkpt lat="49.04576" lon="7.62675">
        <ele>260</ele>
        <time>2025-05-10T10:37:18.000Z</time>
      </trkpt>
      <trkpt lat="49.04573" lon="7.62662">
        <ele>260</ele>
        <time>2025-05-10T10:37:26.000Z</time>
      </trkpt>
      <trkpt lat="49.04576" lon="7.62655">
        <ele>260</ele>
        <time>2025-05-10T10:37:30.000Z</time>
      </trkpt>
      <trkpt lat="49.04577" lon="7.62647">
        <ele>260</ele>
        <time>2025-05-10T10:37:34.000Z</time>
      </trkpt>
      <trkpt lat="49.04575" lon="7.62641">
        <ele>259</ele>
        <time>2025-05-10T10:37:37.000Z</time>
      </trkpt>
      <trkpt lat="49.04573" lon="7.62632">
        <ele>259</ele>
        <time>2025-05-10T10:37:40.000Z</time>
      </trkpt>
      <trkpt lat="49.04572" lon="7.62624">
        <ele>259</ele>
        <time>2025-05-10T10:37:44.000Z</time>
      </trkpt>
      <trkpt lat="49.04575" lon="7.62616">
        <ele>259</ele>
        <time>2025-05-10T10:37:48.000Z</time>
      </trkpt>
      <trkpt lat="49.04574" lon="7.62609">
        <ele>259</ele>
        <time>2025-05-10T10:37:51.000Z</time>
      </trkpt>
      <trkpt lat="49.04572" lon="7.62602">
        <ele>259</ele>
        <time>2025-05-10T10:37:54.000Z</time>
      </trkpt>
      <trkpt lat="49.04571" lon="7.62593">
        <ele>259</ele>
        <time>2025-05-10T10:37:58.000Z</time>
      </trkpt>
      <trkpt lat="49.0457" lon="7.62586">
        <ele>259</ele>
        <time>2025-05-10T10:38:01.000Z</time>
      </trkpt>
      <trkpt lat="49.04568" lon="7.62578">
        <ele>259</ele>
        <time>2025-05-10T10:38:04.000Z</time>
      </trkpt>
      <trkpt lat="49.04565" lon="7.62536">
        <ele>258</ele>
        <time>2025-05-10T10:38:25.000Z</time>
      </trkpt>
      <trkpt lat="49.04564" lon="7.6253">
        <ele>258</ele>
        <time>2025-05-10T10:38:30.000Z</time>
      </trkpt>
      <trkpt lat="49.04563" lon="7.6252">
        <ele>257</ele>
        <time>2025-05-10T10:38:37.000Z</time>
      </trkpt>
      <trkpt lat="49.0456" lon="7.62513">
        <ele>257</ele>
        <time>2025-05-10T10:38:41.000Z</time>
      </trkpt>
      <trkpt lat="49.0456" lon="7.62505">
        <ele>257</ele>
        <time>2025-05-10T10:38:46.000Z</time>
      </trkpt>
      <trkpt lat="49.04559" lon="7.62497">
        <ele>257</ele>
        <time>2025-05-10T10:38:50.000Z</time>
      </trkpt>
      <trkpt lat="49.04559" lon="7.6249">
        <ele>257</ele>
        <time>2025-05-10T10:38:54.000Z</time>
      </trkpt>
      <trkpt lat="49.04557" lon="7.62483">
        <ele>257</ele>
        <time>2025-05-10T10:38:57.000Z</time>
      </trkpt>
      <trkpt lat="49.04555" lon="7.62477">
        <ele>257</ele>
        <time>2025-05-10T10:39:01.000Z</time>
      </trkpt>
      <trkpt lat="49.04551" lon="7.6247">
        <ele>257</ele>
        <time>2025-05-10T10:39:04.000Z</time>
      </trkpt>
      <trkpt lat="49.04548" lon="7.62463">
        <ele>257</ele>
        <time>2025-05-10T10:39:07.000Z</time>
      </trkpt>
      <trkpt lat="49.04548" lon="7.62456">
        <ele>257</ele>
        <time>2025-05-10T10:39:09.000Z</time>
      </trkpt>
      <trkpt lat="49.04548" lon="7.62447">
        <ele>257</ele>
        <time>2025-05-10T10:39:11.000Z</time>
      </trkpt>
      <trkpt lat="49.04539" lon="7.62403">
        <ele>257</ele>
        <time>2025-05-10T10:39:37.000Z</time>
      </trkpt>
      <trkpt lat="49.04536" lon="7.62395">
        <ele>257</ele>
        <time>2025-05-10T10:39:40.000Z</time>
      </trkpt>
      <trkpt lat="49.04538" lon="7.62387">
        <ele>257</ele>
        <time>2025-05-10T10:39:43.000Z</time>
      </trkpt>
      <trkpt lat="49.04538" lon="7.62378">
        <ele>257</ele>
        <time>2025-05-10T10:39:48.000Z</time>
      </trkpt>
      <trkpt lat="49.0454" lon="7.62372">
        <ele>257</ele>
        <time>2025-05-10T10:39:52.000Z</time>
      </trkpt>
      <trkpt lat="49.0454" lon="7.62363">
        <ele>257</ele>
        <time>2025-05-10T10:39:55.000Z</time>
      </trkpt>
      <trkpt lat="49.04537" lon="7.62357">
        <ele>256</ele>
        <time>2025-05-10T10:39:58.000Z</time>
      </trkpt>
      <trkpt lat="49.04538" lon="7.6235">
        <ele>257</ele>
        <time>2025-05-10T10:40:01.000Z</time>
      </trkpt>
      <trkpt lat="49.04537" lon="7.62343">
        <ele>256</ele>
        <time>2025-05-10T10:40:05.000Z</time>
      </trkpt>
      <trkpt lat="49.04534" lon="7.62337">
        <ele>257</ele>
        <time>2025-05-10T10:40:09.000Z</time>
      </trkpt>
      <trkpt lat="49.04536" lon="7.62331">
        <ele>256</ele>
        <time>2025-05-10T10:40:13.000Z</time>
      </trkpt>
      <trkpt lat="49.04533" lon="7.62321">
        <ele>256</ele>
        <time>2025-05-10T10:40:18.000Z</time>
      </trkpt>
      <trkpt lat="49.04532" lon="7.62313">
        <ele>256</ele>
        <time>2025-05-10T10:40:21.000Z</time>
      </trkpt>
      <trkpt lat="49.04523" lon="7.62291">
        <ele>256</ele>
        <time>2025-05-10T10:40:31.000Z</time>
      </trkpt>
      <trkpt lat="49.04523" lon="7.62284">
        <ele>256</ele>
        <time>2025-05-10T10:40:36.000Z</time>
      </trkpt>
      <trkpt lat="49.04526" lon="7.62277">
        <ele>256</ele>
        <time>2025-05-10T10:40:41.000Z</time>
      </trkpt>
      <trkpt lat="49.04526" lon="7.6227">
        <ele>256</ele>
        <time>2025-05-10T10:40:46.000Z</time>
      </trkpt>
      <trkpt lat="49.04525" lon="7.6226">
        <ele>256</ele>
        <time>2025-05-10T10:40:51.000Z</time>
      </trkpt>
      <trkpt lat="49.04521" lon="7.62254">
        <ele>256</ele>
        <time>2025-05-10T10:40:55.000Z</time>
      </trkpt>
      <trkpt lat="49.04523" lon="7.62245">
        <ele>256</ele>
        <time>2025-05-10T10:40:58.000Z</time>
      </trkpt>
      <trkpt lat="49.04523" lon="7.62237">
        <ele>255</ele>
        <time>2025-05-10T10:41:03.000Z</time>
      </trkpt>
      <trkpt lat="49.04526" lon="7.6223">
        <ele>257</ele>
        <time>2025-05-10T10:41:07.000Z</time>
      </trkpt>
      <trkpt lat="49.04525" lon="7.62223">
        <ele>257</ele>
        <time>2025-05-10T10:41:09.000Z</time>
      </trkpt>
      <trkpt lat="49.04522" lon="7.62217">
        <ele>256</ele>
        <time>2025-05-10T10:41:12.000Z</time>
      </trkpt>
      <trkpt lat="49.04521" lon="7.62211">
        <ele>256</ele>
        <time>2025-05-10T10:41:15.000Z</time>
      </trkpt>
      <trkpt lat="49.0452" lon="7.62203">
        <ele>256</ele>
        <time>2025-05-10T10:41:19.000Z</time>
      </trkpt>
      <trkpt lat="49.04518" lon="7.62196">
        <ele>256</ele>
        <time>2025-05-10T10:41:23.000Z</time>
      </trkpt>
      <trkpt lat="49.04519" lon="7.62176">
        <ele>256</ele>
        <time>2025-05-10T10:41:36.000Z</time>
      </trkpt>
      <trkpt lat="49.04523" lon="7.6217">
        <ele>255</ele>
        <time>2025-05-10T10:41:40.000Z</time>
      </trkpt>
      <trkpt lat="49.04525" lon="7.62164">
        <ele>255</ele>
        <time>2025-05-10T10:41:44.000Z</time>
      </trkpt>
      <trkpt lat="49.04526" lon="7.62155">
        <ele>255</ele>
        <time>2025-05-10T10:41:48.000Z</time>
      </trkpt>
      <trkpt lat="49.04528" lon="7.62147">
        <ele>256</ele>
        <time>2025-05-10T10:41:52.000Z</time>
      </trkpt>
      <trkpt lat="49.04533" lon="7.62134">
        <ele>256</ele>
        <time>2025-05-10T10:41:59.000Z</time>
      </trkpt>
      <trkpt lat="49.04538" lon="7.62129">
        <ele>256</ele>
        <time>2025-05-10T10:42:03.000Z</time>
      </trkpt>
      <trkpt lat="49.04552" lon="7.62121">
        <ele>256</ele>
        <time>2025-05-10T10:42:15.000Z</time>
      </trkpt>
      <trkpt lat="49.04557" lon="7.62117">
        <ele>256</ele>
        <time>2025-05-10T10:42:18.000Z</time>
      </trkpt>
      <trkpt lat="49.04553" lon="7.62112">
        <ele>256</ele>
        <time>2025-05-10T10:42:24.000Z</time>
      </trkpt>
      <trkpt lat="49.0455" lon="7.62105">
        <ele>253</ele>
        <time>2025-05-10T10:42:50.000Z</time>
      </trkpt>
      <trkpt lat="49.04577" lon="7.6208">
        <ele>255</ele>
        <time>2025-05-10T10:44:11.000Z</time>
      </trkpt>
      <trkpt lat="49.04582" lon="7.62067">
        <ele>255</ele>
        <time>2025-05-10T10:44:18.000Z</time>
      </trkpt>
      <trkpt lat="49.04584" lon="7.62061">
        <ele>255</ele>
        <time>2025-05-10T10:44:22.000Z</time>
      </trkpt>
      <trkpt lat="49.04587" lon="7.62045">
        <ele>254</ele>
        <time>2025-05-10T10:44:30.000Z</time>
      </trkpt>
      <trkpt lat="49.0459" lon="7.62031">
        <ele>254</ele>
        <time>2025-05-10T10:44:37.000Z</time>
      </trkpt>
      <trkpt lat="49.04595" lon="7.6202">
        <ele>253</ele>
        <time>2025-05-10T10:44:45.000Z</time>
      </trkpt>
      <trkpt lat="49.04602" lon="7.62004">
        <ele>254</ele>
        <time>2025-05-10T10:44:56.000Z</time>
      </trkpt>
      <trkpt lat="49.04606" lon="7.6199">
        <ele>254</ele>
        <time>2025-05-10T10:45:03.000Z</time>
      </trkpt>
      <trkpt lat="49.04613" lon="7.61982">
        <ele>254</ele>
        <time>2025-05-10T10:45:10.000Z</time>
      </trkpt>
      <trkpt lat="49.04616" lon="7.61975">
        <ele>254</ele>
        <time>2025-05-10T10:45:13.000Z</time>
      </trkpt>
      <trkpt lat="49.04622" lon="7.61965">
        <ele>254</ele>
        <time>2025-05-10T10:45:20.000Z</time>
      </trkpt>
      <trkpt lat="49.04624" lon="7.61959">
        <ele>253</ele>
        <time>2025-05-10T10:45:23.000Z</time>
      </trkpt>
      <trkpt lat="49.04629" lon="7.61944">
        <ele>254</ele>
        <time>2025-05-10T10:45:29.000Z</time>
      </trkpt>
      <trkpt lat="49.04631" lon="7.61938">
        <ele>253</ele>
        <time>2025-05-10T10:45:32.000Z</time>
      </trkpt>
      <trkpt lat="49.04635" lon="7.61933">
        <ele>253</ele>
        <time>2025-05-10T10:45:38.000Z</time>
      </trkpt>
      <trkpt lat="49.04639" lon="7.61916">
        <ele>253</ele>
        <time>2025-05-10T10:45:45.000Z</time>
      </trkpt>
      <trkpt lat="49.0464" lon="7.61909">
        <ele>254</ele>
        <time>2025-05-10T10:45:49.000Z</time>
      </trkpt>
      <trkpt lat="49.04643" lon="7.61894">
        <ele>254</ele>
        <time>2025-05-10T10:45:56.000Z</time>
      </trkpt>
      <trkpt lat="49.04648" lon="7.61882">
        <ele>254</ele>
        <time>2025-05-10T10:46:04.000Z</time>
      </trkpt>
      <trkpt lat="49.04649" lon="7.61875">
        <ele>254</ele>
        <time>2025-05-10T10:46:07.000Z</time>
      </trkpt>
      <trkpt lat="49.04652" lon="7.6186">
        <ele>254</ele>
        <time>2025-05-10T10:46:15.000Z</time>
      </trkpt>
      <trkpt lat="49.04653" lon="7.61851">
        <ele>254</ele>
        <time>2025-05-10T10:46:20.000Z</time>
      </trkpt>
      <trkpt lat="49.04662" lon="7.61821">
        <ele>255</ele>
        <time>2025-05-10T10:46:36.000Z</time>
      </trkpt>
      <trkpt lat="49.04669" lon="7.61808">
        <ele>255</ele>
        <time>2025-05-10T10:46:45.000Z</time>
      </trkpt>
      <trkpt lat="49.04669" lon="7.61802">
        <ele>255</ele>
        <time>2025-05-10T10:46:48.000Z</time>
      </trkpt>
      <trkpt lat="49.04671" lon="7.61796">
        <ele>255</ele>
        <time>2025-05-10T10:46:51.000Z</time>
      </trkpt>
      <trkpt lat="49.04674" lon="7.6179">
        <ele>255</ele>
        <time>2025-05-10T10:46:56.000Z</time>
      </trkpt>
      <trkpt lat="49.04677" lon="7.61784">
        <ele>255</ele>
        <time>2025-05-10T10:46:59.000Z</time>
      </trkpt>
      <trkpt lat="49.04679" lon="7.61778">
        <ele>255</ele>
        <time>2025-05-10T10:47:03.000Z</time>
      </trkpt>
      <trkpt lat="49.04681" lon="7.61772">
        <ele>254</ele>
        <time>2025-05-10T10:47:07.000Z</time>
      </trkpt>
      <trkpt lat="49.04684" lon="7.61765">
        <ele>255</ele>
        <time>2025-05-10T10:47:11.000Z</time>
      </trkpt>
      <trkpt lat="49.04687" lon="7.61751">
        <ele>255</ele>
        <time>2025-05-10T10:47:17.000Z</time>
      </trkpt>
      <trkpt lat="49.04709" lon="7.61718">
        <ele>255</ele>
        <time>2025-05-10T10:47:40.000Z</time>
      </trkpt>
      <trkpt lat="49.04717" lon="7.61708">
        <ele>255</ele>
        <time>2025-05-10T10:47:47.000Z</time>
      </trkpt>
      <trkpt lat="49.04721" lon="7.61709">
        <ele>255</ele>
        <time>2025-05-10T10:47:51.000Z</time>
      </trkpt>
      <trkpt lat="49.04726" lon="7.61705">
        <ele>255</ele>
        <time>2025-05-10T10:47:54.000Z</time>
      </trkpt>
      <trkpt lat="49.0473" lon="7.617">
        <ele>255</ele>
        <time>2025-05-10T10:47:57.000Z</time>
      </trkpt>
      <trkpt lat="49.04734" lon="7.617">
        <ele>255</ele>
        <time>2025-05-10T10:48:00.000Z</time>
      </trkpt>
      <trkpt lat="49.04739" lon="7.61697">
        <ele>255</ele>
        <time>2025-05-10T10:48:04.000Z</time>
      </trkpt>
      <trkpt lat="49.04744" lon="7.61694">
        <ele>255</ele>
        <time>2025-05-10T10:48:07.000Z</time>
      </trkpt>
      <trkpt lat="49.04756" lon="7.61702">
        <ele>254</ele>
        <time>2025-05-10T10:48:15.000Z</time>
      </trkpt>
      <trkpt lat="49.04762" lon="7.61703">
        <ele>254</ele>
        <time>2025-05-10T10:48:22.000Z</time>
      </trkpt>
      <trkpt lat="49.04767" lon="7.61707">
        <ele>254</ele>
        <time>2025-05-10T10:48:26.000Z</time>
      </trkpt>
      <trkpt lat="49.04773" lon="7.61706">
        <ele>254</ele>
        <time>2025-05-10T10:48:29.000Z</time>
      </trkpt>
      <trkpt lat="49.04778" lon="7.6171">
        <ele>254</ele>
        <time>2025-05-10T10:48:33.000Z</time>
      </trkpt>
      <trkpt lat="49.04782" lon="7.61716">
        <ele>254</ele>
        <time>2025-05-10T10:48:38.000Z</time>
      </trkpt>
      <trkpt lat="49.04787" lon="7.61718">
        <ele>254</ele>
        <time>2025-05-10T10:48:41.000Z</time>
      </trkpt>
      <trkpt lat="49.04796" lon="7.61724">
        <ele>254</ele>
        <time>2025-05-10T10:48:46.000Z</time>
      </trkpt>
      <trkpt lat="49.04802" lon="7.61724">
        <ele>255</ele>
        <time>2025-05-10T10:48:51.000Z</time>
      </trkpt>
      <trkpt lat="49.04807" lon="7.61727">
        <ele>255</ele>
        <time>2025-05-10T10:48:55.000Z</time>
      </trkpt>
      <trkpt lat="49.0481" lon="7.61734">
        <ele>255</ele>
        <time>2025-05-10T10:49:01.000Z</time>
      </trkpt>
      <trkpt lat="49.0483" lon="7.61743">
        <ele>255</ele>
        <time>2025-05-10T10:49:12.000Z</time>
      </trkpt>
      <trkpt lat="49.04832" lon="7.61747">
        <ele>255</ele>
        <time>2025-05-10T10:49:15.000Z</time>
      </trkpt>
      <trkpt lat="49.04838" lon="7.61748">
        <ele>255</ele>
        <time>2025-05-10T10:49:19.000Z</time>
      </trkpt>
      <trkpt lat="49.04845" lon="7.61756">
        <ele>255</ele>
        <time>2025-05-10T10:49:25.000Z</time>
      </trkpt>
      <trkpt lat="49.0485" lon="7.61753">
        <ele>255</ele>
        <time>2025-05-10T10:49:28.000Z</time>
      </trkpt>
      <trkpt lat="49.04855" lon="7.61756">
        <ele>255</ele>
        <time>2025-05-10T10:49:31.000Z</time>
      </trkpt>
      <trkpt lat="49.0486" lon="7.61752">
        <ele>256</ele>
        <time>2025-05-10T10:49:39.000Z</time>
      </trkpt>
      <trkpt lat="49.04864" lon="7.61753">
        <ele>256</ele>
        <time>2025-05-10T10:49:44.000Z</time>
      </trkpt>
      <trkpt lat="49.04868" lon="7.61757">
        <ele>256</ele>
        <time>2025-05-10T10:49:48.000Z</time>
      </trkpt>
      <trkpt lat="49.04873" lon="7.61757">
        <ele>256</ele>
        <time>2025-05-10T10:49:52.000Z</time>
      </trkpt>
      <trkpt lat="49.04878" lon="7.61756">
        <ele>257</ele>
        <time>2025-05-10T10:49:57.000Z</time>
      </trkpt>
      <trkpt lat="49.04882" lon="7.61753">
        <ele>257</ele>
        <time>2025-05-10T10:50:01.000Z</time>
      </trkpt>
      <trkpt lat="49.04886" lon="7.61749">
        <ele>257</ele>
        <time>2025-05-10T10:50:05.000Z</time>
      </trkpt>
      <trkpt lat="49.04892" lon="7.61723">
        <ele>257</ele>
        <time>2025-05-10T10:50:22.000Z</time>
      </trkpt>
      <trkpt lat="49.04892" lon="7.61707">
        <ele>256</ele>
        <time>2025-05-10T10:50:28.000Z</time>
      </trkpt>
      <trkpt lat="49.04889" lon="7.61699">
        <ele>256</ele>
        <time>2025-05-10T10:50:31.000Z</time>
      </trkpt>
      <trkpt lat="49.04887" lon="7.61694">
        <ele>256</ele>
        <time>2025-05-10T10:50:33.000Z</time>
      </trkpt>
      <trkpt lat="49.04889" lon="7.61686">
        <ele>256</ele>
        <time>2025-05-10T10:50:49.000Z</time>
      </trkpt>
      <trkpt lat="49.04893" lon="7.61676">
        <ele>256</ele>
        <time>2025-05-10T10:51:17.000Z</time>
      </trkpt>
      <trkpt lat="49.04894" lon="7.61661">
        <ele>256</ele>
        <time>2025-05-10T10:51:25.000Z</time>
      </trkpt>
      <trkpt lat="49.04896" lon="7.61654">
        <ele>257</ele>
        <time>2025-05-10T10:51:29.000Z</time>
      </trkpt>
      <trkpt lat="49.04901" lon="7.61641">
        <ele>256</ele>
        <time>2025-05-10T10:51:37.000Z</time>
      </trkpt>
      <trkpt lat="49.04903" lon="7.61634">
        <ele>257</ele>
        <time>2025-05-10T10:51:41.000Z</time>
      </trkpt>
      <trkpt lat="49.04905" lon="7.61627">
        <ele>256</ele>
        <time>2025-05-10T10:51:45.000Z</time>
      </trkpt>
      <trkpt lat="49.04907" lon="7.61621">
        <ele>257</ele>
        <time>2025-05-10T10:51:49.000Z</time>
      </trkpt>
      <trkpt lat="49.0491" lon="7.61615">
        <ele>257</ele>
        <time>2025-05-10T10:51:52.000Z</time>
      </trkpt>
      <trkpt lat="49.04915" lon="7.61602">
        <ele>257</ele>
        <time>2025-05-10T10:51:59.000Z</time>
      </trkpt>
      <trkpt lat="49.04912" lon="7.61593">
        <ele>257</ele>
        <time>2025-05-10T10:52:02.000Z</time>
      </trkpt>
      <trkpt lat="49.04916" lon="7.61588">
        <ele>257</ele>
        <time>2025-05-10T10:52:05.000Z</time>
      </trkpt>
      <trkpt lat="49.04918" lon="7.61582">
        <ele>257</ele>
        <time>2025-05-10T10:52:08.000Z</time>
      </trkpt>
      <trkpt lat="49.04928" lon="7.61554">
        <ele>257</ele>
        <time>2025-05-10T10:52:23.000Z</time>
      </trkpt>
      <trkpt lat="49.04932" lon="7.61549">
        <ele>258</ele>
        <time>2025-05-10T10:52:27.000Z</time>
      </trkpt>
      <trkpt lat="49.04936" lon="7.61544">
        <ele>257</ele>
        <time>2025-05-10T10:52:31.000Z</time>
      </trkpt>
      <trkpt lat="49.04942" lon="7.61542">
        <ele>258</ele>
        <time>2025-05-10T10:52:35.000Z</time>
      </trkpt>
      <trkpt lat="49.04951" lon="7.61533">
        <ele>258</ele>
        <time>2025-05-10T10:52:42.000Z</time>
      </trkpt>
      <trkpt lat="49.04956" lon="7.61529">
        <ele>258</ele>
        <time>2025-05-10T10:52:46.000Z</time>
      </trkpt>
      <trkpt lat="49.04969" lon="7.61517">
        <ele>258</ele>
        <time>2025-05-10T10:52:56.000Z</time>
      </trkpt>
      <trkpt lat="49.04977" lon="7.61505">
        <ele>259</ele>
        <time>2025-05-10T10:53:05.000Z</time>
      </trkpt>
      <trkpt lat="49.04981" lon="7.61484">
        <ele>259</ele>
        <time>2025-05-10T10:53:17.000Z</time>
      </trkpt>
      <trkpt lat="49.04989" lon="7.61475">
        <ele>259</ele>
        <time>2025-05-10T10:53:24.000Z</time>
      </trkpt>
      <trkpt lat="49.05" lon="7.61443">
        <ele>260</ele>
        <time>2025-05-10T10:53:41.000Z</time>
      </trkpt>
      <trkpt lat="49.05004" lon="7.61439">
        <ele>260</ele>
        <time>2025-05-10T10:53:45.000Z</time>
      </trkpt>
      <trkpt lat="49.05006" lon="7.61431">
        <ele>260</ele>
        <time>2025-05-10T10:53:49.000Z</time>
      </trkpt>
      <trkpt lat="49.0501" lon="7.61429">
        <ele>261</ele>
        <time>2025-05-10T10:53:52.000Z</time>
      </trkpt>
      <trkpt lat="49.05012" lon="7.61417">
        <ele>261</ele>
        <time>2025-05-10T10:54:00.000Z</time>
      </trkpt>
      <trkpt lat="49.05011" lon="7.6141">
        <ele>261</ele>
        <time>2025-05-10T10:54:03.000Z</time>
      </trkpt>
      <trkpt lat="49.05015" lon="7.61386">
        <ele>262</ele>
        <time>2025-05-10T10:54:15.000Z</time>
      </trkpt>
      <trkpt lat="49.05014" lon="7.6138">
        <ele>262</ele>
        <time>2025-05-10T10:54:19.000Z</time>
      </trkpt>
      <trkpt lat="49.05016" lon="7.61373">
        <ele>262</ele>
        <time>2025-05-10T10:54:22.000Z</time>
      </trkpt>
      <trkpt lat="49.05017" lon="7.61361">
        <ele>262</ele>
        <time>2025-05-10T10:54:28.000Z</time>
      </trkpt>
      <trkpt lat="49.05016" lon="7.61353">
        <ele>262</ele>
        <time>2025-05-10T10:54:31.000Z</time>
      </trkpt>
      <trkpt lat="49.05017" lon="7.61347">
        <ele>262</ele>
        <time>2025-05-10T10:54:34.000Z</time>
      </trkpt>
      <trkpt lat="49.05016" lon="7.61331">
        <ele>262</ele>
        <time>2025-05-10T10:54:41.000Z</time>
      </trkpt>
      <trkpt lat="49.05018" lon="7.61318">
        <ele>263</ele>
        <time>2025-05-10T10:54:51.000Z</time>
      </trkpt>
      <trkpt lat="49.05018" lon="7.61303">
        <ele>263</ele>
        <time>2025-05-10T10:54:58.000Z</time>
      </trkpt>
      <trkpt lat="49.05021" lon="7.61295">
        <ele>263</ele>
        <time>2025-05-10T10:55:02.000Z</time>
      </trkpt>
      <trkpt lat="49.05022" lon="7.61272">
        <ele>264</ele>
        <time>2025-05-10T10:55:12.000Z</time>
      </trkpt>
      <trkpt lat="49.05022" lon="7.61266">
        <ele>264</ele>
        <time>2025-05-10T10:55:14.000Z</time>
      </trkpt>
      <trkpt lat="49.05024" lon="7.61258">
        <ele>264</ele>
        <time>2025-05-10T10:55:20.000Z</time>
      </trkpt>
      <trkpt lat="49.05024" lon="7.61248">
        <ele>265</ele>
        <time>2025-05-10T10:55:25.000Z</time>
      </trkpt>
      <trkpt lat="49.05028" lon="7.61235">
        <ele>265</ele>
        <time>2025-05-10T10:55:34.000Z</time>
      </trkpt>
      <trkpt lat="49.05029" lon="7.61228">
        <ele>265</ele>
        <time>2025-05-10T10:55:37.000Z</time>
      </trkpt>
      <trkpt lat="49.05033" lon="7.61186">
        <ele>267</ele>
        <time>2025-05-10T10:55:58.000Z</time>
      </trkpt>
      <trkpt lat="49.05036" lon="7.6118">
        <ele>267</ele>
        <time>2025-05-10T10:56:01.000Z</time>
      </trkpt>
      <trkpt lat="49.05034" lon="7.61158">
        <ele>268</ele>
        <time>2025-05-10T10:56:15.000Z</time>
      </trkpt>
      <trkpt lat="49.05034" lon="7.6115">
        <ele>268</ele>
        <time>2025-05-10T10:56:19.000Z</time>
      </trkpt>
      <trkpt lat="49.05038" lon="7.61141">
        <ele>269</ele>
        <time>2025-05-10T10:56:25.000Z</time>
      </trkpt>
      <trkpt lat="49.05037" lon="7.61134">
        <ele>269</ele>
        <time>2025-05-10T10:56:29.000Z</time>
      </trkpt>
      <trkpt lat="49.05038" lon="7.61127">
        <ele>269</ele>
        <time>2025-05-10T10:56:34.000Z</time>
      </trkpt>
      <trkpt lat="49.05037" lon="7.6109">
        <ele>271</ele>
        <time>2025-05-10T10:56:57.000Z</time>
      </trkpt>
      <trkpt lat="49.05036" lon="7.61082">
        <ele>271</ele>
        <time>2025-05-10T10:57:01.000Z</time>
      </trkpt>
      <trkpt lat="49.05037" lon="7.61075">
        <ele>271</ele>
        <time>2025-05-10T10:57:05.000Z</time>
      </trkpt>
      <trkpt lat="49.05035" lon="7.61068">
        <ele>272</ele>
        <time>2025-05-10T10:57:09.000Z</time>
      </trkpt>
      <trkpt lat="49.0503" lon="7.61035">
        <ele>272</ele>
        <time>2025-05-10T10:57:28.000Z</time>
      </trkpt>
      <trkpt lat="49.05024" lon="7.61014">
        <ele>272</ele>
        <time>2025-05-10T10:57:41.000Z</time>
      </trkpt>
      <trkpt lat="49.05021" lon="7.61">
        <ele>272</ele>
        <time>2025-05-10T10:57:48.000Z</time>
      </trkpt>
      <trkpt lat="49.0502" lon="7.60993">
        <ele>271</ele>
        <time>2025-05-10T10:57:51.000Z</time>
      </trkpt>
      <trkpt lat="49.05019" lon="7.60985">
        <ele>271</ele>
        <time>2025-05-10T10:57:55.000Z</time>
      </trkpt>
      <trkpt lat="49.05007" lon="7.60931">
        <ele>270</ele>
        <time>2025-05-10T10:58:25.000Z</time>
      </trkpt>
      <trkpt lat="49.04999" lon="7.60912">
        <ele>270</ele>
        <time>2025-05-10T10:58:40.000Z</time>
      </trkpt>
      <trkpt lat="49.04996" lon="7.60904">
        <ele>269</ele>
        <time>2025-05-10T10:58:44.000Z</time>
      </trkpt>
      <trkpt lat="49.04993" lon="7.60899">
        <ele>270</ele>
        <time>2025-05-10T10:58:49.000Z</time>
      </trkpt>
      <trkpt lat="49.04991" lon="7.60893">
        <ele>270</ele>
        <time>2025-05-10T10:58:54.000Z</time>
      </trkpt>
      <trkpt lat="49.04989" lon="7.60886">
        <ele>270</ele>
        <time>2025-05-10T10:58:58.000Z</time>
      </trkpt>
      <trkpt lat="49.04988" lon="7.60879">
        <ele>270</ele>
        <time>2025-05-10T10:59:06.000Z</time>
      </trkpt>
      <trkpt lat="49.04985" lon="7.60872">
        <ele>270</ele>
        <time>2025-05-10T10:59:10.000Z</time>
      </trkpt>
      <trkpt lat="49.04984" lon="7.60865">
        <ele>270</ele>
        <time>2025-05-10T10:59:14.000Z</time>
      </trkpt>
      <trkpt lat="49.04983" lon="7.60858">
        <ele>270</ele>
        <time>2025-05-10T10:59:17.000Z</time>
      </trkpt>
      <trkpt lat="49.04982" lon="7.6085">
        <ele>270</ele>
        <time>2025-05-10T10:59:21.000Z</time>
      </trkpt>
      <trkpt lat="49.04981" lon="7.60842">
        <ele>270</ele>
        <time>2025-05-10T10:59:24.000Z</time>
      </trkpt>
      <trkpt lat="49.0498" lon="7.60834">
        <ele>270</ele>
        <time>2025-05-10T10:59:28.000Z</time>
      </trkpt>
      <trkpt lat="49.04979" lon="7.60826">
        <ele>269</ele>
        <time>2025-05-10T10:59:33.000Z</time>
      </trkpt>
      <trkpt lat="49.04978" lon="7.60817">
        <ele>269</ele>
        <time>2025-05-10T10:59:38.000Z</time>
      </trkpt>
      <trkpt lat="49.04978" lon="7.6081">
        <ele>269</ele>
        <time>2025-05-10T10:59:43.000Z</time>
      </trkpt>
      <trkpt lat="49.04975" lon="7.60787">
        <ele>268</ele>
        <time>2025-05-10T10:59:54.000Z</time>
      </trkpt>
      <trkpt lat="49.04974" lon="7.60781">
        <ele>270</ele>
        <time>2025-05-10T10:59:58.000Z</time>
      </trkpt>
      <trkpt lat="49.04965" lon="7.6076">
        <ele>268</ele>
        <time>2025-05-10T11:00:07.000Z</time>
      </trkpt>
      <trkpt lat="49.04964" lon="7.60755">
        <ele>268</ele>
        <time>2025-05-10T11:00:10.000Z</time>
      </trkpt>
      <trkpt lat="49.04965" lon="7.60732">
        <ele>267</ele>
        <time>2025-05-10T11:00:19.000Z</time>
      </trkpt>
      <trkpt lat="49.04952" lon="7.60672">
        <ele>267</ele>
        <time>2025-05-10T11:00:49.000Z</time>
      </trkpt>
      <trkpt lat="49.04949" lon="7.60666">
        <ele>267</ele>
        <time>2025-05-10T11:00:53.000Z</time>
      </trkpt>
      <trkpt lat="49.04945" lon="7.60644">
        <ele>267</ele>
        <time>2025-05-10T11:01:04.000Z</time>
      </trkpt>
      <trkpt lat="49.04944" lon="7.60636">
        <ele>268</ele>
        <time>2025-05-10T11:01:09.000Z</time>
      </trkpt>
      <trkpt lat="49.04944" lon="7.60625">
        <ele>267</ele>
        <time>2025-05-10T11:01:15.000Z</time>
      </trkpt>
      <trkpt lat="49.04945" lon="7.60614">
        <ele>267</ele>
        <time>2025-05-10T11:01:22.000Z</time>
      </trkpt>
      <trkpt lat="49.04942" lon="7.60606">
        <ele>267</ele>
        <time>2025-05-10T11:01:27.000Z</time>
      </trkpt>
      <trkpt lat="49.04939" lon="7.60601">
        <ele>266</ele>
        <time>2025-05-10T11:01:31.000Z</time>
      </trkpt>
      <trkpt lat="49.04938" lon="7.60594">
        <ele>266</ele>
        <time>2025-05-10T11:01:38.000Z</time>
      </trkpt>
      <trkpt lat="49.04937" lon="7.6058">
        <ele>269</ele>
        <time>2025-05-10T11:01:46.000Z</time>
      </trkpt>
      <trkpt lat="49.04935" lon="7.60572">
        <ele>269</ele>
        <time>2025-05-10T11:01:49.000Z</time>
      </trkpt>
      <trkpt lat="49.04932" lon="7.60564">
        <ele>267</ele>
        <time>2025-05-10T11:01:52.000Z</time>
      </trkpt>
      <trkpt lat="49.04929" lon="7.60559">
        <ele>267</ele>
        <time>2025-05-10T11:01:56.000Z</time>
      </trkpt>
      <trkpt lat="49.04927" lon="7.60551">
        <ele>267</ele>
        <time>2025-05-10T11:02:00.000Z</time>
      </trkpt>
      <trkpt lat="49.04927" lon="7.60544">
        <ele>267</ele>
        <time>2025-05-10T11:02:04.000Z</time>
      </trkpt>
      <trkpt lat="49.04928" lon="7.60537">
        <ele>267</ele>
        <time>2025-05-10T11:02:08.000Z</time>
      </trkpt>
      <trkpt lat="49.04925" lon="7.60529">
        <ele>267</ele>
        <time>2025-05-10T11:02:12.000Z</time>
      </trkpt>
      <trkpt lat="49.04921" lon="7.60525">
        <ele>267</ele>
        <time>2025-05-10T11:02:15.000Z</time>
      </trkpt>
      <trkpt lat="49.04917" lon="7.6051">
        <ele>267</ele>
        <time>2025-05-10T11:02:22.000Z</time>
      </trkpt>
      <trkpt lat="49.04916" lon="7.60502">
        <ele>267</ele>
        <time>2025-05-10T11:02:25.000Z</time>
      </trkpt>
      <trkpt lat="49.04913" lon="7.60495">
        <ele>267</ele>
        <time>2025-05-10T11:02:29.000Z</time>
      </trkpt>
      <trkpt lat="49.0491" lon="7.60482">
        <ele>266</ele>
        <time>2025-05-10T11:02:36.000Z</time>
      </trkpt>
      <trkpt lat="49.04907" lon="7.60469">
        <ele>265</ele>
        <time>2025-05-10T11:02:44.000Z</time>
      </trkpt>
      <trkpt lat="49.04901" lon="7.60449">
        <ele>264</ele>
        <time>2025-05-10T11:02:56.000Z</time>
      </trkpt>
      <trkpt lat="49.04899" lon="7.60442">
        <ele>264</ele>
        <time>2025-05-10T11:03:00.000Z</time>
      </trkpt>
      <trkpt lat="49.04898" lon="7.60436">
        <ele>264</ele>
        <time>2025-05-10T11:03:04.000Z</time>
      </trkpt>
      <trkpt lat="49.04896" lon="7.60429">
        <ele>264</ele>
        <time>2025-05-10T11:03:08.000Z</time>
      </trkpt>
      <trkpt lat="49.04877" lon="7.60372">
        <ele>261</ele>
        <time>2025-05-10T11:03:39.000Z</time>
      </trkpt>
      <trkpt lat="49.0486" lon="7.60316">
        <ele>259</ele>
        <time>2025-05-10T11:04:10.000Z</time>
      </trkpt>
      <trkpt lat="49.04859" lon="7.6031">
        <ele>258</ele>
        <time>2025-05-10T11:04:14.000Z</time>
      </trkpt>
      <trkpt lat="49.04854" lon="7.60297">
        <ele>258</ele>
        <time>2025-05-10T11:04:21.000Z</time>
      </trkpt>
      <trkpt lat="49.04852" lon="7.60282">
        <ele>258</ele>
        <time>2025-05-10T11:04:29.000Z</time>
      </trkpt>
      <trkpt lat="49.04852" lon="7.60268">
        <ele>257</ele>
        <time>2025-05-10T11:04:38.000Z</time>
      </trkpt>
      <trkpt lat="49.04839" lon="7.60203">
        <ele>257</ele>
        <time>2025-05-10T11:05:11.000Z</time>
      </trkpt>
      <trkpt lat="49.04835" lon="7.60188">
        <ele>256</ele>
        <time>2025-05-10T11:05:19.000Z</time>
      </trkpt>
      <trkpt lat="49.04828" lon="7.60174">
        <ele>256</ele>
        <time>2025-05-10T11:05:26.000Z</time>
      </trkpt>
      <trkpt lat="49.04814" lon="7.60114">
        <ele>256</ele>
        <time>2025-05-10T11:05:59.000Z</time>
      </trkpt>
      <trkpt lat="49.04806" lon="7.60053">
        <ele>256</ele>
        <time>2025-05-10T11:06:30.000Z</time>
      </trkpt>
      <trkpt lat="49.04806" lon="7.60046">
        <ele>255</ele>
        <time>2025-05-10T11:06:34.000Z</time>
      </trkpt>
      <trkpt lat="49.04805" lon="7.60038">
        <ele>257</ele>
        <time>2025-05-10T11:06:38.000Z</time>
      </trkpt>
      <trkpt lat="49.04804" lon="7.60032">
        <ele>257</ele>
        <time>2025-05-10T11:06:42.000Z</time>
      </trkpt>
      <trkpt lat="49.04803" lon="7.60025">
        <ele>256</ele>
        <time>2025-05-10T11:06:46.000Z</time>
      </trkpt>
      <trkpt lat="49.048" lon="7.5998">
        <ele>255</ele>
        <time>2025-05-10T11:07:10.000Z</time>
      </trkpt>
      <trkpt lat="49.04801" lon="7.59972">
        <ele>256</ele>
        <time>2025-05-10T11:07:14.000Z</time>
      </trkpt>
      <trkpt lat="49.04799" lon="7.59965">
        <ele>256</ele>
        <time>2025-05-10T11:07:18.000Z</time>
      </trkpt>
      <trkpt lat="49.04798" lon="7.59957">
        <ele>256</ele>
        <time>2025-05-10T11:07:22.000Z</time>
      </trkpt>
      <trkpt lat="49.04797" lon="7.59951">
        <ele>256</ele>
        <time>2025-05-10T11:07:26.000Z</time>
      </trkpt>
      <trkpt lat="49.04797" lon="7.59942">
        <ele>256</ele>
        <time>2025-05-10T11:07:31.000Z</time>
      </trkpt>
      <trkpt lat="49.04797" lon="7.59934">
        <ele>256</ele>
        <time>2025-05-10T11:07:35.000Z</time>
      </trkpt>
      <trkpt lat="49.04796" lon="7.59925">
        <ele>256</ele>
        <time>2025-05-10T11:07:39.000Z</time>
      </trkpt>
      <trkpt lat="49.04796" lon="7.59918">
        <ele>256</ele>
        <time>2025-05-10T11:07:43.000Z</time>
      </trkpt>
      <trkpt lat="49.04796" lon="7.59895">
        <ele>256</ele>
        <time>2025-05-10T11:07:55.000Z</time>
      </trkpt>
      <trkpt lat="49.04795" lon="7.59887">
        <ele>256</ele>
        <time>2025-05-10T11:07:59.000Z</time>
      </trkpt>
      <trkpt lat="49.04794" lon="7.5988">
        <ele>257</ele>
        <time>2025-05-10T11:08:03.000Z</time>
      </trkpt>
      <trkpt lat="49.04793" lon="7.59873">
        <ele>255</ele>
        <time>2025-05-10T11:08:07.000Z</time>
      </trkpt>
      <trkpt lat="49.04794" lon="7.59867">
        <ele>256</ele>
        <time>2025-05-10T11:08:11.000Z</time>
      </trkpt>
      <trkpt lat="49.04794" lon="7.59856">
        <ele>257</ele>
        <time>2025-05-10T11:08:41.000Z</time>
      </trkpt>
      <trkpt lat="49.04794" lon="7.59848">
        <ele>256</ele>
        <time>2025-05-10T11:08:45.000Z</time>
      </trkpt>
      <trkpt lat="49.04795" lon="7.59841">
        <ele>256</ele>
        <time>2025-05-10T11:08:49.000Z</time>
      </trkpt>
      <trkpt lat="49.04798" lon="7.59835">
        <ele>255</ele>
        <time>2025-05-10T11:08:54.000Z</time>
      </trkpt>
      <trkpt lat="49.04802" lon="7.59828">
        <ele>255</ele>
        <time>2025-05-10T11:08:58.000Z</time>
      </trkpt>
      <trkpt lat="49.04806" lon="7.59824">
        <ele>254</ele>
        <time>2025-05-10T11:09:02.000Z</time>
      </trkpt>
      <trkpt lat="49.04811" lon="7.59821">
        <ele>254</ele>
        <time>2025-05-10T11:09:06.000Z</time>
      </trkpt>
      <trkpt lat="49.04816" lon="7.59819">
        <ele>250</ele>
        <time>2025-05-10T11:09:10.000Z</time>
      </trkpt>
      <trkpt lat="49.0482" lon="7.59817">
        <ele>257</ele>
        <time>2025-05-10T11:09:14.000Z</time>
      </trkpt>
      <trkpt lat="49.0483" lon="7.59813">
        <ele>252</ele>
        <time>2025-05-10T11:09:22.000Z</time>
      </trkpt>
      <trkpt lat="49.04841" lon="7.59809">
        <ele>251</ele>
        <time>2025-05-10T11:09:30.000Z</time>
      </trkpt>
      <trkpt lat="49.04851" lon="7.59809">
        <ele>251</ele>
        <time>2025-05-10T11:09:37.000Z</time>
      </trkpt>
      <trkpt lat="49.04871" lon="7.59801">
        <ele>250</ele>
        <time>2025-05-10T11:09:53.000Z</time>
      </trkpt>
      <trkpt lat="49.04897" lon="7.59779">
        <ele>250</ele>
        <time>2025-05-10T11:10:15.000Z</time>
      </trkpt>
      <trkpt lat="49.04907" lon="7.59775">
        <ele>250</ele>
        <time>2025-05-10T11:10:23.000Z</time>
      </trkpt>
      <trkpt lat="49.04933" lon="7.59746">
        <ele>249</ele>
        <time>2025-05-10T11:10:47.000Z</time>
      </trkpt>
      <trkpt lat="49.04942" lon="7.59729">
        <ele>249</ele>
        <time>2025-05-10T11:10:57.000Z</time>
      </trkpt>
      <trkpt lat="49.04945" lon="7.59724">
        <ele>249</ele>
        <time>2025-05-10T11:11:01.000Z</time>
      </trkpt>
      <trkpt lat="49.04954" lon="7.59704">
        <ele>248</ele>
        <time>2025-05-10T11:11:12.000Z</time>
      </trkpt>
      <trkpt lat="49.0498" lon="7.59658">
        <ele>250</ele>
        <time>2025-05-10T11:11:43.000Z</time>
      </trkpt>
      <trkpt lat="49.05005" lon="7.59611">
        <ele>254</ele>
        <time>2025-05-10T11:12:15.000Z</time>
      </trkpt>
      <trkpt lat="49.05009" lon="7.59605">
        <ele>254</ele>
        <time>2025-05-10T11:12:19.000Z</time>
      </trkpt>
      <trkpt lat="49.05015" lon="7.59584">
        <ele>256</ele>
        <time>2025-05-10T11:12:51.000Z</time>
      </trkpt>
      <trkpt lat="49.05016" lon="7.59577">
        <ele>256</ele>
        <time>2025-05-10T11:12:55.000Z</time>
      </trkpt>
      <trkpt lat="49.0501" lon="7.59556">
        <ele>256</ele>
        <time>2025-05-10T11:13:07.000Z</time>
      </trkpt>
      <trkpt lat="49.05005" lon="7.59534">
        <ele>255</ele>
        <time>2025-05-10T11:13:20.000Z</time>
      </trkpt>
      <trkpt lat="49.05" lon="7.5952">
        <ele>255</ele>
        <time>2025-05-10T11:13:28.000Z</time>
      </trkpt>
      <trkpt lat="49.04999" lon="7.59511">
        <ele>255</ele>
        <time>2025-05-10T11:13:33.000Z</time>
      </trkpt>
      <trkpt lat="49.04996" lon="7.59506">
        <ele>255</ele>
        <time>2025-05-10T11:13:36.000Z</time>
      </trkpt>
      <trkpt lat="49.04987" lon="7.59479">
        <ele>254</ele>
        <time>2025-05-10T11:13:52.000Z</time>
      </trkpt>
      <trkpt lat="49.04986" lon="7.59472">
        <ele>254</ele>
        <time>2025-05-10T11:13:56.000Z</time>
      </trkpt>
      <trkpt lat="49.04981" lon="7.59458">
        <ele>253</ele>
        <time>2025-05-10T11:14:04.000Z</time>
      </trkpt>
      <trkpt lat="49.04979" lon="7.59451">
        <ele>253</ele>
        <time>2025-05-10T11:14:08.000Z</time>
      </trkpt>
      <trkpt lat="49.04977" lon="7.59444">
        <ele>253</ele>
        <time>2025-05-10T11:14:11.000Z</time>
      </trkpt>
      <trkpt lat="49.04974" lon="7.59437">
        <ele>252</ele>
        <time>2025-05-10T11:14:15.000Z</time>
      </trkpt>
      <trkpt lat="49.04972" lon="7.5943">
        <ele>252</ele>
        <time>2025-05-10T11:14:20.000Z</time>
      </trkpt>
      <trkpt lat="49.0497" lon="7.59422">
        <ele>252</ele>
        <time>2025-05-10T11:14:24.000Z</time>
      </trkpt>
      <trkpt lat="49.04969" lon="7.59415">
        <ele>252</ele>
        <time>2025-05-10T11:14:28.000Z</time>
      </trkpt>
      <trkpt lat="49.04963" lon="7.59395">
        <ele>251</ele>
        <time>2025-05-10T11:14:40.000Z</time>
      </trkpt>
      <trkpt lat="49.04961" lon="7.59379">
        <ele>251</ele>
        <time>2025-05-10T11:14:48.000Z</time>
      </trkpt>
      <trkpt lat="49.0496" lon="7.59373">
        <ele>251</ele>
        <time>2025-05-10T11:14:52.000Z</time>
      </trkpt>
      <trkpt lat="49.04957" lon="7.59365">
        <ele>251</ele>
        <time>2025-05-10T11:14:56.000Z</time>
      </trkpt>
      <trkpt lat="49.04953" lon="7.59343">
        <ele>250</ele>
        <time>2025-05-10T11:15:08.000Z</time>
      </trkpt>
      <trkpt lat="49.04954" lon="7.59306">
        <ele>248</ele>
        <time>2025-05-10T11:15:28.000Z</time>
      </trkpt>
      <trkpt lat="49.04953" lon="7.59298">
        <ele>249</ele>
        <time>2025-05-10T11:15:32.000Z</time>
      </trkpt>
      <trkpt lat="49.04954" lon="7.5929">
        <ele>249</ele>
        <time>2025-05-10T11:15:36.000Z</time>
      </trkpt>
      <trkpt lat="49.04953" lon="7.59282">
        <ele>248</ele>
        <time>2025-05-10T11:15:40.000Z</time>
      </trkpt>
      <trkpt lat="49.04951" lon="7.59252">
        <ele>248</ele>
        <time>2025-05-10T11:15:54.000Z</time>
      </trkpt>
      <trkpt lat="49.04941" lon="7.59216">
        <ele>248</ele>
        <time>2025-05-10T11:16:13.000Z</time>
      </trkpt>
      <trkpt lat="49.04931" lon="7.59198">
        <ele>247</ele>
        <time>2025-05-10T11:16:25.000Z</time>
      </trkpt>
      <trkpt lat="49.04899" lon="7.59151">
        <ele>247</ele>
        <time>2025-05-10T11:16:57.000Z</time>
      </trkpt>
      <trkpt lat="49.04892" lon="7.5914">
        <ele>247</ele>
        <time>2025-05-10T11:17:04.000Z</time>
      </trkpt>
      <trkpt lat="49.04881" lon="7.59124">
        <ele>246</ele>
        <time>2025-05-10T11:17:15.000Z</time>
      </trkpt>
      <trkpt lat="49.04871" lon="7.59106">
        <ele>247</ele>
        <time>2025-05-10T11:17:27.000Z</time>
      </trkpt>
      <trkpt lat="49.04859" lon="7.59091">
        <ele>247</ele>
        <time>2025-05-10T11:17:38.000Z</time>
      </trkpt>
      <trkpt lat="49.04858" lon="7.59083">
        <ele>247</ele>
        <time>2025-05-10T11:17:42.000Z</time>
      </trkpt>
      <trkpt lat="49.04855" lon="7.59075">
        <ele>247</ele>
        <time>2025-05-10T11:17:46.000Z</time>
      </trkpt>
      <trkpt lat="49.04852" lon="7.59071">
        <ele>247</ele>
        <time>2025-05-10T11:17:49.000Z</time>
      </trkpt>
      <trkpt lat="49.04848" lon="7.59065">
        <ele>248</ele>
        <time>2025-05-10T11:17:53.000Z</time>
      </trkpt>
      <trkpt lat="49.04843" lon="7.59066">
        <ele>248</ele>
        <time>2025-05-10T11:17:57.000Z</time>
      </trkpt>
      <trkpt lat="49.04837" lon="7.59065">
        <ele>248</ele>
        <time>2025-05-10T11:18:01.000Z</time>
      </trkpt>
      <trkpt lat="49.04827" lon="7.59067">
        <ele>248</ele>
        <time>2025-05-10T11:18:09.000Z</time>
      </trkpt>
      <trkpt lat="49.04818" lon="7.59071">
        <ele>248</ele>
        <time>2025-05-10T11:18:17.000Z</time>
      </trkpt>
      <trkpt lat="49.04814" lon="7.59076">
        <ele>248</ele>
        <time>2025-05-10T11:18:20.000Z</time>
      </trkpt>
      <trkpt lat="49.04809" lon="7.59081">
        <ele>248</ele>
        <time>2025-05-10T11:18:24.000Z</time>
      </trkpt>
      <trkpt lat="49.04806" lon="7.59085">
        <ele>247</ele>
        <time>2025-05-10T11:18:28.000Z</time>
      </trkpt>
      <trkpt lat="49.04798" lon="7.59095">
        <ele>247</ele>
        <time>2025-05-10T11:18:35.000Z</time>
      </trkpt>
      <trkpt lat="49.0479" lon="7.59104">
        <ele>247</ele>
        <time>2025-05-10T11:18:42.000Z</time>
      </trkpt>
      <trkpt lat="49.04785" lon="7.59105">
        <ele>247</ele>
        <time>2025-05-10T11:18:46.000Z</time>
      </trkpt>
      <trkpt lat="49.04781" lon="7.5911">
        <ele>248</ele>
        <time>2025-05-10T11:18:50.000Z</time>
      </trkpt>
      <trkpt lat="49.04776" lon="7.59108">
        <ele>248</ele>
        <time>2025-05-10T11:18:53.000Z</time>
      </trkpt>
      <trkpt lat="49.04774" lon="7.59102">
        <ele>248</ele>
        <time>2025-05-10T11:18:56.000Z</time>
      </trkpt>
      <trkpt lat="49.04772" lon="7.59092">
        <ele>249</ele>
        <time>2025-05-10T11:19:05.000Z</time>
      </trkpt>
      <trkpt lat="49.04768" lon="7.59078">
        <ele>251</ele>
        <time>2025-05-10T11:19:12.000Z</time>
      </trkpt>
      <trkpt lat="49.0477" lon="7.59081">
        <ele>253</ele>
        <time>2025-05-10T11:19:34.000Z</time>
      </trkpt>
      <trkpt lat="49.04773" lon="7.59087">
        <ele>252</ele>
        <time>2025-05-10T11:19:38.000Z</time>
      </trkpt>
      <trkpt lat="49.04776" lon="7.59092">
        <ele>251</ele>
        <time>2025-05-10T11:19:42.000Z</time>
      </trkpt>
      <trkpt lat="49.0478" lon="7.59087">
        <ele>250</ele>
        <time>2025-05-10T11:19:47.000Z</time>
      </trkpt>
      <trkpt lat="49.04784" lon="7.59081">
        <ele>250</ele>
        <time>2025-05-10T11:19:51.000Z</time>
      </trkpt>
      <trkpt lat="49.04786" lon="7.59075">
        <ele>250</ele>
        <time>2025-05-10T11:19:55.000Z</time>
      </trkpt>
      <trkpt lat="49.04788" lon="7.59058">
        <ele>250</ele>
        <time>2025-05-10T11:20:02.000Z</time>
      </trkpt>
      <trkpt lat="49.04792" lon="7.59038">
        <ele>251</ele>
        <time>2025-05-10T11:20:11.000Z</time>
      </trkpt>
      <trkpt lat="49.04797" lon="7.58983">
        <ele>254</ele>
        <time>2025-05-10T11:20:43.000Z</time>
      </trkpt>
      <trkpt lat="49.04803" lon="7.58927">
        <ele>257</ele>
        <time>2025-05-10T11:21:14.000Z</time>
      </trkpt>
      <trkpt lat="49.04804" lon="7.58912">
        <ele>258</ele>
        <time>2025-05-10T11:21:23.000Z</time>
      </trkpt>
      <trkpt lat="49.048" lon="7.5892">
        <ele>260</ele>
        <time>2025-05-10T11:21:48.000Z</time>
      </trkpt>
      <trkpt lat="49.04785" lon="7.58923">
        <ele>260</ele>
        <time>2025-05-10T11:21:55.000Z</time>
      </trkpt>
      <trkpt lat="49.04775" lon="7.58933">
        <ele>262</ele>
        <time>2025-05-10T11:22:11.000Z</time>
      </trkpt>
      <trkpt lat="49.04768" lon="7.58933">
        <ele>265</ele>
        <time>2025-05-10T11:22:22.000Z</time>
      </trkpt>
      <trkpt lat="49.04765" lon="7.58923">
        <ele>266</ele>
        <time>2025-05-10T11:22:28.000Z</time>
      </trkpt>
      <trkpt lat="49.04761" lon="7.58919">
        <ele>267</ele>
        <time>2025-05-10T11:22:32.000Z</time>
      </trkpt>
      <trkpt lat="49.04758" lon="7.58909">
        <ele>269</ele>
        <time>2025-05-10T11:22:41.000Z</time>
      </trkpt>
      <trkpt lat="49.04749" lon="7.58893">
        <ele>272</ele>
        <time>2025-05-10T11:23:00.000Z</time>
      </trkpt>
      <trkpt lat="49.04739" lon="7.58883">
        <ele>274</ele>
        <time>2025-05-10T11:23:21.000Z</time>
      </trkpt>
      <trkpt lat="49.04736" lon="7.58877">
        <ele>275</ele>
        <time>2025-05-10T11:23:25.000Z</time>
      </trkpt>
      <trkpt lat="49.04738" lon="7.58847">
        <ele>277</ele>
        <time>2025-05-10T11:23:44.000Z</time>
      </trkpt>
      <trkpt lat="49.04741" lon="7.58838">
        <ele>278</ele>
        <time>2025-05-10T11:23:48.000Z</time>
      </trkpt>
      <trkpt lat="49.04744" lon="7.58833">
        <ele>278</ele>
        <time>2025-05-10T11:23:51.000Z</time>
      </trkpt>
      <trkpt lat="49.0475" lon="7.58831">
        <ele>278</ele>
        <time>2025-05-10T11:23:53.000Z</time>
      </trkpt>
      <trkpt lat="49.04762" lon="7.588">
        <ele>281</ele>
        <time>2025-05-10T11:24:15.000Z</time>
      </trkpt>
      <trkpt lat="49.04763" lon="7.58793">
        <ele>281</ele>
        <time>2025-05-10T11:24:19.000Z</time>
      </trkpt>
      <trkpt lat="49.04759" lon="7.58764">
        <ele>284</ele>
        <time>2025-05-10T11:24:38.000Z</time>
      </trkpt>
      <trkpt lat="49.04758" lon="7.58755">
        <ele>285</ele>
        <time>2025-05-10T11:24:44.000Z</time>
      </trkpt>
      <trkpt lat="49.04759" lon="7.58749">
        <ele>285</ele>
        <time>2025-05-10T11:24:47.000Z</time>
      </trkpt>
      <trkpt lat="49.04758" lon="7.58741">
        <ele>285</ele>
        <time>2025-05-10T11:24:52.000Z</time>
      </trkpt>
      <trkpt lat="49.04759" lon="7.58735">
        <ele>285</ele>
        <time>2025-05-10T11:24:55.000Z</time>
      </trkpt>
      <trkpt lat="49.04762" lon="7.5873">
        <ele>285</ele>
        <time>2025-05-10T11:24:59.000Z</time>
      </trkpt>
      <trkpt lat="49.04766" lon="7.58709">
        <ele>286</ele>
        <time>2025-05-10T11:25:12.000Z</time>
      </trkpt>
      <trkpt lat="49.04766" lon="7.58689">
        <ele>289</ele>
        <time>2025-05-10T11:25:27.000Z</time>
      </trkpt>
      <trkpt lat="49.04763" lon="7.58672">
        <ele>290</ele>
        <time>2025-05-10T11:25:37.000Z</time>
      </trkpt>
      <trkpt lat="49.04763" lon="7.58664">
        <ele>292</ele>
        <time>2025-05-10T11:25:42.000Z</time>
      </trkpt>
      <trkpt lat="49.04767" lon="7.58651">
        <ele>292</ele>
        <time>2025-05-10T11:25:51.000Z</time>
      </trkpt>
      <trkpt lat="49.04768" lon="7.58643">
        <ele>293</ele>
        <time>2025-05-10T11:25:56.000Z</time>
      </trkpt>
      <trkpt lat="49.04768" lon="7.58636">
        <ele>290</ele>
        <time>2025-05-10T11:26:01.000Z</time>
      </trkpt>
      <trkpt lat="49.04768" lon="7.58628">
        <ele>293</ele>
        <time>2025-05-10T11:26:05.000Z</time>
      </trkpt>
      <trkpt lat="49.04771" lon="7.58618">
        <ele>297</ele>
        <time>2025-05-10T11:26:12.000Z</time>
      </trkpt>
      <trkpt lat="49.04771" lon="7.58608">
        <ele>295</ele>
        <time>2025-05-10T11:26:16.000Z</time>
      </trkpt>
      <trkpt lat="49.04772" lon="7.58587">
        <ele>296</ele>
        <time>2025-05-10T11:26:27.000Z</time>
      </trkpt>
      <trkpt lat="49.04768" lon="7.58572">
        <ele>297</ele>
        <time>2025-05-10T11:26:36.000Z</time>
      </trkpt>
      <trkpt lat="49.04759" lon="7.58561">
        <ele>299</ele>
        <time>2025-05-10T11:26:46.000Z</time>
      </trkpt>
      <trkpt lat="49.04756" lon="7.58553">
        <ele>299</ele>
        <time>2025-05-10T11:26:50.000Z</time>
      </trkpt>
      <trkpt lat="49.04745" lon="7.58541">
        <ele>300</ele>
        <time>2025-05-10T11:27:00.000Z</time>
      </trkpt>
      <trkpt lat="49.04739" lon="7.58529">
        <ele>301</ele>
        <time>2025-05-10T11:27:08.000Z</time>
      </trkpt>
      <trkpt lat="49.04732" lon="7.58504">
        <ele>303</ele>
        <time>2025-05-10T11:27:23.000Z</time>
      </trkpt>
      <trkpt lat="49.04727" lon="7.58493">
        <ele>304</ele>
        <time>2025-05-10T11:27:31.000Z</time>
      </trkpt>
      <trkpt lat="49.04724" lon="7.58479">
        <ele>304</ele>
        <time>2025-05-10T11:27:40.000Z</time>
      </trkpt>
      <trkpt lat="49.04718" lon="7.5847">
        <ele>305</ele>
        <time>2025-05-10T11:27:48.000Z</time>
      </trkpt>
      <trkpt lat="49.04716" lon="7.58464">
        <ele>306</ele>
        <time>2025-05-10T11:27:52.000Z</time>
      </trkpt>
      <trkpt lat="49.04713" lon="7.58457">
        <ele>306</ele>
        <time>2025-05-10T11:27:56.000Z</time>
      </trkpt>
      <trkpt lat="49.04703" lon="7.58442">
        <ele>307</ele>
        <time>2025-05-10T11:28:06.000Z</time>
      </trkpt>
      <trkpt lat="49.04686" lon="7.58398">
        <ele>310</ele>
        <time>2025-05-10T11:28:38.000Z</time>
      </trkpt>
      <trkpt lat="49.04676" lon="7.58379">
        <ele>312</ele>
        <time>2025-05-10T11:28:50.000Z</time>
      </trkpt>
      <trkpt lat="49.04674" lon="7.58371">
        <ele>312</ele>
        <time>2025-05-10T11:28:54.000Z</time>
      </trkpt>
      <trkpt lat="49.04671" lon="7.58363">
        <ele>313</ele>
        <time>2025-05-10T11:28:59.000Z</time>
      </trkpt>
      <trkpt lat="49.04666" lon="7.58354">
        <ele>314</ele>
        <time>2025-05-10T11:29:07.000Z</time>
      </trkpt>
      <trkpt lat="49.04664" lon="7.58347">
        <ele>315</ele>
        <time>2025-05-10T11:29:12.000Z</time>
      </trkpt>
      <trkpt lat="49.04661" lon="7.58342">
        <ele>315</ele>
        <time>2025-05-10T11:29:16.000Z</time>
      </trkpt>
      <trkpt lat="49.04645" lon="7.58296">
        <ele>319</ele>
        <time>2025-05-10T11:29:49.000Z</time>
      </trkpt>
      <trkpt lat="49.04629" lon="7.58266">
        <ele>321</ele>
        <time>2025-05-10T11:30:09.000Z</time>
      </trkpt>
      <trkpt lat="49.04627" lon="7.58258">
        <ele>321</ele>
        <time>2025-05-10T11:30:13.000Z</time>
      </trkpt>
      <trkpt lat="49.04626" lon="7.58251">
        <ele>322</ele>
        <time>2025-05-10T11:30:17.000Z</time>
      </trkpt>
      <trkpt lat="49.04624" lon="7.58244">
        <ele>322</ele>
        <time>2025-05-10T11:30:21.000Z</time>
      </trkpt>
      <trkpt lat="49.04619" lon="7.58233">
        <ele>323</ele>
        <time>2025-05-10T11:30:27.000Z</time>
      </trkpt>
      <trkpt lat="49.04617" lon="7.58226">
        <ele>323</ele>
        <time>2025-05-10T11:30:31.000Z</time>
      </trkpt>
      <trkpt lat="49.04614" lon="7.58219">
        <ele>324</ele>
        <time>2025-05-10T11:30:35.000Z</time>
      </trkpt>
      <trkpt lat="49.0461" lon="7.58206">
        <ele>325</ele>
        <time>2025-05-10T11:30:43.000Z</time>
      </trkpt>
      <trkpt lat="49.04604" lon="7.58186">
        <ele>326</ele>
        <time>2025-05-10T11:30:57.000Z</time>
      </trkpt>
      <trkpt lat="49.04601" lon="7.5817">
        <ele>327</ele>
        <time>2025-05-10T11:31:05.000Z</time>
      </trkpt>
      <trkpt lat="49.04589" lon="7.58142">
        <ele>330</ele>
        <time>2025-05-10T11:31:24.000Z</time>
      </trkpt>
      <trkpt lat="49.04586" lon="7.58115">
        <ele>332</ele>
        <time>2025-05-10T11:31:39.000Z</time>
      </trkpt>
      <trkpt lat="49.04584" lon="7.58108">
        <ele>333</ele>
        <time>2025-05-10T11:31:43.000Z</time>
      </trkpt>
      <trkpt lat="49.0458" lon="7.58099">
        <ele>333</ele>
        <time>2025-05-10T11:31:51.000Z</time>
      </trkpt>
      <trkpt lat="49.04579" lon="7.58092">
        <ele>334</ele>
        <time>2025-05-10T11:31:55.000Z</time>
      </trkpt>
      <trkpt lat="49.04575" lon="7.58086">
        <ele>334</ele>
        <time>2025-05-10T11:31:59.000Z</time>
      </trkpt>
      <trkpt lat="49.04574" lon="7.58075">
        <ele>335</ele>
        <time>2025-05-10T11:32:05.000Z</time>
      </trkpt>
      <trkpt lat="49.0457" lon="7.5806">
        <ele>336</ele>
        <time>2025-05-10T11:32:13.000Z</time>
      </trkpt>
      <trkpt lat="49.04564" lon="7.58029">
        <ele>339</ele>
        <time>2025-05-10T11:32:37.000Z</time>
      </trkpt>
      <trkpt lat="49.04558" lon="7.58005">
        <ele>340</ele>
        <time>2025-05-10T11:32:53.000Z</time>
      </trkpt>
      <trkpt lat="49.04558" lon="7.57998">
        <ele>340</ele>
        <time>2025-05-10T11:32:57.000Z</time>
      </trkpt>
      <trkpt lat="49.0455" lon="7.57965">
        <ele>342</ele>
        <time>2025-05-10T11:33:17.000Z</time>
      </trkpt>
      <trkpt lat="49.0455" lon="7.57958">
        <ele>342</ele>
        <time>2025-05-10T11:33:21.000Z</time>
      </trkpt>
      <trkpt lat="49.04548" lon="7.5795">
        <ele>343</ele>
        <time>2025-05-10T11:33:25.000Z</time>
      </trkpt>
      <trkpt lat="49.04547" lon="7.57944">
        <ele>346</ele>
        <time>2025-05-10T11:33:28.000Z</time>
      </trkpt>
      <trkpt lat="49.04547" lon="7.57936">
        <ele>344</ele>
        <time>2025-05-10T11:33:32.000Z</time>
      </trkpt>
      <trkpt lat="49.04547" lon="7.5793">
        <ele>344</ele>
        <time>2025-05-10T11:33:35.000Z</time>
      </trkpt>
      <trkpt lat="49.04539" lon="7.57868">
        <ele>348</ele>
        <time>2025-05-10T11:34:12.000Z</time>
      </trkpt>
      <trkpt lat="49.04538" lon="7.57853">
        <ele>349</ele>
        <time>2025-05-10T11:34:21.000Z</time>
      </trkpt>
      <trkpt lat="49.04535" lon="7.57846">
        <ele>349</ele>
        <time>2025-05-10T11:34:24.000Z</time>
      </trkpt>
      <trkpt lat="49.04535" lon="7.57839">
        <ele>349</ele>
        <time>2025-05-10T11:34:29.000Z</time>
      </trkpt>
      <trkpt lat="49.04534" lon="7.5783">
        <ele>350</ele>
        <time>2025-05-10T11:34:36.000Z</time>
      </trkpt>
      <trkpt lat="49.04536" lon="7.57824">
        <ele>351</ele>
        <time>2025-05-10T11:34:49.000Z</time>
      </trkpt>
      <trkpt lat="49.04536" lon="7.57816">
        <ele>350</ele>
        <time>2025-05-10T11:34:59.000Z</time>
      </trkpt>
      <trkpt lat="49.04527" lon="7.57777">
        <ele>352</ele>
        <time>2025-05-10T11:35:25.000Z</time>
      </trkpt>
      <trkpt lat="49.04522" lon="7.57747">
        <ele>353</ele>
        <time>2025-05-10T11:35:41.000Z</time>
      </trkpt>
      <trkpt lat="49.04509" lon="7.5769">
        <ele>356</ele>
        <time>2025-05-10T11:36:15.000Z</time>
      </trkpt>
      <trkpt lat="49.04506" lon="7.57675">
        <ele>358</ele>
        <time>2025-05-10T11:36:24.000Z</time>
      </trkpt>
      <trkpt lat="49.04484" lon="7.57631">
        <ele>361</ele>
        <time>2025-05-10T11:36:56.000Z</time>
      </trkpt>
      <trkpt lat="49.04478" lon="7.57618">
        <ele>362</ele>
        <time>2025-05-10T11:37:06.000Z</time>
      </trkpt>
      <trkpt lat="49.04471" lon="7.57599">
        <ele>363</ele>
        <time>2025-05-10T11:37:19.000Z</time>
      </trkpt>
      <trkpt lat="49.04458" lon="7.57568">
        <ele>365</ele>
        <time>2025-05-10T11:37:40.000Z</time>
      </trkpt>
      <trkpt lat="49.04441" lon="7.57535">
        <ele>369</ele>
        <time>2025-05-10T11:38:06.000Z</time>
      </trkpt>
      <trkpt lat="49.04439" lon="7.5753">
        <ele>369</ele>
        <time>2025-05-10T11:38:09.000Z</time>
      </trkpt>
      <trkpt lat="49.04434" lon="7.57526">
        <ele>368</ele>
        <time>2025-05-10T11:38:13.000Z</time>
      </trkpt>
      <trkpt lat="49.04419" lon="7.57524">
        <ele>369</ele>
        <time>2025-05-10T11:38:25.000Z</time>
      </trkpt>
      <trkpt lat="49.04394" lon="7.57528">
        <ele>368</ele>
        <time>2025-05-10T11:38:44.000Z</time>
      </trkpt>
      <trkpt lat="49.0439" lon="7.57527">
        <ele>368</ele>
        <time>2025-05-10T11:38:48.000Z</time>
      </trkpt>
      <trkpt lat="49.0438" lon="7.57522">
        <ele>368</ele>
        <time>2025-05-10T11:38:56.000Z</time>
      </trkpt>
      <trkpt lat="49.04372" lon="7.57512">
        <ele>368</ele>
        <time>2025-05-10T11:39:03.000Z</time>
      </trkpt>
      <trkpt lat="49.04367" lon="7.575">
        <ele>368</ele>
        <time>2025-05-10T11:39:10.000Z</time>
      </trkpt>
      <trkpt lat="49.04363" lon="7.57495">
        <ele>367</ele>
        <time>2025-05-10T11:39:15.000Z</time>
      </trkpt>
      <trkpt lat="49.0436" lon="7.57487">
        <ele>368</ele>
        <time>2025-05-10T11:39:22.000Z</time>
      </trkpt>
      <trkpt lat="49.04352" lon="7.57477">
        <ele>368</ele>
        <time>2025-05-10T11:39:37.000Z</time>
      </trkpt>
      <trkpt lat="49.04347" lon="7.5745">
        <ele>366</ele>
        <time>2025-05-10T11:39:53.000Z</time>
      </trkpt>
      <trkpt lat="49.04348" lon="7.57442">
        <ele>365</ele>
        <time>2025-05-10T11:39:56.000Z</time>
      </trkpt>
      <trkpt lat="49.04347" lon="7.57434">
        <ele>368</ele>
        <time>2025-05-10T11:40:00.000Z</time>
      </trkpt>
      <trkpt lat="49.04348" lon="7.57428">
        <ele>366</ele>
        <time>2025-05-10T11:40:03.000Z</time>
      </trkpt>
      <trkpt lat="49.04352" lon="7.57414">
        <ele>365</ele>
        <time>2025-05-10T11:40:11.000Z</time>
      </trkpt>
      <trkpt lat="49.04354" lon="7.57408">
        <ele>364</ele>
        <time>2025-05-10T11:40:15.000Z</time>
      </trkpt>
      <trkpt lat="49.04357" lon="7.574">
        <ele>366</ele>
        <time>2025-05-10T11:40:19.000Z</time>
      </trkpt>
      <trkpt lat="49.04359" lon="7.57393">
        <ele>366</ele>
        <time>2025-05-10T11:40:22.000Z</time>
      </trkpt>
      <trkpt lat="49.04371" lon="7.5738">
        <ele>366</ele>
        <time>2025-05-10T11:40:34.000Z</time>
      </trkpt>
      <trkpt lat="49.04373" lon="7.57374">
        <ele>366</ele>
        <time>2025-05-10T11:40:38.000Z</time>
      </trkpt>
      <trkpt lat="49.04377" lon="7.57369">
        <ele>367</ele>
        <time>2025-05-10T11:40:42.000Z</time>
      </trkpt>
      <trkpt lat="49.0438" lon="7.57363">
        <ele>368</ele>
        <time>2025-05-10T11:40:46.000Z</time>
      </trkpt>
      <trkpt lat="49.04382" lon="7.57354">
        <ele>368</ele>
        <time>2025-05-10T11:40:52.000Z</time>
      </trkpt>
      <trkpt lat="49.0438" lon="7.5734">
        <ele>369</ele>
        <time>2025-05-10T11:41:01.000Z</time>
      </trkpt>
      <trkpt lat="49.04377" lon="7.57332">
        <ele>370</ele>
        <time>2025-05-10T11:41:05.000Z</time>
      </trkpt>
      <trkpt lat="49.04377" lon="7.57318">
        <ele>371</ele>
        <time>2025-05-10T11:41:13.000Z</time>
      </trkpt>
      <trkpt lat="49.04382" lon="7.57276">
        <ele>373</ele>
        <time>2025-05-10T11:41:37.000Z</time>
      </trkpt>
      <trkpt lat="49.04389" lon="7.57258">
        <ele>374</ele>
        <time>2025-05-10T11:41:50.000Z</time>
      </trkpt>
      <trkpt lat="49.0439" lon="7.57251">
        <ele>375</ele>
        <time>2025-05-10T11:41:53.000Z</time>
      </trkpt>
      <trkpt lat="49.04399" lon="7.57231">
        <ele>376</ele>
        <time>2025-05-10T11:42:07.000Z</time>
      </trkpt>
      <trkpt lat="49.04399" lon="7.57224">
        <ele>376</ele>
        <time>2025-05-10T11:42:10.000Z</time>
      </trkpt>
      <trkpt lat="49.0441" lon="7.57183">
        <ele>377</ele>
        <time>2025-05-10T11:42:33.000Z</time>
      </trkpt>
      <trkpt lat="49.04415" lon="7.57172">
        <ele>376</ele>
        <time>2025-05-10T11:42:41.000Z</time>
      </trkpt>
      <trkpt lat="49.04418" lon="7.5716">
        <ele>376</ele>
        <time>2025-05-10T11:42:49.000Z</time>
      </trkpt>
      <trkpt lat="49.0442" lon="7.57153">
        <ele>375</ele>
        <time>2025-05-10T11:42:53.000Z</time>
      </trkpt>
      <trkpt lat="49.04421" lon="7.57137">
        <ele>375</ele>
        <time>2025-05-10T11:43:02.000Z</time>
      </trkpt>
      <trkpt lat="49.04424" lon="7.5713">
        <ele>374</ele>
        <time>2025-05-10T11:43:06.000Z</time>
      </trkpt>
      <trkpt lat="49.04423" lon="7.57123">
        <ele>375</ele>
        <time>2025-05-10T11:43:10.000Z</time>
      </trkpt>
      <trkpt lat="49.04423" lon="7.57116">
        <ele>373</ele>
        <time>2025-05-10T11:43:14.000Z</time>
      </trkpt>
      <trkpt lat="49.04423" lon="7.57108">
        <ele>373</ele>
        <time>2025-05-10T11:43:18.000Z</time>
      </trkpt>
      <trkpt lat="49.04424" lon="7.57101">
        <ele>374</ele>
        <time>2025-05-10T11:43:22.000Z</time>
      </trkpt>
      <trkpt lat="49.04426" lon="7.57086">
        <ele>372</ele>
        <time>2025-05-10T11:43:31.000Z</time>
      </trkpt>
      <trkpt lat="49.04428" lon="7.57079">
        <ele>369</ele>
        <time>2025-05-10T11:43:35.000Z</time>
      </trkpt>
      <trkpt lat="49.04429" lon="7.57066">
        <ele>372</ele>
        <time>2025-05-10T11:43:42.000Z</time>
      </trkpt>
      <trkpt lat="49.04428" lon="7.57058">
        <ele>371</ele>
        <time>2025-05-10T11:43:46.000Z</time>
      </trkpt>
      <trkpt lat="49.04425" lon="7.57051">
        <ele>370</ele>
        <time>2025-05-10T11:43:50.000Z</time>
      </trkpt>
      <trkpt lat="49.04421" lon="7.57047">
        <ele>370</ele>
        <time>2025-05-10T11:43:54.000Z</time>
      </trkpt>
      <trkpt lat="49.04401" lon="7.57039">
        <ele>369</ele>
        <time>2025-05-10T11:44:10.000Z</time>
      </trkpt>
      <trkpt lat="49.04396" lon="7.57039">
        <ele>369</ele>
        <time>2025-05-10T11:44:13.000Z</time>
      </trkpt>
      <trkpt lat="49.04379" lon="7.57023">
        <ele>368</ele>
        <time>2025-05-10T11:44:29.000Z</time>
      </trkpt>
      <trkpt lat="49.04372" lon="7.5702">
        <ele>367</ele>
        <time>2025-05-10T11:44:34.000Z</time>
      </trkpt>
      <trkpt lat="49.04367" lon="7.57013">
        <ele>368</ele>
        <time>2025-05-10T11:44:39.000Z</time>
      </trkpt>
      <trkpt lat="49.04363" lon="7.57008">
        <ele>367</ele>
        <time>2025-05-10T11:44:42.000Z</time>
      </trkpt>
      <trkpt lat="49.04351" lon="7.57002">
        <ele>366</ele>
        <time>2025-05-10T11:44:53.000Z</time>
      </trkpt>
      <trkpt lat="49.04334" lon="7.57005">
        <ele>365</ele>
        <time>2025-05-10T11:45:09.000Z</time>
      </trkpt>
      <trkpt lat="49.0433" lon="7.5701">
        <ele>365</ele>
        <time>2025-05-10T11:45:12.000Z</time>
      </trkpt>
      <trkpt lat="49.04325" lon="7.57008">
        <ele>364</ele>
        <time>2025-05-10T11:45:16.000Z</time>
      </trkpt>
      <trkpt lat="49.04305" lon="7.57007">
        <ele>363</ele>
        <time>2025-05-10T11:45:31.000Z</time>
      </trkpt>
      <trkpt lat="49.043" lon="7.57005">
        <ele>363</ele>
        <time>2025-05-10T11:45:35.000Z</time>
      </trkpt>
      <trkpt lat="49.04291" lon="7.56999">
        <ele>362</ele>
        <time>2025-05-10T11:45:43.000Z</time>
      </trkpt>
      <trkpt lat="49.04283" lon="7.56994">
        <ele>361</ele>
        <time>2025-05-10T11:45:49.000Z</time>
      </trkpt>
      <trkpt lat="49.04279" lon="7.56992">
        <ele>361</ele>
        <time>2025-05-10T11:45:54.000Z</time>
      </trkpt>
      <trkpt lat="49.0427" lon="7.56986">
        <ele>360</ele>
        <time>2025-05-10T11:46:01.000Z</time>
      </trkpt>
      <trkpt lat="49.04266" lon="7.56982">
        <ele>360</ele>
        <time>2025-05-10T11:46:04.000Z</time>
      </trkpt>
      <trkpt lat="49.04259" lon="7.56978">
        <ele>360</ele>
        <time>2025-05-10T11:46:12.000Z</time>
      </trkpt>
      <trkpt lat="49.04247" lon="7.56966">
        <ele>360</ele>
        <time>2025-05-10T11:46:22.000Z</time>
      </trkpt>
      <trkpt lat="49.04228" lon="7.56935">
        <ele>359</ele>
        <time>2025-05-10T11:46:45.000Z</time>
      </trkpt>
      <trkpt lat="49.04223" lon="7.56931">
        <ele>358</ele>
        <time>2025-05-10T11:46:49.000Z</time>
      </trkpt>
      <trkpt lat="49.04213" lon="7.56913">
        <ele>357</ele>
        <time>2025-05-10T11:47:02.000Z</time>
      </trkpt>
      <trkpt lat="49.04208" lon="7.56909">
        <ele>357</ele>
        <time>2025-05-10T11:47:05.000Z</time>
      </trkpt>
      <trkpt lat="49.04203" lon="7.56907">
        <ele>357</ele>
        <time>2025-05-10T11:47:08.000Z</time>
      </trkpt>
      <trkpt lat="49.04197" lon="7.56889">
        <ele>357</ele>
        <time>2025-05-10T11:47:19.000Z</time>
      </trkpt>
      <trkpt lat="49.0418" lon="7.56864">
        <ele>356</ele>
        <time>2025-05-10T11:47:38.000Z</time>
      </trkpt>
      <trkpt lat="49.04178" lon="7.56857">
        <ele>355</ele>
        <time>2025-05-10T11:47:43.000Z</time>
      </trkpt>
      <trkpt lat="49.04151" lon="7.5681">
        <ele>354</ele>
        <time>2025-05-10T11:48:14.000Z</time>
      </trkpt>
      <trkpt lat="49.04148" lon="7.56803">
        <ele>354</ele>
        <time>2025-05-10T11:48:18.000Z</time>
      </trkpt>
      <trkpt lat="49.04145" lon="7.56781">
        <ele>353</ele>
        <time>2025-05-10T11:48:29.000Z</time>
      </trkpt>
      <trkpt lat="49.04141" lon="7.56769">
        <ele>353</ele>
        <time>2025-05-10T11:48:37.000Z</time>
      </trkpt>
      <trkpt lat="49.04139" lon="7.56761">
        <ele>351</ele>
        <time>2025-05-10T11:48:41.000Z</time>
      </trkpt>
      <trkpt lat="49.04138" lon="7.56755">
        <ele>352</ele>
        <time>2025-05-10T11:48:44.000Z</time>
      </trkpt>
      <trkpt lat="49.04134" lon="7.56741">
        <ele>351</ele>
        <time>2025-05-10T11:48:54.000Z</time>
      </trkpt>
      <trkpt lat="49.04131" lon="7.56736">
        <ele>351</ele>
        <time>2025-05-10T11:48:58.000Z</time>
      </trkpt>
      <trkpt lat="49.04126" lon="7.56722">
        <ele>351</ele>
        <time>2025-05-10T11:49:07.000Z</time>
      </trkpt>
      <trkpt lat="49.04119" lon="7.56711">
        <ele>350</ele>
        <time>2025-05-10T11:49:14.000Z</time>
      </trkpt>
      <trkpt lat="49.04104" lon="7.56665">
        <ele>349</ele>
        <time>2025-05-10T11:49:44.000Z</time>
      </trkpt>
      <trkpt lat="49.04097" lon="7.56646">
        <ele>349</ele>
        <time>2025-05-10T11:49:56.000Z</time>
      </trkpt>
      <trkpt lat="49.04095" lon="7.56639">
        <ele>348</ele>
        <time>2025-05-10T11:50:00.000Z</time>
      </trkpt>
      <trkpt lat="49.0409" lon="7.56626">
        <ele>348</ele>
        <time>2025-05-10T11:50:08.000Z</time>
      </trkpt>
      <trkpt lat="49.04088" lon="7.56619">
        <ele>348</ele>
        <time>2025-05-10T11:50:12.000Z</time>
      </trkpt>
      <trkpt lat="49.04071" lon="7.56571">
        <ele>346</ele>
        <time>2025-05-10T11:50:43.000Z</time>
      </trkpt>
      <trkpt lat="49.04065" lon="7.56552">
        <ele>346</ele>
        <time>2025-05-10T11:50:56.000Z</time>
      </trkpt>
      <trkpt lat="49.04053" lon="7.56494">
        <ele>338</ele>
        <time>2025-05-10T11:51:38.000Z</time>
      </trkpt>
      <trkpt lat="49.04046" lon="7.5647">
        <ele>339</ele>
        <time>2025-05-10T11:51:46.000Z</time>
      </trkpt>
      <trkpt lat="49.04042" lon="7.56454">
        <ele>337</ele>
        <time>2025-05-10T11:51:55.000Z</time>
      </trkpt>
      <trkpt lat="49.04018" lon="7.56403">
        <ele>330</ele>
        <time>2025-05-10T11:52:30.000Z</time>
      </trkpt>
      <trkpt lat="49.03987" lon="7.56341">
        <ele>323</ele>
        <time>2025-05-10T11:53:11.000Z</time>
      </trkpt>
      <trkpt lat="49.03962" lon="7.56288">
        <ele>317</ele>
        <time>2025-05-10T11:53:45.000Z</time>
      </trkpt>
      <trkpt lat="49.03934" lon="7.56227">
        <ele>310</ele>
        <time>2025-05-10T11:54:25.000Z</time>
      </trkpt>
      <trkpt lat="49.03904" lon="7.56171">
        <ele>304</ele>
        <time>2025-05-10T11:55:02.000Z</time>
      </trkpt>
      <trkpt lat="49.03878" lon="7.56166">
        <ele>299</ele>
        <time>2025-05-10T11:55:32.000Z</time>
      </trkpt>
      <trkpt lat="49.03833" lon="7.5611">
        <ele>291</ele>
        <time>2025-05-10T11:56:28.000Z</time>
      </trkpt>
      <trkpt lat="49.038" lon="7.56079">
        <ele>288</ele>
        <time>2025-05-10T11:56:46.000Z</time>
      </trkpt>
      <trkpt lat="49.03765" lon="7.56039">
        <ele>280</ele>
        <time>2025-05-10T11:57:35.000Z</time>
      </trkpt>
      <trkpt lat="49.03752" lon="7.56039">
        <ele>279</ele>
        <time>2025-05-10T11:57:37.000Z</time>
      </trkpt>
      <trkpt lat="49.03753" lon="7.5603">
        <ele>279</ele>
        <time>2025-05-10T11:57:39.000Z</time>
      </trkpt>
      <trkpt lat="49.03747" lon="7.56031">
        <ele>280</ele>
        <time>2025-05-10T11:57:43.000Z</time>
      </trkpt>
      <trkpt lat="49.03743" lon="7.56033">
        <ele>278</ele>
        <time>2025-05-10T11:57:48.000Z</time>
      </trkpt>
      <trkpt lat="49.03738" lon="7.56032">
        <ele>277</ele>
        <time>2025-05-10T11:57:51.000Z</time>
      </trkpt>
      <trkpt lat="49.03734" lon="7.56028">
        <ele>276</ele>
        <time>2025-05-10T11:57:55.000Z</time>
      </trkpt>
      <trkpt lat="49.03731" lon="7.56023">
        <ele>276</ele>
        <time>2025-05-10T11:57:58.000Z</time>
      </trkpt>
      <trkpt lat="49.03717" lon="7.56024">
        <ele>274</ele>
        <time>2025-05-10T11:58:12.000Z</time>
      </trkpt>
      <trkpt lat="49.03713" lon="7.56021">
        <ele>272</ele>
        <time>2025-05-10T11:58:17.000Z</time>
      </trkpt>
      <trkpt lat="49.03708" lon="7.5602">
        <ele>273</ele>
        <time>2025-05-10T11:58:21.000Z</time>
      </trkpt>
      <trkpt lat="49.03703" lon="7.56019">
        <ele>272</ele>
        <time>2025-05-10T11:58:25.000Z</time>
      </trkpt>
      <trkpt lat="49.03702" lon="7.56007">
        <ele>272</ele>
        <time>2025-05-10T11:58:54.000Z</time>
      </trkpt>
      <trkpt lat="49.03698" lon="7.56017">
        <ele>272</ele>
        <time>2025-05-10T11:58:58.000Z</time>
      </trkpt>
      <trkpt lat="49.03693" lon="7.56018">
        <ele>272</ele>
        <time>2025-05-10T11:59:02.000Z</time>
      </trkpt>
      <trkpt lat="49.03689" lon="7.5602">
        <ele>271</ele>
        <time>2025-05-10T11:59:07.000Z</time>
      </trkpt>
      <trkpt lat="49.03684" lon="7.56019">
        <ele>270</ele>
        <time>2025-05-10T11:59:11.000Z</time>
      </trkpt>
      <trkpt lat="49.03673" lon="7.56012">
        <ele>268</ele>
        <time>2025-05-10T11:59:22.000Z</time>
      </trkpt>
      <trkpt lat="49.03658" lon="7.55992">
        <ele>267</ele>
        <time>2025-05-10T11:59:39.000Z</time>
      </trkpt>
      <trkpt lat="49.03653" lon="7.5598">
        <ele>268</ele>
        <time>2025-05-10T11:59:47.000Z</time>
      </trkpt>
      <trkpt lat="49.0365" lon="7.55976">
        <ele>266</ele>
        <time>2025-05-10T11:59:51.000Z</time>
      </trkpt>
      <trkpt lat="49.03643" lon="7.55969">
        <ele>267</ele>
        <time>2025-05-10T12:00:15.000Z</time>
      </trkpt>
      <trkpt lat="49.03641" lon="7.55963">
        <ele>267</ele>
        <time>2025-05-10T12:00:18.000Z</time>
      </trkpt>
      <trkpt lat="49.03637" lon="7.55954">
        <ele>267</ele>
        <time>2025-05-10T12:00:32.000Z</time>
      </trkpt>
      <trkpt lat="49.03633" lon="7.55949">
        <ele>267</ele>
        <time>2025-05-10T12:00:42.000Z</time>
      </trkpt>
      <trkpt lat="49.03638" lon="7.55947">
        <ele>266</ele>
        <time>2025-05-10T12:00:54.000Z</time>
      </trkpt>
      <trkpt lat="49.03642" lon="7.55941">
        <ele>264</ele>
        <time>2025-05-10T12:00:59.000Z</time>
      </trkpt>
      <trkpt lat="49.03639" lon="7.55933">
        <ele>263</ele>
        <time>2025-05-10T12:01:06.000Z</time>
      </trkpt>
      <trkpt lat="49.03613" lon="7.5589">
        <ele>261</ele>
        <time>2025-05-10T12:01:39.000Z</time>
      </trkpt>
      <trkpt lat="49.03609" lon="7.55887">
        <ele>261</ele>
        <time>2025-05-10T12:01:42.000Z</time>
      </trkpt>
      <trkpt lat="49.03604" lon="7.55882">
        <ele>261</ele>
        <time>2025-05-10T12:01:49.000Z</time>
      </trkpt>
      <trkpt lat="49.03595" lon="7.55874">
        <ele>261</ele>
        <time>2025-05-10T12:01:57.000Z</time>
      </trkpt>
      <trkpt lat="49.03591" lon="7.55871">
        <ele>260</ele>
        <time>2025-05-10T12:02:01.000Z</time>
      </trkpt>
      <trkpt lat="49.03586" lon="7.55867">
        <ele>259</ele>
        <time>2025-05-10T12:02:05.000Z</time>
      </trkpt>
      <trkpt lat="49.03581" lon="7.55865">
        <ele>261</ele>
        <time>2025-05-10T12:02:09.000Z</time>
      </trkpt>
      <trkpt lat="49.03575" lon="7.55865">
        <ele>259</ele>
        <time>2025-05-10T12:02:15.000Z</time>
      </trkpt>
      <trkpt lat="49.0357" lon="7.55866">
        <ele>259</ele>
        <time>2025-05-10T12:02:18.000Z</time>
      </trkpt>
      <trkpt lat="49.03561" lon="7.55865">
        <ele>258</ele>
        <time>2025-05-10T12:02:26.000Z</time>
      </trkpt>
      <trkpt lat="49.03554" lon="7.55865">
        <ele>258</ele>
        <time>2025-05-10T12:02:29.000Z</time>
      </trkpt>
      <trkpt lat="49.03547" lon="7.55864">
        <ele>257</ele>
        <time>2025-05-10T12:02:35.000Z</time>
      </trkpt>
      <trkpt lat="49.03543" lon="7.55865">
        <ele>257</ele>
        <time>2025-05-10T12:02:38.000Z</time>
      </trkpt>
      <trkpt lat="49.03534" lon="7.55875">
        <ele>254</ele>
        <time>2025-05-10T12:02:49.000Z</time>
      </trkpt>
      <trkpt lat="49.03526" lon="7.5588">
        <ele>253</ele>
        <time>2025-05-10T12:02:57.000Z</time>
      </trkpt>
      <trkpt lat="49.03524" lon="7.55875">
        <ele>253</ele>
        <time>2025-05-10T12:03:20.000Z</time>
      </trkpt>
      <trkpt lat="49.03519" lon="7.55872">
        <ele>253</ele>
        <time>2025-05-10T12:03:25.000Z</time>
      </trkpt>
      <trkpt lat="49.03512" lon="7.5587">
        <ele>253</ele>
        <time>2025-05-10T12:03:46.000Z</time>
      </trkpt>
      <trkpt lat="49.03507" lon="7.55862">
        <ele>251</ele>
        <time>2025-05-10T12:03:54.000Z</time>
      </trkpt>
      <trkpt lat="49.03502" lon="7.55858">
        <ele>254</ele>
        <time>2025-05-10T12:03:57.000Z</time>
      </trkpt>
      <trkpt lat="49.03498" lon="7.55856">
        <ele>253</ele>
        <time>2025-05-10T12:04:00.000Z</time>
      </trkpt>
      <trkpt lat="49.03489" lon="7.5585">
        <ele>253</ele>
        <time>2025-05-10T12:04:07.000Z</time>
      </trkpt>
      <trkpt lat="49.03483" lon="7.55838">
        <ele>253</ele>
        <time>2025-05-10T12:04:15.000Z</time>
      </trkpt>
      <trkpt lat="49.0348" lon="7.55833">
        <ele>252</ele>
        <time>2025-05-10T12:04:18.000Z</time>
      </trkpt>
      <trkpt lat="49.03477" lon="7.55826">
        <ele>253</ele>
        <time>2025-05-10T12:04:22.000Z</time>
      </trkpt>
      <trkpt lat="49.03482" lon="7.55822">
        <ele>254</ele>
        <time>2025-05-10T12:04:35.000Z</time>
      </trkpt>
      <trkpt lat="49.03476" lon="7.55816">
        <ele>252</ele>
        <time>2025-05-10T12:04:43.000Z</time>
      </trkpt>
      <trkpt lat="49.03473" lon="7.55812">
        <ele>252</ele>
        <time>2025-05-10T12:04:47.000Z</time>
      </trkpt>
      <trkpt lat="49.03469" lon="7.55809">
        <ele>253</ele>
        <time>2025-05-10T12:04:52.000Z</time>
      </trkpt>
      <trkpt lat="49.03464" lon="7.55803">
        <ele>253</ele>
        <time>2025-05-10T12:05:00.000Z</time>
      </trkpt>
      <trkpt lat="49.03466" lon="7.55794">
        <ele>252</ele>
        <time>2025-05-10T12:05:15.000Z</time>
      </trkpt>
      <trkpt lat="49.03461" lon="7.55798">
        <ele>252</ele>
        <time>2025-05-10T12:05:22.000Z</time>
      </trkpt>
      <trkpt lat="49.03456" lon="7.55795">
        <ele>253</ele>
        <time>2025-05-10T12:05:27.000Z</time>
      </trkpt>
      <trkpt lat="49.03452" lon="7.55793">
        <ele>253</ele>
        <time>2025-05-10T12:05:30.000Z</time>
      </trkpt>
      <trkpt lat="49.03448" lon="7.55792">
        <ele>253</ele>
        <time>2025-05-10T12:05:33.000Z</time>
      </trkpt>
      <trkpt lat="49.03435" lon="7.55784">
        <ele>252</ele>
        <time>2025-05-10T12:05:43.000Z</time>
      </trkpt>
      <trkpt lat="49.0344" lon="7.55779">
        <ele>252</ele>
        <time>2025-05-10T12:05:50.000Z</time>
      </trkpt>
      <trkpt lat="49.03464" lon="7.55797">
        <ele>252</ele>
        <time>2025-05-10T12:06:07.000Z</time>
      </trkpt>
      <trkpt lat="49.03468" lon="7.55803">
        <ele>252</ele>
        <time>2025-05-10T12:06:11.000Z</time>
      </trkpt>
      <trkpt lat="49.03472" lon="7.55805">
        <ele>252</ele>
        <time>2025-05-10T12:06:15.000Z</time>
      </trkpt>
      <trkpt lat="49.0348" lon="7.55817">
        <ele>252</ele>
        <time>2025-05-10T12:06:24.000Z</time>
      </trkpt>
      <trkpt lat="49.0348" lon="7.55821">
        <ele>252</ele>
        <time>2025-05-10T12:06:37.000Z</time>
      </trkpt>
      <trkpt lat="49.03475" lon="7.55818">
        <ele>252</ele>
        <time>2025-05-10T12:06:39.000Z</time>
      </trkpt>
      <trkpt lat="49.03471" lon="7.55814">
        <ele>252</ele>
        <time>2025-05-10T12:06:42.000Z</time>
      </trkpt>
      <trkpt lat="49.03462" lon="7.5581">
        <ele>252</ele>
        <time>2025-05-10T12:06:48.000Z</time>
      </trkpt>
      <trkpt lat="49.0346" lon="7.55803">
        <ele>252</ele>
        <time>2025-05-10T12:06:51.000Z</time>
      </trkpt>
      <trkpt lat="49.03459" lon="7.55785">
        <ele>251</ele>
        <time>2025-05-10T12:52:53.000Z</time>
      </trkpt>
      <trkpt lat="49.0346" lon="7.55785">
        <ele>251</ele>
        <time>2025-05-10T12:52:54.000Z</time>
      </trkpt>
      <trkpt lat="49.03461" lon="7.55794">
        <ele>251</ele>
        <time>2025-05-10T12:52:57.000Z</time>
      </trkpt>
      <trkpt lat="49.03457" lon="7.55795">
        <ele>250</ele>
        <time>2025-05-10T12:53:03.000Z</time>
      </trkpt>
      <trkpt lat="49.03455" lon="7.55792">
        <ele>250</ele>
        <time>2025-05-10T12:53:06.000Z</time>
      </trkpt>
      <trkpt lat="49.03452" lon="7.55789">
        <ele>251</ele>
        <time>2025-05-10T12:53:09.000Z</time>
      </trkpt>
      <trkpt lat="49.03443" lon="7.55782">
        <ele>250</ele>
        <time>2025-05-10T12:53:21.000Z</time>
      </trkpt>
      <trkpt lat="49.03437" lon="7.55782">
        <ele>250</ele>
        <time>2025-05-10T12:53:24.000Z</time>
      </trkpt>
      <trkpt lat="49.03434" lon="7.55772">
        <ele>250</ele>
        <time>2025-05-10T12:53:30.000Z</time>
      </trkpt>
      <trkpt lat="49.03434" lon="7.55766">
        <ele>250</ele>
        <time>2025-05-10T12:53:33.000Z</time>
      </trkpt>
      <trkpt lat="49.03431" lon="7.5576">
        <ele>250</ele>
        <time>2025-05-10T12:53:37.000Z</time>
      </trkpt>
      <trkpt lat="49.03433" lon="7.55752">
        <ele>250</ele>
        <time>2025-05-10T12:53:40.000Z</time>
      </trkpt>
      <trkpt lat="49.03434" lon="7.55746">
        <ele>250</ele>
        <time>2025-05-10T12:53:44.000Z</time>
      </trkpt>
      <trkpt lat="49.03438" lon="7.5574">
        <ele>250</ele>
        <time>2025-05-10T12:53:48.000Z</time>
      </trkpt>
      <trkpt lat="49.03446" lon="7.55731">
        <ele>250</ele>
        <time>2025-05-10T12:53:55.000Z</time>
      </trkpt>
      <trkpt lat="49.03448" lon="7.55725">
        <ele>250</ele>
        <time>2025-05-10T12:53:59.000Z</time>
      </trkpt>
      <trkpt lat="49.03467" lon="7.55682">
        <ele>251</ele>
        <time>2025-05-10T12:54:35.000Z</time>
      </trkpt>
      <trkpt lat="49.03473" lon="7.55663">
        <ele>252</ele>
        <time>2025-05-10T12:54:48.000Z</time>
      </trkpt>
      <trkpt lat="49.03489" lon="7.55613">
        <ele>252</ele>
        <time>2025-05-10T12:55:22.000Z</time>
      </trkpt>
      <trkpt lat="49.03491" lon="7.55607">
        <ele>252</ele>
        <time>2025-05-10T12:55:26.000Z</time>
      </trkpt>
      <trkpt lat="49.03494" lon="7.556">
        <ele>253</ele>
        <time>2025-05-10T12:55:32.000Z</time>
      </trkpt>
      <trkpt lat="49.03497" lon="7.55594">
        <ele>253</ele>
        <time>2025-05-10T12:55:36.000Z</time>
      </trkpt>
      <trkpt lat="49.035" lon="7.55587">
        <ele>253</ele>
        <time>2025-05-10T12:55:40.000Z</time>
      </trkpt>
      <trkpt lat="49.03505" lon="7.55552">
        <ele>253</ele>
        <time>2025-05-10T12:55:58.000Z</time>
      </trkpt>
      <trkpt lat="49.03511" lon="7.55548">
        <ele>254</ele>
        <time>2025-05-10T12:56:04.000Z</time>
      </trkpt>
      <trkpt lat="49.03512" lon="7.55538">
        <ele>254</ele>
        <time>2025-05-10T12:56:07.000Z</time>
      </trkpt>
      <trkpt lat="49.03518" lon="7.55533">
        <ele>254</ele>
        <time>2025-05-10T12:56:15.000Z</time>
      </trkpt>
      <trkpt lat="49.03518" lon="7.55521">
        <ele>255</ele>
        <time>2025-05-10T12:56:23.000Z</time>
      </trkpt>
      <trkpt lat="49.0351" lon="7.55513">
        <ele>254</ele>
        <time>2025-05-10T12:56:31.000Z</time>
      </trkpt>
      <trkpt lat="49.03512" lon="7.55507">
        <ele>254</ele>
        <time>2025-05-10T12:56:36.000Z</time>
      </trkpt>
      <trkpt lat="49.03497" lon="7.5549">
        <ele>255</ele>
        <time>2025-05-10T12:56:49.000Z</time>
      </trkpt>
      <trkpt lat="49.03496" lon="7.55479">
        <ele>256</ele>
        <time>2025-05-10T12:56:57.000Z</time>
      </trkpt>
      <trkpt lat="49.03488" lon="7.55444">
        <ele>258</ele>
        <time>2025-05-10T12:57:24.000Z</time>
      </trkpt>
      <trkpt lat="49.03485" lon="7.55438">
        <ele>258</ele>
        <time>2025-05-10T12:57:28.000Z</time>
      </trkpt>
      <trkpt lat="49.03476" lon="7.55412">
        <ele>260</ele>
        <time>2025-05-10T12:57:45.000Z</time>
      </trkpt>
      <trkpt lat="49.03473" lon="7.55405">
        <ele>260</ele>
        <time>2025-05-10T12:57:50.000Z</time>
      </trkpt>
      <trkpt lat="49.03469" lon="7.55397">
        <ele>261</ele>
        <time>2025-05-10T12:57:55.000Z</time>
      </trkpt>
      <trkpt lat="49.03465" lon="7.55393">
        <ele>261</ele>
        <time>2025-05-10T12:58:00.000Z</time>
      </trkpt>
      <trkpt lat="49.03465" lon="7.55384">
        <ele>261</ele>
        <time>2025-05-10T12:58:04.000Z</time>
      </trkpt>
      <trkpt lat="49.03461" lon="7.55377">
        <ele>262</ele>
        <time>2025-05-10T12:58:10.000Z</time>
      </trkpt>
      <trkpt lat="49.03457" lon="7.55373">
        <ele>262</ele>
        <time>2025-05-10T12:58:15.000Z</time>
      </trkpt>
      <trkpt lat="49.03454" lon="7.55366">
        <ele>263</ele>
        <time>2025-05-10T12:58:20.000Z</time>
      </trkpt>
      <trkpt lat="49.03451" lon="7.55361">
        <ele>263</ele>
        <time>2025-05-10T12:58:24.000Z</time>
      </trkpt>
      <trkpt lat="49.03448" lon="7.55354">
        <ele>263</ele>
        <time>2025-05-10T12:58:29.000Z</time>
      </trkpt>
      <trkpt lat="49.03432" lon="7.55331">
        <ele>265</ele>
        <time>2025-05-10T12:58:52.000Z</time>
      </trkpt>
      <trkpt lat="49.03429" lon="7.55323">
        <ele>266</ele>
        <time>2025-05-10T12:58:57.000Z</time>
      </trkpt>
      <trkpt lat="49.03424" lon="7.55309">
        <ele>267</ele>
        <time>2025-05-10T12:59:05.000Z</time>
      </trkpt>
      <trkpt lat="49.03413" lon="7.55304">
        <ele>268</ele>
        <time>2025-05-10T12:59:14.000Z</time>
      </trkpt>
      <trkpt lat="49.03408" lon="7.55303">
        <ele>268</ele>
        <time>2025-05-10T12:59:17.000Z</time>
      </trkpt>
      <trkpt lat="49.03384" lon="7.55291">
        <ele>270</ele>
        <time>2025-05-10T12:59:37.000Z</time>
      </trkpt>
      <trkpt lat="49.03381" lon="7.55285">
        <ele>270</ele>
        <time>2025-05-10T12:59:45.000Z</time>
      </trkpt>
      <trkpt lat="49.03375" lon="7.55281">
        <ele>271</ele>
        <time>2025-05-10T12:59:48.000Z</time>
      </trkpt>
      <trkpt lat="49.0337" lon="7.55281">
        <ele>271</ele>
        <time>2025-05-10T12:59:54.000Z</time>
      </trkpt>
      <trkpt lat="49.03365" lon="7.55276">
        <ele>271</ele>
        <time>2025-05-10T12:59:58.000Z</time>
      </trkpt>
      <trkpt lat="49.0336" lon="7.55276">
        <ele>271</ele>
        <time>2025-05-10T13:00:02.000Z</time>
      </trkpt>
      <trkpt lat="49.03356" lon="7.5527">
        <ele>272</ele>
        <time>2025-05-10T13:00:06.000Z</time>
      </trkpt>
      <trkpt lat="49.03348" lon="7.55263">
        <ele>272</ele>
        <time>2025-05-10T13:00:12.000Z</time>
      </trkpt>
      <trkpt lat="49.03344" lon="7.5526">
        <ele>273</ele>
        <time>2025-05-10T13:00:18.000Z</time>
      </trkpt>
      <trkpt lat="49.03339" lon="7.55257">
        <ele>273</ele>
        <time>2025-05-10T13:00:23.000Z</time>
      </trkpt>
      <trkpt lat="49.03336" lon="7.55252">
        <ele>274</ele>
        <time>2025-05-10T13:00:26.000Z</time>
      </trkpt>
      <trkpt lat="49.03328" lon="7.55244">
        <ele>275</ele>
        <time>2025-05-10T13:00:33.000Z</time>
      </trkpt>
      <trkpt lat="49.03319" lon="7.55224">
        <ele>276</ele>
        <time>2025-05-10T13:00:45.000Z</time>
      </trkpt>
      <trkpt lat="49.03316" lon="7.5522">
        <ele>276</ele>
        <time>2025-05-10T13:00:47.000Z</time>
      </trkpt>
      <trkpt lat="49.03309" lon="7.55208">
        <ele>277</ele>
        <time>2025-05-10T13:00:56.000Z</time>
      </trkpt>
      <trkpt lat="49.03305" lon="7.55202">
        <ele>277</ele>
        <time>2025-05-10T13:00:59.000Z</time>
      </trkpt>
      <trkpt lat="49.03305" lon="7.55195">
        <ele>278</ele>
        <time>2025-05-10T13:01:03.000Z</time>
      </trkpt>
      <trkpt lat="49.03297" lon="7.55185">
        <ele>279</ele>
        <time>2025-05-10T13:01:11.000Z</time>
      </trkpt>
      <trkpt lat="49.03292" lon="7.55183">
        <ele>279</ele>
        <time>2025-05-10T13:01:14.000Z</time>
      </trkpt>
      <trkpt lat="49.03292" lon="7.55175">
        <ele>280</ele>
        <time>2025-05-10T13:01:20.000Z</time>
      </trkpt>
      <trkpt lat="49.03285" lon="7.55158">
        <ele>281</ele>
        <time>2025-05-10T13:01:33.000Z</time>
      </trkpt>
      <trkpt lat="49.03275" lon="7.55148">
        <ele>282</ele>
        <time>2025-05-10T13:01:48.000Z</time>
      </trkpt>
      <trkpt lat="49.0327" lon="7.55148">
        <ele>283</ele>
        <time>2025-05-10T13:01:52.000Z</time>
      </trkpt>
      <trkpt lat="49.03263" lon="7.55131">
        <ele>283</ele>
        <time>2025-05-10T13:02:02.000Z</time>
      </trkpt>
      <trkpt lat="49.03257" lon="7.55129">
        <ele>284</ele>
        <time>2025-05-10T13:02:08.000Z</time>
      </trkpt>
      <trkpt lat="49.03249" lon="7.55116">
        <ele>285</ele>
        <time>2025-05-10T13:02:17.000Z</time>
      </trkpt>
      <trkpt lat="49.03243" lon="7.551">
        <ele>286</ele>
        <time>2025-05-10T13:02:24.000Z</time>
      </trkpt>
      <trkpt lat="49.03239" lon="7.55095">
        <ele>286</ele>
        <time>2025-05-10T13:02:28.000Z</time>
      </trkpt>
      <trkpt lat="49.03236" lon="7.55088">
        <ele>287</ele>
        <time>2025-05-10T13:02:35.000Z</time>
      </trkpt>
      <trkpt lat="49.03237" lon="7.55081">
        <ele>288</ele>
        <time>2025-05-10T13:02:40.000Z</time>
      </trkpt>
      <trkpt lat="49.03231" lon="7.55077">
        <ele>288</ele>
        <time>2025-05-10T13:02:45.000Z</time>
      </trkpt>
      <trkpt lat="49.03218" lon="7.55058">
        <ele>290</ele>
        <time>2025-05-10T13:03:00.000Z</time>
      </trkpt>
      <trkpt lat="49.0321" lon="7.55049">
        <ele>291</ele>
        <time>2025-05-10T13:03:09.000Z</time>
      </trkpt>
      <trkpt lat="49.03206" lon="7.55044">
        <ele>291</ele>
        <time>2025-05-10T13:03:14.000Z</time>
      </trkpt>
      <trkpt lat="49.03199" lon="7.5503">
        <ele>292</ele>
        <time>2025-05-10T13:03:24.000Z</time>
      </trkpt>
      <trkpt lat="49.03195" lon="7.55025">
        <ele>293</ele>
        <time>2025-05-10T13:03:31.000Z</time>
      </trkpt>
      <trkpt lat="49.03189" lon="7.55022">
        <ele>293</ele>
        <time>2025-05-10T13:03:37.000Z</time>
      </trkpt>
      <trkpt lat="49.03183" lon="7.55017">
        <ele>294</ele>
        <time>2025-05-10T13:03:41.000Z</time>
      </trkpt>
      <trkpt lat="49.0318" lon="7.5501">
        <ele>294</ele>
        <time>2025-05-10T13:03:45.000Z</time>
      </trkpt>
      <trkpt lat="49.03179" lon="7.55002">
        <ele>294</ele>
        <time>2025-05-10T13:03:49.000Z</time>
      </trkpt>
      <trkpt lat="49.03172" lon="7.54995">
        <ele>296</ele>
        <time>2025-05-10T13:04:05.000Z</time>
      </trkpt>
      <trkpt lat="49.03165" lon="7.54979">
        <ele>297</ele>
        <time>2025-05-10T13:04:15.000Z</time>
      </trkpt>
      <trkpt lat="49.03129" lon="7.54946">
        <ele>301</ele>
        <time>2025-05-10T13:04:46.000Z</time>
      </trkpt>
      <trkpt lat="49.03123" lon="7.5494">
        <ele>302</ele>
        <time>2025-05-10T13:04:54.000Z</time>
      </trkpt>
      <trkpt lat="49.03119" lon="7.54937">
        <ele>302</ele>
        <time>2025-05-10T13:04:57.000Z</time>
      </trkpt>
      <trkpt lat="49.03114" lon="7.54922">
        <ele>303</ele>
        <time>2025-05-10T13:05:08.000Z</time>
      </trkpt>
      <trkpt lat="49.03118" lon="7.54918">
        <ele>304</ele>
        <time>2025-05-10T13:05:14.000Z</time>
      </trkpt>
      <trkpt lat="49.03113" lon="7.54914">
        <ele>304</ele>
        <time>2025-05-10T13:05:22.000Z</time>
      </trkpt>
      <trkpt lat="49.03084" lon="7.54887">
        <ele>309</ele>
        <time>2025-05-10T13:05:57.000Z</time>
      </trkpt>
      <trkpt lat="49.03068" lon="7.54868">
        <ele>311</ele>
        <time>2025-05-10T13:06:17.000Z</time>
      </trkpt>
      <trkpt lat="49.03059" lon="7.54859">
        <ele>312</ele>
        <time>2025-05-10T13:06:26.000Z</time>
      </trkpt>
      <trkpt lat="49.03053" lon="7.54852">
        <ele>313</ele>
        <time>2025-05-10T13:06:33.000Z</time>
      </trkpt>
      <trkpt lat="49.0304" lon="7.54837">
        <ele>313</ele>
        <time>2025-05-10T13:06:42.000Z</time>
      </trkpt>
      <trkpt lat="49.03036" lon="7.54834">
        <ele>314</ele>
        <time>2025-05-10T13:06:46.000Z</time>
      </trkpt>
      <trkpt lat="49.03028" lon="7.54826">
        <ele>314</ele>
        <time>2025-05-10T13:06:54.000Z</time>
      </trkpt>
      <trkpt lat="49.03024" lon="7.54823">
        <ele>315</ele>
        <time>2025-05-10T13:06:57.000Z</time>
      </trkpt>
      <trkpt lat="49.0302" lon="7.5482">
        <ele>315</ele>
        <time>2025-05-10T13:07:00.000Z</time>
      </trkpt>
      <trkpt lat="49.03014" lon="7.54818">
        <ele>316</ele>
        <time>2025-05-10T13:07:05.000Z</time>
      </trkpt>
      <trkpt lat="49.03011" lon="7.54814">
        <ele>316</ele>
        <time>2025-05-10T13:07:09.000Z</time>
      </trkpt>
      <trkpt lat="49.03002" lon="7.54812">
        <ele>317</ele>
        <time>2025-05-10T13:07:18.000Z</time>
      </trkpt>
      <trkpt lat="49.02997" lon="7.5481">
        <ele>317</ele>
        <time>2025-05-10T13:07:21.000Z</time>
      </trkpt>
      <trkpt lat="49.02979" lon="7.54786">
        <ele>319</ele>
        <time>2025-05-10T13:07:43.000Z</time>
      </trkpt>
      <trkpt lat="49.02971" lon="7.54782">
        <ele>320</ele>
        <time>2025-05-10T13:07:49.000Z</time>
      </trkpt>
      <trkpt lat="49.0296" lon="7.54776">
        <ele>320</ele>
        <time>2025-05-10T13:07:54.000Z</time>
      </trkpt>
      <trkpt lat="49.02951" lon="7.54764">
        <ele>321</ele>
        <time>2025-05-10T13:08:04.000Z</time>
      </trkpt>
      <trkpt lat="49.0295" lon="7.54755">
        <ele>322</ele>
        <time>2025-05-10T13:08:10.000Z</time>
      </trkpt>
      <trkpt lat="49.02947" lon="7.54746">
        <ele>322</ele>
        <time>2025-05-10T13:08:14.000Z</time>
      </trkpt>
      <trkpt lat="49.02943" lon="7.5474">
        <ele>323</ele>
        <time>2025-05-10T13:08:17.000Z</time>
      </trkpt>
      <trkpt lat="49.02939" lon="7.54732">
        <ele>324</ele>
        <time>2025-05-10T13:08:25.000Z</time>
      </trkpt>
      <trkpt lat="49.02938" lon="7.54724">
        <ele>324</ele>
        <time>2025-05-10T13:08:29.000Z</time>
      </trkpt>
      <trkpt lat="49.02934" lon="7.54719">
        <ele>325</ele>
        <time>2025-05-10T13:08:33.000Z</time>
      </trkpt>
      <trkpt lat="49.0293" lon="7.54712">
        <ele>326</ele>
        <time>2025-05-10T13:08:41.000Z</time>
      </trkpt>
      <trkpt lat="49.02924" lon="7.54709">
        <ele>326</ele>
        <time>2025-05-10T13:08:46.000Z</time>
      </trkpt>
      <trkpt lat="49.02907" lon="7.54693">
        <ele>328</ele>
        <time>2025-05-10T13:09:01.000Z</time>
      </trkpt>
      <trkpt lat="49.02895" lon="7.54673">
        <ele>329</ele>
        <time>2025-05-10T13:09:14.000Z</time>
      </trkpt>
      <trkpt lat="49.02891" lon="7.54656">
        <ele>331</ele>
        <time>2025-05-10T13:09:25.000Z</time>
      </trkpt>
      <trkpt lat="49.02885" lon="7.54651">
        <ele>331</ele>
        <time>2025-05-10T13:09:34.000Z</time>
      </trkpt>
      <trkpt lat="49.02882" lon="7.54644">
        <ele>332</ele>
        <time>2025-05-10T13:09:38.000Z</time>
      </trkpt>
      <trkpt lat="49.02877" lon="7.54641">
        <ele>332</ele>
        <time>2025-05-10T13:09:44.000Z</time>
      </trkpt>
      <trkpt lat="49.02872" lon="7.54633">
        <ele>333</ele>
        <time>2025-05-10T13:09:48.000Z</time>
      </trkpt>
      <trkpt lat="49.02871" lon="7.54626">
        <ele>333</ele>
        <time>2025-05-10T13:09:52.000Z</time>
      </trkpt>
      <trkpt lat="49.02867" lon="7.54619">
        <ele>334</ele>
        <time>2025-05-10T13:09:59.000Z</time>
      </trkpt>
      <trkpt lat="49.02863" lon="7.54613">
        <ele>334</ele>
        <time>2025-05-10T13:10:02.000Z</time>
      </trkpt>
      <trkpt lat="49.02846" lon="7.54586">
        <ele>337</ele>
        <time>2025-05-10T13:10:34.000Z</time>
      </trkpt>
      <trkpt lat="49.02842" lon="7.5458">
        <ele>338</ele>
        <time>2025-05-10T13:10:38.000Z</time>
      </trkpt>
      <trkpt lat="49.02839" lon="7.54569">
        <ele>338</ele>
        <time>2025-05-10T13:10:49.000Z</time>
      </trkpt>
      <trkpt lat="49.02834" lon="7.54563">
        <ele>338</ele>
        <time>2025-05-10T13:10:52.000Z</time>
      </trkpt>
      <trkpt lat="49.02833" lon="7.54556">
        <ele>339</ele>
        <time>2025-05-10T13:11:03.000Z</time>
      </trkpt>
      <trkpt lat="49.02837" lon="7.54552">
        <ele>339</ele>
        <time>2025-05-10T13:11:15.000Z</time>
      </trkpt>
      <trkpt lat="49.02838" lon="7.5456">
        <ele>339</ele>
        <time>2025-05-10T13:11:19.000Z</time>
      </trkpt>
      <trkpt lat="49.02836" lon="7.54568">
        <ele>338</ele>
        <time>2025-05-10T13:11:22.000Z</time>
      </trkpt>
      <trkpt lat="49.02836" lon="7.54577">
        <ele>338</ele>
        <time>2025-05-10T13:11:26.000Z</time>
      </trkpt>
      <trkpt lat="49.02832" lon="7.54594">
        <ele>338</ele>
        <time>2025-05-10T13:11:33.000Z</time>
      </trkpt>
      <trkpt lat="49.02829" lon="7.54601">
        <ele>338</ele>
        <time>2025-05-10T13:11:36.000Z</time>
      </trkpt>
      <trkpt lat="49.02827" lon="7.54607">
        <ele>337</ele>
        <time>2025-05-10T13:11:40.000Z</time>
      </trkpt>
      <trkpt lat="49.02821" lon="7.54634">
        <ele>337</ele>
        <time>2025-05-10T13:11:58.000Z</time>
      </trkpt>
      <trkpt lat="49.02816" lon="7.54644">
        <ele>337</ele>
        <time>2025-05-10T13:12:06.000Z</time>
      </trkpt>
      <trkpt lat="49.02809" lon="7.54653">
        <ele>337</ele>
        <time>2025-05-10T13:12:12.000Z</time>
      </trkpt>
      <trkpt lat="49.02804" lon="7.54659">
        <ele>337</ele>
        <time>2025-05-10T13:12:17.000Z</time>
      </trkpt>
      <trkpt lat="49.02795" lon="7.54666">
        <ele>337</ele>
        <time>2025-05-10T13:12:24.000Z</time>
      </trkpt>
      <trkpt lat="49.02788" lon="7.54675">
        <ele>336</ele>
        <time>2025-05-10T13:12:32.000Z</time>
      </trkpt>
      <trkpt lat="49.02782" lon="7.54685">
        <ele>336</ele>
        <time>2025-05-10T13:12:40.000Z</time>
      </trkpt>
      <trkpt lat="49.02779" lon="7.54692">
        <ele>336</ele>
        <time>2025-05-10T13:12:44.000Z</time>
      </trkpt>
      <trkpt lat="49.02772" lon="7.54701">
        <ele>335</ele>
        <time>2025-05-10T13:12:52.000Z</time>
      </trkpt>
      <trkpt lat="49.02764" lon="7.54709">
        <ele>335</ele>
        <time>2025-05-10T13:13:00.000Z</time>
      </trkpt>
      <trkpt lat="49.02759" lon="7.54711">
        <ele>335</ele>
        <time>2025-05-10T13:13:04.000Z</time>
      </trkpt>
      <trkpt lat="49.02755" lon="7.54713">
        <ele>335</ele>
        <time>2025-05-10T13:13:08.000Z</time>
      </trkpt>
      <trkpt lat="49.02746" lon="7.54713">
        <ele>335</ele>
        <time>2025-05-10T13:13:16.000Z</time>
      </trkpt>
      <trkpt lat="49.02741" lon="7.54715">
        <ele>334</ele>
        <time>2025-05-10T13:13:20.000Z</time>
      </trkpt>
      <trkpt lat="49.02736" lon="7.54715">
        <ele>334</ele>
        <time>2025-05-10T13:13:24.000Z</time>
      </trkpt>
      <trkpt lat="49.02732" lon="7.54716">
        <ele>334</ele>
        <time>2025-05-10T13:13:27.000Z</time>
      </trkpt>
      <trkpt lat="49.02727" lon="7.54716">
        <ele>334</ele>
        <time>2025-05-10T13:13:31.000Z</time>
      </trkpt>
      <trkpt lat="49.02722" lon="7.54719">
        <ele>333</ele>
        <time>2025-05-10T13:13:34.000Z</time>
      </trkpt>
      <trkpt lat="49.02713" lon="7.54719">
        <ele>333</ele>
        <time>2025-05-10T13:13:41.000Z</time>
      </trkpt>
      <trkpt lat="49.02708" lon="7.54721">
        <ele>333</ele>
        <time>2025-05-10T13:13:45.000Z</time>
      </trkpt>
      <trkpt lat="49.02688" lon="7.54725">
        <ele>333</ele>
        <time>2025-05-10T13:14:04.000Z</time>
      </trkpt>
      <trkpt lat="49.02665" lon="7.54706">
        <ele>333</ele>
        <time>2025-05-10T13:14:21.000Z</time>
      </trkpt>
      <trkpt lat="49.02643" lon="7.54674">
        <ele>333</ele>
        <time>2025-05-10T13:14:43.000Z</time>
      </trkpt>
      <trkpt lat="49.02635" lon="7.54672">
        <ele>332</ele>
        <time>2025-05-10T13:14:49.000Z</time>
      </trkpt>
      <trkpt lat="49.0263" lon="7.54669">
        <ele>332</ele>
        <time>2025-05-10T13:14:54.000Z</time>
      </trkpt>
      <trkpt lat="49.02618" lon="7.54662">
        <ele>332</ele>
        <time>2025-05-10T13:15:01.000Z</time>
      </trkpt>
      <trkpt lat="49.02606" lon="7.54663">
        <ele>332</ele>
        <time>2025-05-10T13:15:10.000Z</time>
      </trkpt>
      <trkpt lat="49.02602" lon="7.54664">
        <ele>332</ele>
        <time>2025-05-10T13:15:13.000Z</time>
      </trkpt>
      <trkpt lat="49.02598" lon="7.5466">
        <ele>332</ele>
        <time>2025-05-10T13:15:17.000Z</time>
      </trkpt>
      <trkpt lat="49.02593" lon="7.5466">
        <ele>331</ele>
        <time>2025-05-10T13:15:21.000Z</time>
      </trkpt>
      <trkpt lat="49.02589" lon="7.54658">
        <ele>331</ele>
        <time>2025-05-10T13:15:25.000Z</time>
      </trkpt>
      <trkpt lat="49.0258" lon="7.54654">
        <ele>330</ele>
        <time>2025-05-10T13:15:34.000Z</time>
      </trkpt>
      <trkpt lat="49.02573" lon="7.5465">
        <ele>332</ele>
        <time>2025-05-10T13:15:40.000Z</time>
      </trkpt>
      <trkpt lat="49.02568" lon="7.5465">
        <ele>331</ele>
        <time>2025-05-10T13:15:44.000Z</time>
      </trkpt>
      <trkpt lat="49.02565" lon="7.54646">
        <ele>331</ele>
        <time>2025-05-10T13:15:47.000Z</time>
      </trkpt>
      <trkpt lat="49.0256" lon="7.54643">
        <ele>331</ele>
        <time>2025-05-10T13:15:51.000Z</time>
      </trkpt>
      <trkpt lat="49.02549" lon="7.5464">
        <ele>331</ele>
        <time>2025-05-10T13:16:02.000Z</time>
      </trkpt>
      <trkpt lat="49.02543" lon="7.54636">
        <ele>331</ele>
        <time>2025-05-10T13:16:07.000Z</time>
      </trkpt>
      <trkpt lat="49.02539" lon="7.54633">
        <ele>331</ele>
        <time>2025-05-10T13:16:11.000Z</time>
      </trkpt>
      <trkpt lat="49.02503" lon="7.54609">
        <ele>330</ele>
        <time>2025-05-10T13:16:42.000Z</time>
      </trkpt>
      <trkpt lat="49.02494" lon="7.54599">
        <ele>330</ele>
        <time>2025-05-10T13:16:51.000Z</time>
      </trkpt>
      <trkpt lat="49.02491" lon="7.54594">
        <ele>330</ele>
        <time>2025-05-10T13:16:54.000Z</time>
      </trkpt>
      <trkpt lat="49.02485" lon="7.54591">
        <ele>330</ele>
        <time>2025-05-10T13:16:59.000Z</time>
      </trkpt>
      <trkpt lat="49.0248" lon="7.54585">
        <ele>330</ele>
        <time>2025-05-10T13:17:02.000Z</time>
      </trkpt>
      <trkpt lat="49.02466" lon="7.54576">
        <ele>329</ele>
        <time>2025-05-10T13:17:15.000Z</time>
      </trkpt>
      <trkpt lat="49.0246" lon="7.54578">
        <ele>329</ele>
        <time>2025-05-10T13:17:20.000Z</time>
      </trkpt>
      <trkpt lat="49.02455" lon="7.54575">
        <ele>329</ele>
        <time>2025-05-10T13:17:23.000Z</time>
      </trkpt>
      <trkpt lat="49.02429" lon="7.54571">
        <ele>329</ele>
        <time>2025-05-10T13:17:47.000Z</time>
      </trkpt>
      <trkpt lat="49.0242" lon="7.5457">
        <ele>328</ele>
        <time>2025-05-10T13:17:54.000Z</time>
      </trkpt>
      <trkpt lat="49.0241" lon="7.54567">
        <ele>329</ele>
        <time>2025-05-10T13:17:59.000Z</time>
      </trkpt>
      <trkpt lat="49.02402" lon="7.54574">
        <ele>328</ele>
        <time>2025-05-10T13:18:09.000Z</time>
      </trkpt>
      <trkpt lat="49.024" lon="7.5458">
        <ele>328</ele>
        <time>2025-05-10T13:18:13.000Z</time>
      </trkpt>
      <trkpt lat="49.02395" lon="7.54583">
        <ele>328</ele>
        <time>2025-05-10T13:18:17.000Z</time>
      </trkpt>
      <trkpt lat="49.02392" lon="7.54588">
        <ele>328</ele>
        <time>2025-05-10T13:18:21.000Z</time>
      </trkpt>
      <trkpt lat="49.02386" lon="7.54594">
        <ele>328</ele>
        <time>2025-05-10T13:18:28.000Z</time>
      </trkpt>
      <trkpt lat="49.02373" lon="7.5461">
        <ele>328</ele>
        <time>2025-05-10T13:18:45.000Z</time>
      </trkpt>
      <trkpt lat="49.02356" lon="7.54643">
        <ele>327</ele>
        <time>2025-05-10T13:19:06.000Z</time>
      </trkpt>
      <trkpt lat="49.02354" lon="7.5465">
        <ele>327</ele>
        <time>2025-05-10T13:19:09.000Z</time>
      </trkpt>
      <trkpt lat="49.02353" lon="7.54657">
        <ele>327</ele>
        <time>2025-05-10T13:19:12.000Z</time>
      </trkpt>
      <trkpt lat="49.02349" lon="7.54666">
        <ele>327</ele>
        <time>2025-05-10T13:19:19.000Z</time>
      </trkpt>
      <trkpt lat="49.02344" lon="7.54667">
        <ele>327</ele>
        <time>2025-05-10T13:19:21.000Z</time>
      </trkpt>
      <trkpt lat="49.02339" lon="7.5468">
        <ele>327</ele>
        <time>2025-05-10T13:19:28.000Z</time>
      </trkpt>
      <trkpt lat="49.02334" lon="7.54694">
        <ele>326</ele>
        <time>2025-05-10T13:19:36.000Z</time>
      </trkpt>
      <trkpt lat="49.02319" lon="7.54744">
        <ele>327</ele>
        <time>2025-05-10T13:20:06.000Z</time>
      </trkpt>
      <trkpt lat="49.02317" lon="7.54752">
        <ele>326</ele>
        <time>2025-05-10T13:20:10.000Z</time>
      </trkpt>
      <trkpt lat="49.02315" lon="7.54759">
        <ele>327</ele>
        <time>2025-05-10T13:20:15.000Z</time>
      </trkpt>
      <trkpt lat="49.02314" lon="7.54767">
        <ele>326</ele>
        <time>2025-05-10T13:20:19.000Z</time>
      </trkpt>
      <trkpt lat="49.02313" lon="7.54798">
        <ele>326</ele>
        <time>2025-05-10T13:20:40.000Z</time>
      </trkpt>
      <trkpt lat="49.02313" lon="7.54813">
        <ele>327</ele>
        <time>2025-05-10T13:21:00.000Z</time>
      </trkpt>
      <trkpt lat="49.02312" lon="7.54858">
        <ele>325</ele>
        <time>2025-05-10T13:21:31.000Z</time>
      </trkpt>
      <trkpt lat="49.02314" lon="7.54873">
        <ele>326</ele>
        <time>2025-05-10T13:21:59.000Z</time>
      </trkpt>
      <trkpt lat="49.02315" lon="7.54888">
        <ele>325</ele>
        <time>2025-05-10T13:22:08.000Z</time>
      </trkpt>
      <trkpt lat="49.02316" lon="7.54895">
        <ele>325</ele>
        <time>2025-05-10T13:22:12.000Z</time>
      </trkpt>
      <trkpt lat="49.02319" lon="7.54915">
        <ele>325</ele>
        <time>2025-05-10T13:22:25.000Z</time>
      </trkpt>
      <trkpt lat="49.02321" lon="7.54925">
        <ele>325</ele>
        <time>2025-05-10T13:22:32.000Z</time>
      </trkpt>
      <trkpt lat="49.02331" lon="7.54976">
        <ele>324</ele>
        <time>2025-05-10T13:23:03.000Z</time>
      </trkpt>
      <trkpt lat="49.02347" lon="7.55033">
        <ele>323</ele>
        <time>2025-05-10T13:23:37.000Z</time>
      </trkpt>
      <trkpt lat="49.02347" lon="7.55042">
        <ele>322</ele>
        <time>2025-05-10T13:23:42.000Z</time>
      </trkpt>
      <trkpt lat="49.02349" lon="7.55048">
        <ele>323</ele>
        <time>2025-05-10T13:23:46.000Z</time>
      </trkpt>
      <trkpt lat="49.02354" lon="7.55076">
        <ele>322</ele>
        <time>2025-05-10T13:23:59.000Z</time>
      </trkpt>
      <trkpt lat="49.02356" lon="7.55082">
        <ele>322</ele>
        <time>2025-05-10T13:24:02.000Z</time>
      </trkpt>
      <trkpt lat="49.02359" lon="7.5509">
        <ele>322</ele>
        <time>2025-05-10T13:24:06.000Z</time>
      </trkpt>
      <trkpt lat="49.02362" lon="7.55095">
        <ele>322</ele>
        <time>2025-05-10T13:24:10.000Z</time>
      </trkpt>
      <trkpt lat="49.02367" lon="7.551">
        <ele>322</ele>
        <time>2025-05-10T13:24:13.000Z</time>
      </trkpt>
      <trkpt lat="49.02369" lon="7.55106">
        <ele>322</ele>
        <time>2025-05-10T13:24:17.000Z</time>
      </trkpt>
      <trkpt lat="49.02373" lon="7.55113">
        <ele>322</ele>
        <time>2025-05-10T13:24:21.000Z</time>
      </trkpt>
      <trkpt lat="49.02376" lon="7.55128">
        <ele>322</ele>
        <time>2025-05-10T13:24:30.000Z</time>
      </trkpt>
      <trkpt lat="49.02375" lon="7.55135">
        <ele>322</ele>
        <time>2025-05-10T13:24:34.000Z</time>
      </trkpt>
      <trkpt lat="49.02377" lon="7.55141">
        <ele>322</ele>
        <time>2025-05-10T13:24:38.000Z</time>
      </trkpt>
      <trkpt lat="49.02376" lon="7.55153">
        <ele>321</ele>
        <time>2025-05-10T13:24:43.000Z</time>
      </trkpt>
      <trkpt lat="49.02382" lon="7.55166">
        <ele>321</ele>
        <time>2025-05-10T13:24:51.000Z</time>
      </trkpt>
      <trkpt lat="49.02385" lon="7.55171">
        <ele>321</ele>
        <time>2025-05-10T13:24:55.000Z</time>
      </trkpt>
      <trkpt lat="49.02387" lon="7.55192">
        <ele>321</ele>
        <time>2025-05-10T13:25:04.000Z</time>
      </trkpt>
      <trkpt lat="49.02385" lon="7.55207">
        <ele>321</ele>
        <time>2025-05-10T13:25:12.000Z</time>
      </trkpt>
      <trkpt lat="49.02388" lon="7.55218">
        <ele>321</ele>
        <time>2025-05-10T13:25:20.000Z</time>
      </trkpt>
      <trkpt lat="49.02387" lon="7.55226">
        <ele>320</ele>
        <time>2025-05-10T13:25:26.000Z</time>
      </trkpt>
      <trkpt lat="49.02387" lon="7.55237">
        <ele>320</ele>
        <time>2025-05-10T13:25:30.000Z</time>
      </trkpt>
      <trkpt lat="49.02389" lon="7.55243">
        <ele>320</ele>
        <time>2025-05-10T13:25:33.000Z</time>
      </trkpt>
      <trkpt lat="49.02386" lon="7.55257">
        <ele>320</ele>
        <time>2025-05-10T13:25:41.000Z</time>
      </trkpt>
      <trkpt lat="49.02384" lon="7.55264">
        <ele>319</ele>
        <time>2025-05-10T13:25:45.000Z</time>
      </trkpt>
      <trkpt lat="49.02383" lon="7.5527">
        <ele>319</ele>
        <time>2025-05-10T13:25:49.000Z</time>
      </trkpt>
      <trkpt lat="49.02378" lon="7.55276">
        <ele>319</ele>
        <time>2025-05-10T13:25:53.000Z</time>
      </trkpt>
      <trkpt lat="49.02373" lon="7.5528">
        <ele>319</ele>
        <time>2025-05-10T13:25:57.000Z</time>
      </trkpt>
      <trkpt lat="49.02368" lon="7.55282">
        <ele>319</ele>
        <time>2025-05-10T13:26:01.000Z</time>
      </trkpt>
      <trkpt lat="49.02357" lon="7.55279">
        <ele>318</ele>
        <time>2025-05-10T13:26:11.000Z</time>
      </trkpt>
      <trkpt lat="49.02352" lon="7.55275">
        <ele>318</ele>
        <time>2025-05-10T13:26:15.000Z</time>
      </trkpt>
      <trkpt lat="49.02348" lon="7.55267">
        <ele>318</ele>
        <time>2025-05-10T13:26:21.000Z</time>
      </trkpt>
      <trkpt lat="49.02342" lon="7.55261">
        <ele>317</ele>
        <time>2025-05-10T13:26:24.000Z</time>
      </trkpt>
      <trkpt lat="49.02343" lon="7.55254">
        <ele>317</ele>
        <time>2025-05-10T13:26:26.000Z</time>
      </trkpt>
      <trkpt lat="49.02338" lon="7.55243">
        <ele>317</ele>
        <time>2025-05-10T13:26:33.000Z</time>
      </trkpt>
      <trkpt lat="49.0233" lon="7.55223">
        <ele>317</ele>
        <time>2025-05-10T13:26:47.000Z</time>
      </trkpt>
      <trkpt lat="49.02324" lon="7.55204">
        <ele>318</ele>
        <time>2025-05-10T13:26:58.000Z</time>
      </trkpt>
      <trkpt lat="49.02309" lon="7.55165">
        <ele>319</ele>
        <time>2025-05-10T13:27:29.000Z</time>
      </trkpt>
      <trkpt lat="49.02297" lon="7.55127">
        <ele>319</ele>
        <time>2025-05-10T13:27:54.000Z</time>
      </trkpt>
      <trkpt lat="49.02293" lon="7.55092">
        <ele>319</ele>
        <time>2025-05-10T13:28:13.000Z</time>
      </trkpt>
      <trkpt lat="49.02291" lon="7.55032">
        <ele>318</ele>
        <time>2025-05-10T13:28:46.000Z</time>
      </trkpt>
      <trkpt lat="49.02286" lon="7.54969">
        <ele>318</ele>
        <time>2025-05-10T13:29:20.000Z</time>
      </trkpt>
      <trkpt lat="49.02279" lon="7.5491">
        <ele>318</ele>
        <time>2025-05-10T13:29:52.000Z</time>
      </trkpt>
      <trkpt lat="49.02276" lon="7.54884">
        <ele>317</ele>
        <time>2025-05-10T13:30:10.000Z</time>
      </trkpt>
      <trkpt lat="49.02275" lon="7.54877">
        <ele>317</ele>
        <time>2025-05-10T13:30:14.000Z</time>
      </trkpt>
      <trkpt lat="49.02268" lon="7.54818">
        <ele>317</ele>
        <time>2025-05-10T13:30:47.000Z</time>
      </trkpt>
      <trkpt lat="49.02259" lon="7.54761">
        <ele>316</ele>
        <time>2025-05-10T13:31:19.000Z</time>
      </trkpt>
      <trkpt lat="49.0225" lon="7.54702">
        <ele>316</ele>
        <time>2025-05-10T13:31:53.000Z</time>
      </trkpt>
      <trkpt lat="49.02246" lon="7.54679">
        <ele>315</ele>
        <time>2025-05-10T13:32:09.000Z</time>
      </trkpt>
      <trkpt lat="49.02245" lon="7.54672">
        <ele>315</ele>
        <time>2025-05-10T13:32:12.000Z</time>
      </trkpt>
      <trkpt lat="49.02236" lon="7.54613">
        <ele>314</ele>
        <time>2025-05-10T13:32:45.000Z</time>
      </trkpt>
      <trkpt lat="49.02226" lon="7.54562">
        <ele>314</ele>
        <time>2025-05-10T13:33:15.000Z</time>
      </trkpt>
      <trkpt lat="49.02223" lon="7.54555">
        <ele>313</ele>
        <time>2025-05-10T13:33:20.000Z</time>
      </trkpt>
      <trkpt lat="49.02215" lon="7.54517">
        <ele>313</ele>
        <time>2025-05-10T13:33:40.000Z</time>
      </trkpt>
      <trkpt lat="49.02213" lon="7.54511">
        <ele>312</ele>
        <time>2025-05-10T13:33:43.000Z</time>
      </trkpt>
      <trkpt lat="49.02212" lon="7.54503">
        <ele>313</ele>
        <time>2025-05-10T13:33:47.000Z</time>
      </trkpt>
      <trkpt lat="49.0221" lon="7.54495">
        <ele>312</ele>
        <time>2025-05-10T13:33:51.000Z</time>
      </trkpt>
      <trkpt lat="49.02209" lon="7.54487">
        <ele>312</ele>
        <time>2025-05-10T13:33:55.000Z</time>
      </trkpt>
      <trkpt lat="49.02192" lon="7.54423">
        <ele>311</ele>
        <time>2025-05-10T13:34:26.000Z</time>
      </trkpt>
      <trkpt lat="49.02178" lon="7.54361">
        <ele>311</ele>
        <time>2025-05-10T13:34:59.000Z</time>
      </trkpt>
      <trkpt lat="49.02174" lon="7.54348">
        <ele>311</ele>
        <time>2025-05-10T13:35:07.000Z</time>
      </trkpt>
      <trkpt lat="49.02172" lon="7.54339">
        <ele>310</ele>
        <time>2025-05-10T13:35:11.000Z</time>
      </trkpt>
      <trkpt lat="49.02171" lon="7.54333">
        <ele>311</ele>
        <time>2025-05-10T13:35:15.000Z</time>
      </trkpt>
      <trkpt lat="49.02169" lon="7.54324">
        <ele>310</ele>
        <time>2025-05-10T13:35:21.000Z</time>
      </trkpt>
      <trkpt lat="49.02154" lon="7.54266">
        <ele>310</ele>
        <time>2025-05-10T13:35:53.000Z</time>
      </trkpt>
      <trkpt lat="49.02142" lon="7.54202">
        <ele>309</ele>
        <time>2025-05-10T13:36:27.000Z</time>
      </trkpt>
      <trkpt lat="49.02133" lon="7.54139">
        <ele>308</ele>
        <time>2025-05-10T13:37:03.000Z</time>
      </trkpt>
      <trkpt lat="49.02132" lon="7.54126">
        <ele>308</ele>
        <time>2025-05-10T13:37:10.000Z</time>
      </trkpt>
      <trkpt lat="49.02126" lon="7.5406">
        <ele>307</ele>
        <time>2025-05-10T13:37:44.000Z</time>
      </trkpt>
      <trkpt lat="49.02125" lon="7.54053">
        <ele>306</ele>
        <time>2025-05-10T13:37:47.000Z</time>
      </trkpt>
      <trkpt lat="49.02125" lon="7.54045">
        <ele>307</ele>
        <time>2025-05-10T13:37:51.000Z</time>
      </trkpt>
      <trkpt lat="49.02125" lon="7.54037">
        <ele>308</ele>
        <time>2025-05-10T13:37:55.000Z</time>
      </trkpt>
      <trkpt lat="49.02124" lon="7.54031">
        <ele>307</ele>
        <time>2025-05-10T13:37:59.000Z</time>
      </trkpt>
      <trkpt lat="49.02121" lon="7.53972">
        <ele>306</ele>
        <time>2025-05-10T13:38:32.000Z</time>
      </trkpt>
      <trkpt lat="49.02119" lon="7.5391">
        <ele>306</ele>
        <time>2025-05-10T13:39:03.000Z</time>
      </trkpt>
      <trkpt lat="49.02116" lon="7.53851">
        <ele>305</ele>
        <time>2025-05-10T13:39:33.000Z</time>
      </trkpt>
      <trkpt lat="49.02112" lon="7.53811">
        <ele>304</ele>
        <time>2025-05-10T13:39:54.000Z</time>
      </trkpt>
      <trkpt lat="49.02106" lon="7.53776">
        <ele>304</ele>
        <time>2025-05-10T13:40:12.000Z</time>
      </trkpt>
      <trkpt lat="49.02104" lon="7.53714">
        <ele>304</ele>
        <time>2025-05-10T13:40:44.000Z</time>
      </trkpt>
      <trkpt lat="49.02103" lon="7.53703">
        <ele>304</ele>
        <time>2025-05-10T13:40:50.000Z</time>
      </trkpt>
      <trkpt lat="49.02103" lon="7.53681">
        <ele>303</ele>
        <time>2025-05-10T13:41:02.000Z</time>
      </trkpt>
      <trkpt lat="49.02102" lon="7.53666">
        <ele>303</ele>
        <time>2025-05-10T13:41:11.000Z</time>
      </trkpt>
      <trkpt lat="49.021" lon="7.53657">
        <ele>303</ele>
        <time>2025-05-10T13:41:14.000Z</time>
      </trkpt>
      <trkpt lat="49.02099" lon="7.53637">
        <ele>302</ele>
        <time>2025-05-10T13:41:26.000Z</time>
      </trkpt>
      <trkpt lat="49.02097" lon="7.53631">
        <ele>302</ele>
        <time>2025-05-10T13:41:28.000Z</time>
      </trkpt>
      <trkpt lat="49.02098" lon="7.53612">
        <ele>302</ele>
        <time>2025-05-10T13:41:38.000Z</time>
      </trkpt>
      <trkpt lat="49.02095" lon="7.53599">
        <ele>302</ele>
        <time>2025-05-10T13:41:44.000Z</time>
      </trkpt>
      <trkpt lat="49.02095" lon="7.53591">
        <ele>301</ele>
        <time>2025-05-10T13:41:49.000Z</time>
      </trkpt>
      <trkpt lat="49.02093" lon="7.53584">
        <ele>302</ele>
        <time>2025-05-10T13:41:52.000Z</time>
      </trkpt>
      <trkpt lat="49.02089" lon="7.53576">
        <ele>302</ele>
        <time>2025-05-10T13:41:55.000Z</time>
      </trkpt>
      <trkpt lat="49.02089" lon="7.53562">
        <ele>302</ele>
        <time>2025-05-10T13:42:03.000Z</time>
      </trkpt>
      <trkpt lat="49.02086" lon="7.53556">
        <ele>301</ele>
        <time>2025-05-10T13:42:07.000Z</time>
      </trkpt>
      <trkpt lat="49.02086" lon="7.5353">
        <ele>301</ele>
        <time>2025-05-10T13:42:18.000Z</time>
      </trkpt>
      <trkpt lat="49.02082" lon="7.53518">
        <ele>300</ele>
        <time>2025-05-10T13:42:25.000Z</time>
      </trkpt>
      <trkpt lat="49.0208" lon="7.53513">
        <ele>300</ele>
        <time>2025-05-10T13:42:29.000Z</time>
      </trkpt>
      <trkpt lat="49.02078" lon="7.53504">
        <ele>300</ele>
        <time>2025-05-10T13:42:35.000Z</time>
      </trkpt>
      <trkpt lat="49.02076" lon="7.53498">
        <ele>300</ele>
        <time>2025-05-10T13:42:38.000Z</time>
      </trkpt>
      <trkpt lat="49.02074" lon="7.53483">
        <ele>300</ele>
        <time>2025-05-10T13:42:47.000Z</time>
      </trkpt>
      <trkpt lat="49.0206" lon="7.53436">
        <ele>298</ele>
        <time>2025-05-10T13:43:14.000Z</time>
      </trkpt>
      <trkpt lat="49.02056" lon="7.5343">
        <ele>298</ele>
        <time>2025-05-10T13:43:17.000Z</time>
      </trkpt>
      <trkpt lat="49.02055" lon="7.53421">
        <ele>298</ele>
        <time>2025-05-10T13:43:25.000Z</time>
      </trkpt>
      <trkpt lat="49.02053" lon="7.53413">
        <ele>298</ele>
        <time>2025-05-10T13:43:29.000Z</time>
      </trkpt>
      <trkpt lat="49.0205" lon="7.53407">
        <ele>298</ele>
        <time>2025-05-10T13:43:32.000Z</time>
      </trkpt>
      <trkpt lat="49.02048" lon="7.53402">
        <ele>297</ele>
        <time>2025-05-10T13:43:35.000Z</time>
      </trkpt>
      <trkpt lat="49.02041" lon="7.53393">
        <ele>298</ele>
        <time>2025-05-10T13:43:42.000Z</time>
      </trkpt>
      <trkpt lat="49.02036" lon="7.53382">
        <ele>297</ele>
        <time>2025-05-10T13:43:51.000Z</time>
      </trkpt>
      <trkpt lat="49.02033" lon="7.53377">
        <ele>297</ele>
        <time>2025-05-10T13:43:55.000Z</time>
      </trkpt>
      <trkpt lat="49.0203" lon="7.53369">
        <ele>296</ele>
        <time>2025-05-10T13:44:00.000Z</time>
      </trkpt>
      <trkpt lat="49.02028" lon="7.53361">
        <ele>297</ele>
        <time>2025-05-10T13:44:04.000Z</time>
      </trkpt>
      <trkpt lat="49.02027" lon="7.53354">
        <ele>296</ele>
        <time>2025-05-10T13:44:07.000Z</time>
      </trkpt>
      <trkpt lat="49.02022" lon="7.53342">
        <ele>296</ele>
        <time>2025-05-10T13:44:15.000Z</time>
      </trkpt>
      <trkpt lat="49.02019" lon="7.53334">
        <ele>296</ele>
        <time>2025-05-10T13:44:18.000Z</time>
      </trkpt>
      <trkpt lat="49.02018" lon="7.53329">
        <ele>296</ele>
        <time>2025-05-10T13:44:21.000Z</time>
      </trkpt>
      <trkpt lat="49.02014" lon="7.53324">
        <ele>296</ele>
        <time>2025-05-10T13:44:24.000Z</time>
      </trkpt>
      <trkpt lat="49.02009" lon="7.53271">
        <ele>295</ele>
        <time>2025-05-10T13:44:53.000Z</time>
      </trkpt>
      <trkpt lat="49.02007" lon="7.53264">
        <ele>295</ele>
        <time>2025-05-10T13:44:56.000Z</time>
      </trkpt>
      <trkpt lat="49.02004" lon="7.53227">
        <ele>295</ele>
        <time>2025-05-10T13:45:14.000Z</time>
      </trkpt>
      <trkpt lat="49.02005" lon="7.5322">
        <ele>295</ele>
        <time>2025-05-10T13:45:16.000Z</time>
      </trkpt>
      <trkpt lat="49.02001" lon="7.53215">
        <ele>295</ele>
        <time>2025-05-10T13:45:19.000Z</time>
      </trkpt>
      <trkpt lat="49.02" lon="7.53201">
        <ele>295</ele>
        <time>2025-05-10T13:45:27.000Z</time>
      </trkpt>
      <trkpt lat="49.02001" lon="7.5319">
        <ele>295</ele>
        <time>2025-05-10T13:45:34.000Z</time>
      </trkpt>
      <trkpt lat="49.02" lon="7.53182">
        <ele>295</ele>
        <time>2025-05-10T13:45:37.000Z</time>
      </trkpt>
      <trkpt lat="49.02004" lon="7.53158">
        <ele>295</ele>
        <time>2025-05-10T13:45:49.000Z</time>
      </trkpt>
      <trkpt lat="49.02005" lon="7.53144">
        <ele>295</ele>
        <time>2025-05-10T13:45:54.000Z</time>
      </trkpt>
      <trkpt lat="49.02011" lon="7.53113">
        <ele>295</ele>
        <time>2025-05-10T13:46:12.000Z</time>
      </trkpt>
      <trkpt lat="49.0201" lon="7.53099">
        <ele>295</ele>
        <time>2025-05-10T13:46:19.000Z</time>
      </trkpt>
      <trkpt lat="49.02011" lon="7.53092">
        <ele>295</ele>
        <time>2025-05-10T13:46:25.000Z</time>
      </trkpt>
      <trkpt lat="49.0201" lon="7.53084">
        <ele>294</ele>
        <time>2025-05-10T13:46:28.000Z</time>
      </trkpt>
      <trkpt lat="49.02012" lon="7.53078">
        <ele>294</ele>
        <time>2025-05-10T13:46:35.000Z</time>
      </trkpt>
      <trkpt lat="49.02013" lon="7.53059">
        <ele>294</ele>
        <time>2025-05-10T13:46:42.000Z</time>
      </trkpt>
      <trkpt lat="49.02012" lon="7.5305">
        <ele>294</ele>
        <time>2025-05-10T13:46:48.000Z</time>
      </trkpt>
      <trkpt lat="49.0201" lon="7.53043">
        <ele>294</ele>
        <time>2025-05-10T13:46:51.000Z</time>
      </trkpt>
      <trkpt lat="49.0201" lon="7.53036">
        <ele>293</ele>
        <time>2025-05-10T13:46:55.000Z</time>
      </trkpt>
      <trkpt lat="49.0201" lon="7.53021">
        <ele>293</ele>
        <time>2025-05-10T13:47:04.000Z</time>
      </trkpt>
      <trkpt lat="49.02012" lon="7.53014">
        <ele>292</ele>
        <time>2025-05-10T13:47:09.000Z</time>
      </trkpt>
      <trkpt lat="49.0201" lon="7.53007">
        <ele>292</ele>
        <time>2025-05-10T13:47:12.000Z</time>
      </trkpt>
      <trkpt lat="49.02012" lon="7.53">
        <ele>292</ele>
        <time>2025-05-10T13:47:17.000Z</time>
      </trkpt>
      <trkpt lat="49.02011" lon="7.52991">
        <ele>291</ele>
        <time>2025-05-10T13:47:22.000Z</time>
      </trkpt>
      <trkpt lat="49.0201" lon="7.52985">
        <ele>292</ele>
        <time>2025-05-10T13:47:26.000Z</time>
      </trkpt>
      <trkpt lat="49.02008" lon="7.52977">
        <ele>292</ele>
        <time>2025-05-10T13:47:29.000Z</time>
      </trkpt>
      <trkpt lat="49.01998" lon="7.52952">
        <ele>290</ele>
        <time>2025-05-10T13:47:47.000Z</time>
      </trkpt>
      <trkpt lat="49.01995" lon="7.52947">
        <ele>290</ele>
        <time>2025-05-10T13:47:51.000Z</time>
      </trkpt>
      <trkpt lat="49.01989" lon="7.52931">
        <ele>288</ele>
        <time>2025-05-10T13:48:01.000Z</time>
      </trkpt>
      <trkpt lat="49.01985" lon="7.52926">
        <ele>288</ele>
        <time>2025-05-10T13:48:04.000Z</time>
      </trkpt>
      <trkpt lat="49.01979" lon="7.52916">
        <ele>287</ele>
        <time>2025-05-10T13:48:11.000Z</time>
      </trkpt>
      <trkpt lat="49.01973" lon="7.52903">
        <ele>286</ele>
        <time>2025-05-10T13:48:17.000Z</time>
      </trkpt>
      <trkpt lat="49.01962" lon="7.5289">
        <ele>285</ele>
        <time>2025-05-10T13:48:29.000Z</time>
      </trkpt>
      <trkpt lat="49.01946" lon="7.52856">
        <ele>283</ele>
        <time>2025-05-10T13:48:49.000Z</time>
      </trkpt>
      <trkpt lat="49.01942" lon="7.52851">
        <ele>282</ele>
        <time>2025-05-10T13:48:58.000Z</time>
      </trkpt>
      <trkpt lat="49.01938" lon="7.52843">
        <ele>281</ele>
        <time>2025-05-10T13:49:03.000Z</time>
      </trkpt>
      <trkpt lat="49.01931" lon="7.52841">
        <ele>281</ele>
        <time>2025-05-10T13:49:06.000Z</time>
      </trkpt>
      <trkpt lat="49.01927" lon="7.52836">
        <ele>280</ele>
        <time>2025-05-10T13:49:12.000Z</time>
      </trkpt>
      <trkpt lat="49.01922" lon="7.5285">
        <ele>280</ele>
        <time>2025-05-10T13:49:28.000Z</time>
      </trkpt>
      <trkpt lat="49.01916" lon="7.52859">
        <ele>278</ele>
        <time>2025-05-10T13:49:38.000Z</time>
      </trkpt>
      <trkpt lat="49.01913" lon="7.52866">
        <ele>278</ele>
        <time>2025-05-10T13:49:41.000Z</time>
      </trkpt>
      <trkpt lat="49.0191" lon="7.52871">
        <ele>277</ele>
        <time>2025-05-10T13:49:44.000Z</time>
      </trkpt>
      <trkpt lat="49.01909" lon="7.5288">
        <ele>277</ele>
        <time>2025-05-10T13:49:48.000Z</time>
      </trkpt>
      <trkpt lat="49.01906" lon="7.52884">
        <ele>276</ele>
        <time>2025-05-10T13:49:52.000Z</time>
      </trkpt>
      <trkpt lat="49.01896" lon="7.52881">
        <ele>275</ele>
        <time>2025-05-10T13:49:58.000Z</time>
      </trkpt>
      <trkpt lat="49.01891" lon="7.52878">
        <ele>276</ele>
        <time>2025-05-10T13:50:02.000Z</time>
      </trkpt>
      <trkpt lat="49.01882" lon="7.52875">
        <ele>276</ele>
        <time>2025-05-10T13:50:10.000Z</time>
      </trkpt>
      <trkpt lat="49.0187" lon="7.52862">
        <ele>279</ele>
        <time>2025-05-10T13:50:25.000Z</time>
      </trkpt>
      <trkpt lat="49.01862" lon="7.52849">
        <ele>281</ele>
        <time>2025-05-10T13:50:37.000Z</time>
      </trkpt>
      <trkpt lat="49.01854" lon="7.52847">
        <ele>282</ele>
        <time>2025-05-10T13:50:40.000Z</time>
      </trkpt>
      <trkpt lat="49.0185" lon="7.52847">
        <ele>282</ele>
        <time>2025-05-10T13:50:43.000Z</time>
      </trkpt>
      <trkpt lat="49.01833" lon="7.52838">
        <ele>284</ele>
        <time>2025-05-10T13:51:02.000Z</time>
      </trkpt>
      <trkpt lat="49.01801" lon="7.52825">
        <ele>285</ele>
        <time>2025-05-10T13:51:28.000Z</time>
      </trkpt>
      <trkpt lat="49.01789" lon="7.52815">
        <ele>286</ele>
        <time>2025-05-10T13:51:40.000Z</time>
      </trkpt>
      <trkpt lat="49.01766" lon="7.52791">
        <ele>290</ele>
        <time>2025-05-10T13:52:15.000Z</time>
      </trkpt>
      <trkpt lat="49.01756" lon="7.52782">
        <ele>293</ele>
        <time>2025-05-10T13:52:28.000Z</time>
      </trkpt>
      <trkpt lat="49.0173" lon="7.52743">
        <ele>297</ele>
        <time>2025-05-10T13:53:00.000Z</time>
      </trkpt>
      <trkpt lat="49.01721" lon="7.52723">
        <ele>301</ele>
        <time>2025-05-10T13:53:19.000Z</time>
      </trkpt>
      <trkpt lat="49.01707" lon="7.52677">
        <ele>309</ele>
        <time>2025-05-10T13:54:00.000Z</time>
      </trkpt>
      <trkpt lat="49.01704" lon="7.52674">
        <ele>310</ele>
        <time>2025-05-10T13:54:04.000Z</time>
      </trkpt>
      <trkpt lat="49.01701" lon="7.52667">
        <ele>311</ele>
        <time>2025-05-10T13:54:10.000Z</time>
      </trkpt>
      <trkpt lat="49.01705" lon="7.52662">
        <ele>313</ele>
        <time>2025-05-10T13:54:21.000Z</time>
      </trkpt>
      <trkpt lat="49.0171" lon="7.52674">
        <ele>313</ele>
        <time>2025-05-10T13:54:26.000Z</time>
      </trkpt>
      <trkpt lat="49.01719" lon="7.52684">
        <ele>316</ele>
        <time>2025-05-10T13:54:40.000Z</time>
      </trkpt>
      <trkpt lat="49.01731" lon="7.52689">
        <ele>317</ele>
        <time>2025-05-10T13:54:48.000Z</time>
      </trkpt>
      <trkpt lat="49.01738" lon="7.52691">
        <ele>319</ele>
        <time>2025-05-10T13:54:58.000Z</time>
      </trkpt>
      <trkpt lat="49.0174" lon="7.52683">
        <ele>321</ele>
        <time>2025-05-10T13:55:11.000Z</time>
      </trkpt>
      <trkpt lat="49.01737" lon="7.52676">
        <ele>322</ele>
        <time>2025-05-10T13:55:16.000Z</time>
      </trkpt>
      <trkpt lat="49.01743" lon="7.52666">
        <ele>327</ele>
        <time>2025-05-10T13:55:40.000Z</time>
      </trkpt>
      <trkpt lat="49.01742" lon="7.52665">
        <ele>329</ele>
        <time>2025-05-10T13:56:22.000Z</time>
      </trkpt>
      <trkpt lat="49.01738" lon="7.5266">
        <ele>331</ele>
        <time>2025-05-10T13:56:34.000Z</time>
      </trkpt>
      <trkpt lat="49.01739" lon="7.5265">
        <ele>332</ele>
        <time>2025-05-10T13:56:35.000Z</time>
      </trkpt>
      <trkpt lat="49.01731" lon="7.52648">
        <ele>333</ele>
        <time>2025-05-10T13:56:50.000Z</time>
      </trkpt>
      <trkpt lat="49.01727" lon="7.52646">
        <ele>334</ele>
        <time>2025-05-10T13:56:54.000Z</time>
      </trkpt>
      <trkpt lat="49.01731" lon="7.52655">
        <ele>336</ele>
        <time>2025-05-10T13:57:06.000Z</time>
      </trkpt>
      <trkpt lat="49.01738" lon="7.52663">
        <ele>337</ele>
        <time>2025-05-10T13:57:16.000Z</time>
      </trkpt>
      <trkpt lat="49.01742" lon="7.52661">
        <ele>338</ele>
        <time>2025-05-10T13:57:31.000Z</time>
      </trkpt>
      <trkpt lat="49.0174" lon="7.52669">
        <ele>340</ele>
        <time>2025-05-10T13:57:43.000Z</time>
      </trkpt>
      <trkpt lat="49.01744" lon="7.52677">
        <ele>342</ele>
        <time>2025-05-10T13:57:51.000Z</time>
      </trkpt>
      <trkpt lat="49.0175" lon="7.52681">
        <ele>341</ele>
        <time>2025-05-10T13:57:58.000Z</time>
      </trkpt>
      <trkpt lat="49.01756" lon="7.52683">
        <ele>341</ele>
        <time>2025-05-10T13:58:02.000Z</time>
      </trkpt>
      <trkpt lat="49.01754" lon="7.52681">
        <ele>341</ele>
        <time>2025-05-10T13:58:25.000Z</time>
      </trkpt>
      <trkpt lat="49.01749" lon="7.52673">
        <ele>341</ele>
        <time>2025-05-10T13:58:32.000Z</time>
      </trkpt>
      <trkpt lat="49.01744" lon="7.52671">
        <ele>340</ele>
        <time>2025-05-10T13:58:47.000Z</time>
      </trkpt>
      <trkpt lat="49.01742" lon="7.52664">
        <ele>338</ele>
        <time>2025-05-10T13:58:53.000Z</time>
      </trkpt>
      <trkpt lat="49.01739" lon="7.52658">
        <ele>342</ele>
        <time>2025-05-10T13:59:23.000Z</time>
      </trkpt>
      <trkpt lat="49.01737" lon="7.52659">
        <ele>342</ele>
        <time>2025-05-10T14:00:06.000Z</time>
      </trkpt>
      <trkpt lat="49.01741" lon="7.52666">
        <ele>340</ele>
        <time>2025-05-10T14:01:06.000Z</time>
      </trkpt>
      <trkpt lat="49.01742" lon="7.52656">
        <ele>335</ele>
        <time>2025-05-10T14:01:59.000Z</time>
      </trkpt>
      <trkpt lat="49.01737" lon="7.52655">
        <ele>335</ele>
        <time>2025-05-10T14:02:02.000Z</time>
      </trkpt>
      <trkpt lat="49.01732" lon="7.52655">
        <ele>335</ele>
        <time>2025-05-10T14:02:05.000Z</time>
      </trkpt>
      <trkpt lat="49.01734" lon="7.52659">
        <ele>330</ele>
        <time>2025-05-10T14:02:43.000Z</time>
      </trkpt>
      <trkpt lat="49.01741" lon="7.52659">
        <ele>329</ele>
        <time>2025-05-10T14:02:51.000Z</time>
      </trkpt>
      <trkpt lat="49.01747" lon="7.52668">
        <ele>323</ele>
        <time>2025-05-10T14:03:15.000Z</time>
      </trkpt>
      <trkpt lat="49.01738" lon="7.52673">
        <ele>320</ele>
        <time>2025-05-10T14:03:23.000Z</time>
      </trkpt>
      <trkpt lat="49.01741" lon="7.52684">
        <ele>317</ele>
        <time>2025-05-10T14:03:37.000Z</time>
      </trkpt>
      <trkpt lat="49.01741" lon="7.52693">
        <ele>316</ele>
        <time>2025-05-10T14:03:43.000Z</time>
      </trkpt>
      <trkpt lat="49.01739" lon="7.52695">
        <ele>316</ele>
        <time>2025-05-10T14:03:50.000Z</time>
      </trkpt>
      <trkpt lat="49.01733" lon="7.52695">
        <ele>316</ele>
        <time>2025-05-10T14:04:03.000Z</time>
      </trkpt>
      <trkpt lat="49.0172" lon="7.52687">
        <ele>314</ele>
        <time>2025-05-10T14:04:16.000Z</time>
      </trkpt>
      <trkpt lat="49.01706" lon="7.52663">
        <ele>311</ele>
        <time>2025-05-10T14:04:38.000Z</time>
      </trkpt>
      <trkpt lat="49.01702" lon="7.52671">
        <ele>309</ele>
        <time>2025-05-10T14:04:44.000Z</time>
      </trkpt>
      <trkpt lat="49.01705" lon="7.52677">
        <ele>309</ele>
        <time>2025-05-10T14:04:47.000Z</time>
      </trkpt>
      <trkpt lat="49.0171" lon="7.52688">
        <ele>306</ele>
        <time>2025-05-10T14:04:56.000Z</time>
      </trkpt>
      <trkpt lat="49.01727" lon="7.52738">
        <ele>299</ele>
        <time>2025-05-10T14:05:30.000Z</time>
      </trkpt>
      <trkpt lat="49.0175" lon="7.52773">
        <ele>292</ele>
        <time>2025-05-10T14:06:03.000Z</time>
      </trkpt>
      <trkpt lat="49.01771" lon="7.52796">
        <ele>288</ele>
        <time>2025-05-10T14:06:31.000Z</time>
      </trkpt>
      <trkpt lat="49.01776" lon="7.52799">
        <ele>287</ele>
        <time>2025-05-10T14:06:36.000Z</time>
      </trkpt>
      <trkpt lat="49.01797" lon="7.52821">
        <ele>285</ele>
        <time>2025-05-10T14:06:59.000Z</time>
      </trkpt>
      <trkpt lat="49.01821" lon="7.52832">
        <ele>283</ele>
        <time>2025-05-10T14:07:21.000Z</time>
      </trkpt>
      <trkpt lat="49.01829" lon="7.52835">
        <ele>283</ele>
        <time>2025-05-10T14:07:29.000Z</time>
      </trkpt>
      <trkpt lat="49.01839" lon="7.5284">
        <ele>281</ele>
        <time>2025-05-10T14:07:38.000Z</time>
      </trkpt>
      <trkpt lat="49.01844" lon="7.52843">
        <ele>283</ele>
        <time>2025-05-10T14:07:43.000Z</time>
      </trkpt>
      <trkpt lat="49.01848" lon="7.52846">
        <ele>282</ele>
        <time>2025-05-10T14:07:47.000Z</time>
      </trkpt>
      <trkpt lat="49.01885" lon="7.52872">
        <ele>276</ele>
        <time>2025-05-10T14:08:19.000Z</time>
      </trkpt>
      <trkpt lat="49.01905" lon="7.52881">
        <ele>274</ele>
        <time>2025-05-10T14:08:32.000Z</time>
      </trkpt>
      <trkpt lat="49.01898" lon="7.52884">
        <ele>273</ele>
        <time>2025-05-10T14:08:40.000Z</time>
      </trkpt>
      <trkpt lat="49.01893" lon="7.5289">
        <ele>273</ele>
        <time>2025-05-10T14:08:41.000Z</time>
      </trkpt>
      <trkpt lat="49.01888" lon="7.52891">
        <ele>273</ele>
        <time>2025-05-10T14:08:43.000Z</time>
      </trkpt>
      <trkpt lat="49.01883" lon="7.52893">
        <ele>272</ele>
        <time>2025-05-10T14:08:47.000Z</time>
      </trkpt>
      <trkpt lat="49.01879" lon="7.52896">
        <ele>272</ele>
        <time>2025-05-10T14:08:50.000Z</time>
      </trkpt>
      <trkpt lat="49.0186" lon="7.529">
        <ele>269</ele>
        <time>2025-05-10T14:09:03.000Z</time>
      </trkpt>
      <trkpt lat="49.01815" lon="7.52902">
        <ele>267</ele>
        <time>2025-05-10T14:09:35.000Z</time>
      </trkpt>
      <trkpt lat="49.01793" lon="7.52898">
        <ele>266</ele>
        <time>2025-05-10T14:09:55.000Z</time>
      </trkpt>
      <trkpt lat="49.01789" lon="7.52901">
        <ele>266</ele>
        <time>2025-05-10T14:09:59.000Z</time>
      </trkpt>
      <trkpt lat="49.01773" lon="7.52895">
        <ele>266</ele>
        <time>2025-05-10T14:10:11.000Z</time>
      </trkpt>
      <trkpt lat="49.01763" lon="7.52889">
        <ele>265</ele>
        <time>2025-05-10T14:10:18.000Z</time>
      </trkpt>
      <trkpt lat="49.01757" lon="7.52888">
        <ele>265</ele>
        <time>2025-05-10T14:10:23.000Z</time>
      </trkpt>
      <trkpt lat="49.01744" lon="7.52888">
        <ele>265</ele>
        <time>2025-05-10T14:10:33.000Z</time>
      </trkpt>
      <trkpt lat="49.01735" lon="7.52886">
        <ele>265</ele>
        <time>2025-05-10T14:10:41.000Z</time>
      </trkpt>
      <trkpt lat="49.0173" lon="7.52885">
        <ele>265</ele>
        <time>2025-05-10T14:10:44.000Z</time>
      </trkpt>
      <trkpt lat="49.01725" lon="7.52886">
        <ele>264</ele>
        <time>2025-05-10T14:10:49.000Z</time>
      </trkpt>
      <trkpt lat="49.0172" lon="7.52887">
        <ele>265</ele>
        <time>2025-05-10T14:10:52.000Z</time>
      </trkpt>
      <trkpt lat="49.01716" lon="7.52886">
        <ele>265</ele>
        <time>2025-05-10T14:10:55.000Z</time>
      </trkpt>
      <trkpt lat="49.01711" lon="7.52886">
        <ele>264</ele>
        <time>2025-05-10T14:10:59.000Z</time>
      </trkpt>
      <trkpt lat="49.01704" lon="7.52889">
        <ele>264</ele>
        <time>2025-05-10T14:11:05.000Z</time>
      </trkpt>
      <trkpt lat="49.01688" lon="7.52901">
        <ele>262</ele>
        <time>2025-05-10T14:11:21.000Z</time>
      </trkpt>
      <trkpt lat="49.01684" lon="7.52906">
        <ele>263</ele>
        <time>2025-05-10T14:11:25.000Z</time>
      </trkpt>
      <trkpt lat="49.01675" lon="7.52914">
        <ele>263</ele>
        <time>2025-05-10T14:11:33.000Z</time>
      </trkpt>
      <trkpt lat="49.01671" lon="7.52917">
        <ele>263</ele>
        <time>2025-05-10T14:11:37.000Z</time>
      </trkpt>
      <trkpt lat="49.01668" lon="7.52922">
        <ele>263</ele>
        <time>2025-05-10T14:11:41.000Z</time>
      </trkpt>
      <trkpt lat="49.01663" lon="7.52925">
        <ele>262</ele>
        <time>2025-05-10T14:11:46.000Z</time>
      </trkpt>
      <trkpt lat="49.01658" lon="7.52926">
        <ele>262</ele>
        <time>2025-05-10T14:11:51.000Z</time>
      </trkpt>
      <trkpt lat="49.01652" lon="7.52931">
        <ele>261</ele>
        <time>2025-05-10T14:11:57.000Z</time>
      </trkpt>
      <trkpt lat="49.0164" lon="7.52932">
        <ele>261</ele>
        <time>2025-05-10T14:12:06.000Z</time>
      </trkpt>
      <trkpt lat="49.01621" lon="7.52926">
        <ele>260</ele>
        <time>2025-05-10T14:12:20.000Z</time>
      </trkpt>
      <trkpt lat="49.01615" lon="7.52922">
        <ele>259</ele>
        <time>2025-05-10T14:12:25.000Z</time>
      </trkpt>
      <trkpt lat="49.01609" lon="7.52921">
        <ele>258</ele>
        <time>2025-05-10T14:12:35.000Z</time>
      </trkpt>
      <trkpt lat="49.016" lon="7.52918">
        <ele>258</ele>
        <time>2025-05-10T14:12:41.000Z</time>
      </trkpt>
      <trkpt lat="49.01594" lon="7.52917">
        <ele>257</ele>
        <time>2025-05-10T14:12:44.000Z</time>
      </trkpt>
      <trkpt lat="49.01588" lon="7.52922">
        <ele>257</ele>
        <time>2025-05-10T14:12:49.000Z</time>
      </trkpt>
      <trkpt lat="49.01581" lon="7.52921">
        <ele>255</ele>
        <time>2025-05-10T14:13:13.000Z</time>
      </trkpt>
      <trkpt lat="49.01567" lon="7.52915">
        <ele>253</ele>
        <time>2025-05-10T14:13:25.000Z</time>
      </trkpt>
      <trkpt lat="49.01558" lon="7.52909">
        <ele>251</ele>
        <time>2025-05-10T14:13:34.000Z</time>
      </trkpt>
      <trkpt lat="49.01543" lon="7.52911">
        <ele>250</ele>
        <time>2025-05-10T14:13:44.000Z</time>
      </trkpt>
      <trkpt lat="49.01534" lon="7.52904">
        <ele>248</ele>
        <time>2025-05-10T14:13:51.000Z</time>
      </trkpt>
      <trkpt lat="49.01531" lon="7.52902">
        <ele>249</ele>
        <time>2025-05-10T14:13:54.000Z</time>
      </trkpt>
      <trkpt lat="49.01494" lon="7.5288">
        <ele>242</ele>
        <time>2025-05-10T14:14:27.000Z</time>
      </trkpt>
      <trkpt lat="49.01472" lon="7.52878">
        <ele>240</ele>
        <time>2025-05-10T14:14:48.000Z</time>
      </trkpt>
      <trkpt lat="49.01465" lon="7.52877">
        <ele>240</ele>
        <time>2025-05-10T14:14:54.000Z</time>
      </trkpt>
      <trkpt lat="49.0146" lon="7.52879">
        <ele>240</ele>
        <time>2025-05-10T14:14:59.000Z</time>
      </trkpt>
      <trkpt lat="49.01455" lon="7.52878">
        <ele>240</ele>
        <time>2025-05-10T14:15:03.000Z</time>
      </trkpt>
      <trkpt lat="49.0145" lon="7.52878">
        <ele>240</ele>
        <time>2025-05-10T14:15:08.000Z</time>
      </trkpt>
      <trkpt lat="49.01439" lon="7.52875">
        <ele>240</ele>
        <time>2025-05-10T14:15:15.000Z</time>
      </trkpt>
      <trkpt lat="49.01428" lon="7.5287">
        <ele>242</ele>
        <time>2025-05-10T14:15:26.000Z</time>
      </trkpt>
      <trkpt lat="49.01421" lon="7.52868">
        <ele>242</ele>
        <time>2025-05-10T14:15:34.000Z</time>
      </trkpt>
      <trkpt lat="49.01403" lon="7.5286">
        <ele>244</ele>
        <time>2025-05-10T14:15:49.000Z</time>
      </trkpt>
      <trkpt lat="49.01387" lon="7.52859">
        <ele>246</ele>
        <time>2025-05-10T14:16:05.000Z</time>
      </trkpt>
      <trkpt lat="49.0137" lon="7.52868">
        <ele>248</ele>
        <time>2025-05-10T14:16:21.000Z</time>
      </trkpt>
      <trkpt lat="49.01366" lon="7.52862">
        <ele>249</ele>
        <time>2025-05-10T14:16:29.000Z</time>
      </trkpt>
      <trkpt lat="49.01351" lon="7.52867">
        <ele>249</ele>
        <time>2025-05-10T14:16:40.000Z</time>
      </trkpt>
      <trkpt lat="49.01346" lon="7.52866">
        <ele>249</ele>
        <time>2025-05-10T14:16:43.000Z</time>
      </trkpt>
      <trkpt lat="49.01337" lon="7.5287">
        <ele>250</ele>
        <time>2025-05-10T14:16:50.000Z</time>
      </trkpt>
      <trkpt lat="49.01332" lon="7.5287">
        <ele>250</ele>
        <time>2025-05-10T14:16:53.000Z</time>
      </trkpt>
      <trkpt lat="49.01321" lon="7.5287">
        <ele>250</ele>
        <time>2025-05-10T14:17:02.000Z</time>
      </trkpt>
      <trkpt lat="49.01297" lon="7.52871">
        <ele>249</ele>
        <time>2025-05-10T14:17:22.000Z</time>
      </trkpt>
      <trkpt lat="49.01292" lon="7.52871">
        <ele>249</ele>
        <time>2025-05-10T14:17:26.000Z</time>
      </trkpt>
      <trkpt lat="49.01252" lon="7.5287">
        <ele>245</ele>
        <time>2025-05-10T14:17:58.000Z</time>
      </trkpt>
      <trkpt lat="49.01226" lon="7.52871">
        <ele>243</ele>
        <time>2025-05-10T14:18:21.000Z</time>
      </trkpt>
      <trkpt lat="49.01214" lon="7.52871">
        <ele>243</ele>
        <time>2025-05-10T14:18:30.000Z</time>
      </trkpt>
      <trkpt lat="49.01209" lon="7.52873">
        <ele>242</ele>
        <time>2025-05-10T14:18:35.000Z</time>
      </trkpt>
      <trkpt lat="49.01208" lon="7.52887">
        <ele>242</ele>
        <time>2025-05-10T14:18:46.000Z</time>
      </trkpt>
      <trkpt lat="49.01208" lon="7.5291">
        <ele>242</ele>
        <time>2025-05-10T14:18:52.000Z</time>
      </trkpt>
      <trkpt lat="49.01204" lon="7.52922">
        <ele>242</ele>
        <time>2025-05-10T14:19:00.000Z</time>
      </trkpt>
      <trkpt lat="49.01203" lon="7.52933">
        <ele>242</ele>
        <time>2025-05-10T14:19:06.000Z</time>
      </trkpt>
      <trkpt lat="49.01199" lon="7.52942">
        <ele>241</ele>
        <time>2025-05-10T14:19:09.000Z</time>
      </trkpt>
      <trkpt lat="49.01193" lon="7.52952">
        <ele>240</ele>
        <time>2025-05-10T14:19:21.000Z</time>
      </trkpt>
      <trkpt lat="49.01188" lon="7.52951">
        <ele>241</ele>
        <time>2025-05-10T14:19:23.000Z</time>
      </trkpt>
      <trkpt lat="49.01177" lon="7.52946">
        <ele>241</ele>
        <time>2025-05-10T14:19:24.000Z</time>
      </trkpt>
      <trkpt lat="49.0117" lon="7.52941">
        <ele>241</ele>
        <time>2025-05-10T14:19:31.000Z</time>
      </trkpt>
      <trkpt lat="49.01157" lon="7.52933">
        <ele>241</ele>
        <time>2025-05-10T14:19:47.000Z</time>
      </trkpt>
      <trkpt lat="49.01147" lon="7.52934">
        <ele>241</ele>
        <time>2025-05-10T14:19:56.000Z</time>
      </trkpt>
      <trkpt lat="49.01141" lon="7.52935">
        <ele>242</ele>
        <time>2025-05-10T14:20:04.000Z</time>
      </trkpt>
      <trkpt lat="49.01136" lon="7.52944">
        <ele>242</ele>
        <time>2025-05-10T14:20:11.000Z</time>
      </trkpt>
      <trkpt lat="49.01133" lon="7.52954">
        <ele>242</ele>
        <time>2025-05-10T14:20:14.000Z</time>
      </trkpt>
      <trkpt lat="49.01134" lon="7.52966">
        <ele>242</ele>
        <time>2025-05-10T14:20:16.000Z</time>
      </trkpt>
      <trkpt lat="49.0112" lon="7.53013">
        <ele>242</ele>
        <time>2025-05-10T14:20:42.000Z</time>
      </trkpt>
      <trkpt lat="49.01119" lon="7.53031">
        <ele>242</ele>
        <time>2025-05-10T14:20:52.000Z</time>
      </trkpt>
      <trkpt lat="49.01127" lon="7.53092">
        <ele>241</ele>
        <time>2025-05-10T14:21:26.000Z</time>
      </trkpt>
      <trkpt lat="49.01129" lon="7.53098">
        <ele>241</ele>
        <time>2025-05-10T14:21:30.000Z</time>
      </trkpt>
      <trkpt lat="49.01134" lon="7.5312">
        <ele>240</ele>
        <time>2025-05-10T14:21:46.000Z</time>
      </trkpt>
      <trkpt lat="49.01147" lon="7.53165">
        <ele>239</ele>
        <time>2025-05-10T14:22:13.000Z</time>
      </trkpt>
      <trkpt lat="49.01161" lon="7.5322">
        <ele>238</ele>
        <time>2025-05-10T14:22:45.000Z</time>
      </trkpt>
      <trkpt lat="49.01165" lon="7.53238">
        <ele>239</ele>
        <time>2025-05-10T14:22:59.000Z</time>
      </trkpt>
      <trkpt lat="49.01169" lon="7.53258">
        <ele>239</ele>
        <time>2025-05-10T14:23:11.000Z</time>
      </trkpt>
      <trkpt lat="49.01168" lon="7.53266">
        <ele>239</ele>
        <time>2025-05-10T14:23:17.000Z</time>
      </trkpt>
      <trkpt lat="49.01166" lon="7.5328">
        <ele>239</ele>
        <time>2025-05-10T14:23:25.000Z</time>
      </trkpt>
      <trkpt lat="49.01163" lon="7.53287">
        <ele>238</ele>
        <time>2025-05-10T14:23:29.000Z</time>
      </trkpt>
      <trkpt lat="49.01159" lon="7.53293">
        <ele>239</ele>
        <time>2025-05-10T14:23:33.000Z</time>
      </trkpt>
      <trkpt lat="49.01146" lon="7.5331">
        <ele>238</ele>
        <time>2025-05-10T14:23:47.000Z</time>
      </trkpt>
      <trkpt lat="49.01106" lon="7.53338">
        <ele>238</ele>
        <time>2025-05-10T14:24:17.000Z</time>
      </trkpt>
      <trkpt lat="49.01095" lon="7.53348">
        <ele>238</ele>
        <time>2025-05-10T14:24:26.000Z</time>
      </trkpt>
      <trkpt lat="49.01082" lon="7.53351">
        <ele>238</ele>
        <time>2025-05-10T14:24:33.000Z</time>
      </trkpt>
      <trkpt lat="49.01074" lon="7.53355">
        <ele>238</ele>
        <time>2025-05-10T14:24:44.000Z</time>
      </trkpt>
      <trkpt lat="49.01068" lon="7.53356">
        <ele>238</ele>
        <time>2025-05-10T14:24:48.000Z</time>
      </trkpt>
      <trkpt lat="49.01057" lon="7.53364">
        <ele>238</ele>
        <time>2025-05-10T14:24:59.000Z</time>
      </trkpt>
      <trkpt lat="49.01046" lon="7.53365">
        <ele>238</ele>
        <time>2025-05-10T14:25:06.000Z</time>
      </trkpt>
      <trkpt lat="49.01041" lon="7.53372">
        <ele>238</ele>
        <time>2025-05-10T14:25:12.000Z</time>
      </trkpt>
      <trkpt lat="49.01013" lon="7.53376">
        <ele>237</ele>
        <time>2025-05-10T14:25:34.000Z</time>
      </trkpt>
      <trkpt lat="49.01004" lon="7.53369">
        <ele>238</ele>
        <time>2025-05-10T14:25:41.000Z</time>
      </trkpt>
      <trkpt lat="49.00999" lon="7.53362">
        <ele>238</ele>
        <time>2025-05-10T14:25:44.000Z</time>
      </trkpt>
      <trkpt lat="49.0099" lon="7.53366">
        <ele>238</ele>
        <time>2025-05-10T14:25:56.000Z</time>
      </trkpt>
      <trkpt lat="49.00983" lon="7.53368">
        <ele>238</ele>
        <time>2025-05-10T14:26:00.000Z</time>
      </trkpt>
      <trkpt lat="49.00979" lon="7.53376">
        <ele>238</ele>
        <time>2025-05-10T14:26:04.000Z</time>
      </trkpt>
      <trkpt lat="49.00972" lon="7.53383">
        <ele>238</ele>
        <time>2025-05-10T14:26:10.000Z</time>
      </trkpt>
      <trkpt lat="49.0097" lon="7.5341">
        <ele>237</ele>
        <time>2025-05-10T14:26:26.000Z</time>
      </trkpt>
      <trkpt lat="49.00961" lon="7.53429">
        <ele>237</ele>
        <time>2025-05-10T14:26:34.000Z</time>
      </trkpt>
      <trkpt lat="49.00956" lon="7.53431">
        <ele>237</ele>
        <time>2025-05-10T14:26:37.000Z</time>
      </trkpt>
      <trkpt lat="49.0095" lon="7.5343">
        <ele>237</ele>
        <time>2025-05-10T14:26:40.000Z</time>
      </trkpt>
      <trkpt lat="49.00946" lon="7.53434">
        <ele>237</ele>
        <time>2025-05-10T14:26:43.000Z</time>
      </trkpt>
      <trkpt lat="49.00939" lon="7.53433">
        <ele>237</ele>
        <time>2025-05-10T14:26:51.000Z</time>
      </trkpt>
      <trkpt lat="49.00935" lon="7.53438">
        <ele>237</ele>
        <time>2025-05-10T14:26:55.000Z</time>
      </trkpt>
      <trkpt lat="49.00929" lon="7.53439">
        <ele>237</ele>
        <time>2025-05-10T14:26:58.000Z</time>
      </trkpt>
      <trkpt lat="49.00925" lon="7.53445">
        <ele>237</ele>
        <time>2025-05-10T14:27:02.000Z</time>
      </trkpt>
      <trkpt lat="49.00917" lon="7.53456">
        <ele>237</ele>
        <time>2025-05-10T14:27:12.000Z</time>
      </trkpt>
      <trkpt lat="49.00911" lon="7.53474">
        <ele>237</ele>
        <time>2025-05-10T14:27:22.000Z</time>
      </trkpt>
      <trkpt lat="49.00905" lon="7.53482">
        <ele>237</ele>
        <time>2025-05-10T14:27:28.000Z</time>
      </trkpt>
      <trkpt lat="49.009" lon="7.53484">
        <ele>237</ele>
        <time>2025-05-10T14:27:32.000Z</time>
      </trkpt>
      <trkpt lat="49.00896" lon="7.53483">
        <ele>237</ele>
        <time>2025-05-10T14:27:35.000Z</time>
      </trkpt>
      <trkpt lat="49.00893" lon="7.53488">
        <ele>237</ele>
        <time>2025-05-10T14:27:39.000Z</time>
      </trkpt>
      <trkpt lat="49.00889" lon="7.53493">
        <ele>237</ele>
        <time>2025-05-10T14:27:43.000Z</time>
      </trkpt>
      <trkpt lat="49.00887" lon="7.535">
        <ele>237</ele>
        <time>2025-05-10T14:27:48.000Z</time>
      </trkpt>
      <trkpt lat="49.00882" lon="7.53506">
        <ele>237</ele>
        <time>2025-05-10T14:27:54.000Z</time>
      </trkpt>
      <trkpt lat="49.00878" lon="7.53511">
        <ele>237</ele>
        <time>2025-05-10T14:27:57.000Z</time>
      </trkpt>
      <trkpt lat="49.00865" lon="7.53518">
        <ele>238</ele>
        <time>2025-05-10T14:28:08.000Z</time>
      </trkpt>
      <trkpt lat="49.00859" lon="7.5352">
        <ele>238</ele>
        <time>2025-05-10T14:28:12.000Z</time>
      </trkpt>
      <trkpt lat="49.00855" lon="7.53522">
        <ele>239</ele>
        <time>2025-05-10T14:28:18.000Z</time>
      </trkpt>
      <trkpt lat="49.0085" lon="7.53527">
        <ele>239</ele>
        <time>2025-05-10T14:28:23.000Z</time>
      </trkpt>
      <trkpt lat="49.00847" lon="7.53534">
        <ele>239</ele>
        <time>2025-05-10T14:28:30.000Z</time>
      </trkpt>
      <trkpt lat="49.00838" lon="7.53562">
        <ele>239</ele>
        <time>2025-05-10T14:28:41.000Z</time>
      </trkpt>
      <trkpt lat="49.00832" lon="7.53567">
        <ele>239</ele>
        <time>2025-05-10T14:28:47.000Z</time>
      </trkpt>
      <trkpt lat="49.00827" lon="7.53569">
        <ele>240</ele>
        <time>2025-05-10T14:28:52.000Z</time>
      </trkpt>
      <trkpt lat="49.00824" lon="7.53574">
        <ele>240</ele>
        <time>2025-05-10T14:28:56.000Z</time>
      </trkpt>
      <trkpt lat="49.00819" lon="7.53583">
        <ele>241</ele>
        <time>2025-05-10T14:29:04.000Z</time>
      </trkpt>
      <trkpt lat="49.00798" lon="7.53605">
        <ele>243</ele>
        <time>2025-05-10T14:29:29.000Z</time>
      </trkpt>
      <trkpt lat="49.00805" lon="7.53594">
        <ele>244</ele>
        <time>2025-05-10T14:29:44.000Z</time>
      </trkpt>
      <trkpt lat="49.00809" lon="7.53602">
        <ele>242</ele>
        <time>2025-05-10T14:29:51.000Z</time>
      </trkpt>
      <trkpt lat="49.0081" lon="7.53619">
        <ele>242</ele>
        <time>2025-05-10T14:30:01.000Z</time>
      </trkpt>
      <trkpt lat="49.00811" lon="7.53645">
        <ele>241</ele>
        <time>2025-05-10T14:30:11.000Z</time>
      </trkpt>
      <trkpt lat="49.00809" lon="7.53654">
        <ele>241</ele>
        <time>2025-05-10T14:30:17.000Z</time>
      </trkpt>
      <trkpt lat="49.00805" lon="7.53673">
        <ele>240</ele>
        <time>2025-05-10T14:30:28.000Z</time>
      </trkpt>
      <trkpt lat="49.00808" lon="7.53684">
        <ele>240</ele>
        <time>2025-05-10T14:30:36.000Z</time>
      </trkpt>
      <trkpt lat="49.0081" lon="7.53691">
        <ele>240</ele>
        <time>2025-05-10T14:30:43.000Z</time>
      </trkpt>
      <trkpt lat="49.00805" lon="7.53698">
        <ele>239</ele>
        <time>2025-05-10T14:30:59.000Z</time>
      </trkpt>
      <trkpt lat="49.00804" lon="7.53713">
        <ele>239</ele>
        <time>2025-05-10T14:31:07.000Z</time>
      </trkpt>
      <trkpt lat="49.00805" lon="7.5372">
        <ele>239</ele>
        <time>2025-05-10T14:31:12.000Z</time>
      </trkpt>
      <trkpt lat="49.00806" lon="7.53732">
        <ele>238</ele>
        <time>2025-05-10T14:31:34.000Z</time>
      </trkpt>
      <trkpt lat="49.00811" lon="7.53749">
        <ele>238</ele>
        <time>2025-05-10T14:32:14.000Z</time>
      </trkpt>
      <trkpt lat="49.00815" lon="7.53806">
        <ele>237</ele>
        <time>2025-05-10T14:32:48.000Z</time>
      </trkpt>
      <trkpt lat="49.00816" lon="7.53814">
        <ele>236</ele>
        <time>2025-05-10T14:32:53.000Z</time>
      </trkpt>
      <trkpt lat="49.00812" lon="7.53828">
        <ele>237</ele>
        <time>2025-05-10T14:33:01.000Z</time>
      </trkpt>
      <trkpt lat="49.00809" lon="7.53833">
        <ele>237</ele>
        <time>2025-05-10T14:33:05.000Z</time>
      </trkpt>
      <trkpt lat="49.008" lon="7.5384">
        <ele>237</ele>
        <time>2025-05-10T14:33:12.000Z</time>
      </trkpt>
      <trkpt lat="49.00795" lon="7.53841">
        <ele>237</ele>
        <time>2025-05-10T14:33:16.000Z</time>
      </trkpt>
      <trkpt lat="49.00791" lon="7.53841">
        <ele>237</ele>
        <time>2025-05-10T14:33:19.000Z</time>
      </trkpt>
      <trkpt lat="49.00786" lon="7.53843">
        <ele>236</ele>
        <time>2025-05-10T14:33:23.000Z</time>
      </trkpt>
      <trkpt lat="49.0078" lon="7.53843">
        <ele>236</ele>
        <time>2025-05-10T14:33:27.000Z</time>
      </trkpt>
      <trkpt lat="49.00771" lon="7.53842">
        <ele>236</ele>
        <time>2025-05-10T14:33:36.000Z</time>
      </trkpt>
      <trkpt lat="49.00734" lon="7.53828">
        <ele>236</ele>
        <time>2025-05-10T14:34:11.000Z</time>
      </trkpt>
      <trkpt lat="49.00728" lon="7.53828">
        <ele>236</ele>
        <time>2025-05-10T14:34:17.000Z</time>
      </trkpt>
      <trkpt lat="49.00723" lon="7.53826">
        <ele>236</ele>
        <time>2025-05-10T14:34:21.000Z</time>
      </trkpt>
      <trkpt lat="49.00685" lon="7.53812">
        <ele>237</ele>
        <time>2025-05-10T14:34:56.000Z</time>
      </trkpt>
      <trkpt lat="49.00672" lon="7.53807">
        <ele>237</ele>
        <time>2025-05-10T14:35:07.000Z</time>
      </trkpt>
      <trkpt lat="49.00664" lon="7.53801">
        <ele>237</ele>
        <time>2025-05-10T14:35:14.000Z</time>
      </trkpt>
      <trkpt lat="49.00659" lon="7.53796">
        <ele>237</ele>
        <time>2025-05-10T14:35:20.000Z</time>
      </trkpt>
      <trkpt lat="49.00653" lon="7.53782">
        <ele>237</ele>
        <time>2025-05-10T14:35:29.000Z</time>
      </trkpt>
      <trkpt lat="49.00654" lon="7.53763">
        <ele>237</ele>
        <time>2025-05-10T14:35:31.000Z</time>
      </trkpt>
      <trkpt lat="49.00622" lon="7.53727">
        <ele>238</ele>
        <time>2025-05-10T14:36:00.000Z</time>
      </trkpt>
      <trkpt lat="49.00618" lon="7.53722">
        <ele>238</ele>
        <time>2025-05-10T14:36:05.000Z</time>
      </trkpt>
      <trkpt lat="49.00605" lon="7.53706">
        <ele>237</ele>
        <time>2025-05-10T14:36:17.000Z</time>
      </trkpt>
      <trkpt lat="49.00577" lon="7.53671">
        <ele>237</ele>
        <time>2025-05-10T14:36:49.000Z</time>
      </trkpt>
      <trkpt lat="49.00545" lon="7.5365">
        <ele>238</ele>
        <time>2025-05-10T14:37:17.000Z</time>
      </trkpt>
      <trkpt lat="49.00523" lon="7.53646">
        <ele>237</ele>
        <time>2025-05-10T14:37:39.000Z</time>
      </trkpt>
      <trkpt lat="49.00517" lon="7.53647">
        <ele>237</ele>
        <time>2025-05-10T14:37:44.000Z</time>
      </trkpt>
      <trkpt lat="49.00507" lon="7.53648">
        <ele>238</ele>
        <time>2025-05-10T14:37:52.000Z</time>
      </trkpt>
      <trkpt lat="49.00466" lon="7.53658">
        <ele>238</ele>
        <time>2025-05-10T14:38:23.000Z</time>
      </trkpt>
      <trkpt lat="49.00437" lon="7.53665">
        <ele>238</ele>
        <time>2025-05-10T14:38:48.000Z</time>
      </trkpt>
      <trkpt lat="49.00421" lon="7.53661">
        <ele>238</ele>
        <time>2025-05-10T14:39:08.000Z</time>
      </trkpt>
      <trkpt lat="49.00416" lon="7.5366">
        <ele>238</ele>
        <time>2025-05-10T14:39:13.000Z</time>
      </trkpt>
      <trkpt lat="49.00397" lon="7.53651">
        <ele>238</ele>
        <time>2025-05-10T14:39:32.000Z</time>
      </trkpt>
      <trkpt lat="49.00391" lon="7.53664">
        <ele>238</ele>
        <time>2025-05-10T14:39:40.000Z</time>
      </trkpt>
      <trkpt lat="49.00387" lon="7.53659">
        <ele>238</ele>
        <time>2025-05-10T14:39:50.000Z</time>
      </trkpt>
      <trkpt lat="49.00388" lon="7.53637">
        <ele>237</ele>
        <time>2025-05-10T14:40:01.000Z</time>
      </trkpt>
      <trkpt lat="49.00381" lon="7.53597">
        <ele>235</ele>
        <time>2025-05-10T14:40:21.000Z</time>
      </trkpt>
      <trkpt lat="49.00377" lon="7.53584">
        <ele>235</ele>
        <time>2025-05-10T14:40:27.000Z</time>
      </trkpt>
      <trkpt lat="49.00372" lon="7.53578">
        <ele>235</ele>
        <time>2025-05-10T14:40:30.000Z</time>
      </trkpt>
      <trkpt lat="49.00367" lon="7.53574">
        <ele>235</ele>
        <time>2025-05-10T14:40:36.000Z</time>
      </trkpt>
      <trkpt lat="49.00359" lon="7.5357">
        <ele>234</ele>
        <time>2025-05-10T14:40:44.000Z</time>
      </trkpt>
      <trkpt lat="49.00326" lon="7.5356">
        <ele>234</ele>
        <time>2025-05-10T14:41:17.000Z</time>
      </trkpt>
      <trkpt lat="49.00298" lon="7.5355">
        <ele>234</ele>
        <time>2025-05-10T14:41:39.000Z</time>
      </trkpt>
      <trkpt lat="49.00257" lon="7.53533">
        <ele>234</ele>
        <time>2025-05-10T14:42:13.000Z</time>
      </trkpt>
      <trkpt lat="49.0025" lon="7.53532">
        <ele>234</ele>
        <time>2025-05-10T14:42:20.000Z</time>
      </trkpt>
      <trkpt lat="49.00244" lon="7.5353">
        <ele>235</ele>
        <time>2025-05-10T14:42:26.000Z</time>
      </trkpt>
      <trkpt lat="49.0024" lon="7.53528">
        <ele>234</ele>
        <time>2025-05-10T14:42:30.000Z</time>
      </trkpt>
      <trkpt lat="49.00205" lon="7.53512">
        <ele>235</ele>
        <time>2025-05-10T14:43:00.000Z</time>
      </trkpt>
      <trkpt lat="49.002" lon="7.53511">
        <ele>234</ele>
        <time>2025-05-10T14:43:04.000Z</time>
      </trkpt>
      <trkpt lat="49.00195" lon="7.53509">
        <ele>236</ele>
        <time>2025-05-10T14:43:08.000Z</time>
      </trkpt>
      <trkpt lat="49.00191" lon="7.53507">
        <ele>235</ele>
        <time>2025-05-10T14:43:12.000Z</time>
      </trkpt>
      <trkpt lat="49.00167" lon="7.53501">
        <ele>235</ele>
        <time>2025-05-10T14:43:33.000Z</time>
      </trkpt>
      <trkpt lat="49.00162" lon="7.535">
        <ele>235</ele>
        <time>2025-05-10T14:43:38.000Z</time>
      </trkpt>
      <trkpt lat="49.00148" lon="7.53496">
        <ele>234</ele>
        <time>2025-05-10T14:43:50.000Z</time>
      </trkpt>
      <trkpt lat="49.00143" lon="7.53495">
        <ele>234</ele>
        <time>2025-05-10T14:43:54.000Z</time>
      </trkpt>
      <trkpt lat="49.00106" lon="7.53483">
        <ele>235</ele>
        <time>2025-05-10T14:44:27.000Z</time>
      </trkpt>
      <trkpt lat="49.0007" lon="7.53476">
        <ele>234</ele>
        <time>2025-05-10T14:44:55.000Z</time>
      </trkpt>
      <trkpt lat="49.00066" lon="7.53475">
        <ele>235</ele>
        <time>2025-05-10T14:44:59.000Z</time>
      </trkpt>
      <trkpt lat="49.00061" lon="7.53475">
        <ele>234</ele>
        <time>2025-05-10T14:45:02.000Z</time>
      </trkpt>
      <trkpt lat="49.00056" lon="7.53473">
        <ele>235</ele>
        <time>2025-05-10T14:45:06.000Z</time>
      </trkpt>
      <trkpt lat="49.00049" lon="7.53472">
        <ele>234</ele>
        <time>2025-05-10T14:45:11.000Z</time>
      </trkpt>
      <trkpt lat="49.00042" lon="7.53481">
        <ele>234</ele>
        <time>2025-05-10T14:45:14.000Z</time>
      </trkpt>
      <trkpt lat="49.00038" lon="7.53479">
        <ele>234</ele>
        <time>2025-05-10T14:45:18.000Z</time>
      </trkpt>
      <trkpt lat="49.00029" lon="7.53483">
        <ele>233</ele>
        <time>2025-05-10T14:45:27.000Z</time>
      </trkpt>
      <trkpt lat="48.99999" lon="7.53482">
        <ele>233</ele>
        <time>2025-05-10T14:45:51.000Z</time>
      </trkpt>
      <trkpt lat="48.99988" lon="7.53476">
        <ele>233</ele>
        <time>2025-05-10T14:45:58.000Z</time>
      </trkpt>
      <trkpt lat="48.99985" lon="7.5347">
        <ele>233</ele>
        <time>2025-05-10T14:46:00.000Z</time>
      </trkpt>
      <trkpt lat="48.99981" lon="7.53465">
        <ele>233</ele>
        <time>2025-05-10T14:46:04.000Z</time>
      </trkpt>
      <trkpt lat="48.99975" lon="7.53461">
        <ele>233</ele>
        <time>2025-05-10T14:46:08.000Z</time>
      </trkpt>
      <trkpt lat="48.99969" lon="7.53459">
        <ele>233</ele>
        <time>2025-05-10T14:46:12.000Z</time>
      </trkpt>
      <trkpt lat="48.99959" lon="7.53451">
        <ele>233</ele>
        <time>2025-05-10T14:46:26.000Z</time>
      </trkpt>
      <trkpt lat="48.99953" lon="7.53452">
        <ele>234</ele>
        <time>2025-05-10T14:46:32.000Z</time>
      </trkpt>
      <trkpt lat="48.99944" lon="7.53447">
        <ele>234</ele>
        <time>2025-05-10T14:46:41.000Z</time>
      </trkpt>
      <trkpt lat="48.99939" lon="7.53447">
        <ele>234</ele>
        <time>2025-05-10T14:46:46.000Z</time>
      </trkpt>
      <trkpt lat="48.99899" lon="7.53434">
        <ele>234</ele>
        <time>2025-05-10T14:47:17.000Z</time>
      </trkpt>
      <trkpt lat="48.9989" lon="7.5343">
        <ele>235</ele>
        <time>2025-05-10T14:47:25.000Z</time>
      </trkpt>
      <trkpt lat="48.9987" lon="7.53413">
        <ele>235</ele>
        <time>2025-05-10T14:47:46.000Z</time>
      </trkpt>
      <trkpt lat="48.99866" lon="7.53407">
        <ele>235</ele>
        <time>2025-05-10T14:47:50.000Z</time>
      </trkpt>
      <trkpt lat="48.99848" lon="7.534">
        <ele>235</ele>
        <time>2025-05-10T14:48:04.000Z</time>
      </trkpt>
      <trkpt lat="48.9984" lon="7.53396">
        <ele>234</ele>
        <time>2025-05-10T14:48:14.000Z</time>
      </trkpt>
      <trkpt lat="48.99837" lon="7.53391">
        <ele>234</ele>
        <time>2025-05-10T14:48:17.000Z</time>
      </trkpt>
      <trkpt lat="48.99829" lon="7.53367">
        <ele>232</ele>
        <time>2025-05-10T14:48:29.000Z</time>
      </trkpt>
      <trkpt lat="48.99826" lon="7.53361">
        <ele>232</ele>
        <time>2025-05-10T14:48:35.000Z</time>
      </trkpt>
      <trkpt lat="48.99818" lon="7.53353">
        <ele>233</ele>
        <time>2025-05-10T14:48:45.000Z</time>
      </trkpt>
      <trkpt lat="48.99812" lon="7.53343">
        <ele>233</ele>
        <time>2025-05-10T14:48:53.000Z</time>
      </trkpt>
      <trkpt lat="48.99808" lon="7.53338">
        <ele>233</ele>
        <time>2025-05-10T14:48:55.000Z</time>
      </trkpt>
      <trkpt lat="48.99805" lon="7.53324">
        <ele>232</ele>
        <time>2025-05-10T14:49:02.000Z</time>
      </trkpt>
      <trkpt lat="48.99803" lon="7.53317">
        <ele>232</ele>
        <time>2025-05-10T14:49:06.000Z</time>
      </trkpt>
      <trkpt lat="48.99798" lon="7.53294">
        <ele>233</ele>
        <time>2025-05-10T14:49:18.000Z</time>
      </trkpt>
      <trkpt lat="48.99795" lon="7.53289">
        <ele>233</ele>
        <time>2025-05-10T14:49:22.000Z</time>
      </trkpt>
      <trkpt lat="48.99791" lon="7.53278">
        <ele>233</ele>
        <time>2025-05-10T14:49:29.000Z</time>
      </trkpt>
      <trkpt lat="48.99788" lon="7.53273">
        <ele>233</ele>
        <time>2025-05-10T14:49:32.000Z</time>
      </trkpt>
      <trkpt lat="48.99787" lon="7.53263">
        <ele>234</ele>
        <time>2025-05-10T14:49:38.000Z</time>
      </trkpt>
      <trkpt lat="48.99788" lon="7.53256">
        <ele>234</ele>
        <time>2025-05-10T14:49:42.000Z</time>
      </trkpt>
      <trkpt lat="48.99785" lon="7.53248">
        <ele>234</ele>
        <time>2025-05-10T14:49:46.000Z</time>
      </trkpt>
      <trkpt lat="48.99778" lon="7.53225">
        <ele>234</ele>
        <time>2025-05-10T14:49:56.000Z</time>
      </trkpt>
      <trkpt lat="48.99774" lon="7.53223">
        <ele>234</ele>
        <time>2025-05-10T14:49:58.000Z</time>
      </trkpt>
      <trkpt lat="48.99769" lon="7.53221">
        <ele>233</ele>
        <time>2025-05-10T14:50:04.000Z</time>
      </trkpt>
      <trkpt lat="48.99766" lon="7.5321">
        <ele>233</ele>
        <time>2025-05-10T14:50:09.000Z</time>
      </trkpt>
      <trkpt lat="48.99766" lon="7.53202">
        <ele>233</ele>
        <time>2025-05-10T14:50:12.000Z</time>
      </trkpt>
      <trkpt lat="48.99762" lon="7.5318">
        <ele>233</ele>
        <time>2025-05-10T14:50:23.000Z</time>
      </trkpt>
      <trkpt lat="48.99757" lon="7.53167">
        <ele>233</ele>
        <time>2025-05-10T14:50:30.000Z</time>
      </trkpt>
      <trkpt lat="48.99748" lon="7.53164">
        <ele>234</ele>
        <time>2025-05-10T14:50:40.000Z</time>
      </trkpt>
      <trkpt lat="48.99738" lon="7.53165">
        <ele>234</ele>
        <time>2025-05-10T14:50:53.000Z</time>
      </trkpt>
      <trkpt lat="48.99718" lon="7.53162">
        <ele>234</ele>
        <time>2025-05-10T14:51:06.000Z</time>
      </trkpt>
      <trkpt lat="48.99717" lon="7.53154">
        <ele>234</ele>
        <time>2025-05-10T14:51:09.000Z</time>
      </trkpt>
      <trkpt lat="48.99702" lon="7.53164">
        <ele>234</ele>
        <time>2025-05-10T14:51:21.000Z</time>
      </trkpt>
      <trkpt lat="48.99706" lon="7.53157">
        <ele>235</ele>
        <time>2025-05-10T14:51:35.000Z</time>
      </trkpt>
      <trkpt lat="48.997" lon="7.53152">
        <ele>235</ele>
        <time>2025-05-10T14:51:37.000Z</time>
      </trkpt>
      <trkpt lat="48.99698" lon="7.53143">
        <ele>235</ele>
        <time>2025-05-10T14:51:39.000Z</time>
      </trkpt>
      <trkpt lat="48.99695" lon="7.5314">
        <ele>235</ele>
        <time>2025-05-10T14:51:48.000Z</time>
      </trkpt>
      <trkpt lat="48.99692" lon="7.53132">
        <ele>235</ele>
        <time>2025-05-10T14:51:53.000Z</time>
      </trkpt>
      <trkpt lat="48.99691" lon="7.53116">
        <ele>235</ele>
        <time>2025-05-10T14:52:03.000Z</time>
      </trkpt>
      <trkpt lat="48.99688" lon="7.5311">
        <ele>235</ele>
        <time>2025-05-10T14:52:07.000Z</time>
      </trkpt>
      <trkpt lat="48.99682" lon="7.53103">
        <ele>236</ele>
        <time>2025-05-10T14:52:16.000Z</time>
      </trkpt>
      <trkpt lat="48.99679" lon="7.53098">
        <ele>236</ele>
        <time>2025-05-10T14:52:20.000Z</time>
      </trkpt>
      <trkpt lat="48.99674" lon="7.53092">
        <ele>237</ele>
        <time>2025-05-10T14:52:26.000Z</time>
      </trkpt>
      <trkpt lat="48.9967" lon="7.53088">
        <ele>237</ele>
        <time>2025-05-10T14:52:30.000Z</time>
      </trkpt>
      <trkpt lat="48.99665" lon="7.53082">
        <ele>237</ele>
        <time>2025-05-10T14:52:34.000Z</time>
      </trkpt>
      <trkpt lat="48.99659" lon="7.53073">
        <ele>238</ele>
        <time>2025-05-10T14:52:40.000Z</time>
      </trkpt>
      <trkpt lat="48.99608" lon="7.53026">
        <ele>238</ele>
        <time>2025-05-10T14:53:18.000Z</time>
      </trkpt>
      <trkpt lat="48.99565" lon="7.52992">
        <ele>239</ele>
        <time>2025-05-10T14:53:50.000Z</time>
      </trkpt>
      <trkpt lat="48.99526" lon="7.52948">
        <ele>240</ele>
        <time>2025-05-10T14:54:29.000Z</time>
      </trkpt>
      <trkpt lat="48.9951" lon="7.52928">
        <ele>240</ele>
        <time>2025-05-10T14:55:02.000Z</time>
      </trkpt>
      <trkpt lat="48.99477" lon="7.52895">
        <ele>241</ele>
        <time>2025-05-10T14:55:35.000Z</time>
      </trkpt>
      <trkpt lat="48.99472" lon="7.52891">
        <ele>242</ele>
        <time>2025-05-10T14:55:39.000Z</time>
      </trkpt>
      <trkpt lat="48.99468" lon="7.52889">
        <ele>242</ele>
        <time>2025-05-10T14:55:43.000Z</time>
      </trkpt>
      <trkpt lat="48.99463" lon="7.52888">
        <ele>242</ele>
        <time>2025-05-10T14:55:47.000Z</time>
      </trkpt>
      <trkpt lat="48.99454" lon="7.52885">
        <ele>242</ele>
        <time>2025-05-10T14:55:55.000Z</time>
      </trkpt>
      <trkpt lat="48.99447" lon="7.52873">
        <ele>243</ele>
        <time>2025-05-10T14:56:05.000Z</time>
      </trkpt>
      <trkpt lat="48.99443" lon="7.52869">
        <ele>243</ele>
        <time>2025-05-10T14:56:09.000Z</time>
      </trkpt>
      <trkpt lat="48.99439" lon="7.52863">
        <ele>243</ele>
        <time>2025-05-10T14:56:13.000Z</time>
      </trkpt>
      <trkpt lat="48.99437" lon="7.52858">
        <ele>244</ele>
        <time>2025-05-10T14:56:17.000Z</time>
      </trkpt>
      <trkpt lat="48.99429" lon="7.52839">
        <ele>244</ele>
        <time>2025-05-10T14:56:24.000Z</time>
      </trkpt>
      <trkpt lat="48.99427" lon="7.52834">
        <ele>244</ele>
        <time>2025-05-10T14:56:27.000Z</time>
      </trkpt>
      <trkpt lat="48.99407" lon="7.52803">
        <ele>245</ele>
        <time>2025-05-10T14:56:47.000Z</time>
      </trkpt>
      <trkpt lat="48.99402" lon="7.52801">
        <ele>245</ele>
        <time>2025-05-10T14:56:50.000Z</time>
      </trkpt>
      <trkpt lat="48.99396" lon="7.52786">
        <ele>246</ele>
        <time>2025-05-10T14:56:56.000Z</time>
      </trkpt>
      <trkpt lat="48.99396" lon="7.52782">
        <ele>246</ele>
        <time>2025-05-10T14:57:00.000Z</time>
      </trkpt>
      <trkpt lat="48.99388" lon="7.52769">
        <ele>246</ele>
        <time>2025-05-10T14:57:08.000Z</time>
      </trkpt>
      <trkpt lat="48.99381" lon="7.52762">
        <ele>247</ele>
        <time>2025-05-10T14:57:14.000Z</time>
      </trkpt>
      <trkpt lat="48.99379" lon="7.52757">
        <ele>247</ele>
        <time>2025-05-10T14:57:19.000Z</time>
      </trkpt>
      <trkpt lat="48.99375" lon="7.52747">
        <ele>248</ele>
        <time>2025-05-10T14:57:27.000Z</time>
      </trkpt>
      <trkpt lat="48.99371" lon="7.52741">
        <ele>248</ele>
        <time>2025-05-10T14:57:29.000Z</time>
      </trkpt>
      <trkpt lat="48.99363" lon="7.52736">
        <ele>250</ele>
        <time>2025-05-10T14:57:45.000Z</time>
      </trkpt>
      <trkpt lat="48.9935" lon="7.52716">
        <ele>251</ele>
        <time>2025-05-10T14:58:00.000Z</time>
      </trkpt>
      <trkpt lat="48.99348" lon="7.52704">
        <ele>252</ele>
        <time>2025-05-10T14:58:05.000Z</time>
      </trkpt>
      <trkpt lat="48.9933" lon="7.52672">
        <ele>254</ele>
        <time>2025-05-10T14:58:26.000Z</time>
      </trkpt>
      <trkpt lat="48.99327" lon="7.52666">
        <ele>255</ele>
        <time>2025-05-10T14:58:33.000Z</time>
      </trkpt>
      <trkpt lat="48.99322" lon="7.52656">
        <ele>255</ele>
        <time>2025-05-10T14:58:42.000Z</time>
      </trkpt>
      <trkpt lat="48.99318" lon="7.52669">
        <ele>256</ele>
        <time>2025-05-10T14:58:52.000Z</time>
      </trkpt>
      <trkpt lat="48.99313" lon="7.52664">
        <ele>253</ele>
        <time>2025-05-10T15:00:37.000Z</time>
      </trkpt>
      <trkpt lat="48.99316" lon="7.52648">
        <ele>255</ele>
        <time>2025-05-10T15:01:28.000Z</time>
      </trkpt>
      <trkpt lat="48.99303" lon="7.52628">
        <ele>256</ele>
        <time>2025-05-10T15:01:44.000Z</time>
      </trkpt>
      <trkpt lat="48.993" lon="7.52619">
        <ele>256</ele>
        <time>2025-05-10T15:01:49.000Z</time>
      </trkpt>
      <trkpt lat="48.99297" lon="7.52616">
        <ele>257</ele>
        <time>2025-05-10T15:01:54.000Z</time>
      </trkpt>
      <trkpt lat="48.9929" lon="7.52608">
        <ele>257</ele>
        <time>2025-05-10T15:02:02.000Z</time>
      </trkpt>
      <trkpt lat="48.99288" lon="7.52601">
        <ele>258</ele>
        <time>2025-05-10T15:02:06.000Z</time>
      </trkpt>
      <trkpt lat="48.9927" lon="7.52567">
        <ele>259</ele>
        <time>2025-05-10T15:02:31.000Z</time>
      </trkpt>
      <trkpt lat="48.99265" lon="7.52553">
        <ele>260</ele>
        <time>2025-05-10T15:02:41.000Z</time>
      </trkpt>
      <trkpt lat="48.9925" lon="7.52536">
        <ele>261</ele>
        <time>2025-05-10T15:02:58.000Z</time>
      </trkpt>
      <trkpt lat="48.99246" lon="7.52534">
        <ele>262</ele>
        <time>2025-05-10T15:03:02.000Z</time>
      </trkpt>
      <trkpt lat="48.99244" lon="7.52526">
        <ele>262</ele>
        <time>2025-05-10T15:03:06.000Z</time>
      </trkpt>
      <trkpt lat="48.9924" lon="7.5252">
        <ele>263</ele>
        <time>2025-05-10T15:03:11.000Z</time>
      </trkpt>
      <trkpt lat="48.99239" lon="7.52513">
        <ele>263</ele>
        <time>2025-05-10T15:03:14.000Z</time>
      </trkpt>
      <trkpt lat="48.99233" lon="7.52505">
        <ele>265</ele>
        <time>2025-05-10T15:03:26.000Z</time>
      </trkpt>
      <trkpt lat="48.9923" lon="7.52497">
        <ele>265</ele>
        <time>2025-05-10T15:03:30.000Z</time>
      </trkpt>
      <trkpt lat="48.99201" lon="7.52454">
        <ele>272</ele>
        <time>2025-05-10T15:04:14.000Z</time>
      </trkpt>
      <trkpt lat="48.99196" lon="7.52448">
        <ele>272</ele>
        <time>2025-05-10T15:04:17.000Z</time>
      </trkpt>
      <trkpt lat="48.9919" lon="7.52443">
        <ele>272</ele>
        <time>2025-05-10T15:04:23.000Z</time>
      </trkpt>
      <trkpt lat="48.99184" lon="7.52432">
        <ele>273</ele>
        <time>2025-05-10T15:04:29.000Z</time>
      </trkpt>
      <trkpt lat="48.99181" lon="7.5242">
        <ele>275</ele>
        <time>2025-05-10T15:04:38.000Z</time>
      </trkpt>
      <trkpt lat="48.99178" lon="7.52413">
        <ele>275</ele>
        <time>2025-05-10T15:04:44.000Z</time>
      </trkpt>
      <trkpt lat="48.99172" lon="7.52407">
        <ele>276</ele>
        <time>2025-05-10T15:04:51.000Z</time>
      </trkpt>
      <trkpt lat="48.99163" lon="7.5239">
        <ele>278</ele>
        <time>2025-05-10T15:05:03.000Z</time>
      </trkpt>
      <trkpt lat="48.99155" lon="7.52386">
        <ele>279</ele>
        <time>2025-05-10T15:05:10.000Z</time>
      </trkpt>
      <trkpt lat="48.99152" lon="7.52381">
        <ele>280</ele>
        <time>2025-05-10T15:05:13.000Z</time>
      </trkpt>
      <trkpt lat="48.99133" lon="7.52368">
        <ele>282</ele>
        <time>2025-05-10T15:05:31.000Z</time>
      </trkpt>
      <trkpt lat="48.99122" lon="7.52368">
        <ele>283</ele>
        <time>2025-05-10T15:05:43.000Z</time>
      </trkpt>
      <trkpt lat="48.99117" lon="7.52374">
        <ele>283</ele>
        <time>2025-05-10T15:05:46.000Z</time>
      </trkpt>
      <trkpt lat="48.99112" lon="7.52395">
        <ele>285</ele>
        <time>2025-05-10T15:05:57.000Z</time>
      </trkpt>
      <trkpt lat="48.99107" lon="7.52401">
        <ele>287</ele>
        <time>2025-05-10T15:06:13.000Z</time>
      </trkpt>
      <trkpt lat="48.99101" lon="7.52402">
        <ele>287</ele>
        <time>2025-05-10T15:06:18.000Z</time>
      </trkpt>
      <trkpt lat="48.99083" lon="7.52426">
        <ele>292</ele>
        <time>2025-05-10T15:06:48.000Z</time>
      </trkpt>
      <trkpt lat="48.99078" lon="7.52435">
        <ele>293</ele>
        <time>2025-05-10T15:06:55.000Z</time>
      </trkpt>
      <trkpt lat="48.9908" lon="7.52448">
        <ele>295</ele>
        <time>2025-05-10T15:07:05.000Z</time>
      </trkpt>
      <trkpt lat="48.99073" lon="7.52455">
        <ele>297</ele>
        <time>2025-05-10T15:07:14.000Z</time>
      </trkpt>
      <trkpt lat="48.9907" lon="7.52462">
        <ele>298</ele>
        <time>2025-05-10T15:07:20.000Z</time>
      </trkpt>
      <trkpt lat="48.99059" lon="7.52469">
        <ele>300</ele>
        <time>2025-05-10T15:07:28.000Z</time>
      </trkpt>
      <trkpt lat="48.99059" lon="7.52463">
        <ele>301</ele>
        <time>2025-05-10T15:07:36.000Z</time>
      </trkpt>
      <trkpt lat="48.99055" lon="7.52468">
        <ele>301</ele>
        <time>2025-05-10T15:07:41.000Z</time>
      </trkpt>
      <trkpt lat="48.99053" lon="7.52476">
        <ele>300</ele>
        <time>2025-05-10T15:07:46.000Z</time>
      </trkpt>
      <trkpt lat="48.99049" lon="7.52479">
        <ele>300</ele>
        <time>2025-05-10T15:07:50.000Z</time>
      </trkpt>
      <trkpt lat="48.99049" lon="7.52488">
        <ele>298</ele>
        <time>2025-05-10T15:07:56.000Z</time>
      </trkpt>
      <trkpt lat="48.99046" lon="7.52494">
        <ele>297</ele>
        <time>2025-05-10T15:08:00.000Z</time>
      </trkpt>
      <trkpt lat="48.99044" lon="7.52499">
        <ele>297</ele>
        <time>2025-05-10T15:08:04.000Z</time>
      </trkpt>
      <trkpt lat="48.9903" lon="7.52527">
        <ele>294</ele>
        <time>2025-05-10T15:08:19.000Z</time>
      </trkpt>
      <trkpt lat="48.99019" lon="7.52541">
        <ele>293</ele>
        <time>2025-05-10T15:08:27.000Z</time>
      </trkpt>
      <trkpt lat="48.99012" lon="7.52543">
        <ele>291</ele>
        <time>2025-05-10T15:08:36.000Z</time>
      </trkpt>
      <trkpt lat="48.98998" lon="7.52538">
        <ele>291</ele>
        <time>2025-05-10T15:08:44.000Z</time>
      </trkpt>
      <trkpt lat="48.98994" lon="7.52535">
        <ele>290</ele>
        <time>2025-05-10T15:08:47.000Z</time>
      </trkpt>
      <trkpt lat="48.98983" lon="7.52522">
        <ele>289</ele>
        <time>2025-05-10T15:08:58.000Z</time>
      </trkpt>
      <trkpt lat="48.98978" lon="7.5252">
        <ele>288</ele>
        <time>2025-05-10T15:09:02.000Z</time>
      </trkpt>
      <trkpt lat="48.98971" lon="7.52514">
        <ele>288</ele>
        <time>2025-05-10T15:09:07.000Z</time>
      </trkpt>
      <trkpt lat="48.98967" lon="7.52509">
        <ele>287</ele>
        <time>2025-05-10T15:09:11.000Z</time>
      </trkpt>
      <trkpt lat="48.9893" lon="7.52494">
        <ele>283</ele>
        <time>2025-05-10T15:09:43.000Z</time>
      </trkpt>
      <trkpt lat="48.98926" lon="7.52489">
        <ele>283</ele>
        <time>2025-05-10T15:09:46.000Z</time>
      </trkpt>
      <trkpt lat="48.98921" lon="7.5249">
        <ele>283</ele>
        <time>2025-05-10T15:09:50.000Z</time>
      </trkpt>
      <trkpt lat="48.98902" lon="7.52483">
        <ele>279</ele>
        <time>2025-05-10T15:10:10.000Z</time>
      </trkpt>
      <trkpt lat="48.98896" lon="7.5248">
        <ele>279</ele>
        <time>2025-05-10T15:10:12.000Z</time>
      </trkpt>
      <trkpt lat="48.98892" lon="7.52481">
        <ele>279</ele>
        <time>2025-05-10T15:10:17.000Z</time>
      </trkpt>
      <trkpt lat="48.98865" lon="7.52474">
        <ele>275</ele>
        <time>2025-05-10T15:10:39.000Z</time>
      </trkpt>
      <trkpt lat="48.98859" lon="7.5247">
        <ele>274</ele>
        <time>2025-05-10T15:10:56.000Z</time>
      </trkpt>
      <trkpt lat="48.9885" lon="7.52472">
        <ele>273</ele>
        <time>2025-05-10T15:11:04.000Z</time>
      </trkpt>
      <trkpt lat="48.98846" lon="7.52472">
        <ele>273</ele>
        <time>2025-05-10T15:11:07.000Z</time>
      </trkpt>
      <trkpt lat="48.98825" lon="7.52464">
        <ele>270</ele>
        <time>2025-05-10T15:11:27.000Z</time>
      </trkpt>
      <trkpt lat="48.98792" lon="7.52435">
        <ele>265</ele>
        <time>2025-05-10T15:12:03.000Z</time>
      </trkpt>
      <trkpt lat="48.98788" lon="7.52432">
        <ele>264</ele>
        <time>2025-05-10T15:12:07.000Z</time>
      </trkpt>
      <trkpt lat="48.98783" lon="7.52427">
        <ele>264</ele>
        <time>2025-05-10T15:12:11.000Z</time>
      </trkpt>
      <trkpt lat="48.98773" lon="7.52424">
        <ele>263</ele>
        <time>2025-05-10T15:12:18.000Z</time>
      </trkpt>
      <trkpt lat="48.98768" lon="7.52423">
        <ele>263</ele>
        <time>2025-05-10T15:12:21.000Z</time>
      </trkpt>
      <trkpt lat="48.98759" lon="7.52419">
        <ele>261</ele>
        <time>2025-05-10T15:12:27.000Z</time>
      </trkpt>
      <trkpt lat="48.98753" lon="7.52417">
        <ele>261</ele>
        <time>2025-05-10T15:12:29.000Z</time>
      </trkpt>
      <trkpt lat="48.98741" lon="7.52417">
        <ele>259</ele>
        <time>2025-05-10T15:12:40.000Z</time>
      </trkpt>
      <trkpt lat="48.98737" lon="7.52413">
        <ele>259</ele>
        <time>2025-05-10T15:12:43.000Z</time>
      </trkpt>
      <trkpt lat="48.98727" lon="7.52421">
        <ele>257</ele>
        <time>2025-05-10T15:12:54.000Z</time>
      </trkpt>
      <trkpt lat="48.98722" lon="7.52426">
        <ele>257</ele>
        <time>2025-05-10T15:12:59.000Z</time>
      </trkpt>
      <trkpt lat="48.9872" lon="7.52433">
        <ele>256</ele>
        <time>2025-05-10T15:13:06.000Z</time>
      </trkpt>
      <trkpt lat="48.98714" lon="7.52437">
        <ele>256</ele>
        <time>2025-05-10T15:13:10.000Z</time>
      </trkpt>
      <trkpt lat="48.98711" lon="7.52444">
        <ele>256</ele>
        <time>2025-05-10T15:13:15.000Z</time>
      </trkpt>
      <trkpt lat="48.98708" lon="7.52458">
        <ele>254</ele>
        <time>2025-05-10T15:13:23.000Z</time>
      </trkpt>
      <trkpt lat="48.98702" lon="7.5246">
        <ele>255</ele>
        <time>2025-05-10T15:13:33.000Z</time>
      </trkpt>
      <trkpt lat="48.98692" lon="7.52459">
        <ele>255</ele>
        <time>2025-05-10T15:13:36.000Z</time>
      </trkpt>
      <trkpt lat="48.98687" lon="7.52462">
        <ele>255</ele>
        <time>2025-05-10T15:13:39.000Z</time>
      </trkpt>
      <trkpt lat="48.98681" lon="7.52461">
        <ele>255</ele>
        <time>2025-05-10T15:13:41.000Z</time>
      </trkpt>
      <trkpt lat="48.98666" lon="7.52479">
        <ele>258</ele>
        <time>2025-05-10T15:13:59.000Z</time>
      </trkpt>
      <trkpt lat="48.98662" lon="7.52485">
        <ele>259</ele>
        <time>2025-05-10T15:14:02.000Z</time>
      </trkpt>
      <trkpt lat="48.98658" lon="7.52491">
        <ele>261</ele>
        <time>2025-05-10T15:14:16.000Z</time>
      </trkpt>
      <trkpt lat="48.98652" lon="7.52493">
        <ele>262</ele>
        <time>2025-05-10T15:14:23.000Z</time>
      </trkpt>
      <trkpt lat="48.98635" lon="7.52486">
        <ele>264</ele>
        <time>2025-05-10T15:14:40.000Z</time>
      </trkpt>
      <trkpt lat="48.98629" lon="7.52483">
        <ele>264</ele>
        <time>2025-05-10T15:14:42.000Z</time>
      </trkpt>
      <trkpt lat="48.98611" lon="7.52472">
        <ele>267</ele>
        <time>2025-05-10T15:14:57.000Z</time>
      </trkpt>
      <trkpt lat="48.98602" lon="7.52475">
        <ele>268</ele>
        <time>2025-05-10T15:15:05.000Z</time>
      </trkpt>
      <trkpt lat="48.98596" lon="7.52483">
        <ele>268</ele>
        <time>2025-05-10T15:15:09.000Z</time>
      </trkpt>
      <trkpt lat="48.98586" lon="7.5247">
        <ele>270</ele>
        <time>2025-05-10T15:15:23.000Z</time>
      </trkpt>
      <trkpt lat="48.98583" lon="7.52462">
        <ele>270</ele>
        <time>2025-05-10T15:15:25.000Z</time>
      </trkpt>
      <trkpt lat="48.98572" lon="7.52461">
        <ele>272</ele>
        <time>2025-05-10T15:15:37.000Z</time>
      </trkpt>
      <trkpt lat="48.98569" lon="7.52451">
        <ele>272</ele>
        <time>2025-05-10T15:15:41.000Z</time>
      </trkpt>
      <trkpt lat="48.98562" lon="7.52436">
        <ele>274</ele>
        <time>2025-05-10T15:15:50.000Z</time>
      </trkpt>
      <trkpt lat="48.9855" lon="7.52433">
        <ele>275</ele>
        <time>2025-05-10T15:15:59.000Z</time>
      </trkpt>
      <trkpt lat="48.98546" lon="7.52427">
        <ele>276</ele>
        <time>2025-05-10T15:16:08.000Z</time>
      </trkpt>
      <trkpt lat="48.9854" lon="7.52412">
        <ele>277</ele>
        <time>2025-05-10T15:16:14.000Z</time>
      </trkpt>
      <trkpt lat="48.98534" lon="7.52411">
        <ele>278</ele>
        <time>2025-05-10T15:16:25.000Z</time>
      </trkpt>
      <trkpt lat="48.98524" lon="7.52382">
        <ele>281</ele>
        <time>2025-05-10T15:16:44.000Z</time>
      </trkpt>
      <trkpt lat="48.98516" lon="7.52373">
        <ele>281</ele>
        <time>2025-05-10T15:16:47.000Z</time>
      </trkpt>
      <trkpt lat="48.9851" lon="7.52376">
        <ele>282</ele>
        <time>2025-05-10T15:16:52.000Z</time>
      </trkpt>
      <trkpt lat="48.98504" lon="7.52368">
        <ele>284</ele>
        <time>2025-05-10T15:17:05.000Z</time>
      </trkpt>
      <trkpt lat="48.98495" lon="7.52354">
        <ele>284</ele>
        <time>2025-05-10T15:17:13.000Z</time>
      </trkpt>
      <trkpt lat="48.98489" lon="7.52345">
        <ele>286</ele>
        <time>2025-05-10T15:17:22.000Z</time>
      </trkpt>
      <trkpt lat="48.98481" lon="7.52338">
        <ele>286</ele>
        <time>2025-05-10T15:17:26.000Z</time>
      </trkpt>
      <trkpt lat="48.9848" lon="7.52329">
        <ele>287</ele>
        <time>2025-05-10T15:17:29.000Z</time>
      </trkpt>
      <trkpt lat="48.98478" lon="7.52331">
        <ele>287</ele>
        <time>2025-05-10T15:17:50.000Z</time>
      </trkpt>
      <trkpt lat="48.98473" lon="7.52331">
        <ele>286</ele>
        <time>2025-05-10T15:17:54.000Z</time>
      </trkpt>
      <trkpt lat="48.98468" lon="7.5233">
        <ele>285</ele>
        <time>2025-05-10T15:17:58.000Z</time>
      </trkpt>
      <trkpt lat="48.98446" lon="7.52312">
        <ele>281</ele>
        <time>2025-05-10T15:18:22.000Z</time>
      </trkpt>
      <trkpt lat="48.98452" lon="7.52296">
        <ele>283</ele>
        <time>2025-05-10T15:18:46.000Z</time>
      </trkpt>
      <trkpt lat="48.98449" lon="7.52284">
        <ele>284</ele>
        <time>2025-05-10T15:18:52.000Z</time>
      </trkpt>
      <trkpt lat="48.98449" lon="7.52271">
        <ele>285</ele>
        <time>2025-05-10T15:19:05.000Z</time>
      </trkpt>
      <trkpt lat="48.98446" lon="7.52277">
        <ele>285</ele>
        <time>2025-05-10T15:19:07.000Z</time>
      </trkpt>
      <trkpt lat="48.98442" lon="7.52276">
        <ele>286</ele>
        <time>2025-05-10T15:19:10.000Z</time>
      </trkpt>
      <trkpt lat="48.98448" lon="7.52253">
        <ele>290</ele>
        <time>2025-05-10T15:19:42.000Z</time>
      </trkpt>
      <trkpt lat="48.98442" lon="7.52251">
        <ele>293</ele>
        <time>2025-05-10T15:19:56.000Z</time>
      </trkpt>
      <trkpt lat="48.98436" lon="7.52255">
        <ele>294</ele>
        <time>2025-05-10T15:20:15.000Z</time>
      </trkpt>
      <trkpt lat="48.98441" lon="7.52264">
        <ele>298</ele>
        <time>2025-05-10T15:20:40.000Z</time>
      </trkpt>
      <trkpt lat="48.98445" lon="7.52259">
        <ele>299</ele>
        <time>2025-05-10T15:20:44.000Z</time>
      </trkpt>
      <trkpt lat="48.98449" lon="7.5226">
        <ele>300</ele>
        <time>2025-05-10T15:20:51.000Z</time>
      </trkpt>
      <trkpt lat="48.98453" lon="7.52265">
        <ele>302</ele>
        <time>2025-05-10T15:20:58.000Z</time>
      </trkpt>
      <trkpt lat="48.98462" lon="7.52284">
        <ele>304</ele>
        <time>2025-05-10T15:21:15.000Z</time>
      </trkpt>
      <trkpt lat="48.9847" lon="7.52291">
        <ele>309</ele>
        <time>2025-05-10T15:21:49.000Z</time>
      </trkpt>
      <trkpt lat="48.98479" lon="7.52296">
        <ele>309</ele>
        <time>2025-05-10T15:21:55.000Z</time>
      </trkpt>
      <trkpt lat="48.98478" lon="7.52288">
        <ele>309</ele>
        <time>2025-05-10T15:22:10.000Z</time>
      </trkpt>
      <trkpt lat="48.98471" lon="7.52282">
        <ele>310</ele>
        <time>2025-05-10T15:22:19.000Z</time>
      </trkpt>
      <trkpt lat="48.98467" lon="7.52279">
        <ele>310</ele>
        <time>2025-05-10T15:22:25.000Z</time>
      </trkpt>
      <trkpt lat="48.98468" lon="7.52284">
        <ele>311</ele>
        <time>2025-05-10T15:23:15.000Z</time>
      </trkpt>
      <trkpt lat="48.98473" lon="7.52288">
        <ele>309</ele>
        <time>2025-05-10T15:23:24.000Z</time>
      </trkpt>
      <trkpt lat="48.98478" lon="7.52292">
        <ele>309</ele>
        <time>2025-05-10T15:23:35.000Z</time>
      </trkpt>
      <trkpt lat="48.98494" lon="7.52298">
        <ele>303</ele>
        <time>2025-05-10T15:24:12.000Z</time>
      </trkpt>
      <trkpt lat="48.985" lon="7.52318">
        <ele>299</ele>
        <time>2025-05-10T15:24:30.000Z</time>
      </trkpt>
      <trkpt lat="48.98507" lon="7.52335">
        <ele>299</ele>
        <time>2025-05-10T15:24:35.000Z</time>
      </trkpt>
      <trkpt lat="48.98513" lon="7.52329">
        <ele>298</ele>
        <time>2025-05-10T15:24:39.000Z</time>
      </trkpt>
      <trkpt lat="48.98516" lon="7.52336">
        <ele>298</ele>
        <time>2025-05-10T15:24:42.000Z</time>
      </trkpt>
      <trkpt lat="48.98527" lon="7.52345">
        <ele>295</ele>
        <time>2025-05-10T15:24:53.000Z</time>
      </trkpt>
      <trkpt lat="48.98531" lon="7.52347">
        <ele>295</ele>
        <time>2025-05-10T15:24:55.000Z</time>
      </trkpt>
      <trkpt lat="48.98529" lon="7.52353">
        <ele>294</ele>
        <time>2025-05-10T15:24:59.000Z</time>
      </trkpt>
      <trkpt lat="48.98525" lon="7.52357">
        <ele>292</ele>
        <time>2025-05-10T15:25:03.000Z</time>
      </trkpt>
      <trkpt lat="48.98521" lon="7.5235">
        <ele>291</ele>
        <time>2025-05-10T15:25:07.000Z</time>
      </trkpt>
      <trkpt lat="48.98517" lon="7.52347">
        <ele>291</ele>
        <time>2025-05-10T15:25:12.000Z</time>
      </trkpt>
      <trkpt lat="48.98511" lon="7.52346">
        <ele>290</ele>
        <time>2025-05-10T15:25:16.000Z</time>
      </trkpt>
      <trkpt lat="48.98505" lon="7.52345">
        <ele>288</ele>
        <time>2025-05-10T15:25:23.000Z</time>
      </trkpt>
      <trkpt lat="48.985" lon="7.52344">
        <ele>287</ele>
        <time>2025-05-10T15:25:28.000Z</time>
      </trkpt>
      <trkpt lat="48.98493" lon="7.52343">
        <ele>285</ele>
        <time>2025-05-10T15:25:33.000Z</time>
      </trkpt>
      <trkpt lat="48.98488" lon="7.52342">
        <ele>284</ele>
        <time>2025-05-10T15:25:38.000Z</time>
      </trkpt>
      <trkpt lat="48.98453" lon="7.52302">
        <ele>277</ele>
        <time>2025-05-10T15:26:11.000Z</time>
      </trkpt>
      <trkpt lat="48.98427" lon="7.52272">
        <ele>269</ele>
        <time>2025-05-10T15:26:42.000Z</time>
      </trkpt>
      <trkpt lat="48.984" lon="7.52241">
        <ele>262</ele>
        <time>2025-05-10T15:27:13.000Z</time>
      </trkpt>
      <trkpt lat="48.98364" lon="7.52199">
        <ele>256</ele>
        <time>2025-05-10T15:27:48.000Z</time>
      </trkpt>
      <trkpt lat="48.98347" lon="7.5218">
        <ele>251</ele>
        <time>2025-05-10T15:28:06.000Z</time>
      </trkpt>
      <trkpt lat="48.98344" lon="7.52175">
        <ele>250</ele>
        <time>2025-05-10T15:28:11.000Z</time>
      </trkpt>
      <trkpt lat="48.98339" lon="7.5217">
        <ele>250</ele>
        <time>2025-05-10T15:28:28.000Z</time>
      </trkpt>
      <trkpt lat="48.98312" lon="7.52138">
        <ele>245</ele>
        <time>2025-05-10T15:28:59.000Z</time>
      </trkpt>
      <trkpt lat="48.98307" lon="7.52134">
        <ele>245</ele>
        <time>2025-05-10T15:29:03.000Z</time>
      </trkpt>
      <trkpt lat="48.98294" lon="7.52125">
        <ele>243</ele>
        <time>2025-05-10T15:29:14.000Z</time>
      </trkpt>
      <trkpt lat="48.98269" lon="7.52122">
        <ele>239</ele>
        <time>2025-05-10T15:29:35.000Z</time>
      </trkpt>
      <trkpt lat="48.98263" lon="7.52124">
        <ele>238</ele>
        <time>2025-05-10T15:29:43.000Z</time>
      </trkpt>
      <trkpt lat="48.98256" lon="7.5213">
        <ele>237</ele>
        <time>2025-05-10T15:29:47.000Z</time>
      </trkpt>
      <trkpt lat="48.98248" lon="7.52134">
        <ele>235</ele>
        <time>2025-05-10T15:29:55.000Z</time>
      </trkpt>
      <trkpt lat="48.98232" lon="7.52131">
        <ele>233</ele>
        <time>2025-05-10T15:30:04.000Z</time>
      </trkpt>
      <trkpt lat="48.98213" lon="7.52133">
        <ele>228</ele>
        <time>2025-05-10T15:30:23.000Z</time>
      </trkpt>
      <trkpt lat="48.98208" lon="7.52139">
        <ele>228</ele>
        <time>2025-05-10T15:30:26.000Z</time>
      </trkpt>
      <trkpt lat="48.98204" lon="7.52142">
        <ele>227</ele>
        <time>2025-05-10T15:30:29.000Z</time>
      </trkpt>
      <trkpt lat="48.98198" lon="7.52137">
        <ele>226</ele>
        <time>2025-05-10T15:30:33.000Z</time>
      </trkpt>
      <trkpt lat="48.98194" lon="7.52133">
        <ele>226</ele>
        <time>2025-05-10T15:30:37.000Z</time>
      </trkpt>
      <trkpt lat="48.98188" lon="7.52119">
        <ele>225</ele>
        <time>2025-05-10T15:30:44.000Z</time>
      </trkpt>
      <trkpt lat="48.98186" lon="7.52113">
        <ele>225</ele>
        <time>2025-05-10T15:30:48.000Z</time>
      </trkpt>
      <trkpt lat="48.98186" lon="7.52101">
        <ele>225</ele>
        <time>2025-05-10T15:30:54.000Z</time>
      </trkpt>
      <trkpt lat="48.98182" lon="7.52095">
        <ele>224</ele>
        <time>2025-05-10T15:30:57.000Z</time>
      </trkpt>
      <trkpt lat="48.98176" lon="7.52092">
        <ele>224</ele>
        <time>2025-05-10T15:31:00.000Z</time>
      </trkpt>
      <trkpt lat="48.98172" lon="7.52087">
        <ele>224</ele>
        <time>2025-05-10T15:31:04.000Z</time>
      </trkpt>
      <trkpt lat="48.98171" lon="7.52078">
        <ele>224</ele>
        <time>2025-05-10T15:31:07.000Z</time>
      </trkpt>
      <trkpt lat="48.9817" lon="7.52071">
        <ele>224</ele>
        <time>2025-05-10T15:31:10.000Z</time>
      </trkpt>
      <trkpt lat="48.98168" lon="7.52064">
        <ele>224</ele>
        <time>2025-05-10T15:31:13.000Z</time>
      </trkpt>
      <trkpt lat="48.98168" lon="7.52057">
        <ele>223</ele>
        <time>2025-05-10T15:31:16.000Z</time>
      </trkpt>
      <trkpt lat="48.98166" lon="7.52051">
        <ele>224</ele>
        <time>2025-05-10T15:31:19.000Z</time>
      </trkpt>
      <trkpt lat="48.98159" lon="7.52041">
        <ele>223</ele>
        <time>2025-05-10T15:31:27.000Z</time>
      </trkpt>
      <trkpt lat="48.98155" lon="7.52037">
        <ele>223</ele>
        <time>2025-05-10T15:31:31.000Z</time>
      </trkpt>
      <trkpt lat="48.98148" lon="7.52024">
        <ele>222</ele>
        <time>2025-05-10T15:31:40.000Z</time>
      </trkpt>
      <trkpt lat="48.98143" lon="7.5202">
        <ele>222</ele>
        <time>2025-05-10T15:31:44.000Z</time>
      </trkpt>
      <trkpt lat="48.9814" lon="7.52016">
        <ele>222</ele>
        <time>2025-05-10T15:31:48.000Z</time>
      </trkpt>
      <trkpt lat="48.98137" lon="7.52012">
        <ele>221</ele>
        <time>2025-05-10T15:31:51.000Z</time>
      </trkpt>
      <trkpt lat="48.98132" lon="7.52009">
        <ele>221</ele>
        <time>2025-05-10T15:31:56.000Z</time>
      </trkpt>
      <trkpt lat="48.98124" lon="7.52001">
        <ele>220</ele>
        <time>2025-05-10T15:32:04.000Z</time>
      </trkpt>
      <trkpt lat="48.98119" lon="7.51996">
        <ele>221</ele>
        <time>2025-05-10T15:32:08.000Z</time>
      </trkpt>
      <trkpt lat="48.98115" lon="7.51993">
        <ele>220</ele>
        <time>2025-05-10T15:32:12.000Z</time>
      </trkpt>
      <trkpt lat="48.9811" lon="7.51988">
        <ele>220</ele>
        <time>2025-05-10T15:32:18.000Z</time>
      </trkpt>
      <trkpt lat="48.98101" lon="7.51981">
        <ele>220</ele>
        <time>2025-05-10T15:32:25.000Z</time>
      </trkpt>
      <trkpt lat="48.98096" lon="7.51977">
        <ele>220</ele>
        <time>2025-05-10T15:32:30.000Z</time>
      </trkpt>
      <trkpt lat="48.9809" lon="7.51976">
        <ele>220</ele>
        <time>2025-05-10T15:32:33.000Z</time>
      </trkpt>
      <trkpt lat="48.98082" lon="7.51967">
        <ele>220</ele>
        <time>2025-05-10T15:32:42.000Z</time>
      </trkpt>
      <trkpt lat="48.98077" lon="7.51963">
        <ele>220</ele>
        <time>2025-05-10T15:32:46.000Z</time>
      </trkpt>
      <trkpt lat="48.98073" lon="7.51962">
        <ele>220</ele>
        <time>2025-05-10T15:32:50.000Z</time>
      </trkpt>
      <trkpt lat="48.98068" lon="7.51959">
        <ele>220</ele>
        <time>2025-05-10T15:32:54.000Z</time>
      </trkpt>
      <trkpt lat="48.98054" lon="7.51947">
        <ele>220</ele>
        <time>2025-05-10T15:33:04.000Z</time>
      </trkpt>
      <trkpt lat="48.98045" lon="7.51927">
        <ele>220</ele>
        <time>2025-05-10T15:33:19.000Z</time>
      </trkpt>
      <trkpt lat="48.98041" lon="7.51923">
        <ele>220</ele>
        <time>2025-05-10T15:33:23.000Z</time>
      </trkpt>
      <trkpt lat="48.98036" lon="7.51906">
        <ele>220</ele>
        <time>2025-05-10T15:33:30.000Z</time>
      </trkpt>
      <trkpt lat="48.98035" lon="7.51899">
        <ele>220</ele>
        <time>2025-05-10T15:33:33.000Z</time>
      </trkpt>
      <trkpt lat="48.98034" lon="7.5189">
        <ele>220</ele>
        <time>2025-05-10T15:33:36.000Z</time>
      </trkpt>
      <trkpt lat="48.98033" lon="7.51884">
        <ele>220</ele>
        <time>2025-05-10T15:33:40.000Z</time>
      </trkpt>
      <trkpt lat="48.98032" lon="7.51877">
        <ele>220</ele>
        <time>2025-05-10T15:33:43.000Z</time>
      </trkpt>
      <trkpt lat="48.98026" lon="7.51857">
        <ele>220</ele>
        <time>2025-05-10T15:33:54.000Z</time>
      </trkpt>
      <trkpt lat="48.98024" lon="7.5185">
        <ele>221</ele>
        <time>2025-05-10T15:33:58.000Z</time>
      </trkpt>
      <trkpt lat="48.98021" lon="7.51843">
        <ele>221</ele>
        <time>2025-05-10T15:34:01.000Z</time>
      </trkpt>
      <trkpt lat="48.98018" lon="7.5183">
        <ele>221</ele>
        <time>2025-05-10T15:34:09.000Z</time>
      </trkpt>
      <trkpt lat="48.98006" lon="7.51773">
        <ele>220</ele>
        <time>2025-05-10T15:34:41.000Z</time>
      </trkpt>
      <trkpt lat="48.98005" lon="7.51766">
        <ele>220</ele>
        <time>2025-05-10T15:34:44.000Z</time>
      </trkpt>
      <trkpt lat="48.98001" lon="7.51761">
        <ele>220</ele>
        <time>2025-05-10T15:34:49.000Z</time>
      </trkpt>
      <trkpt lat="48.97999" lon="7.51752">
        <ele>219</ele>
        <time>2025-05-10T15:34:52.000Z</time>
      </trkpt>
      <trkpt lat="48.97994" lon="7.5174">
        <ele>219</ele>
        <time>2025-05-10T15:34:58.000Z</time>
      </trkpt>
      <trkpt lat="48.97991" lon="7.51734">
        <ele>219</ele>
        <time>2025-05-10T15:35:02.000Z</time>
      </trkpt>
      <trkpt lat="48.97976" lon="7.51694">
        <ele>216</ele>
        <time>2025-05-10T15:35:28.000Z</time>
      </trkpt>
      <trkpt lat="48.97966" lon="7.51678">
        <ele>215</ele>
        <time>2025-05-10T15:35:42.000Z</time>
      </trkpt>
      <trkpt lat="48.97956" lon="7.51673">
        <ele>214</ele>
        <time>2025-05-10T15:35:49.000Z</time>
      </trkpt>
      <trkpt lat="48.9795" lon="7.51674">
        <ele>214</ele>
        <time>2025-05-10T15:35:55.000Z</time>
      </trkpt>
      <trkpt lat="48.97946" lon="7.51669">
        <ele>214</ele>
        <time>2025-05-10T15:35:58.000Z</time>
      </trkpt>
      <trkpt lat="48.97941" lon="7.51667">
        <ele>214</ele>
        <time>2025-05-10T15:36:04.000Z</time>
      </trkpt>
      <trkpt lat="48.97932" lon="7.51665">
        <ele>213</ele>
        <time>2025-05-10T15:36:11.000Z</time>
      </trkpt>
      <trkpt lat="48.97928" lon="7.51669">
        <ele>213</ele>
        <time>2025-05-10T15:36:14.000Z</time>
      </trkpt>
      <trkpt lat="48.97904" lon="7.51656">
        <ele>213</ele>
        <time>2025-05-10T15:36:32.000Z</time>
      </trkpt>
      <trkpt lat="48.979" lon="7.51649">
        <ele>213</ele>
        <time>2025-05-10T15:36:37.000Z</time>
      </trkpt>
      <trkpt lat="48.9789" lon="7.51644">
        <ele>213</ele>
        <time>2025-05-10T15:36:46.000Z</time>
      </trkpt>
      <trkpt lat="48.97882" lon="7.51637">
        <ele>213</ele>
        <time>2025-05-10T15:36:52.000Z</time>
      </trkpt>
      <trkpt lat="48.97879" lon="7.51631">
        <ele>213</ele>
        <time>2025-05-10T15:36:55.000Z</time>
      </trkpt>
      <trkpt lat="48.97876" lon="7.51625">
        <ele>212</ele>
        <time>2025-05-10T15:36:58.000Z</time>
      </trkpt>
      <trkpt lat="48.97871" lon="7.5162">
        <ele>212</ele>
        <time>2025-05-10T15:37:09.000Z</time>
      </trkpt>
      <trkpt lat="48.97867" lon="7.51614">
        <ele>212</ele>
        <time>2025-05-10T15:37:16.000Z</time>
      </trkpt>
      <trkpt lat="48.97868" lon="7.51609">
        <ele>212</ele>
        <time>2025-05-10T15:37:37.000Z</time>
      </trkpt>
      <trkpt lat="48.97862" lon="7.51607">
        <ele>212</ele>
        <time>2025-05-10T15:37:42.000Z</time>
      </trkpt>
      <trkpt lat="48.97857" lon="7.51603">
        <ele>212</ele>
        <time>2025-05-10T15:37:46.000Z</time>
      </trkpt>
      <trkpt lat="48.97853" lon="7.51599">
        <ele>211</ele>
        <time>2025-05-10T15:37:49.000Z</time>
      </trkpt>
      <trkpt lat="48.97849" lon="7.51596">
        <ele>211</ele>
        <time>2025-05-10T15:37:52.000Z</time>
      </trkpt>
      <trkpt lat="48.97844" lon="7.51594">
        <ele>212</ele>
        <time>2025-05-10T15:37:56.000Z</time>
      </trkpt>
      <trkpt lat="48.9784" lon="7.51591">
        <ele>211</ele>
        <time>2025-05-10T15:38:00.000Z</time>
      </trkpt>
      <trkpt lat="48.97829" lon="7.5158">
        <ele>211</ele>
        <time>2025-05-10T15:38:12.000Z</time>
      </trkpt>
      <trkpt lat="48.97819" lon="7.51562">
        <ele>211</ele>
        <time>2025-05-10T15:38:23.000Z</time>
      </trkpt>
      <trkpt lat="48.97815" lon="7.51559">
        <ele>211</ele>
        <time>2025-05-10T15:38:27.000Z</time>
      </trkpt>
      <trkpt lat="48.97809" lon="7.51556">
        <ele>211</ele>
        <time>2025-05-10T15:38:31.000Z</time>
      </trkpt>
      <trkpt lat="48.97805" lon="7.51559">
        <ele>211</ele>
        <time>2025-05-10T15:38:34.000Z</time>
      </trkpt>
      <trkpt lat="48.97801" lon="7.51555">
        <ele>211</ele>
        <time>2025-05-10T15:38:38.000Z</time>
      </trkpt>
      <trkpt lat="48.97795" lon="7.51552">
        <ele>211</ele>
        <time>2025-05-10T15:38:45.000Z</time>
      </trkpt>
      <trkpt lat="48.97788" lon="7.51552">
        <ele>211</ele>
        <time>2025-05-10T15:38:48.000Z</time>
      </trkpt>
      <trkpt lat="48.97786" lon="7.51559">
        <ele>211</ele>
        <time>2025-05-10T15:38:51.000Z</time>
      </trkpt>
      <trkpt lat="48.97782" lon="7.51563">
        <ele>212</ele>
        <time>2025-05-10T15:38:55.000Z</time>
      </trkpt>
      <trkpt lat="48.97767" lon="7.51569">
        <ele>212</ele>
        <time>2025-05-10T15:39:05.000Z</time>
      </trkpt>
      <trkpt lat="48.97761" lon="7.51567">
        <ele>213</ele>
        <time>2025-05-10T15:39:08.000Z</time>
      </trkpt>
      <trkpt lat="48.97757" lon="7.51564">
        <ele>213</ele>
        <time>2025-05-10T15:39:13.000Z</time>
      </trkpt>
      <trkpt lat="48.97751" lon="7.51565">
        <ele>214</ele>
        <time>2025-05-10T15:39:22.000Z</time>
      </trkpt>
      <trkpt lat="48.97747" lon="7.5156">
        <ele>215</ele>
        <time>2025-05-10T15:39:27.000Z</time>
      </trkpt>
      <trkpt lat="48.97745" lon="7.51567">
        <ele>215</ele>
        <time>2025-05-10T15:39:36.000Z</time>
      </trkpt>
      <trkpt lat="48.97731" lon="7.51593">
        <ele>216</ele>
        <time>2025-05-10T15:39:42.000Z</time>
      </trkpt>
      <trkpt lat="48.97728" lon="7.51596">
        <ele>216</ele>
        <time>2025-05-10T15:39:47.000Z</time>
      </trkpt>
      <trkpt lat="48.97724" lon="7.516">
        <ele>216</ele>
        <time>2025-05-10T15:39:52.000Z</time>
      </trkpt>
      <trkpt lat="48.97721" lon="7.51606">
        <ele>215</ele>
        <time>2025-05-10T15:39:55.000Z</time>
      </trkpt>
      <trkpt lat="48.97716" lon="7.51606">
        <ele>215</ele>
        <time>2025-05-10T15:39:58.000Z</time>
      </trkpt>
      <trkpt lat="48.97712" lon="7.5161">
        <ele>215</ele>
        <time>2025-05-10T15:40:02.000Z</time>
      </trkpt>
      <trkpt lat="48.97709" lon="7.51617">
        <ele>216</ele>
        <time>2025-05-10T15:40:06.000Z</time>
      </trkpt>
      <trkpt lat="48.97706" lon="7.51623">
        <ele>215</ele>
        <time>2025-05-10T15:40:10.000Z</time>
      </trkpt>
      <trkpt lat="48.97703" lon="7.51628">
        <ele>215</ele>
        <time>2025-05-10T15:40:13.000Z</time>
      </trkpt>
      <trkpt lat="48.977" lon="7.51632">
        <ele>215</ele>
        <time>2025-05-10T15:40:18.000Z</time>
      </trkpt>
      <trkpt lat="48.97691" lon="7.51642">
        <ele>214</ele>
        <time>2025-05-10T15:40:27.000Z</time>
      </trkpt>
      <trkpt lat="48.97687" lon="7.51639">
        <ele>214</ele>
        <time>2025-05-10T15:40:29.000Z</time>
      </trkpt>
      <trkpt lat="48.97675" lon="7.51637">
        <ele>214</ele>
        <time>2025-05-10T15:40:36.000Z</time>
      </trkpt>
      <trkpt lat="48.97674" lon="7.51632">
        <ele>215</ele>
        <time>2025-05-10T15:40:41.000Z</time>
      </trkpt>
      <trkpt lat="48.97673" lon="7.51624">
        <ele>216</ele>
        <time>2025-05-10T15:41:00.000Z</time>
      </trkpt>
      <trkpt lat="48.97668" lon="7.51618">
        <ele>217</ele>
        <time>2025-05-10T15:41:03.000Z</time>
      </trkpt>
      <trkpt lat="48.97664" lon="7.5161">
        <ele>217</ele>
        <time>2025-05-10T15:41:05.000Z</time>
      </trkpt>
      <trkpt lat="48.97661" lon="7.51606">
        <ele>217</ele>
        <time>2025-05-10T15:41:07.000Z</time>
      </trkpt>
      <trkpt lat="48.97667" lon="7.51597">
        <ele>217</ele>
        <time>2025-05-10T15:41:21.000Z</time>
      </trkpt>
      <trkpt lat="48.97672" lon="7.51595">
        <ele>218</ele>
        <time>2025-05-10T15:41:35.000Z</time>
      </trkpt>
      <trkpt lat="48.97668" lon="7.51583">
        <ele>218</ele>
        <time>2025-05-10T15:41:45.000Z</time>
      </trkpt>
      <trkpt lat="48.97657" lon="7.51559">
        <ele>218</ele>
        <time>2025-05-10T15:41:58.000Z</time>
      </trkpt>
      <trkpt lat="48.97645" lon="7.51538">
        <ele>219</ele>
        <time>2025-05-10T15:42:13.000Z</time>
      </trkpt>
      <trkpt lat="48.97673" lon="7.51588">
        <ele>219</ele>
        <time>2025-05-10T15:42:48.000Z</time>
      </trkpt>
      <trkpt lat="48.97675" lon="7.51604">
        <ele>218</ele>
        <time>2025-05-10T15:42:57.000Z</time>
      </trkpt>
      <trkpt lat="48.97678" lon="7.51609">
        <ele>218</ele>
        <time>2025-05-10T15:43:00.000Z</time>
      </trkpt>
      <trkpt lat="48.97685" lon="7.51625">
        <ele>216</ele>
        <time>2025-05-10T15:43:18.000Z</time>
      </trkpt>
      <trkpt lat="48.97681" lon="7.51618">
        <ele>216</ele>
        <time>2025-05-10T15:43:30.000Z</time>
      </trkpt>
      <trkpt lat="48.97669" lon="7.51659">
        <ele>212</ele>
        <time>2025-05-10T15:48:54.000Z</time>
      </trkpt>
      <trkpt lat="48.97662" lon="7.5167">
        <ele>211</ele>
        <time>2025-05-10T15:49:02.000Z</time>
      </trkpt>
      <trkpt lat="48.97657" lon="7.51678">
        <ele>211</ele>
        <time>2025-05-10T15:49:07.000Z</time>
      </trkpt>
      <trkpt lat="48.97645" lon="7.5169">
        <ele>211</ele>
        <time>2025-05-10T15:49:19.000Z</time>
      </trkpt>
      <trkpt lat="48.97641" lon="7.51693">
        <ele>210</ele>
        <time>2025-05-10T15:49:24.000Z</time>
      </trkpt>
      <trkpt lat="48.97635" lon="7.51704">
        <ele>210</ele>
        <time>2025-05-10T15:49:35.000Z</time>
      </trkpt>
      <trkpt lat="48.97632" lon="7.51711">
        <ele>210</ele>
        <time>2025-05-10T15:49:38.000Z</time>
      </trkpt>
      <trkpt lat="48.97628" lon="7.51715">
        <ele>210</ele>
        <time>2025-05-10T15:49:42.000Z</time>
      </trkpt>
      <trkpt lat="48.97619" lon="7.51727">
        <ele>209</ele>
        <time>2025-05-10T15:49:55.000Z</time>
      </trkpt>
      <trkpt lat="48.9762" lon="7.51715">
        <ele>210</ele>
        <time>2025-05-10T15:50:08.000Z</time>
      </trkpt>
      <trkpt lat="48.97623" lon="7.51711">
        <ele>210</ele>
        <time>2025-05-10T15:50:11.000Z</time>
      </trkpt>
      <trkpt lat="48.97624" lon="7.51702">
        <ele>210</ele>
        <time>2025-05-10T15:50:16.000Z</time>
      </trkpt>
      <trkpt lat="48.97633" lon="7.51694">
        <ele>210</ele>
        <time>2025-05-10T15:50:22.000Z</time>
      </trkpt>
      <trkpt lat="48.97638" lon="7.51692">
        <ele>210</ele>
        <time>2025-05-10T15:50:25.000Z</time>
      </trkpt>
      <trkpt lat="48.9764" lon="7.51684">
        <ele>210</ele>
        <time>2025-05-10T15:50:28.000Z</time>
      </trkpt>
      <trkpt lat="48.97643" lon="7.5168">
        <ele>210</ele>
        <time>2025-05-10T15:50:32.000Z</time>
      </trkpt>
      <trkpt lat="48.97648" lon="7.51678">
        <ele>210</ele>
        <time>2025-05-10T15:50:36.000Z</time>
      </trkpt>
      <trkpt lat="48.97659" lon="7.51663">
        <ele>211</ele>
        <time>2025-05-10T15:50:47.000Z</time>
      </trkpt>
      <trkpt lat="48.97665" lon="7.51649">
        <ele>211</ele>
        <time>2025-05-10T15:50:57.000Z</time>
      </trkpt>
      <trkpt lat="48.97675" lon="7.51643">
        <ele>212</ele>
        <time>2025-05-10T15:51:05.000Z</time>
      </trkpt>
      <trkpt lat="48.97679" lon="7.51638">
        <ele>212</ele>
        <time>2025-05-10T15:51:09.000Z</time>
      </trkpt>
      <trkpt lat="48.97679" lon="7.5163">
        <ele>212</ele>
        <time>2025-05-10T15:51:12.000Z</time>
      </trkpt>
      <trkpt lat="48.97683" lon="7.51623">
        <ele>212</ele>
        <time>2025-05-10T15:51:15.000Z</time>
      </trkpt>
      <trkpt lat="48.97687" lon="7.5162">
        <ele>212</ele>
        <time>2025-05-10T15:51:17.000Z</time>
      </trkpt>
      <trkpt lat="48.9769" lon="7.51614">
        <ele>213</ele>
        <time>2025-05-10T15:51:21.000Z</time>
      </trkpt>
      <trkpt lat="48.97695" lon="7.51609">
        <ele>213</ele>
        <time>2025-05-10T15:51:29.000Z</time>
      </trkpt>
      <trkpt lat="48.97699" lon="7.51604">
        <ele>213</ele>
        <time>2025-05-10T15:51:33.000Z</time>
      </trkpt>
      <trkpt lat="48.97704" lon="7.51591">
        <ele>213</ele>
        <time>2025-05-10T15:51:41.000Z</time>
      </trkpt>
      <trkpt lat="48.97709" lon="7.51586">
        <ele>213</ele>
        <time>2025-05-10T15:51:45.000Z</time>
      </trkpt>
      <trkpt lat="48.97721" lon="7.51584">
        <ele>213</ele>
        <time>2025-05-10T15:51:53.000Z</time>
      </trkpt>
      <trkpt lat="48.97725" lon="7.51579">
        <ele>213</ele>
        <time>2025-05-10T15:51:57.000Z</time>
      </trkpt>
      <trkpt lat="48.97732" lon="7.51566">
        <ele>213</ele>
        <time>2025-05-10T15:52:05.000Z</time>
      </trkpt>
      <trkpt lat="48.97734" lon="7.5156">
        <ele>213</ele>
        <time>2025-05-10T15:52:08.000Z</time>
      </trkpt>
      <trkpt lat="48.97737" lon="7.51555">
        <ele>213</ele>
        <time>2025-05-10T15:52:12.000Z</time>
      </trkpt>
      <trkpt lat="48.97738" lon="7.51549">
        <ele>213</ele>
        <time>2025-05-10T15:52:16.000Z</time>
      </trkpt>
      <trkpt lat="48.97743" lon="7.51544">
        <ele>213</ele>
        <time>2025-05-10T15:52:19.000Z</time>
      </trkpt>
      <trkpt lat="48.97748" lon="7.51544">
        <ele>213</ele>
        <time>2025-05-10T15:52:21.000Z</time>
      </trkpt>
      <trkpt lat="48.97752" lon="7.5154">
        <ele>213</ele>
        <time>2025-05-10T15:52:25.000Z</time>
      </trkpt>
      <trkpt lat="48.97758" lon="7.5153">
        <ele>213</ele>
        <time>2025-05-10T15:52:33.000Z</time>
      </trkpt>
      <trkpt lat="48.97761" lon="7.51523">
        <ele>213</ele>
        <time>2025-05-10T15:52:38.000Z</time>
      </trkpt>
      <trkpt lat="48.97767" lon="7.51505">
        <ele>214</ele>
        <time>2025-05-10T15:52:50.000Z</time>
      </trkpt>
      <trkpt lat="48.97771" lon="7.51497">
        <ele>213</ele>
        <time>2025-05-10T15:52:54.000Z</time>
      </trkpt>
      <trkpt lat="48.97776" lon="7.51493">
        <ele>215</ele>
        <time>2025-05-10T15:52:58.000Z</time>
      </trkpt>
      <trkpt lat="48.97777" lon="7.51486">
        <ele>214</ele>
        <time>2025-05-10T15:53:02.000Z</time>
      </trkpt>
      <trkpt lat="48.97773" lon="7.5148">
        <ele>214</ele>
        <time>2025-05-10T15:53:05.000Z</time>
      </trkpt>
      <trkpt lat="48.97772" lon="7.51473">
        <ele>214</ele>
        <time>2025-05-10T15:53:09.000Z</time>
      </trkpt>
      <trkpt lat="48.97775" lon="7.51464">
        <ele>214</ele>
        <time>2025-05-10T15:53:13.000Z</time>
      </trkpt>
      <trkpt lat="48.97772" lon="7.51447">
        <ele>214</ele>
        <time>2025-05-10T15:53:21.000Z</time>
      </trkpt>
      <trkpt lat="48.97775" lon="7.51436">
        <ele>214</ele>
        <time>2025-05-10T15:53:28.000Z</time>
      </trkpt>
      <trkpt lat="48.97781" lon="7.51438">
        <ele>214</ele>
        <time>2025-05-10T15:53:41.000Z</time>
      </trkpt>
      <trkpt lat="48.97781" lon="7.51444">
        <ele>215</ele>
        <time>2025-05-10T15:53:54.000Z</time>
      </trkpt>
      <trkpt lat="48.97774" lon="7.51462">
        <ele>214</ele>
        <time>2025-05-10T15:55:51.000Z</time>
      </trkpt>
      <trkpt lat="48.97771" lon="7.51467">
        <ele>215</ele>
        <time>2025-05-10T15:55:55.000Z</time>
      </trkpt>
      <trkpt lat="48.97771" lon="7.51474">
        <ele>214</ele>
        <time>2025-05-10T15:55:58.000Z</time>
      </trkpt>
      <trkpt lat="48.97771" lon="7.51481">
        <ele>215</ele>
        <time>2025-05-10T15:56:01.000Z</time>
      </trkpt>
      <trkpt lat="48.97769" lon="7.51487">
        <ele>214</ele>
        <time>2025-05-10T15:56:04.000Z</time>
      </trkpt>
      <trkpt lat="48.97764" lon="7.51486">
        <ele>214</ele>
        <time>2025-05-10T15:56:08.000Z</time>
      </trkpt>
      <trkpt lat="48.97746" lon="7.51475">
        <ele>218</ele>
        <time>2025-05-10T15:56:29.000Z</time>
      </trkpt>
      <trkpt lat="48.97741" lon="7.51469">
        <ele>219</ele>
        <time>2025-05-10T15:56:35.000Z</time>
      </trkpt>
      <trkpt lat="48.97727" lon="7.51464">
        <ele>220</ele>
        <time>2025-05-10T15:56:48.000Z</time>
      </trkpt>
      <trkpt lat="48.97724" lon="7.51459">
        <ele>221</ele>
        <time>2025-05-10T15:56:52.000Z</time>
      </trkpt>
      <trkpt lat="48.97719" lon="7.51456">
        <ele>221</ele>
        <time>2025-05-10T15:56:56.000Z</time>
      </trkpt>
      <trkpt lat="48.97709" lon="7.51446">
        <ele>222</ele>
        <time>2025-05-10T15:57:08.000Z</time>
      </trkpt>
      <trkpt lat="48.97703" lon="7.51433">
        <ele>224</ele>
        <time>2025-05-10T15:57:18.000Z</time>
      </trkpt>
      <trkpt lat="48.97678" lon="7.51411">
        <ele>228</ele>
        <time>2025-05-10T15:57:48.000Z</time>
      </trkpt>
      <trkpt lat="48.97655" lon="7.5139">
        <ele>233</ele>
        <time>2025-05-10T15:58:18.000Z</time>
      </trkpt>
      <trkpt lat="48.97647" lon="7.51386">
        <ele>234</ele>
        <time>2025-05-10T15:58:32.000Z</time>
      </trkpt>
      <trkpt lat="48.97637" lon="7.51384">
        <ele>234</ele>
        <time>2025-05-10T15:58:41.000Z</time>
      </trkpt>
      <trkpt lat="48.97634" lon="7.51376">
        <ele>233</ele>
        <time>2025-05-10T15:58:49.000Z</time>
      </trkpt>
      <trkpt lat="48.97627" lon="7.51319">
        <ele>234</ele>
        <time>2025-05-10T15:59:21.000Z</time>
      </trkpt>
      <trkpt lat="48.97622" lon="7.51276">
        <ele>236</ele>
        <time>2025-05-10T15:59:44.000Z</time>
      </trkpt>
      <trkpt lat="48.97622" lon="7.51266">
        <ele>237</ele>
        <time>2025-05-10T15:59:52.000Z</time>
      </trkpt>
      <trkpt lat="48.97621" lon="7.51257">
        <ele>237</ele>
        <time>2025-05-10T15:59:56.000Z</time>
      </trkpt>
      <trkpt lat="48.97617" lon="7.51198">
        <ele>243</ele>
        <time>2025-05-10T16:00:29.000Z</time>
      </trkpt>
      <trkpt lat="48.97616" lon="7.5118">
        <ele>245</ele>
        <time>2025-05-10T16:00:42.000Z</time>
      </trkpt>
      <trkpt lat="48.97613" lon="7.5118">
        <ele>246</ele>
        <time>2025-05-10T16:00:50.000Z</time>
      </trkpt>
      <trkpt lat="48.97608" lon="7.51178">
        <ele>246</ele>
        <time>2025-05-10T16:00:54.000Z</time>
      </trkpt>
      <trkpt lat="48.97604" lon="7.51169">
        <ele>247</ele>
        <time>2025-05-10T16:01:03.000Z</time>
      </trkpt>
      <trkpt lat="48.97603" lon="7.5116">
        <ele>248</ele>
        <time>2025-05-10T16:01:05.000Z</time>
      </trkpt>
      <trkpt lat="48.97611" lon="7.51137">
        <ele>249</ele>
        <time>2025-05-10T16:01:15.000Z</time>
      </trkpt>
      <trkpt lat="48.97614" lon="7.51129">
        <ele>249</ele>
        <time>2025-05-10T16:01:21.000Z</time>
      </trkpt>
      <trkpt lat="48.97612" lon="7.51137">
        <ele>254</ele>
        <time>2025-05-10T16:01:46.000Z</time>
      </trkpt>
      <trkpt lat="48.97609" lon="7.5115">
        <ele>254</ele>
        <time>2025-05-10T16:01:53.000Z</time>
      </trkpt>
      <trkpt lat="48.97605" lon="7.51155">
        <ele>255</ele>
        <time>2025-05-10T16:01:56.000Z</time>
      </trkpt>
      <trkpt lat="48.976" lon="7.51159">
        <ele>255</ele>
        <time>2025-05-10T16:02:02.000Z</time>
      </trkpt>
      <trkpt lat="48.97593" lon="7.51171">
        <ele>256</ele>
        <time>2025-05-10T16:02:09.000Z</time>
      </trkpt>
      <trkpt lat="48.97585" lon="7.51177">
        <ele>256</ele>
        <time>2025-05-10T16:02:20.000Z</time>
      </trkpt>
      <trkpt lat="48.9758" lon="7.51182">
        <ele>256</ele>
        <time>2025-05-10T16:02:24.000Z</time>
      </trkpt>
      <trkpt lat="48.97574" lon="7.51185">
        <ele>257</ele>
        <time>2025-05-10T16:02:33.000Z</time>
      </trkpt>
      <trkpt lat="48.97572" lon="7.51192">
        <ele>258</ele>
        <time>2025-05-10T16:02:37.000Z</time>
      </trkpt>
      <trkpt lat="48.97567" lon="7.51192">
        <ele>258</ele>
        <time>2025-05-10T16:02:40.000Z</time>
      </trkpt>
      <trkpt lat="48.97563" lon="7.51189">
        <ele>258</ele>
        <time>2025-05-10T16:02:45.000Z</time>
      </trkpt>
      <trkpt lat="48.97559" lon="7.51182">
        <ele>258</ele>
        <time>2025-05-10T16:02:50.000Z</time>
      </trkpt>
      <trkpt lat="48.97555" lon="7.5116">
        <ele>260</ele>
        <time>2025-05-10T16:03:01.000Z</time>
      </trkpt>
      <trkpt lat="48.97547" lon="7.51155">
        <ele>260</ele>
        <time>2025-05-10T16:03:09.000Z</time>
      </trkpt>
      <trkpt lat="48.97539" lon="7.51119">
        <ele>263</ele>
        <time>2025-05-10T16:03:33.000Z</time>
      </trkpt>
      <trkpt lat="48.97535" lon="7.51116">
        <ele>264</ele>
        <time>2025-05-10T16:03:38.000Z</time>
      </trkpt>
      <trkpt lat="48.9753" lon="7.5111">
        <ele>263</ele>
        <time>2025-05-10T16:03:43.000Z</time>
      </trkpt>
      <trkpt lat="48.97522" lon="7.51084">
        <ele>264</ele>
        <time>2025-05-10T16:03:53.000Z</time>
      </trkpt>
      <trkpt lat="48.97517" lon="7.51084">
        <ele>265</ele>
        <time>2025-05-10T16:03:59.000Z</time>
      </trkpt>
      <trkpt lat="48.97511" lon="7.51086">
        <ele>265</ele>
        <time>2025-05-10T16:04:03.000Z</time>
      </trkpt>
      <trkpt lat="48.97502" lon="7.51073">
        <ele>267</ele>
        <time>2025-05-10T16:04:17.000Z</time>
      </trkpt>
      <trkpt lat="48.97499" lon="7.51064">
        <ele>267</ele>
        <time>2025-05-10T16:04:23.000Z</time>
      </trkpt>
      <trkpt lat="48.97497" lon="7.51059">
        <ele>268</ele>
        <time>2025-05-10T16:04:27.000Z</time>
      </trkpt>
      <trkpt lat="48.97493" lon="7.51045">
        <ele>269</ele>
        <time>2025-05-10T16:04:37.000Z</time>
      </trkpt>
      <trkpt lat="48.97488" lon="7.51037">
        <ele>269</ele>
        <time>2025-05-10T16:04:44.000Z</time>
      </trkpt>
      <trkpt lat="48.97489" lon="7.51023">
        <ele>270</ele>
        <time>2025-05-10T16:04:48.000Z</time>
      </trkpt>
      <trkpt lat="48.97488" lon="7.51018">
        <ele>271</ele>
        <time>2025-05-10T16:04:52.000Z</time>
      </trkpt>
      <trkpt lat="48.97466" lon="7.50966">
        <ele>273</ele>
        <time>2025-05-10T16:05:25.000Z</time>
      </trkpt>
      <trkpt lat="48.97448" lon="7.50928">
        <ele>277</ele>
        <time>2025-05-10T16:05:51.000Z</time>
      </trkpt>
      <trkpt lat="48.97444" lon="7.50918">
        <ele>277</ele>
        <time>2025-05-10T16:05:58.000Z</time>
      </trkpt>
      <trkpt lat="48.97439" lon="7.50908">
        <ele>277</ele>
        <time>2025-05-10T16:06:05.000Z</time>
      </trkpt>
      <trkpt lat="48.97436" lon="7.50903">
        <ele>277</ele>
        <time>2025-05-10T16:06:09.000Z</time>
      </trkpt>
      <trkpt lat="48.97434" lon="7.50895">
        <ele>278</ele>
        <time>2025-05-10T16:06:17.000Z</time>
      </trkpt>
      <trkpt lat="48.9743" lon="7.50887">
        <ele>278</ele>
        <time>2025-05-10T16:06:23.000Z</time>
      </trkpt>
      <trkpt lat="48.97427" lon="7.5088">
        <ele>279</ele>
        <time>2025-05-10T16:06:27.000Z</time>
      </trkpt>
      <trkpt lat="48.97419" lon="7.5087">
        <ele>280</ele>
        <time>2025-05-10T16:06:39.000Z</time>
      </trkpt>
      <trkpt lat="48.97412" lon="7.50862">
        <ele>281</ele>
        <time>2025-05-10T16:06:47.000Z</time>
      </trkpt>
      <trkpt lat="48.97407" lon="7.50855">
        <ele>282</ele>
        <time>2025-05-10T16:06:54.000Z</time>
      </trkpt>
      <trkpt lat="48.97404" lon="7.50843">
        <ele>283</ele>
        <time>2025-05-10T16:07:01.000Z</time>
      </trkpt>
      <trkpt lat="48.97399" lon="7.5084">
        <ele>283</ele>
        <time>2025-05-10T16:07:08.000Z</time>
      </trkpt>
      <trkpt lat="48.97391" lon="7.50829">
        <ele>283</ele>
        <time>2025-05-10T16:07:15.000Z</time>
      </trkpt>
      <trkpt lat="48.97387" lon="7.50823">
        <ele>284</ele>
        <time>2025-05-10T16:07:22.000Z</time>
      </trkpt>
      <trkpt lat="48.97377" lon="7.50811">
        <ele>285</ele>
        <time>2025-05-10T16:07:31.000Z</time>
      </trkpt>
      <trkpt lat="48.97372" lon="7.50809">
        <ele>285</ele>
        <time>2025-05-10T16:07:34.000Z</time>
      </trkpt>
      <trkpt lat="48.97366" lon="7.50806">
        <ele>285</ele>
        <time>2025-05-10T16:07:43.000Z</time>
      </trkpt>
      <trkpt lat="48.97361" lon="7.50806">
        <ele>286</ele>
        <time>2025-05-10T16:07:49.000Z</time>
      </trkpt>
      <trkpt lat="48.97356" lon="7.50803">
        <ele>286</ele>
        <time>2025-05-10T16:07:52.000Z</time>
      </trkpt>
      <trkpt lat="48.97352" lon="7.50795">
        <ele>287</ele>
        <time>2025-05-10T16:07:59.000Z</time>
      </trkpt>
      <trkpt lat="48.9735" lon="7.50789">
        <ele>287</ele>
        <time>2025-05-10T16:08:02.000Z</time>
      </trkpt>
      <trkpt lat="48.97345" lon="7.5078">
        <ele>288</ele>
        <time>2025-05-10T16:08:08.000Z</time>
      </trkpt>
      <trkpt lat="48.97341" lon="7.50777">
        <ele>288</ele>
        <time>2025-05-10T16:08:12.000Z</time>
      </trkpt>
      <trkpt lat="48.97338" lon="7.50769">
        <ele>288</ele>
        <time>2025-05-10T16:08:16.000Z</time>
      </trkpt>
      <trkpt lat="48.97334" lon="7.50764">
        <ele>289</ele>
        <time>2025-05-10T16:08:31.000Z</time>
      </trkpt>
      <trkpt lat="48.97328" lon="7.50754">
        <ele>291</ele>
        <time>2025-05-10T16:08:43.000Z</time>
      </trkpt>
      <trkpt lat="48.97325" lon="7.50747">
        <ele>292</ele>
        <time>2025-05-10T16:08:50.000Z</time>
      </trkpt>
      <trkpt lat="48.97319" lon="7.50737">
        <ele>295</ele>
        <time>2025-05-10T16:09:02.000Z</time>
      </trkpt>
      <trkpt lat="48.97316" lon="7.50731">
        <ele>294</ele>
        <time>2025-05-10T16:09:07.000Z</time>
      </trkpt>
      <trkpt lat="48.97302" lon="7.50702">
        <ele>298</ele>
        <time>2025-05-10T16:09:28.000Z</time>
      </trkpt>
      <trkpt lat="48.97298" lon="7.50689">
        <ele>300</ele>
        <time>2025-05-10T16:09:37.000Z</time>
      </trkpt>
      <trkpt lat="48.9728" lon="7.50669">
        <ele>304</ele>
        <time>2025-05-10T16:10:00.000Z</time>
      </trkpt>
      <trkpt lat="48.97275" lon="7.50661">
        <ele>306</ele>
        <time>2025-05-10T16:10:06.000Z</time>
      </trkpt>
      <trkpt lat="48.97269" lon="7.50649">
        <ele>309</ele>
        <time>2025-05-10T16:10:22.000Z</time>
      </trkpt>
      <trkpt lat="48.97262" lon="7.5064">
        <ele>310</ele>
        <time>2025-05-10T16:10:28.000Z</time>
      </trkpt>
      <trkpt lat="48.97255" lon="7.50636">
        <ele>311</ele>
        <time>2025-05-10T16:10:31.000Z</time>
      </trkpt>
      <trkpt lat="48.9725" lon="7.50643">
        <ele>311</ele>
        <time>2025-05-10T16:10:38.000Z</time>
      </trkpt>
      <trkpt lat="48.97242" lon="7.50654">
        <ele>311</ele>
        <time>2025-05-10T16:10:45.000Z</time>
      </trkpt>
      <trkpt lat="48.97235" lon="7.50656">
        <ele>311</ele>
        <time>2025-05-10T16:10:53.000Z</time>
      </trkpt>
      <trkpt lat="48.97221" lon="7.50655">
        <ele>310</ele>
        <time>2025-05-10T16:11:01.000Z</time>
      </trkpt>
      <trkpt lat="48.97214" lon="7.50656">
        <ele>310</ele>
        <time>2025-05-10T16:11:06.000Z</time>
      </trkpt>
      <trkpt lat="48.97206" lon="7.50653">
        <ele>310</ele>
        <time>2025-05-10T16:11:12.000Z</time>
      </trkpt>
      <trkpt lat="48.97188" lon="7.50633">
        <ele>312</ele>
        <time>2025-05-10T16:11:29.000Z</time>
      </trkpt>
      <trkpt lat="48.97177" lon="7.50616">
        <ele>313</ele>
        <time>2025-05-10T16:11:42.000Z</time>
      </trkpt>
      <trkpt lat="48.97168" lon="7.50618">
        <ele>315</ele>
        <time>2025-05-10T16:11:48.000Z</time>
      </trkpt>
      <trkpt lat="48.97165" lon="7.50625">
        <ele>316</ele>
        <time>2025-05-10T16:11:53.000Z</time>
      </trkpt>
      <trkpt lat="48.97149" lon="7.50615">
        <ele>319</ele>
        <time>2025-05-10T16:12:21.000Z</time>
      </trkpt>
      <trkpt lat="48.97143" lon="7.50601">
        <ele>320</ele>
        <time>2025-05-10T16:12:30.000Z</time>
      </trkpt>
      <trkpt lat="48.97136" lon="7.50592">
        <ele>322</ele>
        <time>2025-05-10T16:12:38.000Z</time>
      </trkpt>
      <trkpt lat="48.97129" lon="7.50587">
        <ele>323</ele>
        <time>2025-05-10T16:12:48.000Z</time>
      </trkpt>
      <trkpt lat="48.97123" lon="7.50576">
        <ele>324</ele>
        <time>2025-05-10T16:12:58.000Z</time>
      </trkpt>
      <trkpt lat="48.97109" lon="7.50518">
        <ele>329</ele>
        <time>2025-05-10T16:13:25.000Z</time>
      </trkpt>
      <trkpt lat="48.97105" lon="7.50508">
        <ele>331</ele>
        <time>2025-05-10T16:13:31.000Z</time>
      </trkpt>
      <trkpt lat="48.97103" lon="7.50484">
        <ele>334</ele>
        <time>2025-05-10T16:13:45.000Z</time>
      </trkpt>
      <trkpt lat="48.97086" lon="7.50487">
        <ele>338</ele>
        <time>2025-05-10T16:14:03.000Z</time>
      </trkpt>
      <trkpt lat="48.97082" lon="7.50475">
        <ele>340</ele>
        <time>2025-05-10T16:14:13.000Z</time>
      </trkpt>
      <trkpt lat="48.97077" lon="7.50469">
        <ele>341</ele>
        <time>2025-05-10T16:14:19.000Z</time>
      </trkpt>
      <trkpt lat="48.97074" lon="7.50457">
        <ele>342</ele>
        <time>2025-05-10T16:14:25.000Z</time>
      </trkpt>
      <trkpt lat="48.97069" lon="7.50451">
        <ele>343</ele>
        <time>2025-05-10T16:14:29.000Z</time>
      </trkpt>
      <trkpt lat="48.97062" lon="7.50452">
        <ele>343</ele>
        <time>2025-05-10T16:14:35.000Z</time>
      </trkpt>
      <trkpt lat="48.97053" lon="7.50446">
        <ele>345</ele>
        <time>2025-05-10T16:14:46.000Z</time>
      </trkpt>
      <trkpt lat="48.97049" lon="7.50433">
        <ele>346</ele>
        <time>2025-05-10T16:14:54.000Z</time>
      </trkpt>
      <trkpt lat="48.97038" lon="7.50418">
        <ele>347</ele>
        <time>2025-05-10T16:15:04.000Z</time>
      </trkpt>
      <trkpt lat="48.97034" lon="7.50411">
        <ele>350</ele>
        <time>2025-05-10T16:15:17.000Z</time>
      </trkpt>
      <trkpt lat="48.97028" lon="7.50402">
        <ele>351</ele>
        <time>2025-05-10T16:15:22.000Z</time>
      </trkpt>
      <trkpt lat="48.97023" lon="7.50389">
        <ele>352</ele>
        <time>2025-05-10T16:15:31.000Z</time>
      </trkpt>
      <trkpt lat="48.97007" lon="7.50384">
        <ele>356</ele>
        <time>2025-05-10T16:15:46.000Z</time>
      </trkpt>
      <trkpt lat="48.97002" lon="7.50373">
        <ele>360</ele>
        <time>2025-05-10T16:16:02.000Z</time>
      </trkpt>
      <trkpt lat="48.96997" lon="7.50366">
        <ele>362</ele>
        <time>2025-05-10T16:16:12.000Z</time>
      </trkpt>
      <trkpt lat="48.96989" lon="7.5035">
        <ele>364</ele>
        <time>2025-05-10T16:16:23.000Z</time>
      </trkpt>
      <trkpt lat="48.96979" lon="7.50339">
        <ele>367</ele>
        <time>2025-05-10T16:16:40.000Z</time>
      </trkpt>
      <trkpt lat="48.96972" lon="7.50339">
        <ele>368</ele>
        <time>2025-05-10T16:16:47.000Z</time>
      </trkpt>
      <trkpt lat="48.96965" lon="7.50336">
        <ele>370</ele>
        <time>2025-05-10T16:16:58.000Z</time>
      </trkpt>
      <trkpt lat="48.96951" lon="7.50324">
        <ele>373</ele>
        <time>2025-05-10T16:17:14.000Z</time>
      </trkpt>
      <trkpt lat="48.96944" lon="7.5031">
        <ele>374</ele>
        <time>2025-05-10T16:17:24.000Z</time>
      </trkpt>
      <trkpt lat="48.96949" lon="7.50299">
        <ele>374</ele>
        <time>2025-05-10T16:17:30.000Z</time>
      </trkpt>
      <trkpt lat="48.96951" lon="7.5029">
        <ele>374</ele>
        <time>2025-05-10T16:17:34.000Z</time>
      </trkpt>
      <trkpt lat="48.9695" lon="7.5028">
        <ele>373</ele>
        <time>2025-05-10T16:17:37.000Z</time>
      </trkpt>
      <trkpt lat="48.96945" lon="7.50275">
        <ele>374</ele>
        <time>2025-05-10T16:17:39.000Z</time>
      </trkpt>
      <trkpt lat="48.96944" lon="7.5027">
        <ele>374</ele>
        <time>2025-05-10T16:17:42.000Z</time>
      </trkpt>
      <trkpt lat="48.96944" lon="7.50263">
        <ele>374</ele>
        <time>2025-05-10T16:17:46.000Z</time>
      </trkpt>
      <trkpt lat="48.96939" lon="7.50249">
        <ele>374</ele>
        <time>2025-05-10T16:17:56.000Z</time>
      </trkpt>
      <trkpt lat="48.96937" lon="7.50241">
        <ele>374</ele>
        <time>2025-05-10T16:18:01.000Z</time>
      </trkpt>
      <trkpt lat="48.96934" lon="7.50237">
        <ele>373</ele>
        <time>2025-05-10T16:18:04.000Z</time>
      </trkpt>
      <trkpt lat="48.96932" lon="7.5023">
        <ele>373</ele>
        <time>2025-05-10T16:18:09.000Z</time>
      </trkpt>
      <trkpt lat="48.9693" lon="7.50223">
        <ele>373</ele>
        <time>2025-05-10T16:18:14.000Z</time>
      </trkpt>
      <trkpt lat="48.96928" lon="7.50209">
        <ele>373</ele>
        <time>2025-05-10T16:18:20.000Z</time>
      </trkpt>
      <trkpt lat="48.96928" lon="7.50202">
        <ele>373</ele>
        <time>2025-05-10T16:18:23.000Z</time>
      </trkpt>
      <trkpt lat="48.96926" lon="7.50196">
        <ele>373</ele>
        <time>2025-05-10T16:18:26.000Z</time>
      </trkpt>
      <trkpt lat="48.96926" lon="7.50187">
        <ele>372</ele>
        <time>2025-05-10T16:18:31.000Z</time>
      </trkpt>
      <trkpt lat="48.96917" lon="7.50158">
        <ele>372</ele>
        <time>2025-05-10T16:18:42.000Z</time>
      </trkpt>
      <trkpt lat="48.96913" lon="7.50132">
        <ele>372</ele>
        <time>2025-05-10T16:19:01.000Z</time>
      </trkpt>
      <trkpt lat="48.96905" lon="7.50107">
        <ele>371</ele>
        <time>2025-05-10T16:19:16.000Z</time>
      </trkpt>
      <trkpt lat="48.96903" lon="7.50102">
        <ele>371</ele>
        <time>2025-05-10T16:19:21.000Z</time>
      </trkpt>
      <trkpt lat="48.96891" lon="7.50061">
        <ele>370</ele>
        <time>2025-05-10T16:19:47.000Z</time>
      </trkpt>
      <trkpt lat="48.96891" lon="7.50054">
        <ele>369</ele>
        <time>2025-05-10T16:19:50.000Z</time>
      </trkpt>
      <trkpt lat="48.96889" lon="7.50047">
        <ele>369</ele>
        <time>2025-05-10T16:19:54.000Z</time>
      </trkpt>
      <trkpt lat="48.96875" lon="7.49991">
        <ele>367</ele>
        <time>2025-05-10T16:20:27.000Z</time>
      </trkpt>
      <trkpt lat="48.9687" lon="7.49981">
        <ele>367</ele>
        <time>2025-05-10T16:20:35.000Z</time>
      </trkpt>
      <trkpt lat="48.96867" lon="7.49968">
        <ele>367</ele>
        <time>2025-05-10T16:20:43.000Z</time>
      </trkpt>
      <trkpt lat="48.96864" lon="7.49959">
        <ele>367</ele>
        <time>2025-05-10T16:20:51.000Z</time>
      </trkpt>
      <trkpt lat="48.96861" lon="7.49953">
        <ele>367</ele>
        <time>2025-05-10T16:20:54.000Z</time>
      </trkpt>
      <trkpt lat="48.96858" lon="7.49939">
        <ele>366</ele>
        <time>2025-05-10T16:21:03.000Z</time>
      </trkpt>
      <trkpt lat="48.96855" lon="7.49933">
        <ele>366</ele>
        <time>2025-05-10T16:21:07.000Z</time>
      </trkpt>
      <trkpt lat="48.96853" lon="7.49926">
        <ele>366</ele>
        <time>2025-05-10T16:21:11.000Z</time>
      </trkpt>
      <trkpt lat="48.96852" lon="7.49917">
        <ele>367</ele>
        <time>2025-05-10T16:21:15.000Z</time>
      </trkpt>
      <trkpt lat="48.9685" lon="7.49911">
        <ele>366</ele>
        <time>2025-05-10T16:21:19.000Z</time>
      </trkpt>
      <trkpt lat="48.96848" lon="7.49903">
        <ele>366</ele>
        <time>2025-05-10T16:21:23.000Z</time>
      </trkpt>
      <trkpt lat="48.96845" lon="7.49886">
        <ele>366</ele>
        <time>2025-05-10T16:21:29.000Z</time>
      </trkpt>
      <trkpt lat="48.96846" lon="7.49879">
        <ele>366</ele>
        <time>2025-05-10T16:21:33.000Z</time>
      </trkpt>
      <trkpt lat="48.96851" lon="7.49856">
        <ele>366</ele>
        <time>2025-05-10T16:21:41.000Z</time>
      </trkpt>
      <trkpt lat="48.96849" lon="7.49845">
        <ele>366</ele>
        <time>2025-05-10T16:21:47.000Z</time>
      </trkpt>
      <trkpt lat="48.96856" lon="7.49844">
        <ele>366</ele>
        <time>2025-05-10T16:21:49.000Z</time>
      </trkpt>
      <trkpt lat="48.96857" lon="7.49837">
        <ele>366</ele>
        <time>2025-05-10T16:21:52.000Z</time>
      </trkpt>
      <trkpt lat="48.96857" lon="7.49811">
        <ele>366</ele>
        <time>2025-05-10T16:22:02.000Z</time>
      </trkpt>
      <trkpt lat="48.96854" lon="7.49783">
        <ele>365</ele>
        <time>2025-05-10T16:22:22.000Z</time>
      </trkpt>
      <trkpt lat="48.9686" lon="7.49711">
        <ele>364</ele>
        <time>2025-05-10T16:23:00.000Z</time>
      </trkpt>
      <trkpt lat="48.96868" lon="7.49684">
        <ele>364</ele>
        <time>2025-05-10T16:23:15.000Z</time>
      </trkpt>
      <trkpt lat="48.96868" lon="7.49674">
        <ele>364</ele>
        <time>2025-05-10T16:23:20.000Z</time>
      </trkpt>
      <trkpt lat="48.96871" lon="7.49667">
        <ele>364</ele>
        <time>2025-05-10T16:23:24.000Z</time>
      </trkpt>
      <trkpt lat="48.96873" lon="7.49655">
        <ele>365</ele>
        <time>2025-05-10T16:23:40.000Z</time>
      </trkpt>
      <trkpt lat="48.96887" lon="7.49618">
        <ele>364</ele>
        <time>2025-05-10T16:24:01.000Z</time>
      </trkpt>
      <trkpt lat="48.96892" lon="7.49608">
        <ele>362</ele>
        <time>2025-05-10T16:24:07.000Z</time>
      </trkpt>
      <trkpt lat="48.96894" lon="7.49602">
        <ele>362</ele>
        <time>2025-05-10T16:24:11.000Z</time>
      </trkpt>
      <trkpt lat="48.96897" lon="7.49594">
        <ele>361</ele>
        <time>2025-05-10T16:24:14.000Z</time>
      </trkpt>
      <trkpt lat="48.96912" lon="7.49562">
        <ele>359</ele>
        <time>2025-05-10T16:24:37.000Z</time>
      </trkpt>
      <trkpt lat="48.96915" lon="7.49557">
        <ele>359</ele>
        <time>2025-05-10T16:24:41.000Z</time>
      </trkpt>
      <trkpt lat="48.9692" lon="7.49545">
        <ele>358</ele>
        <time>2025-05-10T16:24:50.000Z</time>
      </trkpt>
      <trkpt lat="48.96923" lon="7.49539">
        <ele>359</ele>
        <time>2025-05-10T16:24:54.000Z</time>
      </trkpt>
      <trkpt lat="48.96926" lon="7.49533">
        <ele>358</ele>
        <time>2025-05-10T16:24:58.000Z</time>
      </trkpt>
      <trkpt lat="48.96929" lon="7.49526">
        <ele>358</ele>
        <time>2025-05-10T16:25:03.000Z</time>
      </trkpt>
      <trkpt lat="48.96937" lon="7.49509">
        <ele>357</ele>
        <time>2025-05-10T16:25:15.000Z</time>
      </trkpt>
      <trkpt lat="48.96944" lon="7.495">
        <ele>357</ele>
        <time>2025-05-10T16:25:21.000Z</time>
      </trkpt>
      <trkpt lat="48.96946" lon="7.49494">
        <ele>356</ele>
        <time>2025-05-10T16:25:26.000Z</time>
      </trkpt>
      <trkpt lat="48.9695" lon="7.49489">
        <ele>356</ele>
        <time>2025-05-10T16:25:30.000Z</time>
      </trkpt>
      <trkpt lat="48.96952" lon="7.49483">
        <ele>356</ele>
        <time>2025-05-10T16:25:34.000Z</time>
      </trkpt>
      <trkpt lat="48.96955" lon="7.49479">
        <ele>356</ele>
        <time>2025-05-10T16:25:38.000Z</time>
      </trkpt>
      <trkpt lat="48.96959" lon="7.49471">
        <ele>356</ele>
        <time>2025-05-10T16:25:42.000Z</time>
      </trkpt>
      <trkpt lat="48.9696" lon="7.49463">
        <ele>356</ele>
        <time>2025-05-10T16:25:46.000Z</time>
      </trkpt>
      <trkpt lat="48.96963" lon="7.49454">
        <ele>356</ele>
        <time>2025-05-10T16:25:50.000Z</time>
      </trkpt>
      <trkpt lat="48.96963" lon="7.49446">
        <ele>356</ele>
        <time>2025-05-10T16:25:53.000Z</time>
      </trkpt>
      <trkpt lat="48.96966" lon="7.49437">
        <ele>356</ele>
        <time>2025-05-10T16:25:57.000Z</time>
      </trkpt>
      <trkpt lat="48.96966" lon="7.49429">
        <ele>356</ele>
        <time>2025-05-10T16:26:01.000Z</time>
      </trkpt>
      <trkpt lat="48.96969" lon="7.49414">
        <ele>355</ele>
        <time>2025-05-10T16:26:09.000Z</time>
      </trkpt>
      <trkpt lat="48.96975" lon="7.49418">
        <ele>356</ele>
        <time>2025-05-10T16:26:12.000Z</time>
      </trkpt>
      <trkpt lat="48.96974" lon="7.49409">
        <ele>355</ele>
        <time>2025-05-10T16:26:16.000Z</time>
      </trkpt>
      <trkpt lat="48.96976" lon="7.49376">
        <ele>356</ele>
        <time>2025-05-10T16:26:36.000Z</time>
      </trkpt>
      <trkpt lat="48.96977" lon="7.49369">
        <ele>356</ele>
        <time>2025-05-10T16:26:40.000Z</time>
      </trkpt>
      <trkpt lat="48.96976" lon="7.49338">
        <ele>356</ele>
        <time>2025-05-10T16:26:57.000Z</time>
      </trkpt>
      <trkpt lat="48.96975" lon="7.49332">
        <ele>355</ele>
        <time>2025-05-10T16:27:01.000Z</time>
      </trkpt>
      <trkpt lat="48.96971" lon="7.49296">
        <ele>355</ele>
        <time>2025-05-10T16:27:21.000Z</time>
      </trkpt>
      <trkpt lat="48.96971" lon="7.49281">
        <ele>355</ele>
        <time>2025-05-10T16:27:29.000Z</time>
      </trkpt>
      <trkpt lat="48.96969" lon="7.49274">
        <ele>355</ele>
        <time>2025-05-10T16:27:33.000Z</time>
      </trkpt>
      <trkpt lat="48.96966" lon="7.49251">
        <ele>356</ele>
        <time>2025-05-10T16:27:47.000Z</time>
      </trkpt>
      <trkpt lat="48.96965" lon="7.49246">
        <ele>357</ele>
        <time>2025-05-10T16:27:49.000Z</time>
      </trkpt>
      <trkpt lat="48.96963" lon="7.4923">
        <ele>356</ele>
        <time>2025-05-10T16:27:54.000Z</time>
      </trkpt>
      <trkpt lat="48.96959" lon="7.49224">
        <ele>356</ele>
        <time>2025-05-10T16:27:57.000Z</time>
      </trkpt>
      <trkpt lat="48.96957" lon="7.49208">
        <ele>357</ele>
        <time>2025-05-10T16:28:06.000Z</time>
      </trkpt>
      <trkpt lat="48.9696" lon="7.492">
        <ele>357</ele>
        <time>2025-05-10T16:28:11.000Z</time>
      </trkpt>
      <trkpt lat="48.96957" lon="7.49191">
        <ele>357</ele>
        <time>2025-05-10T16:28:14.000Z</time>
      </trkpt>
      <trkpt lat="48.96961" lon="7.49184">
        <ele>357</ele>
        <time>2025-05-10T16:28:17.000Z</time>
      </trkpt>
      <trkpt lat="48.96957" lon="7.49157">
        <ele>358</ele>
        <time>2025-05-10T16:28:34.000Z</time>
      </trkpt>
      <trkpt lat="48.96953" lon="7.49153">
        <ele>358</ele>
        <time>2025-05-10T16:28:39.000Z</time>
      </trkpt>
      <trkpt lat="48.9695" lon="7.49143">
        <ele>359</ele>
        <time>2025-05-10T16:28:43.000Z</time>
      </trkpt>
      <trkpt lat="48.96946" lon="7.49136">
        <ele>359</ele>
        <time>2025-05-10T16:28:49.000Z</time>
      </trkpt>
      <trkpt lat="48.96934" lon="7.49125">
        <ele>359</ele>
        <time>2025-05-10T16:28:58.000Z</time>
      </trkpt>
      <trkpt lat="48.9693" lon="7.49118">
        <ele>359</ele>
        <time>2025-05-10T16:29:01.000Z</time>
      </trkpt>
      <trkpt lat="48.96926" lon="7.49109">
        <ele>359</ele>
        <time>2025-05-10T16:29:07.000Z</time>
      </trkpt>
      <trkpt lat="48.96921" lon="7.49104">
        <ele>359</ele>
        <time>2025-05-10T16:29:11.000Z</time>
      </trkpt>
      <trkpt lat="48.96917" lon="7.49094">
        <ele>359</ele>
        <time>2025-05-10T16:29:20.000Z</time>
      </trkpt>
      <trkpt lat="48.96909" lon="7.49076">
        <ele>360</ele>
        <time>2025-05-10T16:29:27.000Z</time>
      </trkpt>
      <trkpt lat="48.96903" lon="7.49063">
        <ele>360</ele>
        <time>2025-05-10T16:29:38.000Z</time>
      </trkpt>
      <trkpt lat="48.96896" lon="7.49061">
        <ele>360</ele>
        <time>2025-05-10T16:29:43.000Z</time>
      </trkpt>
      <trkpt lat="48.96892" lon="7.49051">
        <ele>361</ele>
        <time>2025-05-10T16:29:49.000Z</time>
      </trkpt>
      <trkpt lat="48.96891" lon="7.49043">
        <ele>360</ele>
        <time>2025-05-10T16:29:53.000Z</time>
      </trkpt>
      <trkpt lat="48.96887" lon="7.49037">
        <ele>361</ele>
        <time>2025-05-10T16:29:57.000Z</time>
      </trkpt>
      <trkpt lat="48.96881" lon="7.49036">
        <ele>360</ele>
        <time>2025-05-10T16:30:01.000Z</time>
      </trkpt>
      <trkpt lat="48.96878" lon="7.4903">
        <ele>360</ele>
        <time>2025-05-10T16:30:05.000Z</time>
      </trkpt>
      <trkpt lat="48.96876" lon="7.49024">
        <ele>360</ele>
        <time>2025-05-10T16:30:07.000Z</time>
      </trkpt>
      <trkpt lat="48.96877" lon="7.49015">
        <ele>360</ele>
        <time>2025-05-10T16:30:09.000Z</time>
      </trkpt>
      <trkpt lat="48.96879" lon="7.49008">
        <ele>360</ele>
        <time>2025-05-10T16:30:12.000Z</time>
      </trkpt>
      <trkpt lat="48.96881" lon="7.49001">
        <ele>360</ele>
        <time>2025-05-10T16:30:15.000Z</time>
      </trkpt>
      <trkpt lat="48.96882" lon="7.48994">
        <ele>360</ele>
        <time>2025-05-10T16:30:20.000Z</time>
      </trkpt>
      <trkpt lat="48.96882" lon="7.4898">
        <ele>361</ele>
        <time>2025-05-10T16:30:23.000Z</time>
      </trkpt>
      <trkpt lat="48.96884" lon="7.48971">
        <ele>361</ele>
        <time>2025-05-10T16:30:28.000Z</time>
      </trkpt>
      <trkpt lat="48.96897" lon="7.48945">
        <ele>362</ele>
        <time>2025-05-10T16:30:45.000Z</time>
      </trkpt>
      <trkpt lat="48.96897" lon="7.48933">
        <ele>363</ele>
        <time>2025-05-10T16:30:50.000Z</time>
      </trkpt>
      <trkpt lat="48.969" lon="7.48926">
        <ele>363</ele>
        <time>2025-05-10T16:30:54.000Z</time>
      </trkpt>
      <trkpt lat="48.96895" lon="7.48917">
        <ele>364</ele>
        <time>2025-05-10T16:30:59.000Z</time>
      </trkpt>
      <trkpt lat="48.9689" lon="7.48912">
        <ele>365</ele>
        <time>2025-05-10T16:31:07.000Z</time>
      </trkpt>
      <trkpt lat="48.96887" lon="7.48903">
        <ele>365</ele>
        <time>2025-05-10T16:31:12.000Z</time>
      </trkpt>
      <trkpt lat="48.96886" lon="7.48895">
        <ele>365</ele>
        <time>2025-05-10T16:31:16.000Z</time>
      </trkpt>
      <trkpt lat="48.96884" lon="7.48886">
        <ele>366</ele>
        <time>2025-05-10T16:31:22.000Z</time>
      </trkpt>
      <trkpt lat="48.96882" lon="7.48877">
        <ele>366</ele>
        <time>2025-05-10T16:31:27.000Z</time>
      </trkpt>
      <trkpt lat="48.96877" lon="7.48866">
        <ele>367</ele>
        <time>2025-05-10T16:31:37.000Z</time>
      </trkpt>
      <trkpt lat="48.96863" lon="7.48807">
        <ele>370</ele>
        <time>2025-05-10T16:32:10.000Z</time>
      </trkpt>
      <trkpt lat="48.96857" lon="7.48768">
        <ele>371</ele>
        <time>2025-05-10T16:32:33.000Z</time>
      </trkpt>
      <trkpt lat="48.96854" lon="7.4876">
        <ele>372</ele>
        <time>2025-05-10T16:32:37.000Z</time>
      </trkpt>
      <trkpt lat="48.96853" lon="7.48754">
        <ele>372</ele>
        <time>2025-05-10T16:32:41.000Z</time>
      </trkpt>
      <trkpt lat="48.96852" lon="7.48746">
        <ele>372</ele>
        <time>2025-05-10T16:32:45.000Z</time>
      </trkpt>
      <trkpt lat="48.96852" lon="7.4874">
        <ele>372</ele>
        <time>2025-05-10T16:32:49.000Z</time>
      </trkpt>
      <trkpt lat="48.9685" lon="7.48726">
        <ele>373</ele>
        <time>2025-05-10T16:32:56.000Z</time>
      </trkpt>
      <trkpt lat="48.9685" lon="7.4871">
        <ele>374</ele>
        <time>2025-05-10T16:33:04.000Z</time>
      </trkpt>
      <trkpt lat="48.96849" lon="7.48704">
        <ele>374</ele>
        <time>2025-05-10T16:33:07.000Z</time>
      </trkpt>
      <trkpt lat="48.9685" lon="7.48697">
        <ele>374</ele>
        <time>2025-05-10T16:33:10.000Z</time>
      </trkpt>
      <trkpt lat="48.96846" lon="7.48666">
        <ele>375</ele>
        <time>2025-05-10T16:33:28.000Z</time>
      </trkpt>
      <trkpt lat="48.96845" lon="7.48659">
        <ele>376</ele>
        <time>2025-05-10T16:33:34.000Z</time>
      </trkpt>
      <trkpt lat="48.96847" lon="7.48643">
        <ele>376</ele>
        <time>2025-05-10T16:33:39.000Z</time>
      </trkpt>
      <trkpt lat="48.96847" lon="7.48637">
        <ele>376</ele>
        <time>2025-05-10T16:33:41.000Z</time>
      </trkpt>
      <trkpt lat="48.96849" lon="7.48628">
        <ele>377</ele>
        <time>2025-05-10T16:33:46.000Z</time>
      </trkpt>
      <trkpt lat="48.96847" lon="7.48604">
        <ele>378</ele>
        <time>2025-05-10T16:33:57.000Z</time>
      </trkpt>
      <trkpt lat="48.96844" lon="7.48596">
        <ele>378</ele>
        <time>2025-05-10T16:34:01.000Z</time>
      </trkpt>
      <trkpt lat="48.96841" lon="7.48583">
        <ele>378</ele>
        <time>2025-05-10T16:34:05.000Z</time>
      </trkpt>
      <trkpt lat="48.96842" lon="7.48578">
        <ele>378</ele>
        <time>2025-05-10T16:34:08.000Z</time>
      </trkpt>
      <trkpt lat="48.96841" lon="7.4857">
        <ele>379</ele>
        <time>2025-05-10T16:34:15.000Z</time>
      </trkpt>
      <trkpt lat="48.96839" lon="7.48564">
        <ele>379</ele>
        <time>2025-05-10T16:34:21.000Z</time>
      </trkpt>
      <trkpt lat="48.96838" lon="7.48549">
        <ele>379</ele>
        <time>2025-05-10T16:34:28.000Z</time>
      </trkpt>
      <trkpt lat="48.96834" lon="7.48545">
        <ele>379</ele>
        <time>2025-05-10T16:34:32.000Z</time>
      </trkpt>
      <trkpt lat="48.96829" lon="7.48541">
        <ele>379</ele>
        <time>2025-05-10T16:34:37.000Z</time>
      </trkpt>
      <trkpt lat="48.96826" lon="7.48533">
        <ele>379</ele>
        <time>2025-05-10T16:34:43.000Z</time>
      </trkpt>
      <trkpt lat="48.96825" lon="7.48525">
        <ele>379</ele>
        <time>2025-05-10T16:34:47.000Z</time>
      </trkpt>
      <trkpt lat="48.96823" lon="7.48517">
        <ele>379</ele>
        <time>2025-05-10T16:34:52.000Z</time>
      </trkpt>
      <trkpt lat="48.96812" lon="7.4849">
        <ele>380</ele>
        <time>2025-05-10T16:35:10.000Z</time>
      </trkpt>
      <trkpt lat="48.96801" lon="7.48474">
        <ele>381</ele>
        <time>2025-05-10T16:35:22.000Z</time>
      </trkpt>
      <trkpt lat="48.96798" lon="7.48467">
        <ele>381</ele>
        <time>2025-05-10T16:35:26.000Z</time>
      </trkpt>
      <trkpt lat="48.96793" lon="7.48463">
        <ele>382</ele>
        <time>2025-05-10T16:35:31.000Z</time>
      </trkpt>
      <trkpt lat="48.96779" lon="7.48459">
        <ele>383</ele>
        <time>2025-05-10T16:35:45.000Z</time>
      </trkpt>
      <trkpt lat="48.96774" lon="7.48457">
        <ele>383</ele>
        <time>2025-05-10T16:35:48.000Z</time>
      </trkpt>
      <trkpt lat="48.96769" lon="7.4845">
        <ele>384</ele>
        <time>2025-05-10T16:35:55.000Z</time>
      </trkpt>
      <trkpt lat="48.96764" lon="7.48449">
        <ele>384</ele>
        <time>2025-05-10T16:35:58.000Z</time>
      </trkpt>
      <trkpt lat="48.96755" lon="7.48439">
        <ele>385</ele>
        <time>2025-05-10T16:36:08.000Z</time>
      </trkpt>
      <trkpt lat="48.9675" lon="7.48438">
        <ele>385</ele>
        <time>2025-05-10T16:36:12.000Z</time>
      </trkpt>
      <trkpt lat="48.9674" lon="7.48438">
        <ele>385</ele>
        <time>2025-05-10T16:36:19.000Z</time>
      </trkpt>
      <trkpt lat="48.96737" lon="7.48435">
        <ele>386</ele>
        <time>2025-05-10T16:36:22.000Z</time>
      </trkpt>
      <trkpt lat="48.9673" lon="7.48434">
        <ele>387</ele>
        <time>2025-05-10T16:36:30.000Z</time>
      </trkpt>
      <trkpt lat="48.96726" lon="7.48434">
        <ele>387</ele>
        <time>2025-05-10T16:36:33.000Z</time>
      </trkpt>
      <trkpt lat="48.96719" lon="7.48425">
        <ele>388</ele>
        <time>2025-05-10T16:36:42.000Z</time>
      </trkpt>
      <trkpt lat="48.96715" lon="7.48423">
        <ele>389</ele>
        <time>2025-05-10T16:36:46.000Z</time>
      </trkpt>
      <trkpt lat="48.96697" lon="7.48413">
        <ele>389</ele>
        <time>2025-05-10T16:37:00.000Z</time>
      </trkpt>
      <trkpt lat="48.96691" lon="7.4841">
        <ele>388</ele>
        <time>2025-05-10T16:37:04.000Z</time>
      </trkpt>
      <trkpt lat="48.96686" lon="7.48407">
        <ele>390</ele>
        <time>2025-05-10T16:37:08.000Z</time>
      </trkpt>
      <trkpt lat="48.96682" lon="7.48405">
        <ele>389</ele>
        <time>2025-05-10T16:37:11.000Z</time>
      </trkpt>
      <trkpt lat="48.96678" lon="7.48402">
        <ele>389</ele>
        <time>2025-05-10T16:37:14.000Z</time>
      </trkpt>
      <trkpt lat="48.96672" lon="7.484">
        <ele>389</ele>
        <time>2025-05-10T16:37:18.000Z</time>
      </trkpt>
      <trkpt lat="48.96658" lon="7.48391">
        <ele>390</ele>
        <time>2025-05-10T16:37:30.000Z</time>
      </trkpt>
      <trkpt lat="48.96646" lon="7.48373">
        <ele>390</ele>
        <time>2025-05-10T16:37:44.000Z</time>
      </trkpt>
      <trkpt lat="48.9663" lon="7.48365">
        <ele>390</ele>
        <time>2025-05-10T16:37:55.000Z</time>
      </trkpt>
      <trkpt lat="48.96627" lon="7.48361">
        <ele>390</ele>
        <time>2025-05-10T16:37:58.000Z</time>
      </trkpt>
      <trkpt lat="48.96621" lon="7.4836">
        <ele>390</ele>
        <time>2025-05-10T16:38:01.000Z</time>
      </trkpt>
      <trkpt lat="48.9658" lon="7.48327">
        <ele>390</ele>
        <time>2025-05-10T16:38:38.000Z</time>
      </trkpt>
      <trkpt lat="48.96574" lon="7.4833">
        <ele>391</ele>
        <time>2025-05-10T16:38:45.000Z</time>
      </trkpt>
      <trkpt lat="48.96553" lon="7.48317">
        <ele>391</ele>
        <time>2025-05-10T16:39:00.000Z</time>
      </trkpt>
      <trkpt lat="48.96541" lon="7.48304">
        <ele>391</ele>
        <time>2025-05-10T16:39:12.000Z</time>
      </trkpt>
      <trkpt lat="48.96529" lon="7.483">
        <ele>392</ele>
        <time>2025-05-10T16:39:21.000Z</time>
      </trkpt>
      <trkpt lat="48.96523" lon="7.48295">
        <ele>392</ele>
        <time>2025-05-10T16:39:28.000Z</time>
      </trkpt>
      <trkpt lat="48.96518" lon="7.48297">
        <ele>392</ele>
        <time>2025-05-10T16:39:33.000Z</time>
      </trkpt>
      <trkpt lat="48.96513" lon="7.48295">
        <ele>392</ele>
        <time>2025-05-10T16:39:36.000Z</time>
      </trkpt>
      <trkpt lat="48.96499" lon="7.48288">
        <ele>394</ele>
        <time>2025-05-10T16:39:52.000Z</time>
      </trkpt>
      <trkpt lat="48.96483" lon="7.48287">
        <ele>395</ele>
        <time>2025-05-10T16:40:02.000Z</time>
      </trkpt>
      <trkpt lat="48.96468" lon="7.4829">
        <ele>395</ele>
        <time>2025-05-10T16:40:14.000Z</time>
      </trkpt>
      <trkpt lat="48.9646" lon="7.48276">
        <ele>395</ele>
        <time>2025-05-10T16:40:30.000Z</time>
      </trkpt>
      <trkpt lat="48.96417" lon="7.48261">
        <ele>396</ele>
        <time>2025-05-10T16:41:02.000Z</time>
      </trkpt>
      <trkpt lat="48.96408" lon="7.48267">
        <ele>397</ele>
        <time>2025-05-10T16:41:08.000Z</time>
      </trkpt>
      <trkpt lat="48.96401" lon="7.48264">
        <ele>397</ele>
        <time>2025-05-10T16:41:14.000Z</time>
      </trkpt>
      <trkpt lat="48.96372" lon="7.48269">
        <ele>401</ele>
        <time>2025-05-10T16:41:45.000Z</time>
      </trkpt>
      <trkpt lat="48.96368" lon="7.48267">
        <ele>402</ele>
        <time>2025-05-10T16:41:51.000Z</time>
      </trkpt>
      <trkpt lat="48.96355" lon="7.48259">
        <ele>403</ele>
        <time>2025-05-10T16:42:02.000Z</time>
      </trkpt>
      <trkpt lat="48.96351" lon="7.48252">
        <ele>404</ele>
        <time>2025-05-10T16:42:06.000Z</time>
      </trkpt>
      <trkpt lat="48.96346" lon="7.4825">
        <ele>405</ele>
        <time>2025-05-10T16:42:09.000Z</time>
      </trkpt>
      <trkpt lat="48.96342" lon="7.48245">
        <ele>406</ele>
        <time>2025-05-10T16:42:17.000Z</time>
      </trkpt>
      <trkpt lat="48.96335" lon="7.48242">
        <ele>406</ele>
        <time>2025-05-10T16:42:21.000Z</time>
      </trkpt>
      <trkpt lat="48.96326" lon="7.48238">
        <ele>405</ele>
        <time>2025-05-10T16:42:30.000Z</time>
      </trkpt>
      <trkpt lat="48.9632" lon="7.48231">
        <ele>405</ele>
        <time>2025-05-10T16:42:35.000Z</time>
      </trkpt>
      <trkpt lat="48.96293" lon="7.48218">
        <ele>405</ele>
        <time>2025-05-10T16:42:51.000Z</time>
      </trkpt>
      <trkpt lat="48.96288" lon="7.48213">
        <ele>405</ele>
        <time>2025-05-10T16:42:58.000Z</time>
      </trkpt>
      <trkpt lat="48.96285" lon="7.48206">
        <ele>405</ele>
        <time>2025-05-10T16:43:04.000Z</time>
      </trkpt>
      <trkpt lat="48.96282" lon="7.48197">
        <ele>404</ele>
        <time>2025-05-10T16:43:08.000Z</time>
      </trkpt>
      <trkpt lat="48.96279" lon="7.48192">
        <ele>404</ele>
        <time>2025-05-10T16:43:12.000Z</time>
      </trkpt>
      <trkpt lat="48.96278" lon="7.48186">
        <ele>403</ele>
        <time>2025-05-10T16:43:16.000Z</time>
      </trkpt>
      <trkpt lat="48.96273" lon="7.48183">
        <ele>402</ele>
        <time>2025-05-10T16:43:20.000Z</time>
      </trkpt>
      <trkpt lat="48.96269" lon="7.48178">
        <ele>401</ele>
        <time>2025-05-10T16:43:23.000Z</time>
      </trkpt>
      <trkpt lat="48.96266" lon="7.4817">
        <ele>399</ele>
        <time>2025-05-10T16:43:31.000Z</time>
      </trkpt>
      <trkpt lat="48.96262" lon="7.48163">
        <ele>398</ele>
        <time>2025-05-10T16:43:38.000Z</time>
      </trkpt>
      <trkpt lat="48.96258" lon="7.48159">
        <ele>397</ele>
        <time>2025-05-10T16:43:42.000Z</time>
      </trkpt>
      <trkpt lat="48.96244" lon="7.48137">
        <ele>393</ele>
        <time>2025-05-10T16:43:58.000Z</time>
      </trkpt>
      <trkpt lat="48.96239" lon="7.48136">
        <ele>392</ele>
        <time>2025-05-10T16:44:03.000Z</time>
      </trkpt>
      <trkpt lat="48.96234" lon="7.4813">
        <ele>390</ele>
        <time>2025-05-10T16:44:11.000Z</time>
      </trkpt>
      <trkpt lat="48.96229" lon="7.48127">
        <ele>388</ele>
        <time>2025-05-10T16:44:16.000Z</time>
      </trkpt>
      <trkpt lat="48.96225" lon="7.48129">
        <ele>388</ele>
        <time>2025-05-10T16:44:19.000Z</time>
      </trkpt>
      <trkpt lat="48.96216" lon="7.48137">
        <ele>386</ele>
        <time>2025-05-10T16:44:28.000Z</time>
      </trkpt>
      <trkpt lat="48.96211" lon="7.48137">
        <ele>384</ele>
        <time>2025-05-10T16:44:33.000Z</time>
      </trkpt>
      <trkpt lat="48.96201" lon="7.48134">
        <ele>383</ele>
        <time>2025-05-10T16:44:39.000Z</time>
      </trkpt>
      <trkpt lat="48.9617" lon="7.48119">
        <ele>375</ele>
        <time>2025-05-10T16:45:09.000Z</time>
      </trkpt>
      <trkpt lat="48.96149" lon="7.4811">
        <ele>372</ele>
        <time>2025-05-10T16:45:29.000Z</time>
      </trkpt>
      <trkpt lat="48.96115" lon="7.48105">
        <ele>367</ele>
        <time>2025-05-10T16:46:00.000Z</time>
      </trkpt>
      <trkpt lat="48.96111" lon="7.48102">
        <ele>366</ele>
        <time>2025-05-10T16:46:05.000Z</time>
      </trkpt>
      <trkpt lat="48.96106" lon="7.48099">
        <ele>366</ele>
        <time>2025-05-10T16:46:08.000Z</time>
      </trkpt>
      <trkpt lat="48.96102" lon="7.48095">
        <ele>365</ele>
        <time>2025-05-10T16:46:11.000Z</time>
      </trkpt>
      <trkpt lat="48.96093" lon="7.48089">
        <ele>362</ele>
        <time>2025-05-10T16:46:23.000Z</time>
      </trkpt>
      <trkpt lat="48.96088" lon="7.48084">
        <ele>361</ele>
        <time>2025-05-10T16:46:26.000Z</time>
      </trkpt>
      <trkpt lat="48.96081" lon="7.48078">
        <ele>360</ele>
        <time>2025-05-10T16:46:30.000Z</time>
      </trkpt>
      <trkpt lat="48.96069" lon="7.48098">
        <ele>357</ele>
        <time>2025-05-10T16:46:47.000Z</time>
      </trkpt>
      <trkpt lat="48.96063" lon="7.481">
        <ele>356</ele>
        <time>2025-05-10T16:46:51.000Z</time>
      </trkpt>
      <trkpt lat="48.96059" lon="7.48096">
        <ele>356</ele>
        <time>2025-05-10T16:46:53.000Z</time>
      </trkpt>
      <trkpt lat="48.96052" lon="7.48098">
        <ele>356</ele>
        <time>2025-05-10T16:46:56.000Z</time>
      </trkpt>
      <trkpt lat="48.96048" lon="7.48097">
        <ele>355</ele>
        <time>2025-05-10T16:47:00.000Z</time>
      </trkpt>
      <trkpt lat="48.96043" lon="7.481">
        <ele>355</ele>
        <time>2025-05-10T16:47:04.000Z</time>
      </trkpt>
      <trkpt lat="48.96029" lon="7.48095">
        <ele>353</ele>
        <time>2025-05-10T16:47:17.000Z</time>
      </trkpt>
      <trkpt lat="48.96024" lon="7.48093">
        <ele>354</ele>
        <time>2025-05-10T16:47:21.000Z</time>
      </trkpt>
      <trkpt lat="48.96017" lon="7.48087">
        <ele>353</ele>
        <time>2025-05-10T16:47:28.000Z</time>
      </trkpt>
      <trkpt lat="48.96012" lon="7.4808">
        <ele>353</ele>
        <time>2025-05-10T16:47:32.000Z</time>
      </trkpt>
      <trkpt lat="48.96001" lon="7.48082">
        <ele>352</ele>
        <time>2025-05-10T16:47:38.000Z</time>
      </trkpt>
      <trkpt lat="48.95987" lon="7.48075">
        <ele>353</ele>
        <time>2025-05-10T16:47:52.000Z</time>
      </trkpt>
      <trkpt lat="48.95977" lon="7.48076">
        <ele>353</ele>
        <time>2025-05-10T16:47:57.000Z</time>
      </trkpt>
      <trkpt lat="48.95972" lon="7.4808">
        <ele>353</ele>
        <time>2025-05-10T16:48:00.000Z</time>
      </trkpt>
      <trkpt lat="48.95968" lon="7.48087">
        <ele>353</ele>
        <time>2025-05-10T16:48:02.000Z</time>
      </trkpt>
      <trkpt lat="48.9596" lon="7.48085">
        <ele>353</ele>
        <time>2025-05-10T16:48:11.000Z</time>
      </trkpt>
      <trkpt lat="48.95954" lon="7.48086">
        <ele>353</ele>
        <time>2025-05-10T16:48:15.000Z</time>
      </trkpt>
      <trkpt lat="48.95947" lon="7.48077">
        <ele>353</ele>
        <time>2025-05-10T16:48:23.000Z</time>
      </trkpt>
      <trkpt lat="48.95941" lon="7.48076">
        <ele>353</ele>
        <time>2025-05-10T16:48:28.000Z</time>
      </trkpt>
      <trkpt lat="48.95937" lon="7.48072">
        <ele>353</ele>
        <time>2025-05-10T16:48:31.000Z</time>
      </trkpt>
      <trkpt lat="48.95925" lon="7.48069">
        <ele>353</ele>
        <time>2025-05-10T16:48:41.000Z</time>
      </trkpt>
      <trkpt lat="48.95918" lon="7.4807">
        <ele>353</ele>
        <time>2025-05-10T16:48:46.000Z</time>
      </trkpt>
      <trkpt lat="48.95912" lon="7.48067">
        <ele>354</ele>
        <time>2025-05-10T16:48:51.000Z</time>
      </trkpt>
      <trkpt lat="48.95899" lon="7.48078">
        <ele>354</ele>
        <time>2025-05-10T16:49:02.000Z</time>
      </trkpt>
      <trkpt lat="48.9589" lon="7.48079">
        <ele>354</ele>
        <time>2025-05-10T16:49:11.000Z</time>
      </trkpt>
      <trkpt lat="48.95884" lon="7.48097">
        <ele>354</ele>
        <time>2025-05-10T16:49:17.000Z</time>
      </trkpt>
      <trkpt lat="48.95883" lon="7.48102">
        <ele>355</ele>
        <time>2025-05-10T16:49:20.000Z</time>
      </trkpt>
      <trkpt lat="48.95878" lon="7.48107">
        <ele>355</ele>
        <time>2025-05-10T16:49:25.000Z</time>
      </trkpt>
      <trkpt lat="48.95875" lon="7.48115">
        <ele>355</ele>
        <time>2025-05-10T16:49:28.000Z</time>
      </trkpt>
      <trkpt lat="48.95871" lon="7.48121">
        <ele>355</ele>
        <time>2025-05-10T16:49:32.000Z</time>
      </trkpt>
      <trkpt lat="48.95863" lon="7.48124">
        <ele>356</ele>
        <time>2025-05-10T16:49:39.000Z</time>
      </trkpt>
      <trkpt lat="48.95855" lon="7.48138">
        <ele>356</ele>
        <time>2025-05-10T16:49:48.000Z</time>
      </trkpt>
      <trkpt lat="48.95812" lon="7.48169">
        <ele>355</ele>
        <time>2025-05-10T16:50:24.000Z</time>
      </trkpt>
      <trkpt lat="48.95793" lon="7.48169">
        <ele>356</ele>
        <time>2025-05-10T16:50:37.000Z</time>
      </trkpt>
      <trkpt lat="48.95791" lon="7.48175">
        <ele>356</ele>
        <time>2025-05-10T16:50:42.000Z</time>
      </trkpt>
      <trkpt lat="48.95783" lon="7.48176">
        <ele>356</ele>
        <time>2025-05-10T16:50:50.000Z</time>
      </trkpt>
      <trkpt lat="48.95763" lon="7.48188">
        <ele>355</ele>
        <time>2025-05-10T16:51:08.000Z</time>
      </trkpt>
      <trkpt lat="48.95754" lon="7.48188">
        <ele>355</ele>
        <time>2025-05-10T16:51:15.000Z</time>
      </trkpt>
      <trkpt lat="48.95744" lon="7.48183">
        <ele>353</ele>
        <time>2025-05-10T17:08:58.000Z</time>
      </trkpt>
      <trkpt lat="48.95744" lon="7.48182">
        <ele>353</ele>
        <time>2025-05-10T17:08:59.000Z</time>
      </trkpt>
      <trkpt lat="48.95743" lon="7.48175">
        <ele>353</ele>
        <time>2025-05-10T17:09:01.000Z</time>
      </trkpt>
      <trkpt lat="48.95738" lon="7.48167">
        <ele>352</ele>
        <time>2025-05-10T17:09:13.000Z</time>
      </trkpt>
      <trkpt lat="48.95736" lon="7.48161">
        <ele>352</ele>
        <time>2025-05-10T17:09:17.000Z</time>
      </trkpt>
      <trkpt lat="48.95734" lon="7.48156">
        <ele>352</ele>
        <time>2025-05-10T17:09:20.000Z</time>
      </trkpt>
      <trkpt lat="48.95734" lon="7.48149">
        <ele>352</ele>
        <time>2025-05-10T17:09:25.000Z</time>
      </trkpt>
      <trkpt lat="48.95731" lon="7.48143">
        <ele>352</ele>
        <time>2025-05-10T17:09:29.000Z</time>
      </trkpt>
      <trkpt lat="48.95729" lon="7.48135">
        <ele>352</ele>
        <time>2025-05-10T17:09:32.000Z</time>
      </trkpt>
      <trkpt lat="48.95726" lon="7.4813">
        <ele>352</ele>
        <time>2025-05-10T17:09:35.000Z</time>
      </trkpt>
      <trkpt lat="48.95723" lon="7.48106">
        <ele>352</ele>
        <time>2025-05-10T17:09:45.000Z</time>
      </trkpt>
      <trkpt lat="48.95717" lon="7.48095">
        <ele>352</ele>
        <time>2025-05-10T17:09:51.000Z</time>
      </trkpt>
      <trkpt lat="48.95714" lon="7.48069">
        <ele>352</ele>
        <time>2025-05-10T17:10:05.000Z</time>
      </trkpt>
      <trkpt lat="48.95707" lon="7.48073">
        <ele>352</ele>
        <time>2025-05-10T17:10:08.000Z</time>
      </trkpt>
      <trkpt lat="48.95705" lon="7.48064">
        <ele>352</ele>
        <time>2025-05-10T17:10:11.000Z</time>
      </trkpt>
      <trkpt lat="48.95706" lon="7.48056">
        <ele>351</ele>
        <time>2025-05-10T17:10:14.000Z</time>
      </trkpt>
      <trkpt lat="48.95697" lon="7.48045">
        <ele>352</ele>
        <time>2025-05-10T17:10:19.000Z</time>
      </trkpt>
      <trkpt lat="48.95697" lon="7.48037">
        <ele>352</ele>
        <time>2025-05-10T17:10:22.000Z</time>
      </trkpt>
      <trkpt lat="48.9569" lon="7.48018">
        <ele>351</ele>
        <time>2025-05-10T17:10:32.000Z</time>
      </trkpt>
      <trkpt lat="48.95688" lon="7.4801">
        <ele>350</ele>
        <time>2025-05-10T17:10:37.000Z</time>
      </trkpt>
      <trkpt lat="48.95681" lon="7.48">
        <ele>349</ele>
        <time>2025-05-10T17:10:42.000Z</time>
      </trkpt>
      <trkpt lat="48.95679" lon="7.47993">
        <ele>349</ele>
        <time>2025-05-10T17:10:48.000Z</time>
      </trkpt>
      <trkpt lat="48.95674" lon="7.47991">
        <ele>349</ele>
        <time>2025-05-10T17:10:53.000Z</time>
      </trkpt>
      <trkpt lat="48.95666" lon="7.47986">
        <ele>349</ele>
        <time>2025-05-10T17:11:01.000Z</time>
      </trkpt>
      <trkpt lat="48.95657" lon="7.4798">
        <ele>350</ele>
        <time>2025-05-10T17:11:09.000Z</time>
      </trkpt>
      <trkpt lat="48.95643" lon="7.47963">
        <ele>352</ele>
        <time>2025-05-10T17:11:26.000Z</time>
      </trkpt>
      <trkpt lat="48.95624" lon="7.47916">
        <ele>354</ele>
        <time>2025-05-10T17:11:51.000Z</time>
      </trkpt>
      <trkpt lat="48.95622" lon="7.47907">
        <ele>354</ele>
        <time>2025-05-10T17:11:54.000Z</time>
      </trkpt>
      <trkpt lat="48.95621" lon="7.47898">
        <ele>354</ele>
        <time>2025-05-10T17:11:57.000Z</time>
      </trkpt>
      <trkpt lat="48.95613" lon="7.47885">
        <ele>354</ele>
        <time>2025-05-10T17:12:06.000Z</time>
      </trkpt>
      <trkpt lat="48.9561" lon="7.47876">
        <ele>355</ele>
        <time>2025-05-10T17:12:08.000Z</time>
      </trkpt>
      <trkpt lat="48.9561" lon="7.47867">
        <ele>355</ele>
        <time>2025-05-10T17:12:10.000Z</time>
      </trkpt>
      <trkpt lat="48.95606" lon="7.47852">
        <ele>354</ele>
        <time>2025-05-10T17:12:19.000Z</time>
      </trkpt>
      <trkpt lat="48.95608" lon="7.47842">
        <ele>354</ele>
        <time>2025-05-10T17:12:22.000Z</time>
      </trkpt>
      <trkpt lat="48.95608" lon="7.47834">
        <ele>355</ele>
        <time>2025-05-10T17:12:25.000Z</time>
      </trkpt>
      <trkpt lat="48.95608" lon="7.47823">
        <ele>355</ele>
        <time>2025-05-10T17:12:28.000Z</time>
      </trkpt>
      <trkpt lat="48.95599" lon="7.47762">
        <ele>353</ele>
        <time>2025-05-10T17:13:00.000Z</time>
      </trkpt>
      <trkpt lat="48.95596" lon="7.47758">
        <ele>353</ele>
        <time>2025-05-10T17:13:04.000Z</time>
      </trkpt>
      <trkpt lat="48.95597" lon="7.47749">
        <ele>353</ele>
        <time>2025-05-10T17:13:08.000Z</time>
      </trkpt>
      <trkpt lat="48.95597" lon="7.47742">
        <ele>353</ele>
        <time>2025-05-10T17:13:10.000Z</time>
      </trkpt>
      <trkpt lat="48.95595" lon="7.47722">
        <ele>353</ele>
        <time>2025-05-10T17:13:19.000Z</time>
      </trkpt>
      <trkpt lat="48.95596" lon="7.47715">
        <ele>352</ele>
        <time>2025-05-10T17:13:23.000Z</time>
      </trkpt>
      <trkpt lat="48.95596" lon="7.47705">
        <ele>352</ele>
        <time>2025-05-10T17:13:28.000Z</time>
      </trkpt>
      <trkpt lat="48.95597" lon="7.47695">
        <ele>351</ele>
        <time>2025-05-10T17:13:33.000Z</time>
      </trkpt>
      <trkpt lat="48.95597" lon="7.47687">
        <ele>351</ele>
        <time>2025-05-10T17:13:36.000Z</time>
      </trkpt>
      <trkpt lat="48.95598" lon="7.47678">
        <ele>350</ele>
        <time>2025-05-10T17:13:41.000Z</time>
      </trkpt>
      <trkpt lat="48.95596" lon="7.4767">
        <ele>350</ele>
        <time>2025-05-10T17:13:44.000Z</time>
      </trkpt>
      <trkpt lat="48.95596" lon="7.47662">
        <ele>350</ele>
        <time>2025-05-10T17:13:47.000Z</time>
      </trkpt>
      <trkpt lat="48.95595" lon="7.47652">
        <ele>350</ele>
        <time>2025-05-10T17:13:50.000Z</time>
      </trkpt>
      <trkpt lat="48.95595" lon="7.47643">
        <ele>350</ele>
        <time>2025-05-10T17:13:55.000Z</time>
      </trkpt>
      <trkpt lat="48.95593" lon="7.47632">
        <ele>349</ele>
        <time>2025-05-10T17:14:02.000Z</time>
      </trkpt>
      <trkpt lat="48.95594" lon="7.4762">
        <ele>349</ele>
        <time>2025-05-10T17:14:06.000Z</time>
      </trkpt>
      <trkpt lat="48.95595" lon="7.47615">
        <ele>349</ele>
        <time>2025-05-10T17:14:09.000Z</time>
      </trkpt>
      <trkpt lat="48.95594" lon="7.47598">
        <ele>349</ele>
        <time>2025-05-10T17:14:19.000Z</time>
      </trkpt>
      <trkpt lat="48.95593" lon="7.4759">
        <ele>348</ele>
        <time>2025-05-10T17:14:23.000Z</time>
      </trkpt>
      <trkpt lat="48.95586" lon="7.47562">
        <ele>348</ele>
        <time>2025-05-10T17:14:40.000Z</time>
      </trkpt>
      <trkpt lat="48.95586" lon="7.47554">
        <ele>348</ele>
        <time>2025-05-10T17:14:44.000Z</time>
      </trkpt>
      <trkpt lat="48.95584" lon="7.47548">
        <ele>349</ele>
        <time>2025-05-10T17:14:48.000Z</time>
      </trkpt>
      <trkpt lat="48.95579" lon="7.47534">
        <ele>349</ele>
        <time>2025-05-10T17:14:56.000Z</time>
      </trkpt>
      <trkpt lat="48.95575" lon="7.47512">
        <ele>349</ele>
        <time>2025-05-10T17:15:07.000Z</time>
      </trkpt>
      <trkpt lat="48.95573" lon="7.47505">
        <ele>349</ele>
        <time>2025-05-10T17:15:11.000Z</time>
      </trkpt>
      <trkpt lat="48.95569" lon="7.47482">
        <ele>350</ele>
        <time>2025-05-10T17:15:24.000Z</time>
      </trkpt>
      <trkpt lat="48.9555" lon="7.47429">
        <ele>351</ele>
        <time>2025-05-10T17:15:56.000Z</time>
      </trkpt>
      <trkpt lat="48.95547" lon="7.47422">
        <ele>351</ele>
        <time>2025-05-10T17:16:00.000Z</time>
      </trkpt>
      <trkpt lat="48.95544" lon="7.47417">
        <ele>351</ele>
        <time>2025-05-10T17:16:04.000Z</time>
      </trkpt>
      <trkpt lat="48.95528" lon="7.47391">
        <ele>351</ele>
        <time>2025-05-10T17:16:21.000Z</time>
      </trkpt>
      <trkpt lat="48.95512" lon="7.47375">
        <ele>351</ele>
        <time>2025-05-10T17:16:36.000Z</time>
      </trkpt>
      <trkpt lat="48.95493" lon="7.47364">
        <ele>350</ele>
        <time>2025-05-10T17:16:52.000Z</time>
      </trkpt>
      <trkpt lat="48.95487" lon="7.47362">
        <ele>350</ele>
        <time>2025-05-10T17:16:56.000Z</time>
      </trkpt>
      <trkpt lat="48.95467" lon="7.47362">
        <ele>349</ele>
        <time>2025-05-10T17:17:12.000Z</time>
      </trkpt>
      <trkpt lat="48.95452" lon="7.47367">
        <ele>349</ele>
        <time>2025-05-10T17:17:25.000Z</time>
      </trkpt>
      <trkpt lat="48.95446" lon="7.4737">
        <ele>349</ele>
        <time>2025-05-10T17:17:29.000Z</time>
      </trkpt>
      <trkpt lat="48.95426" lon="7.47386">
        <ele>347</ele>
        <time>2025-05-10T17:17:47.000Z</time>
      </trkpt>
      <trkpt lat="48.95392" lon="7.4743">
        <ele>344</ele>
        <time>2025-05-10T17:18:20.000Z</time>
      </trkpt>
      <trkpt lat="48.95367" lon="7.47464">
        <ele>343</ele>
        <time>2025-05-10T17:18:48.000Z</time>
      </trkpt>
      <trkpt lat="48.95363" lon="7.47468">
        <ele>344</ele>
        <time>2025-05-10T17:18:52.000Z</time>
      </trkpt>
      <trkpt lat="48.95359" lon="7.47472">
        <ele>344</ele>
        <time>2025-05-10T17:18:56.000Z</time>
      </trkpt>
      <trkpt lat="48.95337" lon="7.4749">
        <ele>343</ele>
        <time>2025-05-10T17:19:16.000Z</time>
      </trkpt>
      <trkpt lat="48.95327" lon="7.47493">
        <ele>343</ele>
        <time>2025-05-10T17:19:23.000Z</time>
      </trkpt>
      <trkpt lat="48.95317" lon="7.47493">
        <ele>343</ele>
        <time>2025-05-10T17:19:31.000Z</time>
      </trkpt>
      <trkpt lat="48.95311" lon="7.47492">
        <ele>344</ele>
        <time>2025-05-10T17:19:35.000Z</time>
      </trkpt>
      <trkpt lat="48.95292" lon="7.47486">
        <ele>344</ele>
        <time>2025-05-10T17:19:50.000Z</time>
      </trkpt>
      <trkpt lat="48.95287" lon="7.47485">
        <ele>344</ele>
        <time>2025-05-10T17:19:53.000Z</time>
      </trkpt>
      <trkpt lat="48.95249" lon="7.47464">
        <ele>344</ele>
        <time>2025-05-10T17:20:24.000Z</time>
      </trkpt>
      <trkpt lat="48.95245" lon="7.47461">
        <ele>344</ele>
        <time>2025-05-10T17:20:27.000Z</time>
      </trkpt>
      <trkpt lat="48.9524" lon="7.47458">
        <ele>344</ele>
        <time>2025-05-10T17:20:31.000Z</time>
      </trkpt>
      <trkpt lat="48.95226" lon="7.47449">
        <ele>343</ele>
        <time>2025-05-10T17:20:43.000Z</time>
      </trkpt>
      <trkpt lat="48.95209" lon="7.47437">
        <ele>342</ele>
        <time>2025-05-10T17:20:57.000Z</time>
      </trkpt>
      <trkpt lat="48.95173" lon="7.47407">
        <ele>342</ele>
        <time>2025-05-10T17:21:31.000Z</time>
      </trkpt>
      <trkpt lat="48.95168" lon="7.47403">
        <ele>342</ele>
        <time>2025-05-10T17:21:35.000Z</time>
      </trkpt>
      <trkpt lat="48.9513" lon="7.4737">
        <ele>341</ele>
        <time>2025-05-10T17:22:08.000Z</time>
      </trkpt>
      <trkpt lat="48.95126" lon="7.47366">
        <ele>341</ele>
        <time>2025-05-10T17:22:11.000Z</time>
      </trkpt>
      <trkpt lat="48.95112" lon="7.47356">
        <ele>341</ele>
        <time>2025-05-10T17:22:22.000Z</time>
      </trkpt>
      <trkpt lat="48.95107" lon="7.47352">
        <ele>341</ele>
        <time>2025-05-10T17:22:25.000Z</time>
      </trkpt>
      <trkpt lat="48.95101" lon="7.47348">
        <ele>341</ele>
        <time>2025-05-10T17:22:29.000Z</time>
      </trkpt>
      <trkpt lat="48.95097" lon="7.47345">
        <ele>341</ele>
        <time>2025-05-10T17:22:31.000Z</time>
      </trkpt>
      <trkpt lat="48.95055" lon="7.47308">
        <ele>339</ele>
        <time>2025-05-10T17:23:04.000Z</time>
      </trkpt>
      <trkpt lat="48.95051" lon="7.47301">
        <ele>339</ele>
        <time>2025-05-10T17:23:07.000Z</time>
      </trkpt>
      <trkpt lat="48.95041" lon="7.47281">
        <ele>338</ele>
        <time>2025-05-10T17:23:23.000Z</time>
      </trkpt>
      <trkpt lat="48.95037" lon="7.47268">
        <ele>338</ele>
        <time>2025-05-10T17:23:32.000Z</time>
      </trkpt>
      <trkpt lat="48.95035" lon="7.47261">
        <ele>338</ele>
        <time>2025-05-10T17:23:37.000Z</time>
      </trkpt>
      <trkpt lat="48.95023" lon="7.47202">
        <ele>337</ele>
        <time>2025-05-10T17:24:09.000Z</time>
      </trkpt>
      <trkpt lat="48.95006" lon="7.47146">
        <ele>336</ele>
        <time>2025-05-10T17:24:40.000Z</time>
      </trkpt>
      <trkpt lat="48.94983" lon="7.47078">
        <ele>336</ele>
        <time>2025-05-10T17:25:12.000Z</time>
      </trkpt>
      <trkpt lat="48.94981" lon="7.4707">
        <ele>336</ele>
        <time>2025-05-10T17:25:16.000Z</time>
      </trkpt>
      <trkpt lat="48.94982" lon="7.47061">
        <ele>336</ele>
        <time>2025-05-10T17:25:19.000Z</time>
      </trkpt>
      <trkpt lat="48.94975" lon="7.47043">
        <ele>335</ele>
        <time>2025-05-10T17:25:29.000Z</time>
      </trkpt>
      <trkpt lat="48.94971" lon="7.47035">
        <ele>335</ele>
        <time>2025-05-10T17:25:32.000Z</time>
      </trkpt>
      <trkpt lat="48.94968" lon="7.4703">
        <ele>335</ele>
        <time>2025-05-10T17:25:35.000Z</time>
      </trkpt>
      <trkpt lat="48.94966" lon="7.47024">
        <ele>335</ele>
        <time>2025-05-10T17:25:39.000Z</time>
      </trkpt>
      <trkpt lat="48.94931" lon="7.46985">
        <ele>335</ele>
        <time>2025-05-10T17:26:10.000Z</time>
      </trkpt>
      <trkpt lat="48.94927" lon="7.4698">
        <ele>335</ele>
        <time>2025-05-10T17:26:14.000Z</time>
      </trkpt>
      <trkpt lat="48.94891" lon="7.46952">
        <ele>333</ele>
        <time>2025-05-10T17:26:44.000Z</time>
      </trkpt>
      <trkpt lat="48.94868" lon="7.46943">
        <ele>333</ele>
        <time>2025-05-10T17:27:01.000Z</time>
      </trkpt>
      <trkpt lat="48.9482" lon="7.46949">
        <ele>333</ele>
        <time>2025-05-10T17:27:32.000Z</time>
      </trkpt>
      <trkpt lat="48.94816" lon="7.46951">
        <ele>333</ele>
        <time>2025-05-10T17:27:36.000Z</time>
      </trkpt>
      <trkpt lat="48.94809" lon="7.46953">
        <ele>332</ele>
        <time>2025-05-10T17:27:44.000Z</time>
      </trkpt>
      <trkpt lat="48.948" lon="7.46956">
        <ele>332</ele>
        <time>2025-05-10T17:27:50.000Z</time>
      </trkpt>
      <trkpt lat="48.94759" lon="7.46979">
        <ele>331</ele>
        <time>2025-05-10T17:28:21.000Z</time>
      </trkpt>
      <trkpt lat="48.94722" lon="7.47006">
        <ele>331</ele>
        <time>2025-05-10T17:28:50.000Z</time>
      </trkpt>
      <trkpt lat="48.94718" lon="7.47009">
        <ele>330</ele>
        <time>2025-05-10T17:28:59.000Z</time>
      </trkpt>
      <trkpt lat="48.94706" lon="7.47018">
        <ele>330</ele>
        <time>2025-05-10T17:29:05.000Z</time>
      </trkpt>
      <trkpt lat="48.94702" lon="7.47021">
        <ele>330</ele>
        <time>2025-05-10T17:29:07.000Z</time>
      </trkpt>
      <trkpt lat="48.94663" lon="7.47052">
        <ele>327</ele>
        <time>2025-05-10T17:29:40.000Z</time>
      </trkpt>
      <trkpt lat="48.94647" lon="7.47067">
        <ele>325</ele>
        <time>2025-05-10T17:29:52.000Z</time>
      </trkpt>
      <trkpt lat="48.94645" lon="7.47086">
        <ele>324</ele>
        <time>2025-05-10T17:30:05.000Z</time>
      </trkpt>
      <trkpt lat="48.94647" lon="7.47094">
        <ele>324</ele>
        <time>2025-05-10T17:30:08.000Z</time>
      </trkpt>
      <trkpt lat="48.94645" lon="7.47104">
        <ele>324</ele>
        <time>2025-05-10T17:30:10.000Z</time>
      </trkpt>
      <trkpt lat="48.94641" lon="7.47112">
        <ele>324</ele>
        <time>2025-05-10T17:30:12.000Z</time>
      </trkpt>
      <trkpt lat="48.94629" lon="7.47122">
        <ele>323</ele>
        <time>2025-05-10T17:30:20.000Z</time>
      </trkpt>
      <trkpt lat="48.94628" lon="7.47131">
        <ele>322</ele>
        <time>2025-05-10T17:30:25.000Z</time>
      </trkpt>
      <trkpt lat="48.9462" lon="7.47147">
        <ele>321</ele>
        <time>2025-05-10T17:30:32.000Z</time>
      </trkpt>
      <trkpt lat="48.94616" lon="7.4715">
        <ele>321</ele>
        <time>2025-05-10T17:30:36.000Z</time>
      </trkpt>
      <trkpt lat="48.94607" lon="7.47156">
        <ele>320</ele>
        <time>2025-05-10T17:30:46.000Z</time>
      </trkpt>
      <trkpt lat="48.94601" lon="7.47161">
        <ele>320</ele>
        <time>2025-05-10T17:30:50.000Z</time>
      </trkpt>
      <trkpt lat="48.94578" lon="7.47165">
        <ele>320</ele>
        <time>2025-05-10T17:30:59.000Z</time>
      </trkpt>
      <trkpt lat="48.94572" lon="7.47159">
        <ele>319</ele>
        <time>2025-05-10T17:31:02.000Z</time>
      </trkpt>
      <trkpt lat="48.94566" lon="7.47156">
        <ele>320</ele>
        <time>2025-05-10T17:31:06.000Z</time>
      </trkpt>
      <trkpt lat="48.94559" lon="7.47157">
        <ele>320</ele>
        <time>2025-05-10T17:31:10.000Z</time>
      </trkpt>
      <trkpt lat="48.9455" lon="7.47152">
        <ele>320</ele>
        <time>2025-05-10T17:31:14.000Z</time>
      </trkpt>
      <trkpt lat="48.94548" lon="7.47148">
        <ele>320</ele>
        <time>2025-05-10T17:31:17.000Z</time>
      </trkpt>
      <trkpt lat="48.94544" lon="7.4714">
        <ele>320</ele>
        <time>2025-05-10T17:31:20.000Z</time>
      </trkpt>
      <trkpt lat="48.94539" lon="7.47139">
        <ele>320</ele>
        <time>2025-05-10T17:31:23.000Z</time>
      </trkpt>
      <trkpt lat="48.94534" lon="7.47138">
        <ele>320</ele>
        <time>2025-05-10T17:31:27.000Z</time>
      </trkpt>
      <trkpt lat="48.94511" lon="7.47124">
        <ele>320</ele>
        <time>2025-05-10T17:31:45.000Z</time>
      </trkpt>
      <trkpt lat="48.94509" lon="7.47118">
        <ele>320</ele>
        <time>2025-05-10T17:31:48.000Z</time>
      </trkpt>
      <trkpt lat="48.94504" lon="7.47108">
        <ele>320</ele>
        <time>2025-05-10T17:31:54.000Z</time>
      </trkpt>
      <trkpt lat="48.94474" lon="7.47093">
        <ele>320</ele>
        <time>2025-05-10T17:32:22.000Z</time>
      </trkpt>
      <trkpt lat="48.94466" lon="7.47092">
        <ele>321</ele>
        <time>2025-05-10T17:32:29.000Z</time>
      </trkpt>
      <trkpt lat="48.94462" lon="7.47091">
        <ele>321</ele>
        <time>2025-05-10T17:32:33.000Z</time>
      </trkpt>
      <trkpt lat="48.94457" lon="7.47095">
        <ele>320</ele>
        <time>2025-05-10T17:32:36.000Z</time>
      </trkpt>
      <trkpt lat="48.9445" lon="7.47094">
        <ele>320</ele>
        <time>2025-05-10T17:32:40.000Z</time>
      </trkpt>
      <trkpt lat="48.94448" lon="7.47088">
        <ele>320</ele>
        <time>2025-05-10T17:32:43.000Z</time>
      </trkpt>
      <trkpt lat="48.94444" lon="7.47088">
        <ele>320</ele>
        <time>2025-05-10T17:32:46.000Z</time>
      </trkpt>
      <trkpt lat="48.94438" lon="7.47088">
        <ele>320</ele>
        <time>2025-05-10T17:32:49.000Z</time>
      </trkpt>
      <trkpt lat="48.94432" lon="7.47089">
        <ele>320</ele>
        <time>2025-05-10T17:32:53.000Z</time>
      </trkpt>
      <trkpt lat="48.94428" lon="7.4709">
        <ele>320</ele>
        <time>2025-05-10T17:32:56.000Z</time>
      </trkpt>
      <trkpt lat="48.94422" lon="7.47091">
        <ele>320</ele>
        <time>2025-05-10T17:33:00.000Z</time>
      </trkpt>
      <trkpt lat="48.94417" lon="7.47095">
        <ele>320</ele>
        <time>2025-05-10T17:33:03.000Z</time>
      </trkpt>
      <trkpt lat="48.94413" lon="7.47108">
        <ele>320</ele>
        <time>2025-05-10T17:33:09.000Z</time>
      </trkpt>
      <trkpt lat="48.94407" lon="7.47116">
        <ele>321</ele>
        <time>2025-05-10T17:33:13.000Z</time>
      </trkpt>
      <trkpt lat="48.94396" lon="7.47126">
        <ele>321</ele>
        <time>2025-05-10T17:33:21.000Z</time>
      </trkpt>
      <trkpt lat="48.94374" lon="7.47134">
        <ele>321</ele>
        <time>2025-05-10T17:33:34.000Z</time>
      </trkpt>
      <trkpt lat="48.94366" lon="7.47133">
        <ele>321</ele>
        <time>2025-05-10T17:33:39.000Z</time>
      </trkpt>
      <trkpt lat="48.94358" lon="7.4713">
        <ele>321</ele>
        <time>2025-05-10T17:33:43.000Z</time>
      </trkpt>
      <trkpt lat="48.94325" lon="7.47124">
        <ele>320</ele>
        <time>2025-05-10T17:34:09.000Z</time>
      </trkpt>
      <trkpt lat="48.9432" lon="7.47124">
        <ele>320</ele>
        <time>2025-05-10T17:34:15.000Z</time>
      </trkpt>
      <trkpt lat="48.94286" lon="7.47113">
        <ele>320</ele>
        <time>2025-05-10T17:34:42.000Z</time>
      </trkpt>
      <trkpt lat="48.94278" lon="7.47121">
        <ele>320</ele>
        <time>2025-05-10T17:34:46.000Z</time>
      </trkpt>
      <trkpt lat="48.94268" lon="7.47111">
        <ele>320</ele>
        <time>2025-05-10T17:34:54.000Z</time>
      </trkpt>
      <trkpt lat="48.94262" lon="7.47115">
        <ele>320</ele>
        <time>2025-05-10T17:34:59.000Z</time>
      </trkpt>
      <trkpt lat="48.94239" lon="7.47108">
        <ele>320</ele>
        <time>2025-05-10T17:35:13.000Z</time>
      </trkpt>
      <trkpt lat="48.94232" lon="7.47108">
        <ele>320</ele>
        <time>2025-05-10T17:35:19.000Z</time>
      </trkpt>
      <trkpt lat="48.94224" lon="7.4711">
        <ele>320</ele>
        <time>2025-05-10T17:35:23.000Z</time>
      </trkpt>
      <trkpt lat="48.94219" lon="7.4711">
        <ele>320</ele>
        <time>2025-05-10T17:35:27.000Z</time>
      </trkpt>
      <trkpt lat="48.9421" lon="7.47105">
        <ele>320</ele>
        <time>2025-05-10T17:35:36.000Z</time>
      </trkpt>
      <trkpt lat="48.94203" lon="7.471">
        <ele>320</ele>
        <time>2025-05-10T17:35:39.000Z</time>
      </trkpt>
      <trkpt lat="48.94198" lon="7.471">
        <ele>320</ele>
        <time>2025-05-10T17:35:43.000Z</time>
      </trkpt>
      <trkpt lat="48.94192" lon="7.471">
        <ele>320</ele>
        <time>2025-05-10T17:35:49.000Z</time>
      </trkpt>
      <trkpt lat="48.94185" lon="7.47102">
        <ele>320</ele>
        <time>2025-05-10T17:35:53.000Z</time>
      </trkpt>
      <trkpt lat="48.94163" lon="7.471">
        <ele>320</ele>
        <time>2025-05-10T17:36:08.000Z</time>
      </trkpt>
      <trkpt lat="48.94154" lon="7.47095">
        <ele>320</ele>
        <time>2025-05-10T17:36:18.000Z</time>
      </trkpt>
      <trkpt lat="48.9414" lon="7.47095">
        <ele>320</ele>
        <time>2025-05-10T17:36:28.000Z</time>
      </trkpt>
      <trkpt lat="48.94134" lon="7.47094">
        <ele>320</ele>
        <time>2025-05-10T17:36:32.000Z</time>
      </trkpt>
      <trkpt lat="48.94123" lon="7.47082">
        <ele>320</ele>
        <time>2025-05-10T17:36:43.000Z</time>
      </trkpt>
      <trkpt lat="48.94111" lon="7.47078">
        <ele>320</ele>
        <time>2025-05-10T17:36:52.000Z</time>
      </trkpt>
      <trkpt lat="48.94104" lon="7.47075">
        <ele>320</ele>
        <time>2025-05-10T17:36:55.000Z</time>
      </trkpt>
      <trkpt lat="48.94081" lon="7.47072">
        <ele>320</ele>
        <time>2025-05-10T17:37:13.000Z</time>
      </trkpt>
      <trkpt lat="48.94075" lon="7.47075">
        <ele>320</ele>
        <time>2025-05-10T17:37:17.000Z</time>
      </trkpt>
      <trkpt lat="48.94071" lon="7.47083">
        <ele>320</ele>
        <time>2025-05-10T17:37:20.000Z</time>
      </trkpt>
      <trkpt lat="48.94068" lon="7.47093">
        <ele>320</ele>
        <time>2025-05-10T17:37:24.000Z</time>
      </trkpt>
      <trkpt lat="48.94057" lon="7.47092">
        <ele>318</ele>
        <time>2025-05-10T17:37:32.000Z</time>
      </trkpt>
      <trkpt lat="48.94053" lon="7.47094">
        <ele>319</ele>
        <time>2025-05-10T17:37:36.000Z</time>
      </trkpt>
      <trkpt lat="48.94049" lon="7.47093">
        <ele>318</ele>
        <time>2025-05-10T17:37:39.000Z</time>
      </trkpt>
      <trkpt lat="48.94044" lon="7.47094">
        <ele>317</ele>
        <time>2025-05-10T17:37:42.000Z</time>
      </trkpt>
      <trkpt lat="48.9404" lon="7.47093">
        <ele>316</ele>
        <time>2025-05-10T17:37:45.000Z</time>
      </trkpt>
      <trkpt lat="48.94012" lon="7.47074">
        <ele>313</ele>
        <time>2025-05-10T17:38:08.000Z</time>
      </trkpt>
      <trkpt lat="48.94007" lon="7.47068">
        <ele>312</ele>
        <time>2025-05-10T17:38:12.000Z</time>
      </trkpt>
      <trkpt lat="48.94003" lon="7.47063">
        <ele>310</ele>
        <time>2025-05-10T17:38:16.000Z</time>
      </trkpt>
      <trkpt lat="48.93995" lon="7.47053">
        <ele>310</ele>
        <time>2025-05-10T17:38:24.000Z</time>
      </trkpt>
      <trkpt lat="48.93993" lon="7.47047">
        <ele>310</ele>
        <time>2025-05-10T17:38:28.000Z</time>
      </trkpt>
      <trkpt lat="48.93988" lon="7.47043">
        <ele>307</ele>
        <time>2025-05-10T17:38:31.000Z</time>
      </trkpt>
      <trkpt lat="48.93984" lon="7.47041">
        <ele>307</ele>
        <time>2025-05-10T17:38:35.000Z</time>
      </trkpt>
      <trkpt lat="48.9398" lon="7.47035">
        <ele>308</ele>
        <time>2025-05-10T17:38:39.000Z</time>
      </trkpt>
      <trkpt lat="48.93975" lon="7.47034">
        <ele>307</ele>
        <time>2025-05-10T17:38:43.000Z</time>
      </trkpt>
      <trkpt lat="48.93971" lon="7.4703">
        <ele>307</ele>
        <time>2025-05-10T17:38:47.000Z</time>
      </trkpt>
      <trkpt lat="48.93945" lon="7.47017">
        <ele>304</ele>
        <time>2025-05-10T17:39:11.000Z</time>
      </trkpt>
      <trkpt lat="48.93918" lon="7.47018">
        <ele>302</ele>
        <time>2025-05-10T17:39:31.000Z</time>
      </trkpt>
      <trkpt lat="48.93914" lon="7.47014">
        <ele>301</ele>
        <time>2025-05-10T17:39:36.000Z</time>
      </trkpt>
      <trkpt lat="48.93911" lon="7.47009">
        <ele>301</ele>
        <time>2025-05-10T17:39:39.000Z</time>
      </trkpt>
      <trkpt lat="48.93907" lon="7.47004">
        <ele>301</ele>
        <time>2025-05-10T17:39:42.000Z</time>
      </trkpt>
      <trkpt lat="48.93904" lon="7.46998">
        <ele>300</ele>
        <time>2025-05-10T17:39:46.000Z</time>
      </trkpt>
      <trkpt lat="48.93898" lon="7.46997">
        <ele>299</ele>
        <time>2025-05-10T17:39:49.000Z</time>
      </trkpt>
      <trkpt lat="48.93888" lon="7.46989">
        <ele>297</ele>
        <time>2025-05-10T17:39:55.000Z</time>
      </trkpt>
      <trkpt lat="48.93885" lon="7.46983">
        <ele>297</ele>
        <time>2025-05-10T17:39:59.000Z</time>
      </trkpt>
      <trkpt lat="48.9388" lon="7.46979">
        <ele>296</ele>
        <time>2025-05-10T17:40:01.000Z</time>
      </trkpt>
      <trkpt lat="48.93877" lon="7.46978">
        <ele>296</ele>
        <time>2025-05-10T17:40:05.000Z</time>
      </trkpt>
      <trkpt lat="48.93872" lon="7.46972">
        <ele>295</ele>
        <time>2025-05-10T17:40:08.000Z</time>
      </trkpt>
      <trkpt lat="48.93867" lon="7.46969">
        <ele>295</ele>
        <time>2025-05-10T17:40:11.000Z</time>
      </trkpt>
      <trkpt lat="48.93859" lon="7.46959">
        <ele>294</ele>
        <time>2025-05-10T17:40:17.000Z</time>
      </trkpt>
      <trkpt lat="48.93826" lon="7.46936">
        <ele>291</ele>
        <time>2025-05-10T17:40:48.000Z</time>
      </trkpt>
      <trkpt lat="48.93808" lon="7.46912">
        <ele>289</ele>
        <time>2025-05-10T17:41:10.000Z</time>
      </trkpt>
      <trkpt lat="48.93784" lon="7.46882">
        <ele>288</ele>
        <time>2025-05-10T17:41:34.000Z</time>
      </trkpt>
      <trkpt lat="48.93777" lon="7.46873">
        <ele>286</ele>
        <time>2025-05-10T17:41:42.000Z</time>
      </trkpt>
      <trkpt lat="48.93775" lon="7.46866">
        <ele>286</ele>
        <time>2025-05-10T17:41:46.000Z</time>
      </trkpt>
      <trkpt lat="48.93772" lon="7.46861">
        <ele>285</ele>
        <time>2025-05-10T17:41:49.000Z</time>
      </trkpt>
      <trkpt lat="48.93771" lon="7.46854">
        <ele>285</ele>
        <time>2025-05-10T17:41:52.000Z</time>
      </trkpt>
      <trkpt lat="48.93743" lon="7.46812">
        <ele>281</ele>
        <time>2025-05-10T17:42:21.000Z</time>
      </trkpt>
      <trkpt lat="48.93741" lon="7.46805">
        <ele>280</ele>
        <time>2025-05-10T17:42:26.000Z</time>
      </trkpt>
      <trkpt lat="48.93735" lon="7.46793">
        <ele>279</ele>
        <time>2025-05-10T17:42:33.000Z</time>
      </trkpt>
      <trkpt lat="48.93732" lon="7.46784">
        <ele>279</ele>
        <time>2025-05-10T17:42:38.000Z</time>
      </trkpt>
      <trkpt lat="48.93727" lon="7.46778">
        <ele>279</ele>
        <time>2025-05-10T17:42:40.000Z</time>
      </trkpt>
      <trkpt lat="48.93722" lon="7.46778">
        <ele>278</ele>
        <time>2025-05-10T17:42:44.000Z</time>
      </trkpt>
      <trkpt lat="48.93714" lon="7.46781">
        <ele>278</ele>
        <time>2025-05-10T17:42:50.000Z</time>
      </trkpt>
      <trkpt lat="48.93707" lon="7.46778">
        <ele>277</ele>
        <time>2025-05-10T17:42:56.000Z</time>
      </trkpt>
      <trkpt lat="48.937" lon="7.46776">
        <ele>278</ele>
        <time>2025-05-10T17:43:01.000Z</time>
      </trkpt>
      <trkpt lat="48.93682" lon="7.46775">
        <ele>276</ele>
        <time>2025-05-10T17:43:15.000Z</time>
      </trkpt>
      <trkpt lat="48.93669" lon="7.46765">
        <ele>275</ele>
        <time>2025-05-10T17:43:26.000Z</time>
      </trkpt>
      <trkpt lat="48.93659" lon="7.46757">
        <ele>273</ele>
        <time>2025-05-10T17:43:35.000Z</time>
      </trkpt>
      <trkpt lat="48.93654" lon="7.46751">
        <ele>273</ele>
        <time>2025-05-10T17:43:38.000Z</time>
      </trkpt>
      <trkpt lat="48.9364" lon="7.46749">
        <ele>269</ele>
        <time>2025-05-10T17:43:49.000Z</time>
      </trkpt>
      <trkpt lat="48.93633" lon="7.46744">
        <ele>267</ele>
        <time>2025-05-10T17:43:57.000Z</time>
      </trkpt>
      <trkpt lat="48.9363" lon="7.46738">
        <ele>265</ele>
        <time>2025-05-10T17:44:01.000Z</time>
      </trkpt>
      <trkpt lat="48.93628" lon="7.4673">
        <ele>264</ele>
        <time>2025-05-10T17:44:05.000Z</time>
      </trkpt>
      <trkpt lat="48.93623" lon="7.46726">
        <ele>263</ele>
        <time>2025-05-10T17:44:10.000Z</time>
      </trkpt>
      <trkpt lat="48.9362" lon="7.46719">
        <ele>261</ele>
        <time>2025-05-10T17:44:14.000Z</time>
      </trkpt>
      <trkpt lat="48.93613" lon="7.46716">
        <ele>260</ele>
        <time>2025-05-10T17:44:18.000Z</time>
      </trkpt>
      <trkpt lat="48.93607" lon="7.46715">
        <ele>259</ele>
        <time>2025-05-10T17:44:22.000Z</time>
      </trkpt>
      <trkpt lat="48.93587" lon="7.46701">
        <ele>255</ele>
        <time>2025-05-10T17:44:41.000Z</time>
      </trkpt>
      <trkpt lat="48.93586" lon="7.46691">
        <ele>254</ele>
        <time>2025-05-10T17:44:45.000Z</time>
      </trkpt>
      <trkpt lat="48.9358" lon="7.46686">
        <ele>253</ele>
        <time>2025-05-10T17:44:49.000Z</time>
      </trkpt>
      <trkpt lat="48.93576" lon="7.46682">
        <ele>252</ele>
        <time>2025-05-10T17:44:52.000Z</time>
      </trkpt>
      <trkpt lat="48.93575" lon="7.46675">
        <ele>251</ele>
        <time>2025-05-10T17:44:56.000Z</time>
      </trkpt>
      <trkpt lat="48.93569" lon="7.46666">
        <ele>249</ele>
        <time>2025-05-10T17:45:11.000Z</time>
      </trkpt>
      <trkpt lat="48.93559" lon="7.4666">
        <ele>248</ele>
        <time>2025-05-10T17:45:18.000Z</time>
      </trkpt>
      <trkpt lat="48.93554" lon="7.46661">
        <ele>247</ele>
        <time>2025-05-10T17:45:22.000Z</time>
      </trkpt>
      <trkpt lat="48.93546" lon="7.46654">
        <ele>246</ele>
        <time>2025-05-10T17:45:30.000Z</time>
      </trkpt>
      <trkpt lat="48.93542" lon="7.46656">
        <ele>246</ele>
        <time>2025-05-10T17:45:32.000Z</time>
      </trkpt>
      <trkpt lat="48.93537" lon="7.46655">
        <ele>245</ele>
        <time>2025-05-10T17:45:36.000Z</time>
      </trkpt>
      <trkpt lat="48.93531" lon="7.46653">
        <ele>244</ele>
        <time>2025-05-10T17:45:39.000Z</time>
      </trkpt>
      <trkpt lat="48.93524" lon="7.46646">
        <ele>243</ele>
        <time>2025-05-10T17:45:47.000Z</time>
      </trkpt>
      <trkpt lat="48.9349" lon="7.46637">
        <ele>240</ele>
        <time>2025-05-10T17:46:12.000Z</time>
      </trkpt>
      <trkpt lat="48.93485" lon="7.46631">
        <ele>239</ele>
        <time>2025-05-10T17:46:17.000Z</time>
      </trkpt>
      <trkpt lat="48.93472" lon="7.46626">
        <ele>238</ele>
        <time>2025-05-10T17:46:25.000Z</time>
      </trkpt>
      <trkpt lat="48.93464" lon="7.46622">
        <ele>237</ele>
        <time>2025-05-10T17:46:34.000Z</time>
      </trkpt>
      <trkpt lat="48.93458" lon="7.46616">
        <ele>237</ele>
        <time>2025-05-10T17:46:37.000Z</time>
      </trkpt>
      <trkpt lat="48.93449" lon="7.46608">
        <ele>236</ele>
        <time>2025-05-10T17:46:47.000Z</time>
      </trkpt>
      <trkpt lat="48.93442" lon="7.46614">
        <ele>234</ele>
        <time>2025-05-10T17:47:06.000Z</time>
      </trkpt>
      <trkpt lat="48.93437" lon="7.46618">
        <ele>234</ele>
        <time>2025-05-10T17:47:10.000Z</time>
      </trkpt>
      <trkpt lat="48.93433" lon="7.46618">
        <ele>233</ele>
        <time>2025-05-10T17:47:13.000Z</time>
      </trkpt>
      <trkpt lat="48.93428" lon="7.46621">
        <ele>233</ele>
        <time>2025-05-10T17:47:16.000Z</time>
      </trkpt>
      <trkpt lat="48.9342" lon="7.46629">
        <ele>232</ele>
        <time>2025-05-10T17:47:23.000Z</time>
      </trkpt>
      <trkpt lat="48.93406" lon="7.46635">
        <ele>231</ele>
        <time>2025-05-10T17:47:33.000Z</time>
      </trkpt>
      <trkpt lat="48.93367" lon="7.46632">
        <ele>227</ele>
        <time>2025-05-10T17:48:05.000Z</time>
      </trkpt>
      <trkpt lat="48.93357" lon="7.46631">
        <ele>227</ele>
        <time>2025-05-10T17:48:13.000Z</time>
      </trkpt>
      <trkpt lat="48.9335" lon="7.46631">
        <ele>226</ele>
        <time>2025-05-10T17:48:20.000Z</time>
      </trkpt>
      <trkpt lat="48.93343" lon="7.46639">
        <ele>225</ele>
        <time>2025-05-10T17:48:27.000Z</time>
      </trkpt>
      <trkpt lat="48.93338" lon="7.46642">
        <ele>224</ele>
        <time>2025-05-10T17:48:32.000Z</time>
      </trkpt>
      <trkpt lat="48.93306" lon="7.46627">
        <ele>220</ele>
        <time>2025-05-10T17:49:00.000Z</time>
      </trkpt>
      <trkpt lat="48.93302" lon="7.46623">
        <ele>220</ele>
        <time>2025-05-10T17:49:03.000Z</time>
      </trkpt>
      <trkpt lat="48.93297" lon="7.46621">
        <ele>220</ele>
        <time>2025-05-10T17:49:07.000Z</time>
      </trkpt>
      <trkpt lat="48.93288" lon="7.46617">
        <ele>220</ele>
        <time>2025-05-10T17:49:14.000Z</time>
      </trkpt>
      <trkpt lat="48.93283" lon="7.46615">
        <ele>220</ele>
        <time>2025-05-10T17:49:18.000Z</time>
      </trkpt>
      <trkpt lat="48.93279" lon="7.46614">
        <ele>219</ele>
        <time>2025-05-10T17:49:22.000Z</time>
      </trkpt>
      <trkpt lat="48.93258" lon="7.46605">
        <ele>219</ele>
        <time>2025-05-10T17:49:40.000Z</time>
      </trkpt>
      <trkpt lat="48.93244" lon="7.46594">
        <ele>219</ele>
        <time>2025-05-10T17:49:51.000Z</time>
      </trkpt>
      <trkpt lat="48.9324" lon="7.46587">
        <ele>219</ele>
        <time>2025-05-10T17:49:57.000Z</time>
      </trkpt>
      <trkpt lat="48.93237" lon="7.4658">
        <ele>220</ele>
        <time>2025-05-10T17:50:00.000Z</time>
      </trkpt>
      <trkpt lat="48.93233" lon="7.46574">
        <ele>220</ele>
        <time>2025-05-10T17:50:05.000Z</time>
      </trkpt>
      <trkpt lat="48.93231" lon="7.46572">
        <ele>219</ele>
        <time>2025-05-10T17:50:48.000Z</time>
      </trkpt>
      <trkpt lat="48.93226" lon="7.46524">
        <ele>220</ele>
        <time>2025-05-10T17:57:10.000Z</time>
      </trkpt>
      <trkpt lat="48.93223" lon="7.46516">
        <ele>222</ele>
        <time>2025-05-10T17:57:18.000Z</time>
      </trkpt>
      <trkpt lat="48.9322" lon="7.4651">
        <ele>222</ele>
        <time>2025-05-10T17:57:24.000Z</time>
      </trkpt>
      <trkpt lat="48.93213" lon="7.46496">
        <ele>225</ele>
        <time>2025-05-10T17:57:39.000Z</time>
      </trkpt>
      <trkpt lat="48.93204" lon="7.4649">
        <ele>226</ele>
        <time>2025-05-10T17:57:48.000Z</time>
      </trkpt>
      <trkpt lat="48.932" lon="7.46486">
        <ele>226</ele>
        <time>2025-05-10T17:57:52.000Z</time>
      </trkpt>
      <trkpt lat="48.93196" lon="7.46482">
        <ele>226</ele>
        <time>2025-05-10T17:57:56.000Z</time>
      </trkpt>
      <trkpt lat="48.93187" lon="7.46468">
        <ele>227</ele>
        <time>2025-05-10T17:58:08.000Z</time>
      </trkpt>
      <trkpt lat="48.93183" lon="7.46465">
        <ele>227</ele>
        <time>2025-05-10T17:58:12.000Z</time>
      </trkpt>
      <trkpt lat="48.93179" lon="7.46461">
        <ele>227</ele>
        <time>2025-05-10T17:58:16.000Z</time>
      </trkpt>
      <trkpt lat="48.93175" lon="7.46457">
        <ele>227</ele>
        <time>2025-05-10T17:58:20.000Z</time>
      </trkpt>
      <trkpt lat="48.93171" lon="7.46452">
        <ele>227</ele>
        <time>2025-05-10T17:58:24.000Z</time>
      </trkpt>
      <trkpt lat="48.93162" lon="7.46434">
        <ele>226</ele>
        <time>2025-05-10T17:58:35.000Z</time>
      </trkpt>
      <trkpt lat="48.9316" lon="7.46426">
        <ele>226</ele>
        <time>2025-05-10T17:58:39.000Z</time>
      </trkpt>
      <trkpt lat="48.93157" lon="7.46421">
        <ele>226</ele>
        <time>2025-05-10T17:58:43.000Z</time>
      </trkpt>
      <trkpt lat="48.93154" lon="7.46415">
        <ele>226</ele>
        <time>2025-05-10T17:58:48.000Z</time>
      </trkpt>
      <trkpt lat="48.93128" lon="7.4639">
        <ele>227</ele>
        <time>2025-05-10T17:59:16.000Z</time>
      </trkpt>
      <trkpt lat="48.93123" lon="7.46385">
        <ele>227</ele>
        <time>2025-05-10T17:59:21.000Z</time>
      </trkpt>
      <trkpt lat="48.93117" lon="7.46374">
        <ele>228</ele>
        <time>2025-05-10T17:59:29.000Z</time>
      </trkpt>
      <trkpt lat="48.93105" lon="7.46359">
        <ele>228</ele>
        <time>2025-05-10T17:59:42.000Z</time>
      </trkpt>
      <trkpt lat="48.93099" lon="7.46337">
        <ele>229</ele>
        <time>2025-05-10T17:59:53.000Z</time>
      </trkpt>
      <trkpt lat="48.93094" lon="7.46333">
        <ele>229</ele>
        <time>2025-05-10T17:59:58.000Z</time>
      </trkpt>
      <trkpt lat="48.93091" lon="7.46327">
        <ele>228</ele>
        <time>2025-05-10T18:00:02.000Z</time>
      </trkpt>
      <trkpt lat="48.93086" lon="7.46315">
        <ele>230</ele>
        <time>2025-05-10T18:00:10.000Z</time>
      </trkpt>
      <trkpt lat="48.9308" lon="7.46302">
        <ele>230</ele>
        <time>2025-05-10T18:00:17.000Z</time>
      </trkpt>
      <trkpt lat="48.9307" lon="7.4629">
        <ele>230</ele>
        <time>2025-05-10T18:00:30.000Z</time>
      </trkpt>
      <trkpt lat="48.93066" lon="7.46272">
        <ele>230</ele>
        <time>2025-05-10T18:00:38.000Z</time>
      </trkpt>
      <trkpt lat="48.93066" lon="7.46258">
        <ele>231</ele>
        <time>2025-05-10T18:00:45.000Z</time>
      </trkpt>
      <trkpt lat="48.9306" lon="7.46247">
        <ele>231</ele>
        <time>2025-05-10T18:00:52.000Z</time>
      </trkpt>
      <trkpt lat="48.93056" lon="7.46243">
        <ele>231</ele>
        <time>2025-05-10T18:00:55.000Z</time>
      </trkpt>
      <trkpt lat="48.93054" lon="7.46236">
        <ele>231</ele>
        <time>2025-05-10T18:00:59.000Z</time>
      </trkpt>
      <trkpt lat="48.93049" lon="7.46231">
        <ele>232</ele>
        <time>2025-05-10T18:01:03.000Z</time>
      </trkpt>
      <trkpt lat="48.93046" lon="7.46222">
        <ele>232</ele>
        <time>2025-05-10T18:01:07.000Z</time>
      </trkpt>
      <trkpt lat="48.93042" lon="7.46201">
        <ele>232</ele>
        <time>2025-05-10T18:01:19.000Z</time>
      </trkpt>
      <trkpt lat="48.93036" lon="7.4619">
        <ele>233</ele>
        <time>2025-05-10T18:01:30.000Z</time>
      </trkpt>
      <trkpt lat="48.93035" lon="7.46183">
        <ele>233</ele>
        <time>2025-05-10T18:01:34.000Z</time>
      </trkpt>
      <trkpt lat="48.93019" lon="7.46156">
        <ele>233</ele>
        <time>2025-05-10T18:01:54.000Z</time>
      </trkpt>
      <trkpt lat="48.93017" lon="7.46149">
        <ele>234</ele>
        <time>2025-05-10T18:01:59.000Z</time>
      </trkpt>
      <trkpt lat="48.93016" lon="7.46141">
        <ele>234</ele>
        <time>2025-05-10T18:02:03.000Z</time>
      </trkpt>
      <trkpt lat="48.93013" lon="7.46136">
        <ele>234</ele>
        <time>2025-05-10T18:02:07.000Z</time>
      </trkpt>
      <trkpt lat="48.93011" lon="7.46129">
        <ele>234</ele>
        <time>2025-05-10T18:02:11.000Z</time>
      </trkpt>
      <trkpt lat="48.93006" lon="7.46124">
        <ele>234</ele>
        <time>2025-05-10T18:02:15.000Z</time>
      </trkpt>
      <trkpt lat="48.92998" lon="7.46108">
        <ele>234</ele>
        <time>2025-05-10T18:02:27.000Z</time>
      </trkpt>
      <trkpt lat="48.92994" lon="7.46103">
        <ele>234</ele>
        <time>2025-05-10T18:02:32.000Z</time>
      </trkpt>
      <trkpt lat="48.92989" lon="7.46106">
        <ele>235</ele>
        <time>2025-05-10T18:02:37.000Z</time>
      </trkpt>
      <trkpt lat="48.92986" lon="7.4611">
        <ele>234</ele>
        <time>2025-05-10T18:02:40.000Z</time>
      </trkpt>
      <trkpt lat="48.92983" lon="7.46117">
        <ele>233</ele>
        <time>2025-05-10T18:02:44.000Z</time>
      </trkpt>
      <trkpt lat="48.92976" lon="7.46127">
        <ele>233</ele>
        <time>2025-05-10T18:02:51.000Z</time>
      </trkpt>
      <trkpt lat="48.92965" lon="7.46155">
        <ele>231</ele>
        <time>2025-05-10T18:03:07.000Z</time>
      </trkpt>
      <trkpt lat="48.92964" lon="7.46161">
        <ele>231</ele>
        <time>2025-05-10T18:03:10.000Z</time>
      </trkpt>
      <trkpt lat="48.92961" lon="7.46167">
        <ele>230</ele>
        <time>2025-05-10T18:03:13.000Z</time>
      </trkpt>
      <trkpt lat="48.92956" lon="7.46171">
        <ele>230</ele>
        <time>2025-05-10T18:03:16.000Z</time>
      </trkpt>
      <trkpt lat="48.9295" lon="7.46185">
        <ele>230</ele>
        <time>2025-05-10T18:03:23.000Z</time>
      </trkpt>
      <trkpt lat="48.92947" lon="7.4619">
        <ele>230</ele>
        <time>2025-05-10T18:03:26.000Z</time>
      </trkpt>
      <trkpt lat="48.92934" lon="7.46217">
        <ele>228</ele>
        <time>2025-05-10T18:03:46.000Z</time>
      </trkpt>
      <trkpt lat="48.92929" lon="7.46217">
        <ele>228</ele>
        <time>2025-05-10T18:03:50.000Z</time>
      </trkpt>
      <trkpt lat="48.92924" lon="7.46214">
        <ele>227</ele>
        <time>2025-05-10T18:03:54.000Z</time>
      </trkpt>
      <trkpt lat="48.92911" lon="7.46202">
        <ele>227</ele>
        <time>2025-05-10T18:04:06.000Z</time>
      </trkpt>
      <trkpt lat="48.92907" lon="7.46199">
        <ele>226</ele>
        <time>2025-05-10T18:04:10.000Z</time>
      </trkpt>
      <trkpt lat="48.92895" lon="7.46187">
        <ele>226</ele>
        <time>2025-05-10T18:04:22.000Z</time>
      </trkpt>
      <trkpt lat="48.9289" lon="7.46186">
        <ele>226</ele>
        <time>2025-05-10T18:04:26.000Z</time>
      </trkpt>
      <trkpt lat="48.92881" lon="7.462">
        <ele>224</ele>
        <time>2025-05-10T18:04:39.000Z</time>
      </trkpt>
      <trkpt lat="48.92876" lon="7.46202">
        <ele>225</ele>
        <time>2025-05-10T18:04:43.000Z</time>
      </trkpt>
      <trkpt lat="48.92871" lon="7.462">
        <ele>225</ele>
        <time>2025-05-10T18:04:48.000Z</time>
      </trkpt>
      <trkpt lat="48.92865" lon="7.46197">
        <ele>226</ele>
        <time>2025-05-10T18:04:54.000Z</time>
      </trkpt>
      <trkpt lat="48.9286" lon="7.46196">
        <ele>226</ele>
        <time>2025-05-10T18:04:56.000Z</time>
      </trkpt>
      <trkpt lat="48.92857" lon="7.4619">
        <ele>227</ele>
        <time>2025-05-10T18:05:01.000Z</time>
      </trkpt>
      <trkpt lat="48.92845" lon="7.46191">
        <ele>229</ele>
        <time>2025-05-10T18:05:15.000Z</time>
      </trkpt>
      <trkpt lat="48.92839" lon="7.4619">
        <ele>229</ele>
        <time>2025-05-10T18:05:19.000Z</time>
      </trkpt>
      <trkpt lat="48.92835" lon="7.46183">
        <ele>230</ele>
        <time>2025-05-10T18:05:27.000Z</time>
      </trkpt>
      <trkpt lat="48.92833" lon="7.46177">
        <ele>230</ele>
        <time>2025-05-10T18:05:30.000Z</time>
      </trkpt>
      <trkpt lat="48.92832" lon="7.4617">
        <ele>230</ele>
        <time>2025-05-10T18:05:34.000Z</time>
      </trkpt>
      <trkpt lat="48.92829" lon="7.46164">
        <ele>230</ele>
        <time>2025-05-10T18:05:40.000Z</time>
      </trkpt>
      <trkpt lat="48.92819" lon="7.4614">
        <ele>230</ele>
        <time>2025-05-10T18:05:57.000Z</time>
      </trkpt>
      <trkpt lat="48.92815" lon="7.46132">
        <ele>230</ele>
        <time>2025-05-10T18:06:03.000Z</time>
      </trkpt>
      <trkpt lat="48.92809" lon="7.4612">
        <ele>230</ele>
        <time>2025-05-10T18:06:12.000Z</time>
      </trkpt>
      <trkpt lat="48.92805" lon="7.46115">
        <ele>231</ele>
        <time>2025-05-10T18:06:17.000Z</time>
      </trkpt>
      <trkpt lat="48.928" lon="7.46103">
        <ele>231</ele>
        <time>2025-05-10T18:06:26.000Z</time>
      </trkpt>
      <trkpt lat="48.92797" lon="7.46098">
        <ele>231</ele>
        <time>2025-05-10T18:06:30.000Z</time>
      </trkpt>
      <trkpt lat="48.92785" lon="7.46069">
        <ele>232</ele>
        <time>2025-05-10T18:06:50.000Z</time>
      </trkpt>
      <trkpt lat="48.92778" lon="7.46058">
        <ele>232</ele>
        <time>2025-05-10T18:06:57.000Z</time>
      </trkpt>
      <trkpt lat="48.92765" lon="7.46044">
        <ele>233</ele>
        <time>2025-05-10T18:07:10.000Z</time>
      </trkpt>
      <trkpt lat="48.92762" lon="7.46038">
        <ele>234</ele>
        <time>2025-05-10T18:07:14.000Z</time>
      </trkpt>
      <trkpt lat="48.92759" lon="7.46034">
        <ele>233</ele>
        <time>2025-05-10T18:07:17.000Z</time>
      </trkpt>
      <trkpt lat="48.92748" lon="7.46027">
        <ele>234</ele>
        <time>2025-05-10T18:07:30.000Z</time>
      </trkpt>
      <trkpt lat="48.9274" lon="7.46015">
        <ele>234</ele>
        <time>2025-05-10T18:07:41.000Z</time>
      </trkpt>
      <trkpt lat="48.92731" lon="7.46013">
        <ele>234</ele>
        <time>2025-05-10T18:07:49.000Z</time>
      </trkpt>
      <trkpt lat="48.9269" lon="7.46018">
        <ele>234</ele>
        <time>2025-05-10T18:08:19.000Z</time>
      </trkpt>
      <trkpt lat="48.92675" lon="7.46023">
        <ele>234</ele>
        <time>2025-05-10T18:08:29.000Z</time>
      </trkpt>
      <trkpt lat="48.92654" lon="7.46016">
        <ele>235</ele>
        <time>2025-05-10T18:08:47.000Z</time>
      </trkpt>
      <trkpt lat="48.92651" lon="7.46012">
        <ele>235</ele>
        <time>2025-05-10T18:08:51.000Z</time>
      </trkpt>
      <trkpt lat="48.92646" lon="7.46005">
        <ele>235</ele>
        <time>2025-05-10T18:08:56.000Z</time>
      </trkpt>
      <trkpt lat="48.92633" lon="7.45989">
        <ele>236</ele>
        <time>2025-05-10T18:09:04.000Z</time>
      </trkpt>
      <trkpt lat="48.92626" lon="7.45985">
        <ele>236</ele>
        <time>2025-05-10T18:09:08.000Z</time>
      </trkpt>
      <trkpt lat="48.92624" lon="7.45978">
        <ele>237</ele>
        <time>2025-05-10T18:09:12.000Z</time>
      </trkpt>
      <trkpt lat="48.92617" lon="7.45976">
        <ele>237</ele>
        <time>2025-05-10T18:09:22.000Z</time>
      </trkpt>
      <trkpt lat="48.92609" lon="7.45971">
        <ele>238</ele>
        <time>2025-05-10T18:09:29.000Z</time>
      </trkpt>
      <trkpt lat="48.92605" lon="7.45967">
        <ele>237</ele>
        <time>2025-05-10T18:09:33.000Z</time>
      </trkpt>
      <trkpt lat="48.926" lon="7.45965">
        <ele>237</ele>
        <time>2025-05-10T18:09:37.000Z</time>
      </trkpt>
      <trkpt lat="48.9259" lon="7.45961">
        <ele>238</ele>
        <time>2025-05-10T18:09:47.000Z</time>
      </trkpt>
      <trkpt lat="48.92582" lon="7.45953">
        <ele>238</ele>
        <time>2025-05-10T18:09:58.000Z</time>
      </trkpt>
      <trkpt lat="48.92577" lon="7.45954">
        <ele>238</ele>
        <time>2025-05-10T18:10:01.000Z</time>
      </trkpt>
      <trkpt lat="48.92569" lon="7.45949">
        <ele>239</ele>
        <time>2025-05-10T18:10:15.000Z</time>
      </trkpt>
      <trkpt lat="48.92559" lon="7.45953">
        <ele>239</ele>
        <time>2025-05-10T18:10:25.000Z</time>
      </trkpt>
      <trkpt lat="48.92552" lon="7.45952">
        <ele>239</ele>
        <time>2025-05-10T18:10:33.000Z</time>
      </trkpt>
      <trkpt lat="48.92548" lon="7.45953">
        <ele>239</ele>
        <time>2025-05-10T18:10:37.000Z</time>
      </trkpt>
      <trkpt lat="48.92543" lon="7.45952">
        <ele>239</ele>
        <time>2025-05-10T18:10:41.000Z</time>
      </trkpt>
      <trkpt lat="48.92537" lon="7.45947">
        <ele>240</ele>
        <time>2025-05-10T18:10:47.000Z</time>
      </trkpt>
      <trkpt lat="48.92535" lon="7.4594">
        <ele>240</ele>
        <time>2025-05-10T18:10:51.000Z</time>
      </trkpt>
      <trkpt lat="48.92534" lon="7.45926">
        <ele>240</ele>
        <time>2025-05-10T18:10:58.000Z</time>
      </trkpt>
      <trkpt lat="48.92532" lon="7.4592">
        <ele>240</ele>
        <time>2025-05-10T18:11:01.000Z</time>
      </trkpt>
      <trkpt lat="48.92524" lon="7.45885">
        <ele>242</ele>
        <time>2025-05-10T18:11:21.000Z</time>
      </trkpt>
      <trkpt lat="48.92521" lon="7.45879">
        <ele>242</ele>
        <time>2025-05-10T18:11:24.000Z</time>
      </trkpt>
      <trkpt lat="48.9252" lon="7.45863">
        <ele>243</ele>
        <time>2025-05-10T18:11:28.000Z</time>
      </trkpt>
      <trkpt lat="48.92519" lon="7.4584">
        <ele>244</ele>
        <time>2025-05-10T18:11:39.000Z</time>
      </trkpt>
      <trkpt lat="48.92523" lon="7.45826">
        <ele>245</ele>
        <time>2025-05-10T18:11:47.000Z</time>
      </trkpt>
      <trkpt lat="48.92527" lon="7.45824">
        <ele>247</ele>
        <time>2025-05-10T18:11:59.000Z</time>
      </trkpt>
      <trkpt lat="48.92531" lon="7.45818">
        <ele>249</ele>
        <time>2025-05-10T18:12:06.000Z</time>
      </trkpt>
      <trkpt lat="48.92535" lon="7.45808">
        <ele>250</ele>
        <time>2025-05-10T18:12:12.000Z</time>
      </trkpt>
      <trkpt lat="48.9253" lon="7.45803">
        <ele>251</ele>
        <time>2025-05-10T18:12:17.000Z</time>
      </trkpt>
      <trkpt lat="48.92526" lon="7.45795">
        <ele>253</ele>
        <time>2025-05-10T18:12:22.000Z</time>
      </trkpt>
      <trkpt lat="48.92527" lon="7.45785">
        <ele>253</ele>
        <time>2025-05-10T18:12:24.000Z</time>
      </trkpt>
      <trkpt lat="48.92529" lon="7.45775">
        <ele>254</ele>
        <time>2025-05-10T18:12:32.000Z</time>
      </trkpt>
      <trkpt lat="48.92533" lon="7.45769">
        <ele>254</ele>
        <time>2025-05-10T18:12:40.000Z</time>
      </trkpt>
      <trkpt lat="48.92531" lon="7.45762">
        <ele>254</ele>
        <time>2025-05-10T18:12:45.000Z</time>
      </trkpt>
      <trkpt lat="48.92532" lon="7.45752">
        <ele>254</ele>
        <time>2025-05-10T18:12:49.000Z</time>
      </trkpt>
      <trkpt lat="48.92531" lon="7.45742">
        <ele>254</ele>
        <time>2025-05-10T18:12:59.000Z</time>
      </trkpt>
      <trkpt lat="48.9253" lon="7.45733">
        <ele>254</ele>
        <time>2025-05-10T18:13:02.000Z</time>
      </trkpt>
      <trkpt lat="48.92527" lon="7.45725">
        <ele>254</ele>
        <time>2025-05-10T18:13:06.000Z</time>
      </trkpt>
      <trkpt lat="48.92528" lon="7.45712">
        <ele>254</ele>
        <time>2025-05-10T18:13:17.000Z</time>
      </trkpt>
      <trkpt lat="48.92528" lon="7.45706">
        <ele>253</ele>
        <time>2025-05-10T18:13:20.000Z</time>
      </trkpt>
      <trkpt lat="48.92529" lon="7.45696">
        <ele>253</ele>
        <time>2025-05-10T18:13:26.000Z</time>
      </trkpt>
      <trkpt lat="48.92531" lon="7.4569">
        <ele>253</ele>
        <time>2025-05-10T18:13:31.000Z</time>
      </trkpt>
      <trkpt lat="48.9253" lon="7.45683">
        <ele>253</ele>
        <time>2025-05-10T18:13:35.000Z</time>
      </trkpt>
      <trkpt lat="48.92528" lon="7.45675">
        <ele>253</ele>
        <time>2025-05-10T18:13:40.000Z</time>
      </trkpt>
      <trkpt lat="48.92528" lon="7.45667">
        <ele>253</ele>
        <time>2025-05-10T18:13:44.000Z</time>
      </trkpt>
      <trkpt lat="48.92524" lon="7.45649">
        <ele>253</ele>
        <time>2025-05-10T18:13:54.000Z</time>
      </trkpt>
      <trkpt lat="48.92514" lon="7.45629">
        <ele>253</ele>
        <time>2025-05-10T18:14:10.000Z</time>
      </trkpt>
      <trkpt lat="48.92511" lon="7.45616">
        <ele>253</ele>
        <time>2025-05-10T18:14:16.000Z</time>
      </trkpt>
      <trkpt lat="48.9251" lon="7.45602">
        <ele>253</ele>
        <time>2025-05-10T18:14:22.000Z</time>
      </trkpt>
      <trkpt lat="48.92504" lon="7.45587">
        <ele>253</ele>
        <time>2025-05-10T18:14:33.000Z</time>
      </trkpt>
      <trkpt lat="48.925" lon="7.45583">
        <ele>252</ele>
        <time>2025-05-10T18:14:38.000Z</time>
      </trkpt>
      <trkpt lat="48.92497" lon="7.45571">
        <ele>253</ele>
        <time>2025-05-10T18:14:45.000Z</time>
      </trkpt>
      <trkpt lat="48.92495" lon="7.45564">
        <ele>252</ele>
        <time>2025-05-10T18:14:49.000Z</time>
      </trkpt>
      <trkpt lat="48.92492" lon="7.45554">
        <ele>253</ele>
        <time>2025-05-10T18:14:57.000Z</time>
      </trkpt>
      <trkpt lat="48.9249" lon="7.45548">
        <ele>252</ele>
        <time>2025-05-10T18:15:01.000Z</time>
      </trkpt>
      <trkpt lat="48.92475" lon="7.45496">
        <ele>250</ele>
        <time>2025-05-10T18:15:31.000Z</time>
      </trkpt>
      <trkpt lat="48.92465" lon="7.45468">
        <ele>249</ele>
        <time>2025-05-10T18:15:51.000Z</time>
      </trkpt>
      <trkpt lat="48.92458" lon="7.45458">
        <ele>249</ele>
        <time>2025-05-10T18:15:59.000Z</time>
      </trkpt>
      <trkpt lat="48.92454" lon="7.45446">
        <ele>249</ele>
        <time>2025-05-10T18:16:08.000Z</time>
      </trkpt>
      <trkpt lat="48.92452" lon="7.4544">
        <ele>249</ele>
        <time>2025-05-10T18:16:12.000Z</time>
      </trkpt>
      <trkpt lat="48.92448" lon="7.45425">
        <ele>249</ele>
        <time>2025-05-10T18:16:21.000Z</time>
      </trkpt>
      <trkpt lat="48.92449" lon="7.45419">
        <ele>249</ele>
        <time>2025-05-10T18:16:25.000Z</time>
      </trkpt>
      <trkpt lat="48.92451" lon="7.45403">
        <ele>249</ele>
        <time>2025-05-10T18:16:33.000Z</time>
      </trkpt>
      <trkpt lat="48.92465" lon="7.45378">
        <ele>249</ele>
        <time>2025-05-10T18:16:46.000Z</time>
      </trkpt>
      <trkpt lat="48.92466" lon="7.45371">
        <ele>249</ele>
        <time>2025-05-10T18:16:51.000Z</time>
      </trkpt>
      <trkpt lat="48.92471" lon="7.4537">
        <ele>249</ele>
        <time>2025-05-10T18:17:00.000Z</time>
      </trkpt>
      <trkpt lat="48.92475" lon="7.45366">
        <ele>250</ele>
        <time>2025-05-10T18:17:04.000Z</time>
      </trkpt>
      <trkpt lat="48.92481" lon="7.45366">
        <ele>250</ele>
        <time>2025-05-10T18:17:08.000Z</time>
      </trkpt>
      <trkpt lat="48.9251" lon="7.45355">
        <ele>250</ele>
        <time>2025-05-10T18:17:29.000Z</time>
      </trkpt>
      <trkpt lat="48.92526" lon="7.45342">
        <ele>250</ele>
        <time>2025-05-10T18:17:45.000Z</time>
      </trkpt>
      <trkpt lat="48.92527" lon="7.45334">
        <ele>250</ele>
        <time>2025-05-10T18:17:49.000Z</time>
      </trkpt>
      <trkpt lat="48.92532" lon="7.45322">
        <ele>251</ele>
        <time>2025-05-10T18:17:57.000Z</time>
      </trkpt>
      <trkpt lat="48.92536" lon="7.45316">
        <ele>251</ele>
        <time>2025-05-10T18:18:01.000Z</time>
      </trkpt>
      <trkpt lat="48.92538" lon="7.4531">
        <ele>251</ele>
        <time>2025-05-10T18:18:05.000Z</time>
      </trkpt>
      <trkpt lat="48.92539" lon="7.45304">
        <ele>251</ele>
        <time>2025-05-10T18:18:18.000Z</time>
      </trkpt>
      <trkpt lat="48.92545" lon="7.45297">
        <ele>251</ele>
        <time>2025-05-10T18:18:23.000Z</time>
      </trkpt>
      <trkpt lat="48.92545" lon="7.4529">
        <ele>251</ele>
        <time>2025-05-10T18:18:31.000Z</time>
      </trkpt>
      <trkpt lat="48.92545" lon="7.45281">
        <ele>251</ele>
        <time>2025-05-10T18:18:34.000Z</time>
      </trkpt>
      <trkpt lat="48.92543" lon="7.45275">
        <ele>252</ele>
        <time>2025-05-10T18:18:38.000Z</time>
      </trkpt>
      <trkpt lat="48.92545" lon="7.45269">
        <ele>252</ele>
        <time>2025-05-10T18:18:42.000Z</time>
      </trkpt>
      <trkpt lat="48.92547" lon="7.45255">
        <ele>252</ele>
        <time>2025-05-10T18:18:51.000Z</time>
      </trkpt>
      <trkpt lat="48.92548" lon="7.45248">
        <ele>252</ele>
        <time>2025-05-10T18:18:55.000Z</time>
      </trkpt>
      <trkpt lat="48.92548" lon="7.45239">
        <ele>253</ele>
        <time>2025-05-10T18:19:03.000Z</time>
      </trkpt>
      <trkpt lat="48.92543" lon="7.45225">
        <ele>254</ele>
        <time>2025-05-10T18:19:14.000Z</time>
      </trkpt>
      <trkpt lat="48.92545" lon="7.45202">
        <ele>254</ele>
        <time>2025-05-10T18:19:24.000Z</time>
      </trkpt>
      <trkpt lat="48.92545" lon="7.45195">
        <ele>254</ele>
        <time>2025-05-10T18:19:26.000Z</time>
      </trkpt>
      <trkpt lat="48.92542" lon="7.4519">
        <ele>254</ele>
        <time>2025-05-10T18:19:32.000Z</time>
      </trkpt>
      <trkpt lat="48.9254" lon="7.45181">
        <ele>255</ele>
        <time>2025-05-10T18:19:37.000Z</time>
      </trkpt>
      <trkpt lat="48.92534" lon="7.45171">
        <ele>255</ele>
        <time>2025-05-10T18:19:44.000Z</time>
      </trkpt>
      <trkpt lat="48.92529" lon="7.45167">
        <ele>254</ele>
        <time>2025-05-10T18:20:00.000Z</time>
      </trkpt>
      <trkpt lat="48.92521" lon="7.45166">
        <ele>254</ele>
        <time>2025-05-10T18:20:04.000Z</time>
      </trkpt>
      <trkpt lat="48.92513" lon="7.45167">
        <ele>254</ele>
        <time>2025-05-10T18:20:12.000Z</time>
      </trkpt>
      <trkpt lat="48.92512" lon="7.45177">
        <ele>254</ele>
        <time>2025-05-10T18:20:19.000Z</time>
      </trkpt>
      <trkpt lat="48.92507" lon="7.45182">
        <ele>254</ele>
        <time>2025-05-10T18:20:25.000Z</time>
      </trkpt>
      <trkpt lat="48.92501" lon="7.45185">
        <ele>256</ele>
        <time>2025-05-10T18:20:30.000Z</time>
      </trkpt>
      <trkpt lat="48.92494" lon="7.45181">
        <ele>256</ele>
        <time>2025-05-10T18:20:34.000Z</time>
      </trkpt>
      <trkpt lat="48.92489" lon="7.45174">
        <ele>257</ele>
        <time>2025-05-10T18:20:36.000Z</time>
      </trkpt>
      <trkpt lat="48.92487" lon="7.45168">
        <ele>257</ele>
        <time>2025-05-10T18:20:40.000Z</time>
      </trkpt>
      <trkpt lat="48.92485" lon="7.45158">
        <ele>258</ele>
        <time>2025-05-10T18:20:44.000Z</time>
      </trkpt>
      <trkpt lat="48.92484" lon="7.45135">
        <ele>260</ele>
        <time>2025-05-10T18:20:57.000Z</time>
      </trkpt>
      <trkpt lat="48.92479" lon="7.45131">
        <ele>261</ele>
        <time>2025-05-10T18:21:07.000Z</time>
      </trkpt>
      <trkpt lat="48.92465" lon="7.45109">
        <ele>264</ele>
        <time>2025-05-10T18:21:29.000Z</time>
      </trkpt>
      <trkpt lat="48.92461" lon="7.45102">
        <ele>265</ele>
        <time>2025-05-10T18:21:33.000Z</time>
      </trkpt>
      <trkpt lat="48.92458" lon="7.45098">
        <ele>265</ele>
        <time>2025-05-10T18:21:38.000Z</time>
      </trkpt>
      <trkpt lat="48.92457" lon="7.45091">
        <ele>266</ele>
        <time>2025-05-10T18:21:44.000Z</time>
      </trkpt>
      <trkpt lat="48.92449" lon="7.45078">
        <ele>267</ele>
        <time>2025-05-10T18:21:56.000Z</time>
      </trkpt>
      <trkpt lat="48.92434" lon="7.45029">
        <ele>271</ele>
        <time>2025-05-10T18:22:35.000Z</time>
      </trkpt>
      <trkpt lat="48.9243" lon="7.45022">
        <ele>273</ele>
        <time>2025-05-10T18:22:43.000Z</time>
      </trkpt>
      <trkpt lat="48.92426" lon="7.45018">
        <ele>273</ele>
        <time>2025-05-10T18:22:47.000Z</time>
      </trkpt>
      <trkpt lat="48.92424" lon="7.4501">
        <ele>273</ele>
        <time>2025-05-10T18:22:51.000Z</time>
      </trkpt>
      <trkpt lat="48.9242" lon="7.45007">
        <ele>273</ele>
        <time>2025-05-10T18:22:55.000Z</time>
      </trkpt>
      <trkpt lat="48.92417" lon="7.44998">
        <ele>274</ele>
        <time>2025-05-10T18:23:01.000Z</time>
      </trkpt>
      <trkpt lat="48.92412" lon="7.44972">
        <ele>275</ele>
        <time>2025-05-10T18:23:18.000Z</time>
      </trkpt>
      <trkpt lat="48.92409" lon="7.44966">
        <ele>276</ele>
        <time>2025-05-10T18:23:22.000Z</time>
      </trkpt>
      <trkpt lat="48.92406" lon="7.44958">
        <ele>276</ele>
        <time>2025-05-10T18:23:31.000Z</time>
      </trkpt>
      <trkpt lat="48.92404" lon="7.44948">
        <ele>277</ele>
        <time>2025-05-10T18:23:38.000Z</time>
      </trkpt>
      <trkpt lat="48.92398" lon="7.44939">
        <ele>278</ele>
        <time>2025-05-10T18:23:43.000Z</time>
      </trkpt>
      <trkpt lat="48.92395" lon="7.44926">
        <ele>278</ele>
        <time>2025-05-10T18:23:48.000Z</time>
      </trkpt>
      <trkpt lat="48.92392" lon="7.44915">
        <ele>278</ele>
        <time>2025-05-10T18:23:53.000Z</time>
      </trkpt>
      <trkpt lat="48.92388" lon="7.449">
        <ele>280</ele>
        <time>2025-05-10T18:24:08.000Z</time>
      </trkpt>
      <trkpt lat="48.92378" lon="7.44881">
        <ele>280</ele>
        <time>2025-05-10T18:24:17.000Z</time>
      </trkpt>
      <trkpt lat="48.92381" lon="7.44871">
        <ele>280</ele>
        <time>2025-05-10T18:24:23.000Z</time>
      </trkpt>
      <trkpt lat="48.92379" lon="7.44859">
        <ele>280</ele>
        <time>2025-05-10T18:24:27.000Z</time>
      </trkpt>
      <trkpt lat="48.92371" lon="7.44855">
        <ele>281</ele>
        <time>2025-05-10T18:24:37.000Z</time>
      </trkpt>
      <trkpt lat="48.92363" lon="7.44836">
        <ele>282</ele>
        <time>2025-05-10T18:24:49.000Z</time>
      </trkpt>
      <trkpt lat="48.92358" lon="7.44829">
        <ele>283</ele>
        <time>2025-05-10T18:24:56.000Z</time>
      </trkpt>
      <trkpt lat="48.92344" lon="7.44816">
        <ele>283</ele>
        <time>2025-05-10T18:25:11.000Z</time>
      </trkpt>
      <trkpt lat="48.92343" lon="7.44805">
        <ele>283</ele>
        <time>2025-05-10T18:25:15.000Z</time>
      </trkpt>
      <trkpt lat="48.92345" lon="7.44794">
        <ele>283</ele>
        <time>2025-05-10T18:25:20.000Z</time>
      </trkpt>
      <trkpt lat="48.9234" lon="7.44789">
        <ele>283</ele>
        <time>2025-05-10T18:25:37.000Z</time>
      </trkpt>
      <trkpt lat="48.92336" lon="7.44783">
        <ele>283</ele>
        <time>2025-05-10T18:25:42.000Z</time>
      </trkpt>
      <trkpt lat="48.92333" lon="7.44778">
        <ele>283</ele>
        <time>2025-05-10T18:25:45.000Z</time>
      </trkpt>
      <trkpt lat="48.92331" lon="7.44769">
        <ele>283</ele>
        <time>2025-05-10T18:25:54.000Z</time>
      </trkpt>
      <trkpt lat="48.92327" lon="7.4476">
        <ele>282</ele>
        <time>2025-05-10T18:25:56.000Z</time>
      </trkpt>
      <trkpt lat="48.92325" lon="7.44756">
        <ele>282</ele>
        <time>2025-05-10T18:25:58.000Z</time>
      </trkpt>
      <trkpt lat="48.92321" lon="7.44753">
        <ele>283</ele>
        <time>2025-05-10T18:26:15.000Z</time>
      </trkpt>
      <trkpt lat="48.92319" lon="7.44765">
        <ele>285</ele>
        <time>2025-05-10T18:26:32.000Z</time>
      </trkpt>
      <trkpt lat="48.92315" lon="7.44776">
        <ele>285</ele>
        <time>2025-05-10T18:26:38.000Z</time>
      </trkpt>
      <trkpt lat="48.92315" lon="7.44784">
        <ele>285</ele>
        <time>2025-05-10T18:26:44.000Z</time>
      </trkpt>
      <trkpt lat="48.92309" lon="7.44793">
        <ele>286</ele>
        <time>2025-05-10T18:26:50.000Z</time>
      </trkpt>
      <trkpt lat="48.92307" lon="7.44803">
        <ele>287</ele>
        <time>2025-05-10T18:26:56.000Z</time>
      </trkpt>
      <trkpt lat="48.92301" lon="7.44806">
        <ele>288</ele>
        <time>2025-05-10T18:27:00.000Z</time>
      </trkpt>
      <trkpt lat="48.92282" lon="7.44812">
        <ele>290</ele>
        <time>2025-05-10T18:27:17.000Z</time>
      </trkpt>
      <trkpt lat="48.92278" lon="7.44816">
        <ele>290</ele>
        <time>2025-05-10T18:27:24.000Z</time>
      </trkpt>
      <trkpt lat="48.92276" lon="7.44823">
        <ele>291</ele>
        <time>2025-05-10T18:27:27.000Z</time>
      </trkpt>
      <trkpt lat="48.92259" lon="7.44855">
        <ele>290</ele>
        <time>2025-05-10T18:27:54.000Z</time>
      </trkpt>
      <trkpt lat="48.92251" lon="7.44863">
        <ele>290</ele>
        <time>2025-05-10T18:28:01.000Z</time>
      </trkpt>
      <trkpt lat="48.9224" lon="7.44869">
        <ele>292</ele>
        <time>2025-05-10T18:28:10.000Z</time>
      </trkpt>
      <trkpt lat="48.92233" lon="7.44869">
        <ele>292</ele>
        <time>2025-05-10T18:28:19.000Z</time>
      </trkpt>
      <trkpt lat="48.92228" lon="7.44875">
        <ele>292</ele>
        <time>2025-05-10T18:28:24.000Z</time>
      </trkpt>
      <trkpt lat="48.92224" lon="7.44884">
        <ele>291</ele>
        <time>2025-05-10T18:28:28.000Z</time>
      </trkpt>
      <trkpt lat="48.92216" lon="7.44888">
        <ele>290</ele>
        <time>2025-05-10T18:28:33.000Z</time>
      </trkpt>
      <trkpt lat="48.92211" lon="7.44892">
        <ele>290</ele>
        <time>2025-05-10T18:28:39.000Z</time>
      </trkpt>
      <trkpt lat="48.92205" lon="7.44892">
        <ele>290</ele>
        <time>2025-05-10T18:28:46.000Z</time>
      </trkpt>
      <trkpt lat="48.9219" lon="7.44892">
        <ele>290</ele>
        <time>2025-05-10T18:28:58.000Z</time>
      </trkpt>
      <trkpt lat="48.92175" lon="7.44887">
        <ele>291</ele>
        <time>2025-05-10T18:29:16.000Z</time>
      </trkpt>
      <trkpt lat="48.92161" lon="7.44886">
        <ele>291</ele>
        <time>2025-05-10T18:29:26.000Z</time>
      </trkpt>
      <trkpt lat="48.92146" lon="7.44882">
        <ele>292</ele>
        <time>2025-05-10T18:29:37.000Z</time>
      </trkpt>
      <trkpt lat="48.92124" lon="7.44891">
        <ele>294</ele>
        <time>2025-05-10T18:29:57.000Z</time>
      </trkpt>
      <trkpt lat="48.92107" lon="7.44912">
        <ele>295</ele>
        <time>2025-05-10T18:30:11.000Z</time>
      </trkpt>
      <trkpt lat="48.92103" lon="7.44919">
        <ele>295</ele>
        <time>2025-05-10T18:30:16.000Z</time>
      </trkpt>
      <trkpt lat="48.92098" lon="7.44923">
        <ele>296</ele>
        <time>2025-05-10T18:30:20.000Z</time>
      </trkpt>
      <trkpt lat="48.92093" lon="7.44926">
        <ele>296</ele>
        <time>2025-05-10T18:30:24.000Z</time>
      </trkpt>
      <trkpt lat="48.92086" lon="7.44924">
        <ele>297</ele>
        <time>2025-05-10T18:30:37.000Z</time>
      </trkpt>
      <trkpt lat="48.92081" lon="7.44929">
        <ele>299</ele>
        <time>2025-05-10T18:30:53.000Z</time>
      </trkpt>
      <trkpt lat="48.92076" lon="7.44931">
        <ele>299</ele>
        <time>2025-05-10T18:30:56.000Z</time>
      </trkpt>
      <trkpt lat="48.92063" lon="7.44937">
        <ele>301</ele>
        <time>2025-05-10T18:31:14.000Z</time>
      </trkpt>
      <trkpt lat="48.92059" lon="7.4494">
        <ele>302</ele>
        <time>2025-05-10T18:31:19.000Z</time>
      </trkpt>
      <trkpt lat="48.92053" lon="7.44945">
        <ele>303</ele>
        <time>2025-05-10T18:31:26.000Z</time>
      </trkpt>
      <trkpt lat="48.92043" lon="7.44961">
        <ele>305</ele>
        <time>2025-05-10T18:31:38.000Z</time>
      </trkpt>
      <trkpt lat="48.92025" lon="7.44965">
        <ele>306</ele>
        <time>2025-05-10T18:31:46.000Z</time>
      </trkpt>
      <trkpt lat="48.92015" lon="7.44969">
        <ele>307</ele>
        <time>2025-05-10T18:31:55.000Z</time>
      </trkpt>
      <trkpt lat="48.91996" lon="7.44982">
        <ele>310</ele>
        <time>2025-05-10T18:32:20.000Z</time>
      </trkpt>
      <trkpt lat="48.91978" lon="7.45003">
        <ele>312</ele>
        <time>2025-05-10T18:32:38.000Z</time>
      </trkpt>
      <trkpt lat="48.91968" lon="7.45004">
        <ele>314</ele>
        <time>2025-05-10T18:32:49.000Z</time>
      </trkpt>
      <trkpt lat="48.91958" lon="7.45013">
        <ele>317</ele>
        <time>2025-05-10T18:33:08.000Z</time>
      </trkpt>
      <trkpt lat="48.9195" lon="7.45016">
        <ele>318</ele>
        <time>2025-05-10T18:33:13.000Z</time>
      </trkpt>
      <trkpt lat="48.91941" lon="7.45015">
        <ele>321</ele>
        <time>2025-05-10T18:33:24.000Z</time>
      </trkpt>
      <trkpt lat="48.9193" lon="7.45">
        <ele>323</ele>
        <time>2025-05-10T18:33:36.000Z</time>
      </trkpt>
      <trkpt lat="48.91922" lon="7.44986">
        <ele>326</ele>
        <time>2025-05-10T18:33:52.000Z</time>
      </trkpt>
      <trkpt lat="48.91919" lon="7.44974">
        <ele>328</ele>
        <time>2025-05-10T18:33:58.000Z</time>
      </trkpt>
      <trkpt lat="48.91912" lon="7.44978">
        <ele>329</ele>
        <time>2025-05-10T18:34:15.000Z</time>
      </trkpt>
      <trkpt lat="48.91915" lon="7.44963">
        <ele>329</ele>
        <time>2025-05-10T18:34:27.000Z</time>
      </trkpt>
      <trkpt lat="48.91917" lon="7.4494">
        <ele>331</ele>
        <time>2025-05-10T18:34:40.000Z</time>
      </trkpt>
      <trkpt lat="48.91921" lon="7.44924">
        <ele>331</ele>
        <time>2025-05-10T18:34:52.000Z</time>
      </trkpt>
      <trkpt lat="48.91922" lon="7.44918">
        <ele>332</ele>
        <time>2025-05-10T18:34:57.000Z</time>
      </trkpt>
      <trkpt lat="48.91919" lon="7.4491">
        <ele>332</ele>
        <time>2025-05-10T18:35:12.000Z</time>
      </trkpt>
      <trkpt lat="48.91924" lon="7.44876">
        <ele>333</ele>
        <time>2025-05-10T18:35:30.000Z</time>
      </trkpt>
      <trkpt lat="48.91922" lon="7.44846">
        <ele>337</ele>
        <time>2025-05-10T18:35:53.000Z</time>
      </trkpt>
      <trkpt lat="48.91924" lon="7.44831">
        <ele>338</ele>
        <time>2025-05-10T18:36:00.000Z</time>
      </trkpt>
      <trkpt lat="48.91923" lon="7.44816">
        <ele>338</ele>
        <time>2025-05-10T18:36:06.000Z</time>
      </trkpt>
      <trkpt lat="48.91921" lon="7.44808">
        <ele>339</ele>
        <time>2025-05-10T18:36:14.000Z</time>
      </trkpt>
      <trkpt lat="48.91921" lon="7.4479">
        <ele>342</ele>
        <time>2025-05-10T18:36:29.000Z</time>
      </trkpt>
      <trkpt lat="48.91928" lon="7.44776">
        <ele>344</ele>
        <time>2025-05-10T18:36:39.000Z</time>
      </trkpt>
      <trkpt lat="48.91922" lon="7.44763">
        <ele>345</ele>
        <time>2025-05-10T18:36:58.000Z</time>
      </trkpt>
      <trkpt lat="48.91931" lon="7.44743">
        <ele>344</ele>
        <time>2025-05-10T18:37:13.000Z</time>
      </trkpt>
      <trkpt lat="48.91935" lon="7.44738">
        <ele>343</ele>
        <time>2025-05-10T18:37:17.000Z</time>
      </trkpt>
      <trkpt lat="48.91933" lon="7.447">
        <ele>338</ele>
        <time>2025-05-10T18:37:46.000Z</time>
      </trkpt>
      <trkpt lat="48.91932" lon="7.44693">
        <ele>338</ele>
        <time>2025-05-10T18:37:51.000Z</time>
      </trkpt>
      <trkpt lat="48.91936" lon="7.44683">
        <ele>337</ele>
        <time>2025-05-10T18:37:58.000Z</time>
      </trkpt>
      <trkpt lat="48.91938" lon="7.44674">
        <ele>337</ele>
        <time>2025-05-10T18:38:02.000Z</time>
      </trkpt>
      <trkpt lat="48.91941" lon="7.44668">
        <ele>336</ele>
        <time>2025-05-10T18:38:06.000Z</time>
      </trkpt>
      <trkpt lat="48.91946" lon="7.44665">
        <ele>335</ele>
        <time>2025-05-10T18:38:10.000Z</time>
      </trkpt>
      <trkpt lat="48.91949" lon="7.44661">
        <ele>329</ele>
        <time>2025-05-10T18:38:40.000Z</time>
      </trkpt>
      <trkpt lat="48.91948" lon="7.4465">
        <ele>328</ele>
        <time>2025-05-10T18:38:45.000Z</time>
      </trkpt>
      <trkpt lat="48.91942" lon="7.44645">
        <ele>326</ele>
        <time>2025-05-10T18:38:49.000Z</time>
      </trkpt>
      <trkpt lat="48.91935" lon="7.44629">
        <ele>324</ele>
        <time>2025-05-10T18:39:00.000Z</time>
      </trkpt>
      <trkpt lat="48.91934" lon="7.44621">
        <ele>323</ele>
        <time>2025-05-10T18:39:02.000Z</time>
      </trkpt>
      <trkpt lat="48.9193" lon="7.44617">
        <ele>323</ele>
        <time>2025-05-10T18:39:06.000Z</time>
      </trkpt>
      <trkpt lat="48.91927" lon="7.44611">
        <ele>322</ele>
        <time>2025-05-10T18:39:10.000Z</time>
      </trkpt>
      <trkpt lat="48.91924" lon="7.44604">
        <ele>321</ele>
        <time>2025-05-10T18:39:16.000Z</time>
      </trkpt>
      <trkpt lat="48.91925" lon="7.44596">
        <ele>320</ele>
        <time>2025-05-10T18:39:22.000Z</time>
      </trkpt>
      <trkpt lat="48.91929" lon="7.44591">
        <ele>320</ele>
        <time>2025-05-10T18:39:26.000Z</time>
      </trkpt>
      <trkpt lat="48.91933" lon="7.44586">
        <ele>320</ele>
        <time>2025-05-10T18:39:29.000Z</time>
      </trkpt>
      <trkpt lat="48.91936" lon="7.4458">
        <ele>320</ele>
        <time>2025-05-10T18:39:35.000Z</time>
      </trkpt>
      <trkpt lat="48.91927" lon="7.44579">
        <ele>319</ele>
        <time>2025-05-10T18:39:41.000Z</time>
      </trkpt>
      <trkpt lat="48.91924" lon="7.44571">
        <ele>320</ele>
        <time>2025-05-10T18:39:44.000Z</time>
      </trkpt>
      <trkpt lat="48.91916" lon="7.44562">
        <ele>319</ele>
        <time>2025-05-10T18:39:54.000Z</time>
      </trkpt>
      <trkpt lat="48.91909" lon="7.4456">
        <ele>319</ele>
        <time>2025-05-10T18:40:00.000Z</time>
      </trkpt>
      <trkpt lat="48.91904" lon="7.44555">
        <ele>318</ele>
        <time>2025-05-10T18:40:03.000Z</time>
      </trkpt>
      <trkpt lat="48.91898" lon="7.4455">
        <ele>318</ele>
        <time>2025-05-10T18:40:11.000Z</time>
      </trkpt>
      <trkpt lat="48.91895" lon="7.44528">
        <ele>314</ele>
        <time>2025-05-10T18:40:25.000Z</time>
      </trkpt>
      <trkpt lat="48.91897" lon="7.4452">
        <ele>312</ele>
        <time>2025-05-10T18:40:32.000Z</time>
      </trkpt>
      <trkpt lat="48.91906" lon="7.44507">
        <ele>310</ele>
        <time>2025-05-10T18:40:42.000Z</time>
      </trkpt>
      <trkpt lat="48.91904" lon="7.44497">
        <ele>309</ele>
        <time>2025-05-10T18:40:48.000Z</time>
      </trkpt>
      <trkpt lat="48.91901" lon="7.44482">
        <ele>307</ele>
        <time>2025-05-10T18:40:55.000Z</time>
      </trkpt>
      <trkpt lat="48.919" lon="7.44468">
        <ele>306</ele>
        <time>2025-05-10T18:41:01.000Z</time>
      </trkpt>
      <trkpt lat="48.91899" lon="7.44467">
        <ele>305</ele>
        <time>2025-05-10T18:41:15.000Z</time>
      </trkpt>
      <trkpt lat="48.91894" lon="7.44468">
        <ele>305</ele>
        <time>2025-05-10T18:41:20.000Z</time>
      </trkpt>
      <trkpt lat="48.91889" lon="7.4447">
        <ele>306</ele>
        <time>2025-05-10T18:41:24.000Z</time>
      </trkpt>
      <trkpt lat="48.91884" lon="7.44471">
        <ele>305</ele>
        <time>2025-05-10T18:41:28.000Z</time>
      </trkpt>
      <trkpt lat="48.91872" lon="7.44475">
        <ele>306</ele>
        <time>2025-05-10T18:41:39.000Z</time>
      </trkpt>
      <trkpt lat="48.9187" lon="7.44464">
        <ele>307</ele>
        <time>2025-05-10T18:41:48.000Z</time>
      </trkpt>
      <trkpt lat="48.91875" lon="7.44463">
        <ele>306</ele>
        <time>2025-05-10T18:42:08.000Z</time>
      </trkpt>
      <trkpt lat="48.91852" lon="7.44486">
        <ele>306</ele>
        <time>2025-05-10T18:42:32.000Z</time>
      </trkpt>
      <trkpt lat="48.91834" lon="7.4449">
        <ele>305</ele>
        <time>2025-05-10T18:42:46.000Z</time>
      </trkpt>
      <trkpt lat="48.91825" lon="7.44496">
        <ele>305</ele>
        <time>2025-05-10T18:42:52.000Z</time>
      </trkpt>
      <trkpt lat="48.91819" lon="7.44496">
        <ele>305</ele>
        <time>2025-05-10T18:42:56.000Z</time>
      </trkpt>
      <trkpt lat="48.918" lon="7.4451">
        <ele>305</ele>
        <time>2025-05-10T18:43:28.000Z</time>
      </trkpt>
      <trkpt lat="48.91795" lon="7.44515">
        <ele>305</ele>
        <time>2025-05-10T18:43:31.000Z</time>
      </trkpt>
      <trkpt lat="48.91789" lon="7.44514">
        <ele>305</ele>
        <time>2025-05-10T18:43:35.000Z</time>
      </trkpt>
      <trkpt lat="48.91783" lon="7.4452">
        <ele>305</ele>
        <time>2025-05-10T18:43:41.000Z</time>
      </trkpt>
      <trkpt lat="48.91776" lon="7.44523">
        <ele>305</ele>
        <time>2025-05-10T18:43:49.000Z</time>
      </trkpt>
      <trkpt lat="48.91763" lon="7.44531">
        <ele>305</ele>
        <time>2025-05-10T18:44:00.000Z</time>
      </trkpt>
      <trkpt lat="48.91757" lon="7.4453">
        <ele>304</ele>
        <time>2025-05-10T18:44:04.000Z</time>
      </trkpt>
      <trkpt lat="48.91752" lon="7.44527">
        <ele>304</ele>
        <time>2025-05-10T18:44:09.000Z</time>
      </trkpt>
      <trkpt lat="48.91747" lon="7.4452">
        <ele>304</ele>
        <time>2025-05-10T18:44:14.000Z</time>
      </trkpt>
      <trkpt lat="48.91746" lon="7.44514">
        <ele>304</ele>
        <time>2025-05-10T18:44:17.000Z</time>
      </trkpt>
      <trkpt lat="48.91745" lon="7.4447">
        <ele>303</ele>
        <time>2025-05-10T18:44:38.000Z</time>
      </trkpt>
      <trkpt lat="48.91741" lon="7.44455">
        <ele>303</ele>
        <time>2025-05-10T18:44:46.000Z</time>
      </trkpt>
      <trkpt lat="48.91735" lon="7.4445">
        <ele>303</ele>
        <time>2025-05-10T18:44:51.000Z</time>
      </trkpt>
      <trkpt lat="48.91728" lon="7.44448">
        <ele>303</ele>
        <time>2025-05-10T18:45:01.000Z</time>
      </trkpt>
      <trkpt lat="48.91715" lon="7.44413">
        <ele>303</ele>
        <time>2025-05-10T18:45:21.000Z</time>
      </trkpt>
      <trkpt lat="48.91717" lon="7.4443">
        <ele>302</ele>
        <time>2025-05-10T18:45:42.000Z</time>
      </trkpt>
      <trkpt lat="48.91724" lon="7.44434">
        <ele>302</ele>
        <time>2025-05-10T18:45:49.000Z</time>
      </trkpt>
      <trkpt lat="48.91731" lon="7.44443">
        <ele>302</ele>
        <time>2025-05-10T18:45:58.000Z</time>
      </trkpt>
      <trkpt lat="48.91739" lon="7.44445">
        <ele>302</ele>
        <time>2025-05-10T18:46:05.000Z</time>
      </trkpt>
      <trkpt lat="48.91742" lon="7.44442">
        <ele>301</ele>
        <time>2025-05-10T18:46:29.000Z</time>
      </trkpt>
      <trkpt lat="48.9174" lon="7.44436">
        <ele>301</ele>
        <time>2025-05-10T18:46:32.000Z</time>
      </trkpt>
      <trkpt lat="48.9174" lon="7.44427">
        <ele>302</ele>
        <time>2025-05-10T18:46:35.000Z</time>
      </trkpt>
      <trkpt lat="48.91738" lon="7.44415">
        <ele>300</ele>
        <time>2025-05-10T18:46:43.000Z</time>
      </trkpt>
      <trkpt lat="48.91736" lon="7.44409">
        <ele>300</ele>
        <time>2025-05-10T18:46:50.000Z</time>
      </trkpt>
      <trkpt lat="48.91733" lon="7.44396">
        <ele>300</ele>
        <time>2025-05-10T18:46:59.000Z</time>
      </trkpt>
      <trkpt lat="48.9173" lon="7.44388">
        <ele>299</ele>
        <time>2025-05-10T18:47:03.000Z</time>
      </trkpt>
      <trkpt lat="48.91738" lon="7.44406">
        <ele>299</ele>
        <time>2025-05-10T18:47:13.000Z</time>
      </trkpt>
      <trkpt lat="48.91744" lon="7.44423">
        <ele>300</ele>
        <time>2025-05-10T18:47:20.000Z</time>
      </trkpt>
      <trkpt lat="48.91746" lon="7.44437">
        <ele>301</ele>
        <time>2025-05-10T18:47:31.000Z</time>
      </trkpt>
      <trkpt lat="48.91749" lon="7.44447">
        <ele>301</ele>
        <time>2025-05-10T18:47:37.000Z</time>
      </trkpt>
      <trkpt lat="48.91751" lon="7.44458">
        <ele>302</ele>
        <time>2025-05-10T18:47:41.000Z</time>
      </trkpt>
      <trkpt lat="48.9175" lon="7.44467">
        <ele>302</ele>
        <time>2025-05-10T18:47:47.000Z</time>
      </trkpt>
      <trkpt lat="48.91754" lon="7.44478">
        <ele>302</ele>
        <time>2025-05-10T18:47:52.000Z</time>
      </trkpt>
      <trkpt lat="48.91754" lon="7.4449">
        <ele>302</ele>
        <time>2025-05-10T18:47:58.000Z</time>
      </trkpt>
      <trkpt lat="48.91753" lon="7.44507">
        <ele>302</ele>
        <time>2025-05-10T18:48:07.000Z</time>
      </trkpt>
      <trkpt lat="48.91754" lon="7.44519">
        <ele>302</ele>
        <time>2025-05-10T18:48:14.000Z</time>
      </trkpt>
      <trkpt lat="48.9176" lon="7.44523">
        <ele>302</ele>
        <time>2025-05-10T18:48:20.000Z</time>
      </trkpt>
      <trkpt lat="48.91767" lon="7.44521">
        <ele>303</ele>
        <time>2025-05-10T18:48:26.000Z</time>
      </trkpt>
      <trkpt lat="48.91776" lon="7.44516">
        <ele>303</ele>
        <time>2025-05-10T18:48:33.000Z</time>
      </trkpt>
      <trkpt lat="48.91779" lon="7.44508">
        <ele>303</ele>
        <time>2025-05-10T18:48:37.000Z</time>
      </trkpt>
      <trkpt lat="48.91806" lon="7.44487">
        <ele>302</ele>
        <time>2025-05-10T18:49:00.000Z</time>
      </trkpt>
      <trkpt lat="48.9182" lon="7.44485">
        <ele>302</ele>
        <time>2025-05-10T18:49:14.000Z</time>
      </trkpt>
      <trkpt lat="48.91824" lon="7.44482">
        <ele>302</ele>
        <time>2025-05-10T18:50:05.000Z</time>
      </trkpt>
      <trkpt lat="48.91829" lon="7.44486">
        <ele>302</ele>
        <time>2025-05-10T18:50:20.000Z</time>
      </trkpt>
      <trkpt lat="48.91833" lon="7.44495">
        <ele>302</ele>
        <time>2025-05-10T18:50:24.000Z</time>
      </trkpt>
      <trkpt lat="48.91825" lon="7.44498">
        <ele>302</ele>
        <time>2025-05-10T18:50:32.000Z</time>
      </trkpt>
      <trkpt lat="48.9182" lon="7.44492">
        <ele>302</ele>
        <time>2025-05-10T18:50:35.000Z</time>
      </trkpt>
    </trkseg>
  </trk>
</gpx>